<?xml version='1.0' encoding='UTF-8'?><gpx version="1.1" creator="JPX - https://github.com/jenetics/jpx" xmlns="http://www.topografix.com/GPX/1/1"><trk><trkseg><trkpt lat="45.5820023" lon="11.9384992"><ele>23.999999999999996</ele><time>2026-05-02T07:38:37.944Z</time></trkpt><trkpt lat="45.5819582" lon="11.9384252"><ele>24.0</ele><time>2026-05-02T07:38:49.952Z</time></trkpt><trkpt lat="45.5818956" lon="11.9384145"><ele>24.0</ele><time>2026-05-02T07:38:53.948Z</time></trkpt><trkpt lat="45.5818414" lon="11.938368"><ele>24.0</ele><time>2026-05-02T07:38:57.038Z</time></trkpt><trkpt lat="45.5817873" lon="11.9382967"><ele>24.0</ele><time>2026-05-02T07:44:48.008Z</time></trkpt><trkpt lat="45.5817481" lon="11.9381919"><ele>23.999999999999996</ele><time>2026-05-02T07:44:52.005Z</time></trkpt><trkpt lat="45.5817172" lon="11.93809"><ele>24.0</ele><time>2026-05-02T07:44:54.994Z</time></trkpt><trkpt lat="45.5816719" lon="11.9379885"><ele>23.857142857142854</ele><time>2026-05-02T07:44:57.988Z</time></trkpt><trkpt lat="45.5816359" lon="11.9378989"><ele>23.714285714285715</ele><time>2026-05-02T07:45:01.001Z</time></trkpt><trkpt lat="45.5816003" lon="11.9378019"><ele>23.57142857142857</ele><time>2026-05-02T07:45:03.992Z</time></trkpt><trkpt lat="45.5815629" lon="11.9377179"><ele>23.428571428571427</ele><time>2026-05-02T07:45:06.991Z</time></trkpt><trkpt lat="45.5815243" lon="11.9376357"><ele>23.285714285714285</ele><time>2026-05-02T07:45:09.989Z</time></trkpt><trkpt lat="45.581481" lon="11.9375401"><ele>23.142857142857142</ele><time>2026-05-02T07:45:12.989Z</time></trkpt><trkpt lat="45.5814458" lon="11.9374575"><ele>23.0</ele><time>2026-05-02T07:45:15.001Z</time></trkpt><trkpt lat="45.5814099" lon="11.9373805"><ele>22.714285714285715</ele><time>2026-05-02T07:45:16.999Z</time></trkpt><trkpt lat="45.5813758" lon="11.9372902"><ele>22.428571428571427</ele><time>2026-05-02T07:45:19.006Z</time></trkpt><trkpt lat="45.5813383" lon="11.9372016"><ele>22.142857142857142</ele><time>2026-05-02T07:45:20.97Z</time></trkpt><trkpt lat="45.5812994" lon="11.9371208"><ele>21.857142857142858</ele><time>2026-05-02T07:45:23.01Z</time></trkpt><trkpt lat="45.5812625" lon="11.9370436"><ele>21.57142857142857</ele><time>2026-05-02T07:45:25.005Z</time></trkpt><trkpt lat="45.581228" lon="11.9369649"><ele>21.285714285714285</ele><time>2026-05-02T07:45:27.005Z</time></trkpt><trkpt lat="45.5811883" lon="11.9368824"><ele>21.0</ele><time>2026-05-02T07:45:28.988Z</time></trkpt><trkpt lat="45.5811452" lon="11.9367995"><ele>21.285714285714285</ele><time>2026-05-02T07:45:31.004Z</time></trkpt><trkpt lat="45.5811085" lon="11.9367125"><ele>21.57142857142857</ele><time>2026-05-02T07:45:32.997Z</time></trkpt><trkpt lat="45.5810686" lon="11.936623"><ele>21.857142857142858</ele><time>2026-05-02T07:45:34.964Z</time></trkpt><trkpt lat="45.5810223" lon="11.9365408"><ele>22.142857142857142</ele><time>2026-05-02T07:45:37.003Z</time></trkpt><trkpt lat="45.5809767" lon="11.9364771"><ele>22.428571428571427</ele><time>2026-05-02T07:45:38.993Z</time></trkpt><trkpt lat="45.580915" lon="11.9364064"><ele>22.714285714285715</ele><time>2026-05-02T07:45:42.048Z</time></trkpt><trkpt lat="45.580868" lon="11.9363398"><ele>23.0</ele><time>2026-05-02T07:45:46.984Z</time></trkpt><trkpt lat="45.580822" lon="11.9362663"><ele>23.0</ele><time>2026-05-02T07:45:50.988Z</time></trkpt><trkpt lat="45.5807698" lon="11.9361872"><ele>23.0</ele><time>2026-05-02T07:45:54.99Z</time></trkpt><trkpt lat="45.5807161" lon="11.9361193"><ele>23.0</ele><time>2026-05-02T07:45:58.991Z</time></trkpt><trkpt lat="45.5806571" lon="11.93603"><ele>23.0</ele><time>2026-05-02T07:46:02.987Z</time></trkpt><trkpt lat="45.5806124" lon="11.9359625"><ele>23.0</ele><time>2026-05-02T07:46:05.983Z</time></trkpt><trkpt lat="45.580563" lon="11.9358764"><ele>23.0</ele><time>2026-05-02T07:46:10.057Z</time></trkpt><trkpt lat="45.5805358" lon="11.9357911"><ele>23.0</ele><time>2026-05-02T07:46:14.001Z</time></trkpt><trkpt lat="45.5804949" lon="11.9357024"><ele>22.833333333333336</ele><time>2026-05-02T07:46:18.013Z</time></trkpt><trkpt lat="45.5804442" lon="11.9356107"><ele>22.666666666666668</ele><time>2026-05-02T07:46:20.988Z</time></trkpt><trkpt lat="45.5804104" lon="11.9355331"><ele>22.5</ele><time>2026-05-02T07:46:23.054Z</time></trkpt><trkpt lat="45.5803673" lon="11.9354582"><ele>22.333333333333332</ele><time>2026-05-02T07:46:24.997Z</time></trkpt><trkpt lat="45.5803126" lon="11.9353583"><ele>22.166666666666664</ele><time>2026-05-02T07:46:27.002Z</time></trkpt><trkpt lat="45.5802559" lon="11.9352658"><ele>22.0</ele><time>2026-05-02T07:46:29.006Z</time></trkpt><trkpt lat="45.5801984" lon="11.9351818"><ele>22.0</ele><time>2026-05-02T07:46:30.997Z</time></trkpt><trkpt lat="45.5801395" lon="11.9351066"><ele>22.0</ele><time>2026-05-02T07:46:32.982Z</time></trkpt><trkpt lat="45.5800895" lon="11.9350304"><ele>22.0</ele><time>2026-05-02T07:46:34.972Z</time></trkpt><trkpt lat="45.5800368" lon="11.9349493"><ele>22.0</ele><time>2026-05-02T07:46:37.002Z</time></trkpt><trkpt lat="45.5799884" lon="11.934864"><ele>22.0</ele><time>2026-05-02T07:46:39.016Z</time></trkpt><trkpt lat="45.5799239" lon="11.9347865"><ele>22.0</ele><time>2026-05-02T07:46:41Z</time></trkpt><trkpt lat="45.5798558" lon="11.9347031"><ele>22.0</ele><time>2026-05-02T07:46:43.046Z</time></trkpt><trkpt lat="45.5797941" lon="11.9346181"><ele>22.0</ele><time>2026-05-02T07:46:44.991Z</time></trkpt><trkpt lat="45.5797405" lon="11.9345422"><ele>22.0</ele><time>2026-05-02T07:46:46.988Z</time></trkpt><trkpt lat="45.5796725" lon="11.9344661"><ele>22.0</ele><time>2026-05-02T07:46:48.985Z</time></trkpt><trkpt lat="45.5796052" lon="11.9343785"><ele>22.0</ele><time>2026-05-02T07:46:50.991Z</time></trkpt><trkpt lat="45.5795462" lon="11.9342864"><ele>22.0</ele><time>2026-05-02T07:46:53.05Z</time></trkpt><trkpt lat="45.5794805" lon="11.9342012"><ele>21.714285714285715</ele><time>2026-05-02T07:46:54.99Z</time></trkpt><trkpt lat="45.5794188" lon="11.9341266"><ele>21.428571428571427</ele><time>2026-05-02T07:46:56.988Z</time></trkpt><trkpt lat="45.5793685" lon="11.9340622"><ele>21.142857142857142</ele><time>2026-05-02T07:46:58.975Z</time></trkpt><trkpt lat="45.5793108" lon="11.9339963"><ele>20.857142857142858</ele><time>2026-05-02T07:47:00.992Z</time></trkpt><trkpt lat="45.5792436" lon="11.9339285"><ele>20.571428571428573</ele><time>2026-05-02T07:47:02.97Z</time></trkpt><trkpt lat="45.5791979" lon="11.933859"><ele>20.285714285714285</ele><time>2026-05-02T07:47:04.978Z</time></trkpt><trkpt lat="45.5791556" lon="11.9337911"><ele>20.0</ele><time>2026-05-02T07:47:08.987Z</time></trkpt><trkpt lat="45.5790847" lon="11.9337396"><ele>20.0</ele><time>2026-05-02T07:50:50.986Z</time></trkpt><trkpt lat="45.5790223" lon="11.9336761"><ele>20.0</ele><time>2026-05-02T07:50:53.98Z</time></trkpt><trkpt lat="45.5789579" lon="11.9335943"><ele>20.0</ele><time>2026-05-02T07:50:56.978Z</time></trkpt><trkpt lat="45.5789098" lon="11.9335349"><ele>20.0</ele><time>2026-05-02T07:50:58.98Z</time></trkpt><trkpt lat="45.5788486" lon="11.9334759"><ele>20.0</ele><time>2026-05-02T07:51:00.976Z</time></trkpt><trkpt lat="45.5787942" lon="11.9334288"><ele>20.0</ele><time>2026-05-02T07:51:02.976Z</time></trkpt><trkpt lat="45.5787244" lon="11.9333594"><ele>20.0</ele><time>2026-05-02T07:51:05.98Z</time></trkpt><trkpt lat="45.5786721" lon="11.9333039"><ele>20.333333333333336</ele><time>2026-05-02T07:51:07.989Z</time></trkpt><trkpt lat="45.5786177" lon="11.9332445"><ele>20.666666666666668</ele><time>2026-05-02T07:51:09.99Z</time></trkpt><trkpt lat="45.5785475" lon="11.9331705"><ele>21.0</ele><time>2026-05-02T07:51:11.987Z</time></trkpt><trkpt lat="45.5784641" lon="11.9331056"><ele>21.333333333333332</ele><time>2026-05-02T07:51:13.978Z</time></trkpt><trkpt lat="45.5783844" lon="11.9330306"><ele>21.666666666666664</ele><time>2026-05-02T07:51:15.978Z</time></trkpt><trkpt lat="45.5783268" lon="11.9329723"><ele>22.0</ele><time>2026-05-02T07:51:17.985Z</time></trkpt><trkpt lat="45.5782653" lon="11.9329048"><ele>22.0</ele><time>2026-05-02T07:51:19.985Z</time></trkpt><trkpt lat="45.5781921" lon="11.9328415"><ele>22.0</ele><time>2026-05-02T07:51:21.98Z</time></trkpt><trkpt lat="45.5781113" lon="11.9327701"><ele>22.0</ele><time>2026-05-02T07:51:23.955Z</time></trkpt><trkpt lat="45.5780252" lon="11.9327163"><ele>22.0</ele><time>2026-05-02T07:51:25.982Z</time></trkpt><trkpt lat="45.5779439" lon="11.9326528"><ele>22.0</ele><time>2026-05-02T07:51:27.99Z</time></trkpt><trkpt lat="45.5778659" lon="11.9325824"><ele>21.833333333333332</ele><time>2026-05-02T07:51:29.98Z</time></trkpt><trkpt lat="45.5777883" lon="11.9325223"><ele>21.666666666666664</ele><time>2026-05-02T07:51:31.987Z</time></trkpt><trkpt lat="45.5777109" lon="11.932464"><ele>21.5</ele><time>2026-05-02T07:51:33.99Z</time></trkpt><trkpt lat="45.5776431" lon="11.9324116"><ele>21.333333333333332</ele><time>2026-05-02T07:51:35.97Z</time></trkpt><trkpt lat="45.5775939" lon="11.9323358"><ele>21.166666666666668</ele><time>2026-05-02T07:51:37.984Z</time></trkpt><trkpt lat="45.5775565" lon="11.932243"><ele>21.0</ele><time>2026-05-02T07:51:39.988Z</time></trkpt><trkpt lat="45.5774891" lon="11.9321516"><ele>21.0</ele><time>2026-05-02T07:51:42.978Z</time></trkpt><trkpt lat="45.5774086" lon="11.9321455"><ele>21.0</ele><time>2026-05-02T07:51:45.982Z</time></trkpt><trkpt lat="45.5773403" lon="11.9321241"><ele>21.0</ele><time>2026-05-02T07:51:47.977Z</time></trkpt><trkpt lat="45.5772731" lon="11.9320964"><ele>21.0</ele><time>2026-05-02T07:51:49.988Z</time></trkpt><trkpt lat="45.5772061" lon="11.932077"><ele>21.0</ele><time>2026-05-02T07:51:51.988Z</time></trkpt><trkpt lat="45.5771365" lon="11.9320373"><ele>21.0</ele><time>2026-05-02T07:51:53.986Z</time></trkpt><trkpt lat="45.5770659" lon="11.9320056"><ele>21.0</ele><time>2026-05-02T07:51:55.972Z</time></trkpt><trkpt lat="45.5769966" lon="11.9319664"><ele>21.200000000000003</ele><time>2026-05-02T07:51:57.978Z</time></trkpt><trkpt lat="45.5769129" lon="11.9319212"><ele>21.400000000000002</ele><time>2026-05-02T07:51:59.98Z</time></trkpt><trkpt lat="45.5768185" lon="11.9318865"><ele>21.6</ele><time>2026-05-02T07:52:01.979Z</time></trkpt><trkpt lat="45.5767184" lon="11.9318379"><ele>21.8</ele><time>2026-05-02T07:52:03.982Z</time></trkpt><trkpt lat="45.57661" lon="11.9317898"><ele>22.0</ele><time>2026-05-02T07:52:05.978Z</time></trkpt><trkpt lat="45.576508" lon="11.9317495"><ele>22.0</ele><time>2026-05-02T07:52:07.975Z</time></trkpt><trkpt lat="45.5764138" lon="11.9317072"><ele>22.0</ele><time>2026-05-02T07:52:09.98Z</time></trkpt><trkpt lat="45.5763414" lon="11.9316796"><ele>22.0</ele><time>2026-05-02T07:52:11.989Z</time></trkpt><trkpt lat="45.5762496" lon="11.9316496"><ele>22.0</ele><time>2026-05-02T07:52:13.996Z</time></trkpt><trkpt lat="45.576162" lon="11.9316113"><ele>22.0</ele><time>2026-05-02T07:52:15.983Z</time></trkpt><trkpt lat="45.5760834" lon="11.9315861"><ele>22.0</ele><time>2026-05-02T07:52:17.986Z</time></trkpt><trkpt lat="45.5760134" lon="11.9315551"><ele>22.0</ele><time>2026-05-02T07:52:19.973Z</time></trkpt><trkpt lat="45.5759475" lon="11.9315179"><ele>22.0</ele><time>2026-05-02T07:52:21.963Z</time></trkpt><trkpt lat="45.5758828" lon="11.9314886"><ele>22.0</ele><time>2026-05-02T07:52:23.986Z</time></trkpt><trkpt lat="45.5758151" lon="11.931452"><ele>22.0</ele><time>2026-05-02T07:52:25.984Z</time></trkpt><trkpt lat="45.575751" lon="11.9314175"><ele>22.0</ele><time>2026-05-02T07:52:27.955Z</time></trkpt><trkpt lat="45.5756787" lon="11.931387"><ele>22.0</ele><time>2026-05-02T07:52:29.992Z</time></trkpt><trkpt lat="45.5756121" lon="11.9313538"><ele>22.0</ele><time>2026-05-02T07:52:31.976Z</time></trkpt><trkpt lat="45.575534" lon="11.9313381"><ele>22.0</ele><time>2026-05-02T07:52:33.988Z</time></trkpt><trkpt lat="45.5754639" lon="11.9313168"><ele>22.0</ele><time>2026-05-02T07:52:35.997Z</time></trkpt><trkpt lat="45.5753929" lon="11.9312888"><ele>22.0</ele><time>2026-05-02T07:52:37.994Z</time></trkpt><trkpt lat="45.575327" lon="11.9312547"><ele>22.0</ele><time>2026-05-02T07:52:39.977Z</time></trkpt><trkpt lat="45.5752581" lon="11.9312221"><ele>22.0</ele><time>2026-05-02T07:52:41.98Z</time></trkpt><trkpt lat="45.5751908" lon="11.9311983"><ele>22.0</ele><time>2026-05-02T07:52:43.979Z</time></trkpt><trkpt lat="45.5751206" lon="11.9311647"><ele>22.0</ele><time>2026-05-02T07:52:45.968Z</time></trkpt><trkpt lat="45.575032" lon="11.9311309"><ele>22.0</ele><time>2026-05-02T07:52:47.984Z</time></trkpt><trkpt lat="45.5749388" lon="11.9310856"><ele>22.0</ele><time>2026-05-02T07:52:49.977Z</time></trkpt><trkpt lat="45.5748513" lon="11.9310535"><ele>22.0</ele><time>2026-05-02T07:52:51.981Z</time></trkpt><trkpt lat="45.5747682" lon="11.9310024"><ele>22.0</ele><time>2026-05-02T07:52:53.99Z</time></trkpt><trkpt lat="45.5746855" lon="11.9309631"><ele>22.0</ele><time>2026-05-02T07:52:55.982Z</time></trkpt><trkpt lat="45.5746054" lon="11.9309193"><ele>22.166666666666664</ele><time>2026-05-02T07:52:57.979Z</time></trkpt><trkpt lat="45.5745186" lon="11.9308824"><ele>22.333333333333332</ele><time>2026-05-02T07:52:59.98Z</time></trkpt><trkpt lat="45.574437" lon="11.9308446"><ele>22.5</ele><time>2026-05-02T07:53:01.982Z</time></trkpt><trkpt lat="45.5743547" lon="11.9308161"><ele>22.666666666666668</ele><time>2026-05-02T07:53:03.977Z</time></trkpt><trkpt lat="45.5742769" lon="11.9307853"><ele>22.833333333333336</ele><time>2026-05-02T07:53:05.993Z</time></trkpt><trkpt lat="45.5742033" lon="11.9307524"><ele>23.0</ele><time>2026-05-02T07:53:07.963Z</time></trkpt><trkpt lat="45.5741276" lon="11.9307218"><ele>23.0</ele><time>2026-05-02T07:53:09.989Z</time></trkpt><trkpt lat="45.5740615" lon="11.9306933"><ele>23.0</ele><time>2026-05-02T07:53:11.965Z</time></trkpt><trkpt lat="45.5740008" lon="11.9306654"><ele>23.0</ele><time>2026-05-02T07:53:13.978Z</time></trkpt><trkpt lat="45.5739325" lon="11.9306413"><ele>23.0</ele><time>2026-05-02T07:53:17.976Z</time></trkpt><trkpt lat="45.5738525" lon="11.9306015"><ele>23.0</ele><time>2026-05-02T07:53:21.978Z</time></trkpt><trkpt lat="45.5737879" lon="11.9305932"><ele>23.0</ele><time>2026-05-02T07:53:23.978Z</time></trkpt><trkpt lat="45.5737051" lon="11.9305731"><ele>23.0</ele><time>2026-05-02T07:53:26.983Z</time></trkpt><trkpt lat="45.5736239" lon="11.9305302"><ele>23.166666666666668</ele><time>2026-05-02T07:53:29.987Z</time></trkpt><trkpt lat="45.5735485" lon="11.9304684"><ele>23.333333333333336</ele><time>2026-05-02T07:53:32.98Z</time></trkpt><trkpt lat="45.5735094" lon="11.9303977"><ele>23.5</ele><time>2026-05-02T07:53:34.975Z</time></trkpt><trkpt lat="45.5734366" lon="11.930347"><ele>23.666666666666668</ele><time>2026-05-02T07:53:37.975Z</time></trkpt><trkpt lat="45.5733666" lon="11.9303678"><ele>23.833333333333332</ele><time>2026-05-02T07:54:09.971Z</time></trkpt><trkpt lat="45.5733559" lon="11.9304715"><ele>24.0</ele><time>2026-05-02T07:54:13.985Z</time></trkpt><trkpt lat="45.5733763" lon="11.9305872"><ele>24.0</ele><time>2026-05-02T07:54:16.981Z</time></trkpt><trkpt lat="45.5733571" lon="11.9306842"><ele>24.0</ele><time>2026-05-02T07:54:18.996Z</time></trkpt><trkpt lat="45.5733362" lon="11.9307936"><ele>24.0</ele><time>2026-05-02T07:54:20.969Z</time></trkpt><trkpt lat="45.5732906" lon="11.9309085"><ele>24.0</ele><time>2026-05-02T07:54:22.976Z</time></trkpt><trkpt lat="45.5732429" lon="11.9309847"><ele>24.0</ele><time>2026-05-02T07:54:25.975Z</time></trkpt><trkpt lat="45.5731755" lon="11.9310193"><ele>24.0</ele><time>2026-05-02T07:54:31.984Z</time></trkpt><trkpt lat="45.5731275" lon="11.9310893"><ele>24.0</ele><time>2026-05-02T07:54:34.976Z</time></trkpt><trkpt lat="45.5730685" lon="11.931196"><ele>24.0</ele><time>2026-05-02T07:54:37.982Z</time></trkpt><trkpt lat="45.5730281" lon="11.9312693"><ele>24.0</ele><time>2026-05-02T07:54:39.973Z</time></trkpt><trkpt lat="45.572982" lon="11.9313561"><ele>24.0</ele><time>2026-05-02T07:54:42.982Z</time></trkpt><trkpt lat="45.5729021" lon="11.9313937"><ele>24.0</ele><time>2026-05-02T07:54:46.969Z</time></trkpt><trkpt lat="45.572838" lon="11.9313866"><ele>24.0</ele><time>2026-05-02T07:54:49.978Z</time></trkpt><trkpt lat="45.5727936" lon="11.9313029"><ele>23.999999999999996</ele><time>2026-05-02T07:54:52.976Z</time></trkpt><trkpt lat="45.5727895" lon="11.9312076"><ele>24.0</ele><time>2026-05-02T07:54:55.971Z</time></trkpt><trkpt lat="45.5727055" lon="11.9312088"><ele>24.0</ele><time>2026-05-02T07:55:35.98Z</time></trkpt><trkpt lat="45.5726563" lon="11.9312736"><ele>24.0</ele><time>2026-05-02T07:55:37.972Z</time></trkpt><trkpt lat="45.5726274" lon="11.9313617"><ele>24.0</ele><time>2026-05-02T07:55:39.966Z</time></trkpt><trkpt lat="45.5725566" lon="11.9313702"><ele>23.999999999999996</ele><time>2026-05-02T07:55:41.957Z</time></trkpt><trkpt lat="45.5724737" lon="11.9313654"><ele>24.0</ele><time>2026-05-02T07:55:43.967Z</time></trkpt><trkpt lat="45.5723868" lon="11.9313437"><ele>24.0</ele><time>2026-05-02T07:55:45.952Z</time></trkpt><trkpt lat="45.5722956" lon="11.9313133"><ele>24.0</ele><time>2026-05-02T07:55:47.955Z</time></trkpt><trkpt lat="45.5722184" lon="11.9312822"><ele>24.0</ele><time>2026-05-02T07:55:49.951Z</time></trkpt><trkpt lat="45.5721273" lon="11.9312745"><ele>24.0</ele><time>2026-05-02T07:55:51.943Z</time></trkpt><trkpt lat="45.5720437" lon="11.9312502"><ele>24.0</ele><time>2026-05-02T07:55:53.94Z</time></trkpt><trkpt lat="45.5719775" lon="11.9312217"><ele>24.0</ele><time>2026-05-02T07:55:55.969Z</time></trkpt><trkpt lat="45.5718975" lon="11.9311877"><ele>24.0</ele><time>2026-05-02T07:55:58.976Z</time></trkpt><trkpt lat="45.5718315" lon="11.9312602"><ele>24.0</ele><time>2026-05-02T07:56:01.971Z</time></trkpt><trkpt lat="45.57181" lon="11.9313899"><ele>24.0</ele><time>2026-05-02T07:56:04.98Z</time></trkpt><trkpt lat="45.571783" lon="11.9314893"><ele>24.0</ele><time>2026-05-02T07:56:06.988Z</time></trkpt><trkpt lat="45.571744" lon="11.9315858"><ele>24.0</ele><time>2026-05-02T07:56:08.979Z</time></trkpt><trkpt lat="45.571648" lon="11.9316012"><ele>24.0</ele><time>2026-05-02T07:56:11.998Z</time></trkpt><trkpt lat="45.5715614" lon="11.9315952"><ele>23.999999999999996</ele><time>2026-05-02T07:56:14.984Z</time></trkpt><trkpt lat="45.5714876" lon="11.9315935"><ele>24.0</ele><time>2026-05-02T07:56:17.978Z</time></trkpt><trkpt lat="45.5714275" lon="11.9316532"><ele>24.0</ele><time>2026-05-02T07:56:22.976Z</time></trkpt><trkpt lat="45.5714157" lon="11.9317484"><ele>24.0</ele><time>2026-05-02T07:56:26.976Z</time></trkpt><trkpt lat="45.5713994" lon="11.9318413"><ele>24.0</ele><time>2026-05-02T07:56:29.969Z</time></trkpt><trkpt lat="45.5713821" lon="11.9319278"><ele>23.999999999999996</ele><time>2026-05-02T07:56:31.981Z</time></trkpt><trkpt lat="45.571356" lon="11.9320482"><ele>24.0</ele><time>2026-05-02T07:56:34.981Z</time></trkpt><trkpt lat="45.5713269" lon="11.9321471"><ele>23.857142857142854</ele><time>2026-05-02T07:56:36.968Z</time></trkpt><trkpt lat="45.5713143" lon="11.932252"><ele>23.714285714285715</ele><time>2026-05-02T07:56:38.962Z</time></trkpt><trkpt lat="45.5712935" lon="11.9323652"><ele>23.57142857142857</ele><time>2026-05-02T07:56:41.971Z</time></trkpt><trkpt lat="45.5712536" lon="11.9324528"><ele>23.428571428571427</ele><time>2026-05-02T07:56:44.98Z</time></trkpt><trkpt lat="45.571211" lon="11.9325296"><ele>23.285714285714285</ele><time>2026-05-02T07:56:47.978Z</time></trkpt><trkpt lat="45.5711689" lon="11.9326192"><ele>23.142857142857142</ele><time>2026-05-02T07:56:52.983Z</time></trkpt><trkpt lat="45.5711058" lon="11.932643"><ele>23.0</ele><time>2026-05-02T07:56:58.98Z</time></trkpt><trkpt lat="45.5710265" lon="11.9326292"><ele>23.0</ele><time>2026-05-02T07:57:02.977Z</time></trkpt><trkpt lat="45.5709581" lon="11.9326034"><ele>23.0</ele><time>2026-05-02T07:57:04.971Z</time></trkpt><trkpt lat="45.5708788" lon="11.9325788"><ele>23.0</ele><time>2026-05-02T07:57:06.965Z</time></trkpt><trkpt lat="45.5707968" lon="11.9325745"><ele>23.0</ele><time>2026-05-02T07:57:08.98Z</time></trkpt><trkpt lat="45.5707211" lon="11.9325608"><ele>23.0</ele><time>2026-05-02T07:57:10.971Z</time></trkpt><trkpt lat="45.5706558" lon="11.9325432"><ele>23.0</ele><time>2026-05-02T07:57:12.968Z</time></trkpt><trkpt lat="45.570588" lon="11.9325331"><ele>23.0</ele><time>2026-05-02T07:57:14.979Z</time></trkpt><trkpt lat="45.570512" lon="11.9325169"><ele>23.333333333333336</ele><time>2026-05-02T07:57:16.985Z</time></trkpt><trkpt lat="45.570429" lon="11.932478"><ele>23.666666666666668</ele><time>2026-05-02T07:57:19.98Z</time></trkpt><trkpt lat="45.5704171" lon="11.9323565"><ele>24.0</ele><time>2026-05-02T07:57:22.975Z</time></trkpt><trkpt lat="45.5704432" lon="11.9322649"><ele>24.333333333333336</ele><time>2026-05-02T07:57:24.971Z</time></trkpt><trkpt lat="45.5704661" lon="11.9321434"><ele>24.666666666666668</ele><time>2026-05-02T07:57:26.976Z</time></trkpt><trkpt lat="45.5704782" lon="11.9319924"><ele>25.0</ele><time>2026-05-02T07:57:28.969Z</time></trkpt><trkpt lat="45.5704797" lon="11.9318578"><ele>25.0</ele><time>2026-05-02T07:57:30.972Z</time></trkpt><trkpt lat="45.5704901" lon="11.9317252"><ele>25.0</ele><time>2026-05-02T07:57:32.996Z</time></trkpt><trkpt lat="45.5705144" lon="11.931587"><ele>25.0</ele><time>2026-05-02T07:57:34.988Z</time></trkpt><trkpt lat="45.5705262" lon="11.931458"><ele>25.0</ele><time>2026-05-02T07:57:36.981Z</time></trkpt><trkpt lat="45.5705363" lon="11.9313281"><ele>25.0</ele><time>2026-05-02T07:57:38.986Z</time></trkpt><trkpt lat="45.5705454" lon="11.9312174"><ele>25.000000000000004</ele><time>2026-05-02T07:57:40.966Z</time></trkpt><trkpt lat="45.5705438" lon="11.9310984"><ele>25.0</ele><time>2026-05-02T07:57:42.977Z</time></trkpt><trkpt lat="45.5705611" lon="11.9309748"><ele>25.0</ele><time>2026-05-02T07:57:44.977Z</time></trkpt><trkpt lat="45.5705856" lon="11.9308261"><ele>25.0</ele><time>2026-05-02T07:57:46.946Z</time></trkpt><trkpt lat="45.5705872" lon="11.930698"><ele>25.000000000000004</ele><time>2026-05-02T07:57:48.961Z</time></trkpt><trkpt lat="45.5705954" lon="11.9305934"><ele>25.0</ele><time>2026-05-02T07:57:50.981Z</time></trkpt><trkpt lat="45.5706128" lon="11.9304688"><ele>24.833333333333336</ele><time>2026-05-02T07:57:52.983Z</time></trkpt><trkpt lat="45.5706351" lon="11.9303822"><ele>24.666666666666668</ele><time>2026-05-02T07:57:54.98Z</time></trkpt><trkpt lat="45.5706624" lon="11.9302702"><ele>24.5</ele><time>2026-05-02T07:57:56.978Z</time></trkpt><trkpt lat="45.5706881" lon="11.9301695"><ele>24.333333333333336</ele><time>2026-05-02T07:57:58.996Z</time></trkpt><trkpt lat="45.5707126" lon="11.9300548"><ele>24.166666666666668</ele><time>2026-05-02T07:58:00.99Z</time></trkpt><trkpt lat="45.570739" lon="11.9299423"><ele>24.0</ele><time>2026-05-02T07:58:02.987Z</time></trkpt><trkpt lat="45.5707556" lon="11.9298542"><ele>23.833333333333332</ele><time>2026-05-02T07:58:04.974Z</time></trkpt><trkpt lat="45.5707674" lon="11.9297386"><ele>23.666666666666668</ele><time>2026-05-02T07:58:07.99Z</time></trkpt><trkpt lat="45.5707858" lon="11.9296415"><ele>23.5</ele><time>2026-05-02T07:58:11.987Z</time></trkpt><trkpt lat="45.5707169" lon="11.9295703"><ele>23.333333333333336</ele><time>2026-05-02T07:58:22.981Z</time></trkpt><trkpt lat="45.5706362" lon="11.9295548"><ele>23.166666666666668</ele><time>2026-05-02T07:58:24.989Z</time></trkpt><trkpt lat="45.5705649" lon="11.929519"><ele>23.0</ele><time>2026-05-02T07:58:26.977Z</time></trkpt><trkpt lat="45.5704816" lon="11.929491"><ele>23.0</ele><time>2026-05-02T07:58:28.991Z</time></trkpt><trkpt lat="45.5704039" lon="11.9294478"><ele>23.0</ele><time>2026-05-02T07:58:30.986Z</time></trkpt><trkpt lat="45.5702967" lon="11.9294222"><ele>23.0</ele><time>2026-05-02T07:58:32.981Z</time></trkpt><trkpt lat="45.5702058" lon="11.929363"><ele>23.0</ele><time>2026-05-02T07:58:34.991Z</time></trkpt><trkpt lat="45.5701112" lon="11.9293299"><ele>23.0</ele><time>2026-05-02T07:58:36.988Z</time></trkpt><trkpt lat="45.5700414" lon="11.9292849"><ele>23.0</ele><time>2026-05-02T07:58:38.997Z</time></trkpt><trkpt lat="45.5699611" lon="11.9292424"><ele>23.0</ele><time>2026-05-02T07:58:40.995Z</time></trkpt><trkpt lat="45.5698798" lon="11.9292062"><ele>23.0</ele><time>2026-05-02T07:58:42.995Z</time></trkpt><trkpt lat="45.5697989" lon="11.9291732"><ele>23.0</ele><time>2026-05-02T07:58:44.99Z</time></trkpt><trkpt lat="45.5697174" lon="11.9291278"><ele>23.0</ele><time>2026-05-02T07:58:46.989Z</time></trkpt><trkpt lat="45.5696276" lon="11.9290947"><ele>23.0</ele><time>2026-05-02T07:58:48.97Z</time></trkpt><trkpt lat="45.5695336" lon="11.9290496"><ele>22.833333333333336</ele><time>2026-05-02T07:58:50.978Z</time></trkpt><trkpt lat="45.5694415" lon="11.9290116"><ele>22.666666666666668</ele><time>2026-05-02T07:58:52.995Z</time></trkpt><trkpt lat="45.5693611" lon="11.9290045"><ele>22.5</ele><time>2026-05-02T07:58:54.97Z</time></trkpt><trkpt lat="45.5692915" lon="11.9290297"><ele>22.333333333333332</ele><time>2026-05-02T07:58:56.987Z</time></trkpt><trkpt lat="45.5692161" lon="11.9290429"><ele>22.166666666666664</ele><time>2026-05-02T07:58:58.982Z</time></trkpt><trkpt lat="45.5691309" lon="11.9290716"><ele>22.0</ele><time>2026-05-02T07:59:00.988Z</time></trkpt><trkpt lat="45.5690598" lon="11.9290869"><ele>22.0</ele><time>2026-05-02T07:59:02.997Z</time></trkpt><trkpt lat="45.5689976" lon="11.9290448"><ele>22.0</ele><time>2026-05-02T07:59:04.971Z</time></trkpt><trkpt lat="45.5689489" lon="11.9289451"><ele>22.0</ele><time>2026-05-02T07:59:07.985Z</time></trkpt><trkpt lat="45.5688999" lon="11.9288568"><ele>22.0</ele><time>2026-05-02T07:59:10.985Z</time></trkpt><trkpt lat="45.5688302" lon="11.9288284"><ele>22.0</ele><time>2026-05-02T07:59:14.993Z</time></trkpt><trkpt lat="45.5687557" lon="11.9287832"><ele>22.0</ele><time>2026-05-02T07:59:18.994Z</time></trkpt><trkpt lat="45.5686862" lon="11.9287514"><ele>22.333333333333332</ele><time>2026-05-02T07:59:22.971Z</time></trkpt><trkpt lat="45.5686183" lon="11.9287231"><ele>22.666666666666664</ele><time>2026-05-02T07:59:28.003Z</time></trkpt><trkpt lat="45.568549" lon="11.9286944"><ele>23.0</ele><time>2026-05-02T07:59:31.977Z</time></trkpt><trkpt lat="45.5684771" lon="11.9286529"><ele>23.333333333333332</ele><time>2026-05-02T07:59:34.983Z</time></trkpt><trkpt lat="45.5683984" lon="11.9286154"><ele>23.666666666666668</ele><time>2026-05-02T07:59:36.985Z</time></trkpt><trkpt lat="45.5683209" lon="11.9285853"><ele>24.0</ele><time>2026-05-02T07:59:38.989Z</time></trkpt><trkpt lat="45.5682304" lon="11.9285892"><ele>23.999999999999996</ele><time>2026-05-02T07:59:40.983Z</time></trkpt><trkpt lat="45.5681572" lon="11.9285555"><ele>24.0</ele><time>2026-05-02T07:59:42.982Z</time></trkpt><trkpt lat="45.568087" lon="11.928526"><ele>24.0</ele><time>2026-05-02T07:59:44.964Z</time></trkpt><trkpt lat="45.5680145" lon="11.9284902"><ele>24.0</ele><time>2026-05-02T07:59:46.957Z</time></trkpt><trkpt lat="45.567942" lon="11.9284649"><ele>24.0</ele><time>2026-05-02T07:59:48.968Z</time></trkpt><trkpt lat="45.5678727" lon="11.9284379"><ele>23.999999999999996</ele><time>2026-05-02T07:59:50.985Z</time></trkpt><trkpt lat="45.567805" lon="11.9284109"><ele>24.0</ele><time>2026-05-02T07:59:52.964Z</time></trkpt><trkpt lat="45.5677387" lon="11.9283711"><ele>24.0</ele><time>2026-05-02T07:59:54.974Z</time></trkpt><trkpt lat="45.5676766" lon="11.9283393"><ele>24.0</ele><time>2026-05-02T07:59:56.984Z</time></trkpt><trkpt lat="45.5676227" lon="11.9283997"><ele>24.0</ele><time>2026-05-02T07:59:59.987Z</time></trkpt><trkpt lat="45.5676563" lon="11.9284871"><ele>24.0</ele><time>2026-05-02T08:00:02.977Z</time></trkpt><trkpt lat="45.5677485" lon="11.928514"><ele>24.0</ele><time>2026-05-02T08:00:05.983Z</time></trkpt><trkpt lat="45.5678165" lon="11.9285429"><ele>24.0</ele><time>2026-05-02T08:00:07.98Z</time></trkpt><trkpt lat="45.5678961" lon="11.9285911"><ele>24.0</ele><time>2026-05-02T08:00:09.984Z</time></trkpt><trkpt lat="45.5679783" lon="11.9286446"><ele>24.0</ele><time>2026-05-02T08:00:11.975Z</time></trkpt><trkpt lat="45.5680659" lon="11.9286861"><ele>24.0</ele><time>2026-05-02T08:00:13.982Z</time></trkpt><trkpt lat="45.5681555" lon="11.9287215"><ele>24.0</ele><time>2026-05-02T08:00:15.986Z</time></trkpt><trkpt lat="45.5682862" lon="11.9287634"><ele>24.0</ele><time>2026-05-02T08:00:18.963Z</time></trkpt><trkpt lat="45.5683649" lon="11.9287881"><ele>23.999999999999996</ele><time>2026-05-02T08:00:20.985Z</time></trkpt><trkpt lat="45.5684297" lon="11.9288256"><ele>24.0</ele><time>2026-05-02T08:00:22.961Z</time></trkpt><trkpt lat="45.5684915" lon="11.9288431"><ele>24.0</ele><time>2026-05-02T08:00:24.977Z</time></trkpt><trkpt lat="45.568551" lon="11.9287907"><ele>24.0</ele><time>2026-05-02T08:00:27.979Z</time></trkpt><trkpt lat="45.5686118" lon="11.9287313"><ele>24.0</ele><time>2026-05-02T08:00:31.979Z</time></trkpt><trkpt lat="45.5686703" lon="11.928683"><ele>23.999999999999996</ele><time>2026-05-02T08:00:35.998Z</time></trkpt><trkpt lat="45.5687013" lon="11.9286044"><ele>24.0</ele><time>2026-05-02T08:00:38.975Z</time></trkpt><trkpt lat="45.5687225" lon="11.9285183"><ele>23.999999999999996</ele><time>2026-05-02T08:00:41.993Z</time></trkpt><trkpt lat="45.5687384" lon="11.9286192"><ele>24.0</ele><time>2026-05-02T08:01:21.953Z</time></trkpt><trkpt lat="45.5687266" lon="11.9287388"><ele>24.0</ele><time>2026-05-02T08:01:24.986Z</time></trkpt><trkpt lat="45.5686809" lon="11.9288147"><ele>24.0</ele><time>2026-05-02T08:01:27.99Z</time></trkpt><trkpt lat="45.5686962" lon="11.9289076"><ele>24.0</ele><time>2026-05-02T08:01:30.993Z</time></trkpt><trkpt lat="45.5687467" lon="11.9289715"><ele>23.999999999999996</ele><time>2026-05-02T08:01:34.977Z</time></trkpt><trkpt lat="45.5687567" lon="11.9290613"><ele>24.0</ele><time>2026-05-02T08:02:19.974Z</time></trkpt><trkpt lat="45.5686688" lon="11.9290492"><ele>24.0</ele><time>2026-05-02T08:02:22.975Z</time></trkpt><trkpt lat="45.5685942" lon="11.9290248"><ele>24.0</ele><time>2026-05-02T08:02:27.003Z</time></trkpt><trkpt lat="45.5685282" lon="11.9290069"><ele>24.0</ele><time>2026-05-02T08:02:30Z</time></trkpt><trkpt lat="45.5684385" lon="11.9289833"><ele>24.0</ele><time>2026-05-02T08:02:32.999Z</time></trkpt><trkpt lat="45.5683591" lon="11.9289659"><ele>24.0</ele><time>2026-05-02T08:02:34.995Z</time></trkpt><trkpt lat="45.5682704" lon="11.9289346"><ele>24.0</ele><time>2026-05-02T08:02:37Z</time></trkpt><trkpt lat="45.5681846" lon="11.9289052"><ele>24.0</ele><time>2026-05-02T08:02:39.003Z</time></trkpt><trkpt lat="45.5681103" lon="11.92888"><ele>24.0</ele><time>2026-05-02T08:02:40.987Z</time></trkpt><trkpt lat="45.5680235" lon="11.9288528"><ele>24.0</ele><time>2026-05-02T08:02:42.992Z</time></trkpt><trkpt lat="45.5679281" lon="11.9288371"><ele>24.0</ele><time>2026-05-02T08:02:45.004Z</time></trkpt><trkpt lat="45.5678398" lon="11.9288104"><ele>24.0</ele><time>2026-05-02T08:02:47.001Z</time></trkpt><trkpt lat="45.5677566" lon="11.9287627"><ele>24.0</ele><time>2026-05-02T08:02:49.003Z</time></trkpt><trkpt lat="45.5676736" lon="11.9287253"><ele>24.0</ele><time>2026-05-02T08:02:50.994Z</time></trkpt><trkpt lat="45.5675836" lon="11.9286951"><ele>24.0</ele><time>2026-05-02T08:02:52.992Z</time></trkpt><trkpt lat="45.5675084" lon="11.9286519"><ele>24.0</ele><time>2026-05-02T08:02:55.004Z</time></trkpt><trkpt lat="45.5674257" lon="11.9286161"><ele>24.0</ele><time>2026-05-02T08:02:57.044Z</time></trkpt><trkpt lat="45.5673338" lon="11.9285634"><ele>24.0</ele><time>2026-05-02T08:02:58.996Z</time></trkpt><trkpt lat="45.5672428" lon="11.9285241"><ele>24.0</ele><time>2026-05-02T08:03:00.973Z</time></trkpt><trkpt lat="45.5671548" lon="11.9284918"><ele>24.0</ele><time>2026-05-02T08:03:03.036Z</time></trkpt><trkpt lat="45.5670726" lon="11.9284473"><ele>24.0</ele><time>2026-05-02T08:03:04.984Z</time></trkpt><trkpt lat="45.5670006" lon="11.9283966"><ele>24.0</ele><time>2026-05-02T08:03:06.994Z</time></trkpt><trkpt lat="45.5669144" lon="11.9283426"><ele>24.0</ele><time>2026-05-02T08:03:08.991Z</time></trkpt><trkpt lat="45.5667902" lon="11.9282773"><ele>23.799999999999997</ele><time>2026-05-02T08:03:11.997Z</time></trkpt><trkpt lat="45.5667109" lon="11.9282471"><ele>23.599999999999998</ele><time>2026-05-02T08:03:13.977Z</time></trkpt><trkpt lat="45.5666264" lon="11.9282048"><ele>23.4</ele><time>2026-05-02T08:03:15.993Z</time></trkpt><trkpt lat="45.5665379" lon="11.9281277"><ele>23.2</ele><time>2026-05-02T08:03:17.991Z</time></trkpt><trkpt lat="45.5664462" lon="11.928081"><ele>23.0</ele><time>2026-05-02T08:03:20.013Z</time></trkpt><trkpt lat="45.5663587" lon="11.9280323"><ele>23.0</ele><time>2026-05-02T08:03:22.012Z</time></trkpt><trkpt lat="45.5662707" lon="11.9279939"><ele>23.0</ele><time>2026-05-02T08:03:24.056Z</time></trkpt><trkpt lat="45.5661977" lon="11.9279712"><ele>23.0</ele><time>2026-05-02T08:03:26.002Z</time></trkpt><trkpt lat="45.5661247" lon="11.9279287"><ele>23.0</ele><time>2026-05-02T08:03:29.987Z</time></trkpt><trkpt lat="45.5660904" lon="11.9278328"><ele>23.0</ele><time>2026-05-02T08:03:33.986Z</time></trkpt><trkpt lat="45.5661183" lon="11.9277464"><ele>23.0</ele><time>2026-05-02T08:03:37.005Z</time></trkpt><trkpt lat="45.5661478" lon="11.9276286"><ele>22.799999999999997</ele><time>2026-05-02T08:03:39.002Z</time></trkpt><trkpt lat="45.5661757" lon="11.9274727"><ele>22.6</ele><time>2026-05-02T08:03:40.999Z</time></trkpt><trkpt lat="45.5662196" lon="11.9273439"><ele>22.4</ele><time>2026-05-02T08:03:42.967Z</time></trkpt><trkpt lat="45.5662569" lon="11.9272512"><ele>22.200000000000003</ele><time>2026-05-02T08:03:44.981Z</time></trkpt><trkpt lat="45.5662953" lon="11.927163"><ele>22.0</ele><time>2026-05-02T08:03:46.984Z</time></trkpt><trkpt lat="45.5663245" lon="11.9265705"><ele>22.0</ele><time>2026-05-02T08:03:54.033Z</time></trkpt><trkpt lat="45.5663537" lon="11.9264628"><ele>22.0</ele><time>2026-05-02T08:03:55.992Z</time></trkpt><trkpt lat="45.5663693" lon="11.9263652"><ele>22.0</ele><time>2026-05-02T08:03:57.996Z</time></trkpt><trkpt lat="45.5663978" lon="11.9262667"><ele>22.0</ele><time>2026-05-02T08:04:00.983Z</time></trkpt><trkpt lat="45.5664116" lon="11.9261589"><ele>22.0</ele><time>2026-05-02T08:04:03.985Z</time></trkpt><trkpt lat="45.5664389" lon="11.926077"><ele>22.0</ele><time>2026-05-02T08:04:05.996Z</time></trkpt><trkpt lat="45.5664622" lon="11.9259882"><ele>22.0</ele><time>2026-05-02T08:04:07.99Z</time></trkpt><trkpt lat="45.566487" lon="11.9258842"><ele>22.166666666666664</ele><time>2026-05-02T08:04:09.981Z</time></trkpt><trkpt lat="45.5665008" lon="11.9257826"><ele>22.333333333333332</ele><time>2026-05-02T08:04:12.003Z</time></trkpt><trkpt lat="45.5665182" lon="11.9256485"><ele>22.5</ele><time>2026-05-02T08:04:13.99Z</time></trkpt><trkpt lat="45.5665311" lon="11.9255255"><ele>22.666666666666668</ele><time>2026-05-02T08:04:15.99Z</time></trkpt><trkpt lat="45.5665384" lon="11.925403"><ele>22.833333333333336</ele><time>2026-05-02T08:04:17.992Z</time></trkpt><trkpt lat="45.5665599" lon="11.9252812"><ele>23.0</ele><time>2026-05-02T08:04:19.988Z</time></trkpt><trkpt lat="45.5665875" lon="11.9251514"><ele>22.833333333333336</ele><time>2026-05-02T08:04:22.009Z</time></trkpt><trkpt lat="45.5665977" lon="11.9250586"><ele>22.666666666666668</ele><time>2026-05-02T08:04:23.961Z</time></trkpt><trkpt lat="45.5666168" lon="11.9249275"><ele>22.5</ele><time>2026-05-02T08:04:26.991Z</time></trkpt><trkpt lat="45.5666407" lon="11.9248072"><ele>22.333333333333332</ele><time>2026-05-02T08:04:29.974Z</time></trkpt><trkpt lat="45.5666912" lon="11.9247231"><ele>22.166666666666664</ele><time>2026-05-02T08:04:32.971Z</time></trkpt><trkpt lat="45.5667272" lon="11.9246477"><ele>22.0</ele><time>2026-05-02T08:04:34.984Z</time></trkpt><trkpt lat="45.5667508" lon="11.9245425"><ele>22.0</ele><time>2026-05-02T08:04:36.977Z</time></trkpt><trkpt lat="45.5667112" lon="11.9244506"><ele>22.0</ele><time>2026-05-02T08:04:38.982Z</time></trkpt><trkpt lat="45.566628" lon="11.9244138"><ele>22.0</ele><time>2026-05-02T08:04:40.982Z</time></trkpt><trkpt lat="45.5665383" lon="11.9244559"><ele>22.0</ele><time>2026-05-02T08:04:42.991Z</time></trkpt><trkpt lat="45.5664851" lon="11.9245509"><ele>22.0</ele><time>2026-05-02T08:04:44.99Z</time></trkpt><trkpt lat="45.5664483" lon="11.9246439"><ele>22.0</ele><time>2026-05-02T08:04:47.001Z</time></trkpt><trkpt lat="45.5663935" lon="11.9247197"><ele>22.0</ele><time>2026-05-02T08:04:49.992Z</time></trkpt><trkpt lat="45.5663284" lon="11.9247623"><ele>22.0</ele><time>2026-05-02T08:04:53.995Z</time></trkpt><trkpt lat="45.5662618" lon="11.9247756"><ele>22.0</ele><time>2026-05-02T08:04:56.992Z</time></trkpt><trkpt lat="45.5661968" lon="11.9247817"><ele>22.0</ele><time>2026-05-02T08:04:58.993Z</time></trkpt><trkpt lat="45.5661044" lon="11.9247863"><ele>22.0</ele><time>2026-05-02T08:05:01.987Z</time></trkpt><trkpt lat="45.5660307" lon="11.9247983"><ele>22.0</ele><time>2026-05-02T08:05:05.994Z</time></trkpt><trkpt lat="45.5659665" lon="11.924789"><ele>22.0</ele><time>2026-05-02T08:05:09.987Z</time></trkpt><trkpt lat="45.5658936" lon="11.9248097"><ele>22.0</ele><time>2026-05-02T08:06:07.994Z</time></trkpt><trkpt lat="45.5658213" lon="11.9248248"><ele>22.0</ele><time>2026-05-02T08:06:12.964Z</time></trkpt><trkpt lat="45.5657475" lon="11.9248304"><ele>22.0</ele><time>2026-05-02T08:06:16.996Z</time></trkpt><trkpt lat="45.5656767" lon="11.9248304"><ele>22.0</ele><time>2026-05-02T08:06:21.996Z</time></trkpt><trkpt lat="45.5656095" lon="11.9248435"><ele>22.0</ele><time>2026-05-02T08:06:25.996Z</time></trkpt><trkpt lat="45.5655245" lon="11.9248549"><ele>22.0</ele><time>2026-05-02T08:06:28.997Z</time></trkpt><trkpt lat="45.5654515" lon="11.9248652"><ele>22.0</ele><time>2026-05-02T08:06:30.99Z</time></trkpt><trkpt lat="45.5653724" lon="11.9248689"><ele>21.833333333333332</ele><time>2026-05-02T08:06:32.991Z</time></trkpt><trkpt lat="45.5652936" lon="11.9248834"><ele>21.666666666666664</ele><time>2026-05-02T08:06:34.975Z</time></trkpt><trkpt lat="45.5652215" lon="11.9249154"><ele>21.5</ele><time>2026-05-02T08:06:36.997Z</time></trkpt><trkpt lat="45.5651373" lon="11.9249551"><ele>21.333333333333332</ele><time>2026-05-02T08:06:39.995Z</time></trkpt><trkpt lat="45.5650636" lon="11.9249632"><ele>21.166666666666668</ele><time>2026-05-02T08:06:42.986Z</time></trkpt><trkpt lat="45.5649843" lon="11.9249837"><ele>21.0</ele><time>2026-05-02T08:06:46.963Z</time></trkpt><trkpt lat="45.5649075" lon="11.9249998"><ele>21.0</ele><time>2026-05-02T08:06:50.988Z</time></trkpt><trkpt lat="45.5648383" lon="11.9249995"><ele>21.0</ele><time>2026-05-02T08:06:53.996Z</time></trkpt><trkpt lat="45.5647629" lon="11.9249963"><ele>21.0</ele><time>2026-05-02T08:06:57.007Z</time></trkpt><trkpt lat="45.5646987" lon="11.9249992"><ele>21.0</ele><time>2026-05-02T08:06:59.004Z</time></trkpt><trkpt lat="45.5646281" lon="11.9250066"><ele>21.0</ele><time>2026-05-02T08:07:00.987Z</time></trkpt><trkpt lat="45.5645454" lon="11.9250264"><ele>21.0</ele><time>2026-05-02T08:07:03.005Z</time></trkpt><trkpt lat="45.5644616" lon="11.9250477"><ele>21.0</ele><time>2026-05-02T08:07:05.003Z</time></trkpt><trkpt lat="45.5643805" lon="11.9250617"><ele>21.166666666666668</ele><time>2026-05-02T08:07:06.974Z</time></trkpt><trkpt lat="45.5643098" lon="11.9250691"><ele>21.333333333333332</ele><time>2026-05-02T08:07:08.982Z</time></trkpt><trkpt lat="45.5642323" lon="11.9250732"><ele>21.5</ele><time>2026-05-02T08:07:10.996Z</time></trkpt><trkpt lat="45.5641529" lon="11.9250864"><ele>21.666666666666664</ele><time>2026-05-02T08:07:12.991Z</time></trkpt><trkpt lat="45.564088" lon="11.925092"><ele>21.833333333333332</ele><time>2026-05-02T08:07:14.986Z</time></trkpt><trkpt lat="45.5640112" lon="11.9250801"><ele>22.0</ele><time>2026-05-02T08:07:17.98Z</time></trkpt><trkpt lat="45.5639225" lon="11.9250662"><ele>21.833333333333332</ele><time>2026-05-02T08:07:20.993Z</time></trkpt><trkpt lat="45.5638332" lon="11.9250427"><ele>21.666666666666664</ele><time>2026-05-02T08:07:23.996Z</time></trkpt><trkpt lat="45.5637477" lon="11.9250388"><ele>21.5</ele><time>2026-05-02T08:07:26.971Z</time></trkpt><trkpt lat="45.5636737" lon="11.9250196"><ele>21.333333333333332</ele><time>2026-05-02T08:07:30.989Z</time></trkpt><trkpt lat="45.5635847" lon="11.9249955"><ele>21.166666666666668</ele><time>2026-05-02T08:07:34.989Z</time></trkpt><trkpt lat="45.563508" lon="11.9249857"><ele>21.0</ele><time>2026-05-02T08:07:36.996Z</time></trkpt><trkpt lat="45.5634317" lon="11.9249689"><ele>21.0</ele><time>2026-05-02T08:07:39.006Z</time></trkpt><trkpt lat="45.5633532" lon="11.9249517"><ele>21.0</ele><time>2026-05-02T08:07:41.007Z</time></trkpt><trkpt lat="45.5632866" lon="11.9249388"><ele>21.0</ele><time>2026-05-02T08:07:42.994Z</time></trkpt><trkpt lat="45.5632183" lon="11.9249251"><ele>21.0</ele><time>2026-05-02T08:07:44.99Z</time></trkpt><trkpt lat="45.5631465" lon="11.9249025"><ele>21.0</ele><time>2026-05-02T08:07:46.974Z</time></trkpt><trkpt lat="45.5630693" lon="11.9248873"><ele>21.0</ele><time>2026-05-02T08:07:48.995Z</time></trkpt><trkpt lat="45.5629948" lon="11.9248817"><ele>21.0</ele><time>2026-05-02T08:07:50.987Z</time></trkpt><trkpt lat="45.5629053" lon="11.9248559"><ele>21.5</ele><time>2026-05-02T08:07:53.991Z</time></trkpt><trkpt lat="45.5628398" lon="11.924825"><ele>22.0</ele><time>2026-05-02T08:07:55.981Z</time></trkpt><trkpt lat="45.5627565" lon="11.9247948"><ele>22.5</ele><time>2026-05-02T08:07:58.003Z</time></trkpt><trkpt lat="45.5626801" lon="11.9247682"><ele>23.0</ele><time>2026-05-02T08:07:59.992Z</time></trkpt><trkpt lat="45.5625958" lon="11.9247321"><ele>23.5</ele><time>2026-05-02T08:08:01.998Z</time></trkpt><trkpt lat="45.5625196" lon="11.9247074"><ele>24.0</ele><time>2026-05-02T08:08:04.003Z</time></trkpt><trkpt lat="45.5624481" lon="11.9246762"><ele>24.0</ele><time>2026-05-02T08:08:06.001Z</time></trkpt><trkpt lat="45.562372" lon="11.9246372"><ele>24.0</ele><time>2026-05-02T08:08:07.971Z</time></trkpt><trkpt lat="45.5622887" lon="11.9245953"><ele>24.0</ele><time>2026-05-02T08:08:09.995Z</time></trkpt><trkpt lat="45.56221" lon="11.9245538"><ele>24.0</ele><time>2026-05-02T08:08:11.988Z</time></trkpt><trkpt lat="45.5621337" lon="11.9245202"><ele>24.0</ele><time>2026-05-02T08:08:13.984Z</time></trkpt><trkpt lat="45.5620529" lon="11.9244859"><ele>24.0</ele><time>2026-05-02T08:08:15.983Z</time></trkpt><trkpt lat="45.561976" lon="11.9244631"><ele>23.5</ele><time>2026-05-02T08:08:17.997Z</time></trkpt><trkpt lat="45.5619007" lon="11.9244391"><ele>23.0</ele><time>2026-05-02T08:08:19.993Z</time></trkpt><trkpt lat="45.5618251" lon="11.9244089"><ele>22.5</ele><time>2026-05-02T08:08:22.006Z</time></trkpt><trkpt lat="45.5617509" lon="11.9243899"><ele>22.0</ele><time>2026-05-02T08:08:23.991Z</time></trkpt><trkpt lat="45.5616865" lon="11.9243778"><ele>21.5</ele><time>2026-05-02T08:08:25.994Z</time></trkpt><trkpt lat="45.5616023" lon="11.9243542"><ele>21.0</ele><time>2026-05-02T08:08:28.996Z</time></trkpt><trkpt lat="45.5615243" lon="11.9243207"><ele>21.0</ele><time>2026-05-02T08:08:30.997Z</time></trkpt><trkpt lat="45.5614459" lon="11.9242914"><ele>21.0</ele><time>2026-05-02T08:08:32.992Z</time></trkpt><trkpt lat="45.5613811" lon="11.9242699"><ele>21.0</ele><time>2026-05-02T08:08:34.986Z</time></trkpt><trkpt lat="45.561297" lon="11.9242379"><ele>21.0</ele><time>2026-05-02T08:08:37.994Z</time></trkpt><trkpt lat="45.5612349" lon="11.9242105"><ele>21.0</ele><time>2026-05-02T08:08:39.99Z</time></trkpt><trkpt lat="45.5611585" lon="11.9241783"><ele>21.0</ele><time>2026-05-02T08:08:41.995Z</time></trkpt><trkpt lat="45.5610819" lon="11.9241649"><ele>20.666666666666668</ele><time>2026-05-02T08:08:43.988Z</time></trkpt><trkpt lat="45.5610139" lon="11.9241375"><ele>20.333333333333332</ele><time>2026-05-02T08:08:45.999Z</time></trkpt><trkpt lat="45.560948" lon="11.9241126"><ele>20.0</ele><time>2026-05-02T08:08:47.982Z</time></trkpt><trkpt lat="45.5608699" lon="11.924101"><ele>19.666666666666664</ele><time>2026-05-02T08:08:49.993Z</time></trkpt><trkpt lat="45.5607946" lon="11.9240783"><ele>19.333333333333332</ele><time>2026-05-02T08:08:51.968Z</time></trkpt><trkpt lat="45.5607169" lon="11.9240452"><ele>19.0</ele><time>2026-05-02T08:08:54.01Z</time></trkpt><trkpt lat="45.5606352" lon="11.9240178"><ele>19.0</ele><time>2026-05-02T08:08:55.994Z</time></trkpt><trkpt lat="45.5605533" lon="11.9239826"><ele>19.0</ele><time>2026-05-02T08:08:57.992Z</time></trkpt><trkpt lat="45.5604755" lon="11.9239493"><ele>19.0</ele><time>2026-05-02T08:08:59.993Z</time></trkpt><trkpt lat="45.5604015" lon="11.9239172"><ele>19.0</ele><time>2026-05-02T08:09:01.996Z</time></trkpt><trkpt lat="45.5603273" lon="11.9238817"><ele>19.0</ele><time>2026-05-02T08:09:03.996Z</time></trkpt><trkpt lat="45.5602541" lon="11.9238454"><ele>19.0</ele><time>2026-05-02T08:09:06.002Z</time></trkpt><trkpt lat="45.5601886" lon="11.9238183"><ele>19.142857142857142</ele><time>2026-05-02T08:09:07.991Z</time></trkpt><trkpt lat="45.5601212" lon="11.9237863"><ele>19.28571428571429</ele><time>2026-05-02T08:09:09.999Z</time></trkpt><trkpt lat="45.5600554" lon="11.9237547"><ele>19.42857142857143</ele><time>2026-05-02T08:09:11.99Z</time></trkpt><trkpt lat="45.5599851" lon="11.9237376"><ele>19.57142857142857</ele><time>2026-05-02T08:09:13.991Z</time></trkpt><trkpt lat="45.5599073" lon="11.9237123"><ele>19.714285714285715</ele><time>2026-05-02T08:09:15.984Z</time></trkpt><trkpt lat="45.5598358" lon="11.923693"><ele>19.857142857142858</ele><time>2026-05-02T08:09:17.988Z</time></trkpt><trkpt lat="45.5597603" lon="11.9236676"><ele>20.0</ele><time>2026-05-02T08:09:19.986Z</time></trkpt><trkpt lat="45.559687" lon="11.9236426"><ele>20.0</ele><time>2026-05-02T08:09:21.989Z</time></trkpt><trkpt lat="45.5596096" lon="11.9236104"><ele>20.0</ele><time>2026-05-02T08:09:23.986Z</time></trkpt><trkpt lat="45.5595269" lon="11.9235602"><ele>20.0</ele><time>2026-05-02T08:09:25.993Z</time></trkpt><trkpt lat="45.5594505" lon="11.9235219"><ele>20.0</ele><time>2026-05-02T08:09:27.984Z</time></trkpt><trkpt lat="45.5593696" lon="11.9234964"><ele>20.0</ele><time>2026-05-02T08:09:29.987Z</time></trkpt><trkpt lat="45.5592862" lon="11.9234683"><ele>20.0</ele><time>2026-05-02T08:09:31.989Z</time></trkpt><trkpt lat="45.5592105" lon="11.9234385"><ele>20.0</ele><time>2026-05-02T08:09:33.979Z</time></trkpt><trkpt lat="45.5591315" lon="11.9234096"><ele>20.0</ele><time>2026-05-02T08:09:35.998Z</time></trkpt><trkpt lat="45.5590511" lon="11.9233922"><ele>20.0</ele><time>2026-05-02T08:09:37.996Z</time></trkpt><trkpt lat="45.5589711" lon="11.9233763"><ele>20.0</ele><time>2026-05-02T08:09:39.999Z</time></trkpt><trkpt lat="45.5588933" lon="11.9233543"><ele>20.0</ele><time>2026-05-02T08:09:42.004Z</time></trkpt><trkpt lat="45.5588183" lon="11.9233297"><ele>20.0</ele><time>2026-05-02T08:09:43.99Z</time></trkpt><trkpt lat="45.5587432" lon="11.923305"><ele>19.833333333333336</ele><time>2026-05-02T08:09:46Z</time></trkpt><trkpt lat="45.5586613" lon="11.9232745"><ele>19.666666666666668</ele><time>2026-05-02T08:09:47.982Z</time></trkpt><trkpt lat="45.5585728" lon="11.9232525"><ele>19.5</ele><time>2026-05-02T08:09:49.984Z</time></trkpt><trkpt lat="45.5584901" lon="11.9232302"><ele>19.333333333333332</ele><time>2026-05-02T08:09:51.994Z</time></trkpt><trkpt lat="45.5584028" lon="11.9232161"><ele>19.166666666666664</ele><time>2026-05-02T08:09:53.997Z</time></trkpt><trkpt lat="45.55832" lon="11.9232132"><ele>19.0</ele><time>2026-05-02T08:09:56.001Z</time></trkpt><trkpt lat="45.5582432" lon="11.923218"><ele>19.0</ele><time>2026-05-02T08:09:57.994Z</time></trkpt><trkpt lat="45.5581666" lon="11.9232185"><ele>19.0</ele><time>2026-05-02T08:09:59.973Z</time></trkpt><trkpt lat="45.5580954" lon="11.9232199"><ele>19.0</ele><time>2026-05-02T08:10:02.004Z</time></trkpt><trkpt lat="45.5580206" lon="11.9232099"><ele>19.0</ele><time>2026-05-02T08:10:03.989Z</time></trkpt><trkpt lat="45.5579534" lon="11.9231783"><ele>19.0</ele><time>2026-05-02T08:10:05.989Z</time></trkpt><trkpt lat="45.5578999" lon="11.9231014"><ele>19.0</ele><time>2026-05-02T08:10:07.981Z</time></trkpt><trkpt lat="45.5578615" lon="11.9230282"><ele>19.0</ele><time>2026-05-02T08:10:09.991Z</time></trkpt><trkpt lat="45.5578506" lon="11.9229337"><ele>19.0</ele><time>2026-05-02T08:10:11.997Z</time></trkpt><trkpt lat="45.5578392" lon="11.9228032"><ele>19.0</ele><time>2026-05-02T08:10:13.991Z</time></trkpt><trkpt lat="45.5578546" lon="11.9226932"><ele>19.0</ele><time>2026-05-02T08:10:15.982Z</time></trkpt><trkpt lat="45.5579052" lon="11.9225921"><ele>19.0</ele><time>2026-05-02T08:10:17.992Z</time></trkpt><trkpt lat="45.5579792" lon="11.9225508"><ele>19.0</ele><time>2026-05-02T08:10:19.979Z</time></trkpt><trkpt lat="45.5580505" lon="11.9225374"><ele>19.0</ele><time>2026-05-02T08:10:21.996Z</time></trkpt><trkpt lat="45.5581252" lon="11.9225549"><ele>19.0</ele><time>2026-05-02T08:10:23.973Z</time></trkpt><trkpt lat="45.5581994" lon="11.9225764"><ele>19.0</ele><time>2026-05-02T08:10:26.004Z</time></trkpt><trkpt lat="45.5582657" lon="11.9225875"><ele>19.0</ele><time>2026-05-02T08:10:27.995Z</time></trkpt><trkpt lat="45.5583604" lon="11.9226059"><ele>19.0</ele><time>2026-05-02T08:10:30.985Z</time></trkpt><trkpt lat="45.5584347" lon="11.9226312"><ele>19.0</ele><time>2026-05-02T08:10:32.99Z</time></trkpt><trkpt lat="45.5585129" lon="11.9226469"><ele>19.0</ele><time>2026-05-02T08:10:34.994Z</time></trkpt><trkpt lat="45.5585837" lon="11.922678"><ele>19.0</ele><time>2026-05-02T08:10:36.999Z</time></trkpt><trkpt lat="45.5586543" lon="11.9227067"><ele>19.0</ele><time>2026-05-02T08:10:38.991Z</time></trkpt><trkpt lat="45.5587261" lon="11.9227274"><ele>19.0</ele><time>2026-05-02T08:10:40.994Z</time></trkpt><trkpt lat="45.5587976" lon="11.9227562"><ele>19.0</ele><time>2026-05-02T08:10:43.004Z</time></trkpt><trkpt lat="45.5588779" lon="11.9227967"><ele>19.0</ele><time>2026-05-02T08:10:44.993Z</time></trkpt><trkpt lat="45.5589522" lon="11.9228249"><ele>19.0</ele><time>2026-05-02T08:10:46.984Z</time></trkpt><trkpt lat="45.5590275" lon="11.9228691"><ele>19.0</ele><time>2026-05-02T08:10:49.001Z</time></trkpt><trkpt lat="45.5591092" lon="11.9229031"><ele>19.0</ele><time>2026-05-02T08:10:50.975Z</time></trkpt><trkpt lat="45.5591878" lon="11.922943"><ele>19.0</ele><time>2026-05-02T08:10:52.999Z</time></trkpt><trkpt lat="45.5592638" lon="11.9229825"><ele>19.0</ele><time>2026-05-02T08:10:54.99Z</time></trkpt><trkpt lat="45.559343" lon="11.9230149"><ele>19.0</ele><time>2026-05-02T08:10:56.987Z</time></trkpt><trkpt lat="45.559427" lon="11.9230522"><ele>19.0</ele><time>2026-05-02T08:10:59.003Z</time></trkpt><trkpt lat="45.559518" lon="11.923089"><ele>19.0</ele><time>2026-05-02T08:11:00.999Z</time></trkpt><trkpt lat="45.5596069" lon="11.9231289"><ele>19.0</ele><time>2026-05-02T08:11:02.989Z</time></trkpt><trkpt lat="45.5596992" lon="11.9231619"><ele>19.0</ele><time>2026-05-02T08:11:04.995Z</time></trkpt><trkpt lat="45.5597925" lon="11.9232071"><ele>19.0</ele><time>2026-05-02T08:11:06.993Z</time></trkpt><trkpt lat="45.5598808" lon="11.9232473"><ele>19.0</ele><time>2026-05-02T08:11:08.985Z</time></trkpt><trkpt lat="45.5599763" lon="11.9232903"><ele>19.0</ele><time>2026-05-02T08:11:10.987Z</time></trkpt><trkpt lat="45.5600727" lon="11.9233261"><ele>19.0</ele><time>2026-05-02T08:11:12.993Z</time></trkpt><trkpt lat="45.5601722" lon="11.9233633"><ele>19.0</ele><time>2026-05-02T08:11:14.997Z</time></trkpt><trkpt lat="45.5602665" lon="11.9233947"><ele>19.0</ele><time>2026-05-02T08:11:16.994Z</time></trkpt><trkpt lat="45.560358" lon="11.923428"><ele>19.0</ele><time>2026-05-02T08:11:19.012Z</time></trkpt><trkpt lat="45.5604528" lon="11.9234727"><ele>19.0</ele><time>2026-05-02T08:11:20.997Z</time></trkpt><trkpt lat="45.5605397" lon="11.9235119"><ele>19.0</ele><time>2026-05-02T08:11:23.005Z</time></trkpt><trkpt lat="45.5606285" lon="11.9235432"><ele>19.0</ele><time>2026-05-02T08:11:25.004Z</time></trkpt><trkpt lat="45.5607132" lon="11.923568"><ele>19.0</ele><time>2026-05-02T08:11:26.993Z</time></trkpt><trkpt lat="45.5607954" lon="11.9235936"><ele>19.0</ele><time>2026-05-02T08:11:28.988Z</time></trkpt><trkpt lat="45.5608738" lon="11.9236253"><ele>19.0</ele><time>2026-05-02T08:11:31.003Z</time></trkpt><trkpt lat="45.5609495" lon="11.9236588"><ele>19.0</ele><time>2026-05-02T08:11:33Z</time></trkpt><trkpt lat="45.5610168" lon="11.9236763"><ele>19.0</ele><time>2026-05-02T08:11:34.994Z</time></trkpt><trkpt lat="45.5610868" lon="11.9237103"><ele>19.0</ele><time>2026-05-02T08:11:37.987Z</time></trkpt><trkpt lat="45.5611052" lon="11.9236173"><ele>19.0</ele><time>2026-05-02T08:11:43.986Z</time></trkpt><trkpt lat="45.5610429" lon="11.923554"><ele>19.0</ele><time>2026-05-02T08:11:47.992Z</time></trkpt><trkpt lat="45.5609947" lon="11.923463"><ele>19.0</ele><time>2026-05-02T08:11:51.996Z</time></trkpt><trkpt lat="45.5609465" lon="11.9234008"><ele>19.0</ele><time>2026-05-02T08:11:54.997Z</time></trkpt><trkpt lat="45.5608955" lon="11.9233411"><ele>19.0</ele><time>2026-05-02T08:11:57.987Z</time></trkpt><trkpt lat="45.5609397" lon="11.9234203"><ele>19.0</ele><time>2026-05-02T08:12:38.97Z</time></trkpt><trkpt lat="45.5609012" lon="11.923335"><ele>19.0</ele><time>2026-05-02T08:13:04.96Z</time></trkpt><trkpt lat="45.5608554" lon="11.9232457"><ele>19.0</ele><time>2026-05-02T08:13:17.991Z</time></trkpt><trkpt lat="45.5608107" lon="11.9231476"><ele>19.0</ele><time>2026-05-02T08:13:21.002Z</time></trkpt><trkpt lat="45.5607746" lon="11.9230695"><ele>19.0</ele><time>2026-05-02T08:13:22.979Z</time></trkpt><trkpt lat="45.5607244" lon="11.9229824"><ele>19.0</ele><time>2026-05-02T08:13:24.993Z</time></trkpt><trkpt lat="45.5606845" lon="11.9228799"><ele>19.333333333333332</ele><time>2026-05-02T08:13:27.003Z</time></trkpt><trkpt lat="45.5606355" lon="11.9227878"><ele>19.666666666666664</ele><time>2026-05-02T08:13:28.971Z</time></trkpt><trkpt lat="45.5605911" lon="11.9226802"><ele>20.0</ele><time>2026-05-02T08:13:31.011Z</time></trkpt><trkpt lat="45.5605473" lon="11.9225648"><ele>20.333333333333332</ele><time>2026-05-02T08:13:33.005Z</time></trkpt><trkpt lat="45.5605004" lon="11.9224446"><ele>20.666666666666668</ele><time>2026-05-02T08:13:34.979Z</time></trkpt><trkpt lat="45.5604644" lon="11.9223348"><ele>21.0</ele><time>2026-05-02T08:13:37.009Z</time></trkpt><trkpt lat="45.5604322" lon="11.9222478"><ele>21.0</ele><time>2026-05-02T08:13:39.003Z</time></trkpt><trkpt lat="45.5603904" lon="11.9221619"><ele>21.0</ele><time>2026-05-02T08:13:40.985Z</time></trkpt><trkpt lat="45.5603547" lon="11.9220736"><ele>21.0</ele><time>2026-05-02T08:13:42.978Z</time></trkpt><trkpt lat="45.560319" lon="11.9219782"><ele>21.0</ele><time>2026-05-02T08:13:44.99Z</time></trkpt><trkpt lat="45.5602863" lon="11.9218872"><ele>21.0</ele><time>2026-05-02T08:13:46.996Z</time></trkpt><trkpt lat="45.560256" lon="11.9217972"><ele>21.0</ele><time>2026-05-02T08:13:48.998Z</time></trkpt><trkpt lat="45.5602235" lon="11.9217001"><ele>21.0</ele><time>2026-05-02T08:13:50.992Z</time></trkpt><trkpt lat="45.5601925" lon="11.9215828"><ele>21.0</ele><time>2026-05-02T08:13:52.981Z</time></trkpt><trkpt lat="45.5601705" lon="11.9214711"><ele>21.0</ele><time>2026-05-02T08:13:54.996Z</time></trkpt><trkpt lat="45.5601481" lon="11.9213538"><ele>21.0</ele><time>2026-05-02T08:13:56.994Z</time></trkpt><trkpt lat="45.5601236" lon="11.921226"><ele>21.0</ele><time>2026-05-02T08:13:58.983Z</time></trkpt><trkpt lat="45.560106" lon="11.9211163"><ele>21.0</ele><time>2026-05-02T08:14:01.001Z</time></trkpt><trkpt lat="45.5600783" lon="11.920996"><ele>21.0</ele><time>2026-05-02T08:14:02.992Z</time></trkpt><trkpt lat="45.5600484" lon="11.9208557"><ele>21.0</ele><time>2026-05-02T08:14:04.992Z</time></trkpt><trkpt lat="45.5599972" lon="11.9207088"><ele>21.0</ele><time>2026-05-02T08:14:07.007Z</time></trkpt><trkpt lat="45.5599677" lon="11.9205602"><ele>21.0</ele><time>2026-05-02T08:14:09.008Z</time></trkpt><trkpt lat="45.559939" lon="11.9204287"><ele>21.0</ele><time>2026-05-02T08:14:10.989Z</time></trkpt><trkpt lat="45.5599128" lon="11.9203124"><ele>21.0</ele><time>2026-05-02T08:14:13.001Z</time></trkpt><trkpt lat="45.5598893" lon="11.9201973"><ele>21.0</ele><time>2026-05-02T08:14:14.998Z</time></trkpt><trkpt lat="45.5598711" lon="11.92008"><ele>21.0</ele><time>2026-05-02T08:14:17.009Z</time></trkpt><trkpt lat="45.5598492" lon="11.9199528"><ele>21.0</ele><time>2026-05-02T08:14:18.993Z</time></trkpt><trkpt lat="45.5598267" lon="11.9198178"><ele>21.0</ele><time>2026-05-02T08:14:20.994Z</time></trkpt><trkpt lat="45.5598053" lon="11.9196748"><ele>21.0</ele><time>2026-05-02T08:14:22.99Z</time></trkpt><trkpt lat="45.5597763" lon="11.9195434"><ele>20.833333333333332</ele><time>2026-05-02T08:14:25.01Z</time></trkpt><trkpt lat="45.55975" lon="11.9194092"><ele>20.666666666666668</ele><time>2026-05-02T08:14:26.988Z</time></trkpt><trkpt lat="45.5597197" lon="11.9192757"><ele>20.5</ele><time>2026-05-02T08:14:29.015Z</time></trkpt><trkpt lat="45.5597029" lon="11.9191742"><ele>20.333333333333336</ele><time>2026-05-02T08:14:31.002Z</time></trkpt><trkpt lat="45.559681" lon="11.9190651"><ele>20.166666666666668</ele><time>2026-05-02T08:14:32.984Z</time></trkpt><trkpt lat="45.5596536" lon="11.9189611"><ele>20.0</ele><time>2026-05-02T08:14:35.01Z</time></trkpt><trkpt lat="45.5596265" lon="11.9188496"><ele>20.0</ele><time>2026-05-02T08:14:36.992Z</time></trkpt><trkpt lat="45.5595904" lon="11.9186956"><ele>20.0</ele><time>2026-05-02T08:14:38.978Z</time></trkpt><trkpt lat="45.5595612" lon="11.9185699"><ele>20.0</ele><time>2026-05-02T08:14:40.974Z</time></trkpt><trkpt lat="45.5595265" lon="11.9184365"><ele>20.0</ele><time>2026-05-02T08:14:42.992Z</time></trkpt><trkpt lat="45.5594943" lon="11.9182994"><ele>20.0</ele><time>2026-05-02T08:14:44.999Z</time></trkpt><trkpt lat="45.5594639" lon="11.9181759"><ele>20.0</ele><time>2026-05-02T08:14:46.998Z</time></trkpt><trkpt lat="45.5594343" lon="11.9180498"><ele>20.0</ele><time>2026-05-02T08:14:49.008Z</time></trkpt><trkpt lat="45.5594109" lon="11.9179301"><ele>20.0</ele><time>2026-05-02T08:14:50.977Z</time></trkpt><trkpt lat="45.5593906" lon="11.9178109"><ele>20.0</ele><time>2026-05-02T08:14:52.984Z</time></trkpt><trkpt lat="45.5593648" lon="11.917716"><ele>20.0</ele><time>2026-05-02T08:14:55.005Z</time></trkpt><trkpt lat="45.5593322" lon="11.9176141"><ele>20.0</ele><time>2026-05-02T08:14:57.988Z</time></trkpt><trkpt lat="45.5593191" lon="11.9175072"><ele>20.0</ele><time>2026-05-02T08:15:00.982Z</time></trkpt><trkpt lat="45.5593194" lon="11.9174077"><ele>20.0</ele><time>2026-05-02T08:15:03.993Z</time></trkpt><trkpt lat="45.5592956" lon="11.9172696"><ele>20.0</ele><time>2026-05-02T08:15:06.989Z</time></trkpt><trkpt lat="45.5592739" lon="11.9171698"><ele>20.0</ele><time>2026-05-02T08:15:09.006Z</time></trkpt><trkpt lat="45.5592455" lon="11.9170451"><ele>20.0</ele><time>2026-05-02T08:15:10.99Z</time></trkpt><trkpt lat="45.5592148" lon="11.9169219"><ele>20.0</ele><time>2026-05-02T08:15:13Z</time></trkpt><trkpt lat="45.5591936" lon="11.9167874"><ele>20.166666666666668</ele><time>2026-05-02T08:15:15.002Z</time></trkpt><trkpt lat="45.5591822" lon="11.9166582"><ele>20.333333333333336</ele><time>2026-05-02T08:15:17Z</time></trkpt><trkpt lat="45.5591569" lon="11.9165484"><ele>20.5</ele><time>2026-05-02T08:15:18.989Z</time></trkpt><trkpt lat="45.5591203" lon="11.9164325"><ele>20.666666666666668</ele><time>2026-05-02T08:15:20.995Z</time></trkpt><trkpt lat="45.5590775" lon="11.9163131"><ele>20.833333333333332</ele><time>2026-05-02T08:15:22.99Z</time></trkpt><trkpt lat="45.5590526" lon="11.9161987"><ele>21.0</ele><time>2026-05-02T08:15:25Z</time></trkpt><trkpt lat="45.5590202" lon="11.91607"><ele>21.0</ele><time>2026-05-02T08:15:27.002Z</time></trkpt><trkpt lat="45.5589949" lon="11.9159384"><ele>21.0</ele><time>2026-05-02T08:15:29Z</time></trkpt><trkpt lat="45.5589653" lon="11.9158176"><ele>21.0</ele><time>2026-05-02T08:15:30.989Z</time></trkpt><trkpt lat="45.5589303" lon="11.9156945"><ele>21.0</ele><time>2026-05-02T08:15:33.005Z</time></trkpt><trkpt lat="45.5589157" lon="11.9155808"><ele>21.0</ele><time>2026-05-02T08:15:35.007Z</time></trkpt><trkpt lat="45.5588997" lon="11.9154696"><ele>21.0</ele><time>2026-05-02T08:15:37.01Z</time></trkpt><trkpt lat="45.5588815" lon="11.9153736"><ele>21.0</ele><time>2026-05-02T08:15:38.99Z</time></trkpt><trkpt lat="45.5588723" lon="11.915266"><ele>21.0</ele><time>2026-05-02T08:15:41.008Z</time></trkpt><trkpt lat="45.5588565" lon="11.9151552"><ele>21.0</ele><time>2026-05-02T08:15:43.003Z</time></trkpt><trkpt lat="45.558838" lon="11.9150431"><ele>21.0</ele><time>2026-05-02T08:15:44.995Z</time></trkpt><trkpt lat="45.558811" lon="11.9149262"><ele>21.0</ele><time>2026-05-02T08:15:46.996Z</time></trkpt><trkpt lat="45.5587679" lon="11.9147825"><ele>21.0</ele><time>2026-05-02T08:15:49.015Z</time></trkpt><trkpt lat="45.5587295" lon="11.9146389"><ele>20.8</ele><time>2026-05-02T08:15:50.991Z</time></trkpt><trkpt lat="45.5586951" lon="11.9145115"><ele>20.6</ele><time>2026-05-02T08:15:53.003Z</time></trkpt><trkpt lat="45.5586604" lon="11.9143753"><ele>20.4</ele><time>2026-05-02T08:15:55.001Z</time></trkpt><trkpt lat="45.5586269" lon="11.9142522"><ele>20.2</ele><time>2026-05-02T08:15:56.995Z</time></trkpt><trkpt lat="45.558615" lon="11.9141284"><ele>20.0</ele><time>2026-05-02T08:15:59.007Z</time></trkpt><trkpt lat="45.5585919" lon="11.9140073"><ele>20.0</ele><time>2026-05-02T08:16:00.997Z</time></trkpt><trkpt lat="45.5585681" lon="11.9138787"><ele>20.0</ele><time>2026-05-02T08:16:02.988Z</time></trkpt><trkpt lat="45.558542" lon="11.9137629"><ele>20.0</ele><time>2026-05-02T08:16:04.998Z</time></trkpt><trkpt lat="45.558521" lon="11.9136581"><ele>20.0</ele><time>2026-05-02T08:16:06.988Z</time></trkpt><trkpt lat="45.5585009" lon="11.9135327"><ele>20.0</ele><time>2026-05-02T08:16:09.011Z</time></trkpt><trkpt lat="45.5584732" lon="11.9133966"><ele>20.0</ele><time>2026-05-02T08:16:10.98Z</time></trkpt><trkpt lat="45.5584451" lon="11.9132716"><ele>20.166666666666668</ele><time>2026-05-02T08:16:12.979Z</time></trkpt><trkpt lat="45.5584162" lon="11.9131392"><ele>20.333333333333336</ele><time>2026-05-02T08:16:14.999Z</time></trkpt><trkpt lat="45.5583906" lon="11.9130353"><ele>20.5</ele><time>2026-05-02T08:16:16.995Z</time></trkpt><trkpt lat="45.5583641" lon="11.9129307"><ele>20.666666666666668</ele><time>2026-05-02T08:16:19Z</time></trkpt><trkpt lat="45.5583381" lon="11.91281"><ele>20.833333333333332</ele><time>2026-05-02T08:16:20.99Z</time></trkpt><trkpt lat="45.5583102" lon="11.9126742"><ele>21.0</ele><time>2026-05-02T08:16:22.989Z</time></trkpt><trkpt lat="45.5582737" lon="11.9125602"><ele>20.666666666666668</ele><time>2026-05-02T08:16:24.997Z</time></trkpt><trkpt lat="45.5582496" lon="11.912452"><ele>20.333333333333332</ele><time>2026-05-02T08:16:26.997Z</time></trkpt><trkpt lat="45.5582195" lon="11.9123377"><ele>20.0</ele><time>2026-05-02T08:16:28.995Z</time></trkpt><trkpt lat="45.5581981" lon="11.9122149"><ele>19.666666666666664</ele><time>2026-05-02T08:16:30.976Z</time></trkpt><trkpt lat="45.5581727" lon="11.9120822"><ele>19.333333333333332</ele><time>2026-05-02T08:16:32.963Z</time></trkpt><trkpt lat="45.5581531" lon="11.9119744"><ele>19.0</ele><time>2026-05-02T08:16:35.004Z</time></trkpt><trkpt lat="45.5581338" lon="11.9118742"><ele>19.0</ele><time>2026-05-02T08:16:37Z</time></trkpt><trkpt lat="45.5581122" lon="11.9117627"><ele>19.0</ele><time>2026-05-02T08:16:38.985Z</time></trkpt><trkpt lat="45.5580899" lon="11.9116512"><ele>19.0</ele><time>2026-05-02T08:16:40.984Z</time></trkpt><trkpt lat="45.558061" lon="11.9115433"><ele>19.0</ele><time>2026-05-02T08:16:42.985Z</time></trkpt><trkpt lat="45.5580402" lon="11.9114499"><ele>19.0</ele><time>2026-05-02T08:16:45.004Z</time></trkpt><trkpt lat="45.5580189" lon="11.911356"><ele>19.0</ele><time>2026-05-02T08:16:46.997Z</time></trkpt><trkpt lat="45.5579951" lon="11.9112617"><ele>19.333333333333332</ele><time>2026-05-02T08:16:48.982Z</time></trkpt><trkpt lat="45.5579759" lon="11.9111536"><ele>19.666666666666664</ele><time>2026-05-02T08:16:50.983Z</time></trkpt><trkpt lat="45.5579559" lon="11.9110534"><ele>20.0</ele><time>2026-05-02T08:16:52.986Z</time></trkpt><trkpt lat="45.5579291" lon="11.9109693"><ele>20.333333333333332</ele><time>2026-05-02T08:16:54.997Z</time></trkpt><trkpt lat="45.5579024" lon="11.9108751"><ele>20.666666666666668</ele><time>2026-05-02T08:16:57.003Z</time></trkpt><trkpt lat="45.5578567" lon="11.91078"><ele>21.0</ele><time>2026-05-02T08:16:58.993Z</time></trkpt><trkpt lat="45.5578379" lon="11.9106649"><ele>21.142857142857142</ele><time>2026-05-02T08:17:01.002Z</time></trkpt><trkpt lat="45.5578419" lon="11.9105709"><ele>21.285714285714285</ele><time>2026-05-02T08:17:02.996Z</time></trkpt><trkpt lat="45.5578582" lon="11.9104524"><ele>21.42857142857143</ele><time>2026-05-02T08:17:06.005Z</time></trkpt><trkpt lat="45.5578784" lon="11.9103543"><ele>21.57142857142857</ele><time>2026-05-02T08:17:09.005Z</time></trkpt><trkpt lat="45.5578496" lon="11.9102739"><ele>21.714285714285715</ele><time>2026-05-02T08:17:15.006Z</time></trkpt><trkpt lat="45.5578018" lon="11.9102031"><ele>21.857142857142858</ele><time>2026-05-02T08:17:17.998Z</time></trkpt><trkpt lat="45.5577664" lon="11.910098"><ele>22.0</ele><time>2026-05-02T08:17:21.01Z</time></trkpt><trkpt lat="45.5577408" lon="11.9099735"><ele>22.0</ele><time>2026-05-02T08:17:23.991Z</time></trkpt><trkpt lat="45.557718" lon="11.9098869"><ele>22.0</ele><time>2026-05-02T08:17:25.996Z</time></trkpt><trkpt lat="45.5576828" lon="11.9097748"><ele>22.0</ele><time>2026-05-02T08:17:28.037Z</time></trkpt><trkpt lat="45.5576473" lon="11.9096372"><ele>22.0</ele><time>2026-05-02T08:17:29.998Z</time></trkpt><trkpt lat="45.5576188" lon="11.9095115"><ele>22.0</ele><time>2026-05-02T08:17:31.995Z</time></trkpt><trkpt lat="45.557583" lon="11.9093991"><ele>22.0</ele><time>2026-05-02T08:17:33.98Z</time></trkpt><trkpt lat="45.5575658" lon="11.9092852"><ele>22.0</ele><time>2026-05-02T08:17:35.974Z</time></trkpt><trkpt lat="45.5575547" lon="11.9091686"><ele>22.0</ele><time>2026-05-02T08:17:38.006Z</time></trkpt><trkpt lat="45.5575267" lon="11.9090618"><ele>22.0</ele><time>2026-05-02T08:17:40.003Z</time></trkpt><trkpt lat="45.5575054" lon="11.9089545"><ele>22.0</ele><time>2026-05-02T08:17:41.987Z</time></trkpt><trkpt lat="45.5574821" lon="11.9088466"><ele>22.0</ele><time>2026-05-02T08:17:44Z</time></trkpt><trkpt lat="45.5574489" lon="11.9086981"><ele>22.0</ele><time>2026-05-02T08:17:45.999Z</time></trkpt><trkpt lat="45.5574068" lon="11.9085652"><ele>22.0</ele><time>2026-05-02T08:17:48.044Z</time></trkpt><trkpt lat="45.5573681" lon="11.9084332"><ele>22.0</ele><time>2026-05-02T08:17:50.001Z</time></trkpt><trkpt lat="45.5573412" lon="11.9083017"><ele>22.0</ele><time>2026-05-02T08:17:51.99Z</time></trkpt><trkpt lat="45.5573182" lon="11.9081782"><ele>22.0</ele><time>2026-05-02T08:17:53.988Z</time></trkpt><trkpt lat="45.5573075" lon="11.9080452"><ele>22.0</ele><time>2026-05-02T08:17:55.976Z</time></trkpt><trkpt lat="45.55729" lon="11.9079313"><ele>21.833333333333332</ele><time>2026-05-02T08:17:57.988Z</time></trkpt><trkpt lat="45.557267" lon="11.9078251"><ele>21.666666666666664</ele><time>2026-05-02T08:17:59.98Z</time></trkpt><trkpt lat="45.5572387" lon="11.9077168"><ele>21.5</ele><time>2026-05-02T08:18:01.999Z</time></trkpt><trkpt lat="45.5572191" lon="11.9076137"><ele>21.333333333333332</ele><time>2026-05-02T08:18:03.991Z</time></trkpt><trkpt lat="45.5572055" lon="11.9074947"><ele>21.166666666666668</ele><time>2026-05-02T08:18:06.085Z</time></trkpt><trkpt lat="45.5571772" lon="11.9073685"><ele>21.0</ele><time>2026-05-02T08:18:07.987Z</time></trkpt><trkpt lat="45.5571539" lon="11.9072461"><ele>20.833333333333332</ele><time>2026-05-02T08:18:10Z</time></trkpt><trkpt lat="45.5571337" lon="11.9071184"><ele>20.666666666666668</ele><time>2026-05-02T08:18:11.992Z</time></trkpt><trkpt lat="45.5571123" lon="11.9070091"><ele>20.5</ele><time>2026-05-02T08:18:13.99Z</time></trkpt><trkpt lat="45.557087" lon="11.9068964"><ele>20.333333333333336</ele><time>2026-05-02T08:18:15.994Z</time></trkpt><trkpt lat="45.5570612" lon="11.9067841"><ele>20.166666666666668</ele><time>2026-05-02T08:18:18.009Z</time></trkpt><trkpt lat="45.5570394" lon="11.906681"><ele>20.0</ele><time>2026-05-02T08:18:19.99Z</time></trkpt><trkpt lat="45.5570141" lon="11.9065669"><ele>20.0</ele><time>2026-05-02T08:18:21.997Z</time></trkpt><trkpt lat="45.5569933" lon="11.9064426"><ele>20.0</ele><time>2026-05-02T08:18:23.988Z</time></trkpt><trkpt lat="45.5569593" lon="11.9063045"><ele>20.0</ele><time>2026-05-02T08:18:25.998Z</time></trkpt><trkpt lat="45.5569349" lon="11.9061609"><ele>20.0</ele><time>2026-05-02T08:18:27.997Z</time></trkpt><trkpt lat="45.5569098" lon="11.9060382"><ele>20.0</ele><time>2026-05-02T08:18:29.99Z</time></trkpt><trkpt lat="45.5568828" lon="11.905933"><ele>20.0</ele><time>2026-05-02T08:18:31.997Z</time></trkpt><trkpt lat="45.5568629" lon="11.9058244"><ele>20.0</ele><time>2026-05-02T08:18:33.994Z</time></trkpt><trkpt lat="45.5568374" lon="11.9057118"><ele>20.0</ele><time>2026-05-02T08:18:36.034Z</time></trkpt><trkpt lat="45.5568071" lon="11.9055671"><ele>20.0</ele><time>2026-05-02T08:18:38.04Z</time></trkpt><trkpt lat="45.5567769" lon="11.9054228"><ele>20.0</ele><time>2026-05-02T08:18:39.987Z</time></trkpt><trkpt lat="45.5567518" lon="11.9053091"><ele>20.0</ele><time>2026-05-02T08:18:42.009Z</time></trkpt><trkpt lat="45.5567299" lon="11.9052013"><ele>20.0</ele><time>2026-05-02T08:18:44.009Z</time></trkpt><trkpt lat="45.5567029" lon="11.9050964"><ele>20.0</ele><time>2026-05-02T08:18:46.043Z</time></trkpt><trkpt lat="45.5566846" lon="11.9049846"><ele>20.0</ele><time>2026-05-02T08:18:48.001Z</time></trkpt><trkpt lat="45.5566583" lon="11.9048383"><ele>20.0</ele><time>2026-05-02T08:18:50.001Z</time></trkpt><trkpt lat="45.5566217" lon="11.9047209"><ele>20.0</ele><time>2026-05-02T08:18:52.087Z</time></trkpt><trkpt lat="45.5566" lon="11.9045871"><ele>19.8</ele><time>2026-05-02T08:18:53.988Z</time></trkpt><trkpt lat="45.5565725" lon="11.9044461"><ele>19.6</ele><time>2026-05-02T08:18:55.995Z</time></trkpt><trkpt lat="45.5565404" lon="11.9043276"><ele>19.4</ele><time>2026-05-02T08:18:57.996Z</time></trkpt><trkpt lat="45.5565143" lon="11.9041939"><ele>19.2</ele><time>2026-05-02T08:18:59.99Z</time></trkpt><trkpt lat="45.5564894" lon="11.9040721"><ele>19.0</ele><time>2026-05-02T08:19:02.041Z</time></trkpt><trkpt lat="45.5564578" lon="11.9039492"><ele>19.0</ele><time>2026-05-02T08:19:04.004Z</time></trkpt><trkpt lat="45.5564313" lon="11.9038182"><ele>19.0</ele><time>2026-05-02T08:19:05.989Z</time></trkpt><trkpt lat="45.5564054" lon="11.9037068"><ele>19.0</ele><time>2026-05-02T08:19:08.006Z</time></trkpt><trkpt lat="45.5563799" lon="11.9035779"><ele>19.0</ele><time>2026-05-02T08:19:10.002Z</time></trkpt><trkpt lat="45.5563552" lon="11.9034657"><ele>19.0</ele><time>2026-05-02T08:19:11.98Z</time></trkpt><trkpt lat="45.5563146" lon="11.9033391"><ele>19.0</ele><time>2026-05-02T08:19:13.988Z</time></trkpt><trkpt lat="45.5562793" lon="11.9032142"><ele>19.0</ele><time>2026-05-02T08:19:15.99Z</time></trkpt><trkpt lat="45.5562518" lon="11.9030891"><ele>19.0</ele><time>2026-05-02T08:19:17.996Z</time></trkpt><trkpt lat="45.5562238" lon="11.9029641"><ele>19.0</ele><time>2026-05-02T08:19:19.99Z</time></trkpt><trkpt lat="45.5561935" lon="11.9028498"><ele>19.0</ele><time>2026-05-02T08:19:21.992Z</time></trkpt><trkpt lat="45.5561687" lon="11.9027524"><ele>19.0</ele><time>2026-05-02T08:19:23.996Z</time></trkpt><trkpt lat="45.5561549" lon="11.9026488"><ele>18.833333333333332</ele><time>2026-05-02T08:19:25.989Z</time></trkpt><trkpt lat="45.5561374" lon="11.9025543"><ele>18.666666666666664</ele><time>2026-05-02T08:19:28.01Z</time></trkpt><trkpt lat="45.5561138" lon="11.9024408"><ele>18.5</ele><time>2026-05-02T08:19:29.992Z</time></trkpt><trkpt lat="45.5560905" lon="11.9022997"><ele>18.333333333333332</ele><time>2026-05-02T08:19:31.994Z</time></trkpt><trkpt lat="45.5560721" lon="11.9021671"><ele>18.166666666666668</ele><time>2026-05-02T08:19:34.005Z</time></trkpt><trkpt lat="45.5560422" lon="11.9020434"><ele>18.0</ele><time>2026-05-02T08:19:35.974Z</time></trkpt><trkpt lat="45.5560204" lon="11.9019165"><ele>18.0</ele><time>2026-05-02T08:19:37.998Z</time></trkpt><trkpt lat="45.555989" lon="11.9018013"><ele>18.0</ele><time>2026-05-02T08:19:40.006Z</time></trkpt><trkpt lat="45.5559635" lon="11.9016799"><ele>18.0</ele><time>2026-05-02T08:19:41.998Z</time></trkpt><trkpt lat="45.555938" lon="11.9015652"><ele>18.0</ele><time>2026-05-02T08:19:44.004Z</time></trkpt><trkpt lat="45.5559065" lon="11.9014289"><ele>18.0</ele><time>2026-05-02T08:19:45.998Z</time></trkpt><trkpt lat="45.5558794" lon="11.9012949"><ele>18.166666666666668</ele><time>2026-05-02T08:19:48.001Z</time></trkpt><trkpt lat="45.5558555" lon="11.9011637"><ele>18.333333333333332</ele><time>2026-05-02T08:19:50.006Z</time></trkpt><trkpt lat="45.555836" lon="11.9010473"><ele>18.5</ele><time>2026-05-02T08:19:51.993Z</time></trkpt><trkpt lat="45.5558142" lon="11.9009335"><ele>18.666666666666664</ele><time>2026-05-02T08:19:54.002Z</time></trkpt><trkpt lat="45.5557904" lon="11.9008179"><ele>18.833333333333332</ele><time>2026-05-02T08:19:55.996Z</time></trkpt><trkpt lat="45.5557713" lon="11.9007023"><ele>19.0</ele><time>2026-05-02T08:19:58.009Z</time></trkpt><trkpt lat="45.5557434" lon="11.9005765"><ele>19.2</ele><time>2026-05-02T08:19:59.998Z</time></trkpt><trkpt lat="45.5557115" lon="11.9004521"><ele>19.4</ele><time>2026-05-02T08:20:02.001Z</time></trkpt><trkpt lat="45.5556925" lon="11.9003343"><ele>19.6</ele><time>2026-05-02T08:20:03.975Z</time></trkpt><trkpt lat="45.5556465" lon="11.9002118"><ele>19.8</ele><time>2026-05-02T08:20:05.987Z</time></trkpt><trkpt lat="45.5556096" lon="11.9000963"><ele>20.0</ele><time>2026-05-02T08:20:08.005Z</time></trkpt><trkpt lat="45.5555839" lon="11.8999674"><ele>20.0</ele><time>2026-05-02T08:20:10.009Z</time></trkpt><trkpt lat="45.5555559" lon="11.899863"><ele>20.0</ele><time>2026-05-02T08:20:12.009Z</time></trkpt><trkpt lat="45.5555398" lon="11.8997349"><ele>20.0</ele><time>2026-05-02T08:20:14.034Z</time></trkpt><trkpt lat="45.5555152" lon="11.8996204"><ele>20.0</ele><time>2026-05-02T08:20:16Z</time></trkpt><trkpt lat="45.5554955" lon="11.8995024"><ele>20.0</ele><time>2026-05-02T08:20:17.984Z</time></trkpt><trkpt lat="45.5554737" lon="11.8993599"><ele>20.0</ele><time>2026-05-02T08:20:20.002Z</time></trkpt><trkpt lat="45.5554509" lon="11.8992238"><ele>20.0</ele><time>2026-05-02T08:20:22.014Z</time></trkpt><trkpt lat="45.5554298" lon="11.8990852"><ele>20.0</ele><time>2026-05-02T08:20:24.002Z</time></trkpt><trkpt lat="45.5554006" lon="11.8989737"><ele>20.0</ele><time>2026-05-02T08:20:26.006Z</time></trkpt><trkpt lat="45.5553766" lon="11.8988555"><ele>20.0</ele><time>2026-05-02T08:20:27.99Z</time></trkpt><trkpt lat="45.5553478" lon="11.8987535"><ele>20.0</ele><time>2026-05-02T08:20:30.01Z</time></trkpt><trkpt lat="45.5553341" lon="11.8986594"><ele>20.0</ele><time>2026-05-02T08:20:31.996Z</time></trkpt><trkpt lat="45.5553482" lon="11.8985632"><ele>20.0</ele><time>2026-05-02T08:20:34.991Z</time></trkpt><trkpt lat="45.55535" lon="11.8984631"><ele>20.0</ele><time>2026-05-02T08:20:39.004Z</time></trkpt><trkpt lat="45.5553286" lon="11.8983753"><ele>20.0</ele><time>2026-05-02T08:20:42.033Z</time></trkpt><trkpt lat="45.5552804" lon="11.8983154"><ele>20.0</ele><time>2026-05-02T08:20:44.99Z</time></trkpt><trkpt lat="45.5552528" lon="11.8981987"><ele>20.0</ele><time>2026-05-02T08:20:47.987Z</time></trkpt><trkpt lat="45.5552166" lon="11.898091"><ele>20.0</ele><time>2026-05-02T08:20:50.974Z</time></trkpt><trkpt lat="45.5551801" lon="11.8979669"><ele>20.0</ele><time>2026-05-02T08:20:53.961Z</time></trkpt><trkpt lat="45.5551418" lon="11.8978561"><ele>20.0</ele><time>2026-05-02T08:20:56.995Z</time></trkpt><trkpt lat="45.5551205" lon="11.8977471"><ele>20.0</ele><time>2026-05-02T08:20:59.984Z</time></trkpt><trkpt lat="45.5551016" lon="11.8976154"><ele>20.0</ele><time>2026-05-02T08:21:03.038Z</time></trkpt><trkpt lat="45.555072" lon="11.8974847"><ele>20.0</ele><time>2026-05-02T08:21:06.002Z</time></trkpt><trkpt lat="45.5550443" lon="11.8973847"><ele>20.0</ele><time>2026-05-02T08:21:07.992Z</time></trkpt><trkpt lat="45.5550279" lon="11.8972791"><ele>20.0</ele><time>2026-05-02T08:21:09.982Z</time></trkpt><trkpt lat="45.5550205" lon="11.8971222"><ele>20.0</ele><time>2026-05-02T08:21:12.005Z</time></trkpt><trkpt lat="45.5549897" lon="11.8969998"><ele>20.0</ele><time>2026-05-02T08:21:14.002Z</time></trkpt><trkpt lat="45.5549604" lon="11.8968823"><ele>20.0</ele><time>2026-05-02T08:21:16.045Z</time></trkpt><trkpt lat="45.5549332" lon="11.8967711"><ele>20.0</ele><time>2026-05-02T08:21:17.987Z</time></trkpt><trkpt lat="45.5548975" lon="11.8966296"><ele>20.0</ele><time>2026-05-02T08:21:19.989Z</time></trkpt><trkpt lat="45.5548573" lon="11.8964739"><ele>20.0</ele><time>2026-05-02T08:21:22.005Z</time></trkpt><trkpt lat="45.5548306" lon="11.896341"><ele>20.0</ele><time>2026-05-02T08:21:23.988Z</time></trkpt><trkpt lat="45.5548082" lon="11.8962355"><ele>20.0</ele><time>2026-05-02T08:21:26.013Z</time></trkpt><trkpt lat="45.5547846" lon="11.8961348"><ele>20.0</ele><time>2026-05-02T08:21:27.985Z</time></trkpt><trkpt lat="45.5547603" lon="11.8960229"><ele>20.0</ele><time>2026-05-02T08:21:30.07Z</time></trkpt><trkpt lat="45.5547403" lon="11.895881"><ele>20.0</ele><time>2026-05-02T08:21:31.982Z</time></trkpt><trkpt lat="45.5547053" lon="11.8957287"><ele>20.0</ele><time>2026-05-02T08:21:33.996Z</time></trkpt><trkpt lat="45.5546786" lon="11.895594"><ele>20.0</ele><time>2026-05-02T08:21:35.999Z</time></trkpt><trkpt lat="45.5546492" lon="11.8954555"><ele>20.0</ele><time>2026-05-02T08:21:37.991Z</time></trkpt><trkpt lat="45.5546264" lon="11.8953154"><ele>20.0</ele><time>2026-05-02T08:21:39.994Z</time></trkpt><trkpt lat="45.5545934" lon="11.8951924"><ele>20.0</ele><time>2026-05-02T08:21:41.984Z</time></trkpt><trkpt lat="45.55457" lon="11.8950753"><ele>20.0</ele><time>2026-05-02T08:21:43.99Z</time></trkpt><trkpt lat="45.5545437" lon="11.8949875"><ele>20.0</ele><time>2026-05-02T08:21:46.005Z</time></trkpt><trkpt lat="45.5545183" lon="11.8948647"><ele>20.0</ele><time>2026-05-02T08:21:49.003Z</time></trkpt><trkpt lat="45.5544936" lon="11.8947595"><ele>20.0</ele><time>2026-05-02T08:21:50.977Z</time></trkpt><trkpt lat="45.554473" lon="11.8946197"><ele>20.0</ele><time>2026-05-02T08:21:52.988Z</time></trkpt><trkpt lat="45.5544566" lon="11.8945114"><ele>20.333333333333336</ele><time>2026-05-02T08:21:54.985Z</time></trkpt><trkpt lat="45.5544336" lon="11.8944048"><ele>20.666666666666668</ele><time>2026-05-02T08:21:56.996Z</time></trkpt><trkpt lat="45.5544113" lon="11.8943059"><ele>21.0</ele><time>2026-05-02T08:21:58.975Z</time></trkpt><trkpt lat="45.5543929" lon="11.8942193"><ele>21.333333333333332</ele><time>2026-05-02T08:22:00.991Z</time></trkpt><trkpt lat="45.5543705" lon="11.8940962"><ele>21.666666666666664</ele><time>2026-05-02T08:22:03.986Z</time></trkpt><trkpt lat="45.554353" lon="11.8940012"><ele>22.0</ele><time>2026-05-02T08:22:05.973Z</time></trkpt><trkpt lat="45.5543222" lon="11.8938786"><ele>22.0</ele><time>2026-05-02T08:22:08.982Z</time></trkpt><trkpt lat="45.5542975" lon="11.8937843"><ele>22.0</ele><time>2026-05-02T08:22:10.989Z</time></trkpt><trkpt lat="45.5542754" lon="11.8936652"><ele>22.0</ele><time>2026-05-02T08:22:12.982Z</time></trkpt><trkpt lat="45.5542527" lon="11.8935551"><ele>22.0</ele><time>2026-05-02T08:22:14.974Z</time></trkpt><trkpt lat="45.5542318" lon="11.8934565"><ele>22.0</ele><time>2026-05-02T08:22:17.029Z</time></trkpt><trkpt lat="45.5542112" lon="11.8933554"><ele>22.0</ele><time>2026-05-02T08:22:18.981Z</time></trkpt><trkpt lat="45.5541937" lon="11.8932422"><ele>21.666666666666664</ele><time>2026-05-02T08:22:20.994Z</time></trkpt><trkpt lat="45.5541616" lon="11.8931268"><ele>21.333333333333332</ele><time>2026-05-02T08:22:22.99Z</time></trkpt><trkpt lat="45.5541396" lon="11.8930205"><ele>21.0</ele><time>2026-05-02T08:22:24.997Z</time></trkpt><trkpt lat="45.5541197" lon="11.8929053"><ele>20.666666666666668</ele><time>2026-05-02T08:22:27.059Z</time></trkpt><trkpt lat="45.5540943" lon="11.8928052"><ele>20.333333333333336</ele><time>2026-05-02T08:22:28.995Z</time></trkpt><trkpt lat="45.5540716" lon="11.892702"><ele>20.0</ele><time>2026-05-02T08:22:30.992Z</time></trkpt><trkpt lat="45.5540553" lon="11.8925956"><ele>20.2</ele><time>2026-05-02T08:22:32.997Z</time></trkpt><trkpt lat="45.5540293" lon="11.892478"><ele>20.4</ele><time>2026-05-02T08:22:35.042Z</time></trkpt><trkpt lat="45.5540015" lon="11.8923437"><ele>20.6</ele><time>2026-05-02T08:22:37.057Z</time></trkpt><trkpt lat="45.5539689" lon="11.8922218"><ele>20.8</ele><time>2026-05-02T08:22:39.007Z</time></trkpt><trkpt lat="45.5539399" lon="11.8920948"><ele>21.0</ele><time>2026-05-02T08:22:41.001Z</time></trkpt><trkpt lat="45.5539129" lon="11.8919817"><ele>21.0</ele><time>2026-05-02T08:22:42.999Z</time></trkpt><trkpt lat="45.5538886" lon="11.8918547"><ele>21.0</ele><time>2026-05-02T08:22:45.003Z</time></trkpt><trkpt lat="45.5538575" lon="11.8917297"><ele>21.0</ele><time>2026-05-02T08:22:47.026Z</time></trkpt><trkpt lat="45.5538304" lon="11.8916023"><ele>21.0</ele><time>2026-05-02T08:22:48.996Z</time></trkpt><trkpt lat="45.5538056" lon="11.8914787"><ele>21.0</ele><time>2026-05-02T08:22:50.979Z</time></trkpt><trkpt lat="45.5537879" lon="11.8913657"><ele>21.0</ele><time>2026-05-02T08:22:52.989Z</time></trkpt><trkpt lat="45.5537698" lon="11.8912519"><ele>21.200000000000003</ele><time>2026-05-02T08:22:55.04Z</time></trkpt><trkpt lat="45.5537422" lon="11.8911315"><ele>21.400000000000002</ele><time>2026-05-02T08:22:57.032Z</time></trkpt><trkpt lat="45.5537087" lon="11.8910139"><ele>21.6</ele><time>2026-05-02T08:22:58.982Z</time></trkpt><trkpt lat="45.5536794" lon="11.89089"><ele>21.8</ele><time>2026-05-02T08:23:00.991Z</time></trkpt><trkpt lat="45.553654" lon="11.890764"><ele>22.0</ele><time>2026-05-02T08:23:03.031Z</time></trkpt><trkpt lat="45.5536243" lon="11.8906391"><ele>22.0</ele><time>2026-05-02T08:23:04.99Z</time></trkpt><trkpt lat="45.5536034" lon="11.8905113"><ele>22.0</ele><time>2026-05-02T08:23:07.052Z</time></trkpt><trkpt lat="45.5535766" lon="11.890401"><ele>22.0</ele><time>2026-05-02T08:23:08.993Z</time></trkpt><trkpt lat="45.5535437" lon="11.8902864"><ele>22.0</ele><time>2026-05-02T08:23:11.005Z</time></trkpt><trkpt lat="45.5535132" lon="11.8901763"><ele>22.0</ele><time>2026-05-02T08:23:12.989Z</time></trkpt><trkpt lat="45.5534932" lon="11.8900455"><ele>22.0</ele><time>2026-05-02T08:23:15.008Z</time></trkpt><trkpt lat="45.5534732" lon="11.8899226"><ele>21.833333333333332</ele><time>2026-05-02T08:23:16.982Z</time></trkpt><trkpt lat="45.5534602" lon="11.8897956"><ele>21.666666666666664</ele><time>2026-05-02T08:23:18.992Z</time></trkpt><trkpt lat="45.553423" lon="11.8896597"><ele>21.5</ele><time>2026-05-02T08:23:20.995Z</time></trkpt><trkpt lat="45.5534012" lon="11.8895411"><ele>21.333333333333332</ele><time>2026-05-02T08:23:22.987Z</time></trkpt><trkpt lat="45.5533679" lon="11.8894253"><ele>21.166666666666668</ele><time>2026-05-02T08:23:24.991Z</time></trkpt><trkpt lat="45.5533477" lon="11.8893162"><ele>21.0</ele><time>2026-05-02T08:23:26.993Z</time></trkpt><trkpt lat="45.5533151" lon="11.8891755"><ele>21.0</ele><time>2026-05-02T08:23:28.996Z</time></trkpt><trkpt lat="45.5532858" lon="11.8890485"><ele>21.0</ele><time>2026-05-02T08:23:30.991Z</time></trkpt><trkpt lat="45.5532556" lon="11.888934"><ele>21.0</ele><time>2026-05-02T08:23:32.979Z</time></trkpt><trkpt lat="45.5532223" lon="11.8888128"><ele>21.0</ele><time>2026-05-02T08:23:35.001Z</time></trkpt><trkpt lat="45.553208" lon="11.8886841"><ele>21.0</ele><time>2026-05-02T08:23:37.04Z</time></trkpt><trkpt lat="45.5532031" lon="11.8885532"><ele>21.0</ele><time>2026-05-02T08:23:38.985Z</time></trkpt><trkpt lat="45.5531748" lon="11.8884316"><ele>21.0</ele><time>2026-05-02T08:23:40.998Z</time></trkpt><trkpt lat="45.5531451" lon="11.8883125"><ele>21.0</ele><time>2026-05-02T08:23:43Z</time></trkpt><trkpt lat="45.5531114" lon="11.8881979"><ele>21.0</ele><time>2026-05-02T08:23:44.984Z</time></trkpt><trkpt lat="45.5530911" lon="11.8880789"><ele>21.0</ele><time>2026-05-02T08:23:47.038Z</time></trkpt><trkpt lat="45.5530596" lon="11.8879652"><ele>21.0</ele><time>2026-05-02T08:23:48.99Z</time></trkpt><trkpt lat="45.553036" lon="11.8878627"><ele>21.0</ele><time>2026-05-02T08:23:50.988Z</time></trkpt><trkpt lat="45.5530166" lon="11.8877428"><ele>21.0</ele><time>2026-05-02T08:23:52.997Z</time></trkpt><trkpt lat="45.5529834" lon="11.8876291"><ele>21.0</ele><time>2026-05-02T08:23:56.005Z</time></trkpt><trkpt lat="45.5529572" lon="11.8875235"><ele>21.0</ele><time>2026-05-02T08:23:59.002Z</time></trkpt><trkpt lat="45.5529458" lon="11.8873871"><ele>21.0</ele><time>2026-05-02T08:24:01.988Z</time></trkpt><trkpt lat="45.5529182" lon="11.8872705"><ele>21.0</ele><time>2026-05-02T08:24:03.989Z</time></trkpt><trkpt lat="45.5528983" lon="11.8871715"><ele>21.0</ele><time>2026-05-02T08:24:05.999Z</time></trkpt><trkpt lat="45.5528817" lon="11.8870757"><ele>21.0</ele><time>2026-05-02T08:24:08.041Z</time></trkpt><trkpt lat="45.5528692" lon="11.8869872"><ele>21.0</ele><time>2026-05-02T08:24:09.993Z</time></trkpt><trkpt lat="45.5528563" lon="11.8868908"><ele>21.0</ele><time>2026-05-02T08:24:11.98Z</time></trkpt><trkpt lat="45.5528223" lon="11.8867866"><ele>21.0</ele><time>2026-05-02T08:24:14.027Z</time></trkpt><trkpt lat="45.5527925" lon="11.8866592"><ele>21.0</ele><time>2026-05-02T08:24:16.004Z</time></trkpt><trkpt lat="45.5527604" lon="11.8865412"><ele>21.0</ele><time>2026-05-02T08:24:18.053Z</time></trkpt><trkpt lat="45.5527309" lon="11.886432"><ele>21.0</ele><time>2026-05-02T08:24:20.01Z</time></trkpt><trkpt lat="45.5527098" lon="11.8863263"><ele>21.0</ele><time>2026-05-02T08:24:22.002Z</time></trkpt><trkpt lat="45.5526888" lon="11.8862092"><ele>21.0</ele><time>2026-05-02T08:24:23.995Z</time></trkpt><trkpt lat="45.5526649" lon="11.886079"><ele>21.0</ele><time>2026-05-02T08:24:25.986Z</time></trkpt><trkpt lat="45.552633" lon="11.8859489"><ele>21.0</ele><time>2026-05-02T08:24:28.001Z</time></trkpt><trkpt lat="45.5525992" lon="11.8858222"><ele>21.0</ele><time>2026-05-02T08:24:30.004Z</time></trkpt><trkpt lat="45.5525718" lon="11.8856965"><ele>21.0</ele><time>2026-05-02T08:24:32.007Z</time></trkpt><trkpt lat="45.552555" lon="11.8855705"><ele>21.0</ele><time>2026-05-02T08:24:33.999Z</time></trkpt><trkpt lat="45.5525304" lon="11.8854425"><ele>21.0</ele><time>2026-05-02T08:24:36.009Z</time></trkpt><trkpt lat="45.5525059" lon="11.8853317"><ele>21.0</ele><time>2026-05-02T08:24:38.004Z</time></trkpt><trkpt lat="45.552476" lon="11.8852129"><ele>21.0</ele><time>2026-05-02T08:24:40.006Z</time></trkpt><trkpt lat="45.5524465" lon="11.8850861"><ele>21.0</ele><time>2026-05-02T08:24:42.007Z</time></trkpt><trkpt lat="45.5524147" lon="11.8849678"><ele>21.0</ele><time>2026-05-02T08:24:43.982Z</time></trkpt><trkpt lat="45.5523837" lon="11.8848604"><ele>21.0</ele><time>2026-05-02T08:24:45.996Z</time></trkpt><trkpt lat="45.5523603" lon="11.8847542"><ele>21.0</ele><time>2026-05-02T08:24:48.03Z</time></trkpt><trkpt lat="45.5523351" lon="11.8846291"><ele>21.0</ele><time>2026-05-02T08:24:49.993Z</time></trkpt><trkpt lat="45.5523135" lon="11.8845141"><ele>21.0</ele><time>2026-05-02T08:24:52.003Z</time></trkpt><trkpt lat="45.5522918" lon="11.8843882"><ele>21.166666666666668</ele><time>2026-05-02T08:24:53.994Z</time></trkpt><trkpt lat="45.552264" lon="11.8842574"><ele>21.333333333333332</ele><time>2026-05-02T08:24:56.059Z</time></trkpt><trkpt lat="45.5522453" lon="11.8841372"><ele>21.5</ele><time>2026-05-02T08:24:58.034Z</time></trkpt><trkpt lat="45.5522227" lon="11.8840291"><ele>21.666666666666664</ele><time>2026-05-02T08:24:59.992Z</time></trkpt><trkpt lat="45.5522016" lon="11.883922"><ele>21.833333333333332</ele><time>2026-05-02T08:25:01.979Z</time></trkpt><trkpt lat="45.5521761" lon="11.8838025"><ele>22.0</ele><time>2026-05-02T08:25:03.971Z</time></trkpt><trkpt lat="45.5521521" lon="11.8836766"><ele>22.0</ele><time>2026-05-02T08:25:05.991Z</time></trkpt><trkpt lat="45.5521274" lon="11.8835494"><ele>22.0</ele><time>2026-05-02T08:25:07.989Z</time></trkpt><trkpt lat="45.5520966" lon="11.8834238"><ele>22.0</ele><time>2026-05-02T08:25:09.993Z</time></trkpt><trkpt lat="45.5520741" lon="11.883305"><ele>22.0</ele><time>2026-05-02T08:25:11.976Z</time></trkpt><trkpt lat="45.5520525" lon="11.8831924"><ele>22.0</ele><time>2026-05-02T08:25:13.975Z</time></trkpt><trkpt lat="45.5520273" lon="11.8830786"><ele>22.0</ele><time>2026-05-02T08:25:15.997Z</time></trkpt><trkpt lat="45.5520023" lon="11.8829615"><ele>22.0</ele><time>2026-05-02T08:25:17.979Z</time></trkpt><trkpt lat="45.5519734" lon="11.8828302"><ele>22.0</ele><time>2026-05-02T08:25:19.998Z</time></trkpt><trkpt lat="45.5519489" lon="11.8827092"><ele>22.0</ele><time>2026-05-02T08:25:21.962Z</time></trkpt><trkpt lat="45.551927" lon="11.8825935"><ele>22.0</ele><time>2026-05-02T08:25:23.973Z</time></trkpt><trkpt lat="45.5519026" lon="11.8824835"><ele>22.0</ele><time>2026-05-02T08:25:25.997Z</time></trkpt><trkpt lat="45.5518752" lon="11.8823495"><ele>22.0</ele><time>2026-05-02T08:25:27.982Z</time></trkpt><trkpt lat="45.5518519" lon="11.8822371"><ele>22.0</ele><time>2026-05-02T08:25:30.001Z</time></trkpt><trkpt lat="45.5518276" lon="11.882132"><ele>22.0</ele><time>2026-05-02T08:25:31.983Z</time></trkpt><trkpt lat="45.5518019" lon="11.8820118"><ele>22.0</ele><time>2026-05-02T08:25:33.99Z</time></trkpt><trkpt lat="45.5517647" lon="11.8818543"><ele>22.0</ele><time>2026-05-02T08:25:35.98Z</time></trkpt><trkpt lat="45.5517287" lon="11.8817375"><ele>22.0</ele><time>2026-05-02T08:25:37.983Z</time></trkpt><trkpt lat="45.5516912" lon="11.8816058"><ele>22.0</ele><time>2026-05-02T08:25:39.978Z</time></trkpt><trkpt lat="45.5516656" lon="11.8814847"><ele>22.0</ele><time>2026-05-02T08:25:41.981Z</time></trkpt><trkpt lat="45.5516427" lon="11.881384"><ele>22.0</ele><time>2026-05-02T08:25:43.995Z</time></trkpt><trkpt lat="45.551623" lon="11.8812783"><ele>22.0</ele><time>2026-05-02T08:25:45.997Z</time></trkpt><trkpt lat="45.5516179" lon="11.8811717"><ele>22.0</ele><time>2026-05-02T08:25:48.978Z</time></trkpt><trkpt lat="45.5516132" lon="11.8810778"><ele>22.0</ele><time>2026-05-02T08:25:52.975Z</time></trkpt><trkpt lat="45.551582" lon="11.8809944"><ele>22.0</ele><time>2026-05-02T08:25:55.982Z</time></trkpt><trkpt lat="45.5515631" lon="11.8808732"><ele>22.0</ele><time>2026-05-02T08:25:58.965Z</time></trkpt><trkpt lat="45.5515466" lon="11.8807513"><ele>22.0</ele><time>2026-05-02T08:26:01.982Z</time></trkpt><trkpt lat="45.5515307" lon="11.8806626"><ele>22.0</ele><time>2026-05-02T08:26:03.988Z</time></trkpt><trkpt lat="45.5515069" lon="11.8805701"><ele>22.0</ele><time>2026-05-02T08:26:05.995Z</time></trkpt><trkpt lat="45.5514882" lon="11.8804805"><ele>22.0</ele><time>2026-05-02T08:26:07.972Z</time></trkpt><trkpt lat="45.5514695" lon="11.8803944"><ele>22.0</ele><time>2026-05-02T08:26:09.997Z</time></trkpt><trkpt lat="45.5514478" lon="11.8803069"><ele>22.0</ele><time>2026-05-02T08:26:11.989Z</time></trkpt><trkpt lat="45.5514094" lon="11.8801832"><ele>22.0</ele><time>2026-05-02T08:26:14.978Z</time></trkpt><trkpt lat="45.5513921" lon="11.8800946"><ele>22.0</ele><time>2026-05-02T08:26:16.982Z</time></trkpt><trkpt lat="45.5513742" lon="11.8799849"><ele>22.0</ele><time>2026-05-02T08:26:18.993Z</time></trkpt><trkpt lat="45.5513413" lon="11.8798215"><ele>22.0</ele><time>2026-05-02T08:26:20.983Z</time></trkpt><trkpt lat="45.5513138" lon="11.8796928"><ele>22.0</ele><time>2026-05-02T08:26:22.985Z</time></trkpt><trkpt lat="45.55129" lon="11.8795616"><ele>22.0</ele><time>2026-05-02T08:26:24.988Z</time></trkpt><trkpt lat="45.551263" lon="11.8794275"><ele>22.0</ele><time>2026-05-02T08:26:26.985Z</time></trkpt><trkpt lat="45.5512434" lon="11.8793118"><ele>22.0</ele><time>2026-05-02T08:26:28.989Z</time></trkpt><trkpt lat="45.5512145" lon="11.8791908"><ele>22.0</ele><time>2026-05-02T08:26:30.993Z</time></trkpt><trkpt lat="45.5511888" lon="11.8790768"><ele>22.0</ele><time>2026-05-02T08:26:32.979Z</time></trkpt><trkpt lat="45.5511684" lon="11.8789668"><ele>22.0</ele><time>2026-05-02T08:26:34.977Z</time></trkpt><trkpt lat="45.5511476" lon="11.8788483"><ele>22.0</ele><time>2026-05-02T08:26:36.982Z</time></trkpt><trkpt lat="45.5511222" lon="11.8787247"><ele>22.0</ele><time>2026-05-02T08:26:38.986Z</time></trkpt><trkpt lat="45.551099" lon="11.878601"><ele>22.0</ele><time>2026-05-02T08:26:40.999Z</time></trkpt><trkpt lat="45.5510721" lon="11.8784833"><ele>22.0</ele><time>2026-05-02T08:26:42.978Z</time></trkpt><trkpt lat="45.5510422" lon="11.8783699"><ele>22.0</ele><time>2026-05-02T08:26:44.994Z</time></trkpt><trkpt lat="45.551022" lon="11.8782534"><ele>22.0</ele><time>2026-05-02T08:26:46.994Z</time></trkpt><trkpt lat="45.551003" lon="11.8781315"><ele>22.0</ele><time>2026-05-02T08:26:48.974Z</time></trkpt><trkpt lat="45.5509911" lon="11.8780119"><ele>22.0</ele><time>2026-05-02T08:26:50.988Z</time></trkpt><trkpt lat="45.55097" lon="11.8778864"><ele>22.0</ele><time>2026-05-02T08:26:52.984Z</time></trkpt><trkpt lat="45.5509437" lon="11.8777652"><ele>22.0</ele><time>2026-05-02T08:26:54.995Z</time></trkpt><trkpt lat="45.5509205" lon="11.8776431"><ele>22.0</ele><time>2026-05-02T08:26:56.981Z</time></trkpt><trkpt lat="45.5508986" lon="11.8775172"><ele>22.0</ele><time>2026-05-02T08:26:58.994Z</time></trkpt><trkpt lat="45.5508718" lon="11.8773807"><ele>22.166666666666664</ele><time>2026-05-02T08:27:00.974Z</time></trkpt><trkpt lat="45.5508495" lon="11.8772654"><ele>22.333333333333332</ele><time>2026-05-02T08:27:02.978Z</time></trkpt><trkpt lat="45.5508314" lon="11.877149"><ele>22.5</ele><time>2026-05-02T08:27:04.974Z</time></trkpt><trkpt lat="45.5508157" lon="11.8770311"><ele>22.666666666666668</ele><time>2026-05-02T08:27:06.989Z</time></trkpt><trkpt lat="45.550786" lon="11.876926"><ele>22.833333333333336</ele><time>2026-05-02T08:27:08.976Z</time></trkpt><trkpt lat="45.5507727" lon="11.8768238"><ele>23.0</ele><time>2026-05-02T08:27:11.037Z</time></trkpt><trkpt lat="45.5507482" lon="11.8766994"><ele>22.599999999999998</ele><time>2026-05-02T08:27:12.998Z</time></trkpt><trkpt lat="45.5507309" lon="11.8765604"><ele>22.2</ele><time>2026-05-02T08:27:14.987Z</time></trkpt><trkpt lat="45.5507094" lon="11.8764166"><ele>21.8</ele><time>2026-05-02T08:27:16.991Z</time></trkpt><trkpt lat="45.550688" lon="11.8762913"><ele>21.4</ele><time>2026-05-02T08:27:18.991Z</time></trkpt><trkpt lat="45.5506738" lon="11.876178"><ele>21.0</ele><time>2026-05-02T08:27:20.982Z</time></trkpt><trkpt lat="45.5506502" lon="11.8760597"><ele>21.0</ele><time>2026-05-02T08:27:22.997Z</time></trkpt><trkpt lat="45.5506265" lon="11.8759268"><ele>21.0</ele><time>2026-05-02T08:27:24.991Z</time></trkpt><trkpt lat="45.5505947" lon="11.8757904"><ele>21.0</ele><time>2026-05-02T08:27:26.996Z</time></trkpt><trkpt lat="45.5505741" lon="11.8756678"><ele>21.0</ele><time>2026-05-02T08:27:29.01Z</time></trkpt><trkpt lat="45.5505526" lon="11.8755466"><ele>21.0</ele><time>2026-05-02T08:27:31.041Z</time></trkpt><trkpt lat="45.550524" lon="11.8754279"><ele>21.0</ele><time>2026-05-02T08:27:33.056Z</time></trkpt><trkpt lat="45.5505117" lon="11.8753102"><ele>21.0</ele><time>2026-05-02T08:27:34.994Z</time></trkpt><trkpt lat="45.550492" lon="11.8752011"><ele>21.0</ele><time>2026-05-02T08:27:37.006Z</time></trkpt><trkpt lat="45.5504754" lon="11.8750969"><ele>21.0</ele><time>2026-05-02T08:27:39.016Z</time></trkpt><trkpt lat="45.5504577" lon="11.8749964"><ele>21.0</ele><time>2026-05-02T08:27:40.992Z</time></trkpt><trkpt lat="45.5504374" lon="11.8748866"><ele>21.0</ele><time>2026-05-02T08:27:42.986Z</time></trkpt><trkpt lat="45.5504225" lon="11.8747602"><ele>21.0</ele><time>2026-05-02T08:27:45.005Z</time></trkpt><trkpt lat="45.5504031" lon="11.8746284"><ele>21.0</ele><time>2026-05-02T08:27:47.082Z</time></trkpt><trkpt lat="45.550379" lon="11.8744794"><ele>21.0</ele><time>2026-05-02T08:27:48.993Z</time></trkpt><trkpt lat="45.550365" lon="11.8743517"><ele>21.0</ele><time>2026-05-02T08:27:50.975Z</time></trkpt><trkpt lat="45.5503426" lon="11.8742263"><ele>21.0</ele><time>2026-05-02T08:27:52.987Z</time></trkpt><trkpt lat="45.5503244" lon="11.8740909"><ele>21.0</ele><time>2026-05-02T08:27:54.997Z</time></trkpt><trkpt lat="45.5502993" lon="11.8739645"><ele>21.0</ele><time>2026-05-02T08:27:56.988Z</time></trkpt><trkpt lat="45.5502771" lon="11.8738239"><ele>21.0</ele><time>2026-05-02T08:27:58.99Z</time></trkpt><trkpt lat="45.5502517" lon="11.8737029"><ele>21.0</ele><time>2026-05-02T08:28:00.999Z</time></trkpt><trkpt lat="45.5502415" lon="11.8735859"><ele>21.0</ele><time>2026-05-02T08:28:02.983Z</time></trkpt><trkpt lat="45.5502219" lon="11.8734772"><ele>21.0</ele><time>2026-05-02T08:28:04.982Z</time></trkpt><trkpt lat="45.5502" lon="11.8733678"><ele>21.0</ele><time>2026-05-02T08:28:08.039Z</time></trkpt><trkpt lat="45.5501451" lon="11.8733124"><ele>21.0</ele><time>2026-05-02T08:28:11.979Z</time></trkpt><trkpt lat="45.5500761" lon="11.8733443"><ele>21.0</ele><time>2026-05-02T08:28:14.989Z</time></trkpt><trkpt lat="45.5500132" lon="11.8733388"><ele>21.0</ele><time>2026-05-02T08:29:50.002Z</time></trkpt><trkpt lat="45.5500179" lon="11.8732427"><ele>21.0</ele><time>2026-05-02T08:29:58Z</time></trkpt><trkpt lat="45.5500788" lon="11.8732155"><ele>21.0</ele><time>2026-05-02T08:30:07.996Z</time></trkpt><trkpt lat="45.5501393" lon="11.8731784"><ele>21.0</ele><time>2026-05-02T08:30:17.994Z</time></trkpt><trkpt lat="45.5501586" lon="11.8730927"><ele>21.0</ele><time>2026-05-02T08:30:30.984Z</time></trkpt><trkpt lat="45.5501474" lon="11.8729944"><ele>21.0</ele><time>2026-05-02T08:30:39Z</time></trkpt><trkpt lat="45.5501413" lon="11.8728907"><ele>21.0</ele><time>2026-05-02T08:30:47.994Z</time></trkpt><trkpt lat="45.550124" lon="11.8728042"><ele>21.0</ele><time>2026-05-02T08:30:54.99Z</time></trkpt><trkpt lat="45.5500987" lon="11.8727121"><ele>21.0</ele><time>2026-05-02T08:31:28.008Z</time></trkpt><trkpt lat="45.5500769" lon="11.8726176"><ele>21.0</ele><time>2026-05-02T08:35:28.998Z</time></trkpt><trkpt lat="45.5500593" lon="11.872515"><ele>21.0</ele><time>2026-05-02T08:35:33.002Z</time></trkpt><trkpt lat="45.5500409" lon="11.8724126"><ele>20.833333333333332</ele><time>2026-05-02T08:35:35.996Z</time></trkpt><trkpt lat="45.550024" lon="11.8722837"><ele>20.666666666666668</ele><time>2026-05-02T08:35:38.974Z</time></trkpt><trkpt lat="45.5500124" lon="11.8721831"><ele>20.5</ele><time>2026-05-02T08:35:40.999Z</time></trkpt><trkpt lat="45.5499982" lon="11.8720733"><ele>20.333333333333336</ele><time>2026-05-02T08:35:43.015Z</time></trkpt><trkpt lat="45.5499823" lon="11.8719485"><ele>20.166666666666668</ele><time>2026-05-02T08:35:45.007Z</time></trkpt><trkpt lat="45.5499548" lon="11.8718304"><ele>20.0</ele><time>2026-05-02T08:35:47.002Z</time></trkpt><trkpt lat="45.5499303" lon="11.8717172"><ele>20.0</ele><time>2026-05-02T08:35:48.998Z</time></trkpt><trkpt lat="45.5499112" lon="11.8716098"><ele>20.0</ele><time>2026-05-02T08:35:50.997Z</time></trkpt><trkpt lat="45.5498859" lon="11.8714972"><ele>20.0</ele><time>2026-05-02T08:35:52.987Z</time></trkpt><trkpt lat="45.5498684" lon="11.8713714"><ele>20.0</ele><time>2026-05-02T08:35:54.99Z</time></trkpt><trkpt lat="45.5498445" lon="11.8712363"><ele>20.0</ele><time>2026-05-02T08:35:56.994Z</time></trkpt><trkpt lat="45.5498238" lon="11.8710981"><ele>20.0</ele><time>2026-05-02T08:35:59.003Z</time></trkpt><trkpt lat="45.549805" lon="11.8709732"><ele>20.333333333333336</ele><time>2026-05-02T08:36:00.998Z</time></trkpt><trkpt lat="45.5497826" lon="11.8708521"><ele>20.666666666666668</ele><time>2026-05-02T08:36:02.989Z</time></trkpt><trkpt lat="45.5497629" lon="11.8707424"><ele>21.0</ele><time>2026-05-02T08:36:04.996Z</time></trkpt><trkpt lat="45.5497433" lon="11.8706415"><ele>21.333333333333332</ele><time>2026-05-02T08:36:06.987Z</time></trkpt><trkpt lat="45.5497315" lon="11.8705215"><ele>21.666666666666664</ele><time>2026-05-02T08:36:08.992Z</time></trkpt><trkpt lat="45.5497025" lon="11.870389"><ele>22.0</ele><time>2026-05-02T08:36:10.985Z</time></trkpt><trkpt lat="45.5496788" lon="11.8702669"><ele>22.0</ele><time>2026-05-02T08:36:12.985Z</time></trkpt><trkpt lat="45.5496525" lon="11.8701451"><ele>22.0</ele><time>2026-05-02T08:36:15.002Z</time></trkpt><trkpt lat="45.5496385" lon="11.870034"><ele>22.0</ele><time>2026-05-02T08:36:16.998Z</time></trkpt><trkpt lat="45.5496164" lon="11.8699097"><ele>22.0</ele><time>2026-05-02T08:36:18.999Z</time></trkpt><trkpt lat="45.5495956" lon="11.8697833"><ele>22.0</ele><time>2026-05-02T08:36:20.995Z</time></trkpt><trkpt lat="45.5495782" lon="11.8696516"><ele>22.0</ele><time>2026-05-02T08:36:23.037Z</time></trkpt><trkpt lat="45.5495584" lon="11.8695355"><ele>22.0</ele><time>2026-05-02T08:36:25.002Z</time></trkpt><trkpt lat="45.5495355" lon="11.8694108"><ele>22.0</ele><time>2026-05-02T08:36:26.99Z</time></trkpt><trkpt lat="45.5495139" lon="11.8692929"><ele>22.0</ele><time>2026-05-02T08:36:28.995Z</time></trkpt><trkpt lat="45.5494967" lon="11.8691746"><ele>22.0</ele><time>2026-05-02T08:36:31.003Z</time></trkpt><trkpt lat="45.5494798" lon="11.8690561"><ele>22.0</ele><time>2026-05-02T08:36:32.998Z</time></trkpt><trkpt lat="45.5494561" lon="11.8689259"><ele>22.0</ele><time>2026-05-02T08:36:34.988Z</time></trkpt><trkpt lat="45.5494379" lon="11.8688063"><ele>22.0</ele><time>2026-05-02T08:36:36.994Z</time></trkpt><trkpt lat="45.5494247" lon="11.8686906"><ele>22.0</ele><time>2026-05-02T08:36:38.997Z</time></trkpt><trkpt lat="45.5494173" lon="11.8685746"><ele>22.0</ele><time>2026-05-02T08:36:40.992Z</time></trkpt><trkpt lat="45.5494016" lon="11.8684721"><ele>22.0</ele><time>2026-05-02T08:36:42.991Z</time></trkpt><trkpt lat="45.5493884" lon="11.8683716"><ele>22.0</ele><time>2026-05-02T08:36:44.983Z</time></trkpt><trkpt lat="45.5493721" lon="11.8682684"><ele>22.0</ele><time>2026-05-02T08:36:46.983Z</time></trkpt><trkpt lat="45.5493566" lon="11.8681501"><ele>22.0</ele><time>2026-05-02T08:36:48.984Z</time></trkpt><trkpt lat="45.5493291" lon="11.8680193"><ele>22.0</ele><time>2026-05-02T08:36:50.988Z</time></trkpt><trkpt lat="45.5493116" lon="11.8678875"><ele>22.0</ele><time>2026-05-02T08:36:52.991Z</time></trkpt><trkpt lat="45.549287" lon="11.8677684"><ele>22.0</ele><time>2026-05-02T08:36:54.973Z</time></trkpt><trkpt lat="45.5492666" lon="11.8676648"><ele>22.0</ele><time>2026-05-02T08:36:57.001Z</time></trkpt><trkpt lat="45.5492487" lon="11.8675599"><ele>22.0</ele><time>2026-05-02T08:36:58.998Z</time></trkpt><trkpt lat="45.5492304" lon="11.8674478"><ele>22.0</ele><time>2026-05-02T08:37:00.98Z</time></trkpt><trkpt lat="45.5492092" lon="11.8673332"><ele>22.0</ele><time>2026-05-02T08:37:02.995Z</time></trkpt><trkpt lat="45.5491951" lon="11.8672113"><ele>22.0</ele><time>2026-05-02T08:37:04.983Z</time></trkpt><trkpt lat="45.5491763" lon="11.8670944"><ele>22.0</ele><time>2026-05-02T08:37:07.006Z</time></trkpt><trkpt lat="45.549159" lon="11.8669768"><ele>22.0</ele><time>2026-05-02T08:37:09.012Z</time></trkpt><trkpt lat="45.5491342" lon="11.8668298"><ele>22.0</ele><time>2026-05-02T08:37:10.984Z</time></trkpt><trkpt lat="45.5491093" lon="11.8667053"><ele>22.166666666666664</ele><time>2026-05-02T08:37:12.991Z</time></trkpt><trkpt lat="45.5490864" lon="11.866589"><ele>22.333333333333332</ele><time>2026-05-02T08:37:15.04Z</time></trkpt><trkpt lat="45.5490624" lon="11.8664969"><ele>22.5</ele><time>2026-05-02T08:37:16.997Z</time></trkpt><trkpt lat="45.5490439" lon="11.8663776"><ele>22.666666666666668</ele><time>2026-05-02T08:37:19.983Z</time></trkpt><trkpt lat="45.5490192" lon="11.8662891"><ele>22.833333333333336</ele><time>2026-05-02T08:37:22.98Z</time></trkpt><trkpt lat="45.5489764" lon="11.8661807"><ele>23.0</ele><time>2026-05-02T08:37:26.994Z</time></trkpt><trkpt lat="45.5489649" lon="11.8660475"><ele>23.166666666666668</ele><time>2026-05-02T08:37:29.996Z</time></trkpt><trkpt lat="45.5489706" lon="11.8659138"><ele>23.333333333333336</ele><time>2026-05-02T08:37:32.994Z</time></trkpt><trkpt lat="45.5489588" lon="11.8657877"><ele>23.5</ele><time>2026-05-02T08:37:35.992Z</time></trkpt><trkpt lat="45.5489413" lon="11.8656954"><ele>23.666666666666668</ele><time>2026-05-02T08:37:37.987Z</time></trkpt><trkpt lat="45.548923" lon="11.8655862"><ele>23.833333333333332</ele><time>2026-05-02T08:37:39.981Z</time></trkpt><trkpt lat="45.5488997" lon="11.8654578"><ele>24.0</ele><time>2026-05-02T08:37:41.99Z</time></trkpt><trkpt lat="45.5488769" lon="11.8653158"><ele>24.0</ele><time>2026-05-02T08:37:43.963Z</time></trkpt><trkpt lat="45.5488528" lon="11.8651744"><ele>24.0</ele><time>2026-05-02T08:37:45.984Z</time></trkpt><trkpt lat="45.5488343" lon="11.8650513"><ele>24.0</ele><time>2026-05-02T08:37:47.994Z</time></trkpt><trkpt lat="45.5488078" lon="11.8649462"><ele>24.0</ele><time>2026-05-02T08:37:49.972Z</time></trkpt><trkpt lat="45.5487826" lon="11.8648296"><ele>24.0</ele><time>2026-05-02T08:37:51.983Z</time></trkpt><trkpt lat="45.5487526" lon="11.8646968"><ele>24.0</ele><time>2026-05-02T08:37:54Z</time></trkpt><trkpt lat="45.5487306" lon="11.8645609"><ele>24.0</ele><time>2026-05-02T08:37:55.975Z</time></trkpt><trkpt lat="45.548705" lon="11.8644277"><ele>24.0</ele><time>2026-05-02T08:37:57.998Z</time></trkpt><trkpt lat="45.5486895" lon="11.8643021"><ele>24.0</ele><time>2026-05-02T08:37:59.979Z</time></trkpt><trkpt lat="45.5486753" lon="11.8641706"><ele>24.0</ele><time>2026-05-02T08:38:01.989Z</time></trkpt><trkpt lat="45.5486542" lon="11.8640524"><ele>23.833333333333332</ele><time>2026-05-02T08:38:03.987Z</time></trkpt><trkpt lat="45.5486435" lon="11.8639352"><ele>23.666666666666668</ele><time>2026-05-02T08:38:05.99Z</time></trkpt><trkpt lat="45.5486173" lon="11.8638069"><ele>23.5</ele><time>2026-05-02T08:38:07.989Z</time></trkpt><trkpt lat="45.5486018" lon="11.8636928"><ele>23.333333333333336</ele><time>2026-05-02T08:38:09.975Z</time></trkpt><trkpt lat="45.5485811" lon="11.8635812"><ele>23.166666666666668</ele><time>2026-05-02T08:38:11.977Z</time></trkpt><trkpt lat="45.5485583" lon="11.863455"><ele>23.0</ele><time>2026-05-02T08:38:13.995Z</time></trkpt><trkpt lat="45.5485411" lon="11.8633257"><ele>23.0</ele><time>2026-05-02T08:38:15.989Z</time></trkpt><trkpt lat="45.5485229" lon="11.8632016"><ele>23.0</ele><time>2026-05-02T08:38:17.997Z</time></trkpt><trkpt lat="45.5485052" lon="11.8630651"><ele>23.0</ele><time>2026-05-02T08:38:19.989Z</time></trkpt><trkpt lat="45.548492" lon="11.8629504"><ele>23.0</ele><time>2026-05-02T08:38:21.994Z</time></trkpt><trkpt lat="45.5484832" lon="11.862839"><ele>23.0</ele><time>2026-05-02T08:38:24.009Z</time></trkpt><trkpt lat="45.5484689" lon="11.8627222"><ele>23.0</ele><time>2026-05-02T08:38:25.983Z</time></trkpt><trkpt lat="45.5484448" lon="11.8625844"><ele>23.0</ele><time>2026-05-02T08:38:27.981Z</time></trkpt><trkpt lat="45.5484319" lon="11.862469"><ele>23.0</ele><time>2026-05-02T08:38:30.002Z</time></trkpt><trkpt lat="45.548402" lon="11.8623545"><ele>23.0</ele><time>2026-05-02T08:38:31.985Z</time></trkpt><trkpt lat="45.5483863" lon="11.862242"><ele>23.0</ele><time>2026-05-02T08:38:34.005Z</time></trkpt><trkpt lat="45.5483731" lon="11.8621254"><ele>23.0</ele><time>2026-05-02T08:38:35.992Z</time></trkpt><trkpt lat="45.5483587" lon="11.8620161"><ele>23.0</ele><time>2026-05-02T08:38:38.009Z</time></trkpt><trkpt lat="45.5483381" lon="11.8619073"><ele>23.0</ele><time>2026-05-02T08:38:39.989Z</time></trkpt><trkpt lat="45.5483211" lon="11.8617972"><ele>23.0</ele><time>2026-05-02T08:38:41.984Z</time></trkpt><trkpt lat="45.5483074" lon="11.8616805"><ele>23.0</ele><time>2026-05-02T08:38:43.988Z</time></trkpt><trkpt lat="45.5482708" lon="11.8615603"><ele>23.0</ele><time>2026-05-02T08:38:46.992Z</time></trkpt><trkpt lat="45.5482546" lon="11.8614501"><ele>23.0</ele><time>2026-05-02T08:38:49.986Z</time></trkpt><trkpt lat="45.5482285" lon="11.8613463"><ele>23.0</ele><time>2026-05-02T08:38:52.995Z</time></trkpt><trkpt lat="45.5481673" lon="11.8613149"><ele>23.0</ele><time>2026-05-02T08:38:55.993Z</time></trkpt><trkpt lat="45.5481056" lon="11.8613463"><ele>23.0</ele><time>2026-05-02T08:38:59.984Z</time></trkpt><trkpt lat="45.5481697" lon="11.8613229"><ele>23.0</ele><time>2026-05-02T08:40:56.995Z</time></trkpt><trkpt lat="45.548208" lon="11.8612499"><ele>23.0</ele><time>2026-05-02T08:41:18.989Z</time></trkpt><trkpt lat="45.5482133" lon="11.8611486"><ele>23.0</ele><time>2026-05-02T08:44:04.972Z</time></trkpt><trkpt lat="45.5482067" lon="11.8610574"><ele>23.0</ele><time>2026-05-02T08:44:08.046Z</time></trkpt><trkpt lat="45.5481946" lon="11.8609447"><ele>23.0</ele><time>2026-05-02T08:44:10.961Z</time></trkpt><trkpt lat="45.5481837" lon="11.8608474"><ele>22.833333333333336</ele><time>2026-05-02T08:44:12.994Z</time></trkpt><trkpt lat="45.5481572" lon="11.8607472"><ele>22.666666666666668</ele><time>2026-05-02T08:44:14.997Z</time></trkpt><trkpt lat="45.5481357" lon="11.8606366"><ele>22.5</ele><time>2026-05-02T08:44:17.04Z</time></trkpt><trkpt lat="45.5481074" lon="11.8605191"><ele>22.333333333333332</ele><time>2026-05-02T08:44:18.987Z</time></trkpt><trkpt lat="45.5480861" lon="11.8603802"><ele>22.166666666666664</ele><time>2026-05-02T08:44:20.986Z</time></trkpt><trkpt lat="45.5480696" lon="11.8602529"><ele>22.0</ele><time>2026-05-02T08:44:22.987Z</time></trkpt><trkpt lat="45.5480572" lon="11.8601288"><ele>22.166666666666664</ele><time>2026-05-02T08:44:25Z</time></trkpt><trkpt lat="45.5480277" lon="11.8600026"><ele>22.333333333333332</ele><time>2026-05-02T08:44:27.003Z</time></trkpt><trkpt lat="45.5479988" lon="11.8598814"><ele>22.5</ele><time>2026-05-02T08:44:28.992Z</time></trkpt><trkpt lat="45.5479796" lon="11.8597558"><ele>22.666666666666668</ele><time>2026-05-02T08:44:30.988Z</time></trkpt><trkpt lat="45.5479525" lon="11.8596329"><ele>22.833333333333336</ele><time>2026-05-02T08:44:32.991Z</time></trkpt><trkpt lat="45.5479254" lon="11.8595182"><ele>23.0</ele><time>2026-05-02T08:44:34.986Z</time></trkpt><trkpt lat="45.5478968" lon="11.8593872"><ele>22.799999999999997</ele><time>2026-05-02T08:44:36.986Z</time></trkpt><trkpt lat="45.5478699" lon="11.8593028"><ele>22.6</ele><time>2026-05-02T08:44:37.973Z</time></trkpt><trkpt lat="45.5478349" lon="11.8591502"><ele>22.4</ele><time>2026-05-02T08:44:40.001Z</time></trkpt><trkpt lat="45.5478083" lon="11.858988"><ele>22.200000000000003</ele><time>2026-05-02T08:44:41.992Z</time></trkpt><trkpt lat="45.547782" lon="11.8588438"><ele>22.0</ele><time>2026-05-02T08:44:43.998Z</time></trkpt><trkpt lat="45.5477572" lon="11.8587075"><ele>22.0</ele><time>2026-05-02T08:44:45.996Z</time></trkpt><trkpt lat="45.5477365" lon="11.8585734"><ele>22.0</ele><time>2026-05-02T08:44:47.989Z</time></trkpt><trkpt lat="45.5477092" lon="11.8584444"><ele>22.0</ele><time>2026-05-02T08:44:50.008Z</time></trkpt><trkpt lat="45.5476777" lon="11.8583266"><ele>22.0</ele><time>2026-05-02T08:44:52.004Z</time></trkpt><trkpt lat="45.5476487" lon="11.8582209"><ele>22.0</ele><time>2026-05-02T08:44:53.996Z</time></trkpt><trkpt lat="45.5476201" lon="11.8580865"><ele>22.200000000000003</ele><time>2026-05-02T08:44:56.04Z</time></trkpt><trkpt lat="45.5475935" lon="11.8579554"><ele>22.4</ele><time>2026-05-02T08:44:57.992Z</time></trkpt><trkpt lat="45.5475643" lon="11.8578171"><ele>22.6</ele><time>2026-05-02T08:44:59.985Z</time></trkpt><trkpt lat="45.5475449" lon="11.8576829"><ele>22.799999999999997</ele><time>2026-05-02T08:45:02.002Z</time></trkpt><trkpt lat="45.5475242" lon="11.8575454"><ele>23.0</ele><time>2026-05-02T08:45:03.989Z</time></trkpt><trkpt lat="45.5475114" lon="11.857399"><ele>23.0</ele><time>2026-05-02T08:45:05.996Z</time></trkpt><trkpt lat="45.5474749" lon="11.8572754"><ele>23.0</ele><time>2026-05-02T08:45:08.001Z</time></trkpt><trkpt lat="45.5474444" lon="11.8571535"><ele>23.0</ele><time>2026-05-02T08:45:10.013Z</time></trkpt><trkpt lat="45.5474247" lon="11.8570308"><ele>23.0</ele><time>2026-05-02T08:45:11.993Z</time></trkpt><trkpt lat="45.5474067" lon="11.8569028"><ele>23.0</ele><time>2026-05-02T08:45:14.008Z</time></trkpt><trkpt lat="45.5473881" lon="11.8567977"><ele>23.0</ele><time>2026-05-02T08:45:15.997Z</time></trkpt><trkpt lat="45.5473716" lon="11.8566837"><ele>22.666666666666668</ele><time>2026-05-02T08:45:18Z</time></trkpt><trkpt lat="45.5473618" lon="11.8565676"><ele>22.333333333333336</ele><time>2026-05-02T08:45:19.96Z</time></trkpt><trkpt lat="45.5473545" lon="11.856449"><ele>22.0</ele><time>2026-05-02T08:45:21.984Z</time></trkpt><trkpt lat="45.5473461" lon="11.8563262"><ele>21.666666666666668</ele><time>2026-05-02T08:45:24.005Z</time></trkpt><trkpt lat="45.5473272" lon="11.8562003"><ele>21.333333333333332</ele><time>2026-05-02T08:45:25.993Z</time></trkpt><trkpt lat="45.5473036" lon="11.8560768"><ele>21.0</ele><time>2026-05-02T08:45:27.998Z</time></trkpt><trkpt lat="45.5472866" lon="11.8559613"><ele>21.0</ele><time>2026-05-02T08:45:29.99Z</time></trkpt><trkpt lat="45.5472767" lon="11.8558392"><ele>21.0</ele><time>2026-05-02T08:45:31.99Z</time></trkpt><trkpt lat="45.5472661" lon="11.8557215"><ele>21.0</ele><time>2026-05-02T08:45:33.953Z</time></trkpt><trkpt lat="45.547252" lon="11.8556141"><ele>21.0</ele><time>2026-05-02T08:45:35.955Z</time></trkpt><trkpt lat="45.547265" lon="11.8554783"><ele>21.0</ele><time>2026-05-02T08:45:38.978Z</time></trkpt><trkpt lat="45.5472447" lon="11.8553768"><ele>21.0</ele><time>2026-05-02T08:45:40.967Z</time></trkpt><trkpt lat="45.5472097" lon="11.8552715"><ele>21.0</ele><time>2026-05-02T08:45:42.954Z</time></trkpt><trkpt lat="45.5471789" lon="11.8551689"><ele>21.0</ele><time>2026-05-02T08:45:44.979Z</time></trkpt><trkpt lat="45.547152" lon="11.8550432"><ele>21.0</ele><time>2026-05-02T08:45:46.964Z</time></trkpt><trkpt lat="45.5471272" lon="11.854924"><ele>21.0</ele><time>2026-05-02T08:45:48.97Z</time></trkpt><trkpt lat="45.5471047" lon="11.854798"><ele>21.0</ele><time>2026-05-02T08:45:50.967Z</time></trkpt><trkpt lat="45.5470727" lon="11.854683"><ele>21.0</ele><time>2026-05-02T08:45:52.966Z</time></trkpt><trkpt lat="45.5470423" lon="11.8545904"><ele>21.333333333333332</ele><time>2026-05-02T08:45:54.972Z</time></trkpt><trkpt lat="45.5470304" lon="11.8544893"><ele>21.666666666666668</ele><time>2026-05-02T08:45:56.965Z</time></trkpt><trkpt lat="45.5470106" lon="11.854389"><ele>22.0</ele><time>2026-05-02T08:45:58.957Z</time></trkpt><trkpt lat="45.5469964" lon="11.8542792"><ele>22.333333333333336</ele><time>2026-05-02T08:46:00.97Z</time></trkpt><trkpt lat="45.5469843" lon="11.8541592"><ele>22.666666666666668</ele><time>2026-05-02T08:46:02.962Z</time></trkpt><trkpt lat="45.5469681" lon="11.8540407"><ele>23.0</ele><time>2026-05-02T08:46:04.969Z</time></trkpt><trkpt lat="45.5469562" lon="11.853934"><ele>23.166666666666668</ele><time>2026-05-02T08:46:06.969Z</time></trkpt><trkpt lat="45.5469458" lon="11.853817"><ele>23.333333333333336</ele><time>2026-05-02T08:46:08.985Z</time></trkpt><trkpt lat="45.5469307" lon="11.8536958"><ele>23.5</ele><time>2026-05-02T08:46:10.97Z</time></trkpt><trkpt lat="45.5468999" lon="11.8535685"><ele>23.666666666666668</ele><time>2026-05-02T08:46:12.974Z</time></trkpt><trkpt lat="45.546881" lon="11.853446"><ele>23.833333333333332</ele><time>2026-05-02T08:46:14.969Z</time></trkpt><trkpt lat="45.5468649" lon="11.8533157"><ele>24.0</ele><time>2026-05-02T08:46:16.963Z</time></trkpt><trkpt lat="45.5468359" lon="11.8531718"><ele>24.0</ele><time>2026-05-02T08:46:18.953Z</time></trkpt><trkpt lat="45.5468167" lon="11.8530354"><ele>24.0</ele><time>2026-05-02T08:46:20.964Z</time></trkpt><trkpt lat="45.5467953" lon="11.8529098"><ele>24.0</ele><time>2026-05-02T08:46:22.955Z</time></trkpt><trkpt lat="45.5467755" lon="11.8527821"><ele>24.0</ele><time>2026-05-02T08:46:24.956Z</time></trkpt><trkpt lat="45.5467443" lon="11.8526487"><ele>24.0</ele><time>2026-05-02T08:46:26.967Z</time></trkpt><trkpt lat="45.5467161" lon="11.8525288"><ele>24.0</ele><time>2026-05-02T08:46:28.991Z</time></trkpt><trkpt lat="45.5466907" lon="11.8523997"><ele>24.0</ele><time>2026-05-02T08:46:30.988Z</time></trkpt><trkpt lat="45.5466715" lon="11.8522885"><ele>24.0</ele><time>2026-05-02T08:46:32.969Z</time></trkpt><trkpt lat="45.5466516" lon="11.8521872"><ele>24.0</ele><time>2026-05-02T08:46:34.974Z</time></trkpt><trkpt lat="45.5466306" lon="11.8520858"><ele>24.0</ele><time>2026-05-02T08:46:36.999Z</time></trkpt><trkpt lat="45.5466085" lon="11.8519676"><ele>24.0</ele><time>2026-05-02T08:46:38.997Z</time></trkpt><trkpt lat="45.5465883" lon="11.8518473"><ele>24.0</ele><time>2026-05-02T08:46:40.97Z</time></trkpt><trkpt lat="45.5465635" lon="11.8517173"><ele>24.0</ele><time>2026-05-02T08:46:42.991Z</time></trkpt><trkpt lat="45.5465435" lon="11.8516294"><ele>24.0</ele><time>2026-05-02T08:46:44.99Z</time></trkpt><trkpt lat="45.5465318" lon="11.8514922"><ele>24.0</ele><time>2026-05-02T08:46:47.989Z</time></trkpt><trkpt lat="45.5465211" lon="11.8513647"><ele>24.0</ele><time>2026-05-02T08:46:49.997Z</time></trkpt><trkpt lat="45.5465019" lon="11.8512067"><ele>24.0</ele><time>2026-05-02T08:46:51.999Z</time></trkpt><trkpt lat="45.546478" lon="11.85107"><ele>24.0</ele><time>2026-05-02T08:46:53.986Z</time></trkpt><trkpt lat="45.546446" lon="11.8509442"><ele>24.0</ele><time>2026-05-02T08:46:56Z</time></trkpt><trkpt lat="45.5464332" lon="11.8508155"><ele>24.0</ele><time>2026-05-02T08:46:57.994Z</time></trkpt><trkpt lat="45.5464128" lon="11.8506937"><ele>24.0</ele><time>2026-05-02T08:46:59.998Z</time></trkpt><trkpt lat="45.5463851" lon="11.8505814"><ele>24.0</ele><time>2026-05-02T08:47:01.977Z</time></trkpt><trkpt lat="45.5463649" lon="11.850452"><ele>24.0</ele><time>2026-05-02T08:47:03.983Z</time></trkpt><trkpt lat="45.5463477" lon="11.8503411"><ele>24.0</ele><time>2026-05-02T08:47:05.965Z</time></trkpt><trkpt lat="45.546327" lon="11.8502373"><ele>24.0</ele><time>2026-05-02T08:47:07.972Z</time></trkpt><trkpt lat="45.5463102" lon="11.8501256"><ele>24.0</ele><time>2026-05-02T08:47:09.995Z</time></trkpt><trkpt lat="45.5462922" lon="11.8500212"><ele>24.0</ele><time>2026-05-02T08:47:11.986Z</time></trkpt><trkpt lat="45.5462789" lon="11.8499154"><ele>23.833333333333332</ele><time>2026-05-02T08:47:13.98Z</time></trkpt><trkpt lat="45.5462611" lon="11.8498002"><ele>23.666666666666668</ele><time>2026-05-02T08:47:16.02Z</time></trkpt><trkpt lat="45.5462372" lon="11.8496887"><ele>23.5</ele><time>2026-05-02T08:47:17.999Z</time></trkpt><trkpt lat="45.5462237" lon="11.8495852"><ele>23.333333333333336</ele><time>2026-05-02T08:47:20.002Z</time></trkpt><trkpt lat="45.5462103" lon="11.8494818"><ele>23.166666666666668</ele><time>2026-05-02T08:47:21.98Z</time></trkpt><trkpt lat="45.5461994" lon="11.8493815"><ele>23.0</ele><time>2026-05-02T08:47:23.994Z</time></trkpt><trkpt lat="45.5461768" lon="11.849252"><ele>23.0</ele><time>2026-05-02T08:47:27.003Z</time></trkpt><trkpt lat="45.5461489" lon="11.8491404"><ele>23.0</ele><time>2026-05-02T08:47:30.006Z</time></trkpt><trkpt lat="45.5461322" lon="11.849046"><ele>23.0</ele><time>2026-05-02T08:47:32.983Z</time></trkpt><trkpt lat="45.5461131" lon="11.8489521"><ele>23.0</ele><time>2026-05-02T08:47:36.001Z</time></trkpt><trkpt lat="45.5461129" lon="11.8488327"><ele>23.0</ele><time>2026-05-02T08:47:38.992Z</time></trkpt><trkpt lat="45.5461666" lon="11.8487505"><ele>23.0</ele><time>2026-05-02T08:47:41.985Z</time></trkpt><trkpt lat="45.5462238" lon="11.848704"><ele>23.0</ele><time>2026-05-02T08:47:44.99Z</time></trkpt><trkpt lat="45.5462919" lon="11.848646"><ele>22.833333333333336</ele><time>2026-05-02T08:47:48.996Z</time></trkpt><trkpt lat="45.546333" lon="11.8485689"><ele>22.666666666666668</ele><time>2026-05-02T08:47:51.992Z</time></trkpt><trkpt lat="45.5463567" lon="11.8484786"><ele>22.5</ele><time>2026-05-02T08:47:54.008Z</time></trkpt><trkpt lat="45.5463813" lon="11.848372"><ele>22.333333333333332</ele><time>2026-05-02T08:47:55.999Z</time></trkpt><trkpt lat="45.5463406" lon="11.8482692"><ele>22.166666666666664</ele><time>2026-05-02T08:47:57.992Z</time></trkpt><trkpt lat="45.5463464" lon="11.8481572"><ele>22.0</ele><time>2026-05-02T08:48:00.996Z</time></trkpt><trkpt lat="45.5463438" lon="11.8480488"><ele>22.0</ele><time>2026-05-02T08:48:04.002Z</time></trkpt><trkpt lat="45.5463309" lon="11.8479443"><ele>22.0</ele><time>2026-05-02T08:48:06.99Z</time></trkpt><trkpt lat="45.5463122" lon="11.8478542"><ele>22.0</ele><time>2026-05-02T08:48:09.984Z</time></trkpt><trkpt lat="45.5462867" lon="11.8477522"><ele>22.0</ele><time>2026-05-02T08:48:13.964Z</time></trkpt><trkpt lat="45.5462677" lon="11.8476481"><ele>22.0</ele><time>2026-05-02T08:48:25.004Z</time></trkpt><trkpt lat="45.5462136" lon="11.8475765"><ele>22.0</ele><time>2026-05-02T08:48:29.998Z</time></trkpt><trkpt lat="45.5461637" lon="11.847514"><ele>22.0</ele><time>2026-05-02T08:48:33.993Z</time></trkpt><trkpt lat="45.5460899" lon="11.8475328"><ele>22.42857142857143</ele><time>2026-05-02T08:48:49.991Z</time></trkpt><trkpt lat="45.5460203" lon="11.8475279"><ele>22.857142857142858</ele><time>2026-05-02T08:48:53.974Z</time></trkpt><trkpt lat="45.5459378" lon="11.8475419"><ele>23.285714285714285</ele><time>2026-05-02T08:48:56.992Z</time></trkpt><trkpt lat="45.5458774" lon="11.8474947"><ele>23.714285714285715</ele><time>2026-05-02T08:49:00.983Z</time></trkpt><trkpt lat="45.5458591" lon="11.8474015"><ele>24.142857142857142</ele><time>2026-05-02T08:49:03.994Z</time></trkpt><trkpt lat="45.5458318" lon="11.8473088"><ele>24.571428571428573</ele><time>2026-05-02T08:49:07.995Z</time></trkpt><trkpt lat="45.5458253" lon="11.8472059"><ele>25.0</ele><time>2026-05-02T08:49:10.998Z</time></trkpt><trkpt lat="45.5458132" lon="11.8471109"><ele>25.000000000000004</ele><time>2026-05-02T08:49:13.003Z</time></trkpt><trkpt lat="45.5457918" lon="11.8470002"><ele>25.0</ele><time>2026-05-02T08:49:14.99Z</time></trkpt><trkpt lat="45.545764" lon="11.8468927"><ele>25.0</ele><time>2026-05-02T08:49:16.99Z</time></trkpt><trkpt lat="45.5457499" lon="11.8467944"><ele>25.0</ele><time>2026-05-02T08:49:18.996Z</time></trkpt><trkpt lat="45.5457338" lon="11.8466991"><ele>25.000000000000004</ele><time>2026-05-02T08:49:20.982Z</time></trkpt><trkpt lat="45.5457196" lon="11.846597"><ele>25.0</ele><time>2026-05-02T08:49:22.992Z</time></trkpt><trkpt lat="45.5456984" lon="11.8464903"><ele>24.666666666666668</ele><time>2026-05-02T08:49:24.995Z</time></trkpt><trkpt lat="45.5456688" lon="11.8463704"><ele>24.333333333333336</ele><time>2026-05-02T08:49:26.984Z</time></trkpt><trkpt lat="45.5456321" lon="11.846244"><ele>24.0</ele><time>2026-05-02T08:49:28.982Z</time></trkpt><trkpt lat="45.5456056" lon="11.8461188"><ele>23.666666666666668</ele><time>2026-05-02T08:49:30.986Z</time></trkpt><trkpt lat="45.54557" lon="11.8459914"><ele>23.333333333333336</ele><time>2026-05-02T08:49:33.009Z</time></trkpt><trkpt lat="45.5455425" lon="11.8458903"><ele>23.0</ele><time>2026-05-02T08:49:34.973Z</time></trkpt><trkpt lat="45.545516" lon="11.8458072"><ele>23.0</ele><time>2026-05-02T08:49:36.985Z</time></trkpt><trkpt lat="45.5454945" lon="11.8457108"><ele>23.0</ele><time>2026-05-02T08:49:38.984Z</time></trkpt><trkpt lat="45.5454719" lon="11.845614"><ele>23.0</ele><time>2026-05-02T08:49:40.991Z</time></trkpt><trkpt lat="45.5454439" lon="11.8455031"><ele>23.0</ele><time>2026-05-02T08:49:43.001Z</time></trkpt><trkpt lat="45.545408" lon="11.8453548"><ele>23.0</ele><time>2026-05-02T08:49:45.004Z</time></trkpt><trkpt lat="45.54537" lon="11.845212"><ele>23.0</ele><time>2026-05-02T08:49:46.991Z</time></trkpt><trkpt lat="45.5453436" lon="11.8450888"><ele>22.666666666666668</ele><time>2026-05-02T08:49:48.973Z</time></trkpt><trkpt lat="45.5453071" lon="11.84499"><ele>22.333333333333336</ele><time>2026-05-02T08:49:50.995Z</time></trkpt><trkpt lat="45.5452805" lon="11.8448883"><ele>22.0</ele><time>2026-05-02T08:49:52.998Z</time></trkpt><trkpt lat="45.5452434" lon="11.8447721"><ele>21.666666666666668</ele><time>2026-05-02T08:49:55.007Z</time></trkpt><trkpt lat="45.5452088" lon="11.8446496"><ele>21.333333333333332</ele><time>2026-05-02T08:49:56.992Z</time></trkpt><trkpt lat="45.5451655" lon="11.8445296"><ele>21.0</ele><time>2026-05-02T08:49:58.991Z</time></trkpt><trkpt lat="45.5451242" lon="11.8444067"><ele>21.0</ele><time>2026-05-02T08:50:00.998Z</time></trkpt><trkpt lat="45.5450793" lon="11.8442887"><ele>21.0</ele><time>2026-05-02T08:50:02.989Z</time></trkpt><trkpt lat="45.5450374" lon="11.844168"><ele>21.0</ele><time>2026-05-02T08:50:05.002Z</time></trkpt><trkpt lat="45.5450049" lon="11.8440622"><ele>21.0</ele><time>2026-05-02T08:50:06.991Z</time></trkpt><trkpt lat="45.5449709" lon="11.8439606"><ele>21.0</ele><time>2026-05-02T08:50:08.988Z</time></trkpt><trkpt lat="45.5449252" lon="11.8438628"><ele>21.0</ele><time>2026-05-02T08:50:10.996Z</time></trkpt><trkpt lat="45.5448776" lon="11.8437619"><ele>21.0</ele><time>2026-05-02T08:50:13.009Z</time></trkpt><trkpt lat="45.5448445" lon="11.8436356"><ele>21.0</ele><time>2026-05-02T08:50:14.998Z</time></trkpt><trkpt lat="45.544813" lon="11.8435229"><ele>21.0</ele><time>2026-05-02T08:50:17.005Z</time></trkpt><trkpt lat="45.5447894" lon="11.8434069"><ele>21.0</ele><time>2026-05-02T08:50:18.992Z</time></trkpt><trkpt lat="45.5447634" lon="11.8432959"><ele>21.0</ele><time>2026-05-02T08:50:20.995Z</time></trkpt><trkpt lat="45.5447386" lon="11.8431908"><ele>21.0</ele><time>2026-05-02T08:50:23.002Z</time></trkpt><trkpt lat="45.5447041" lon="11.8430898"><ele>21.0</ele><time>2026-05-02T08:50:24.996Z</time></trkpt><trkpt lat="45.5446655" lon="11.8429999"><ele>21.0</ele><time>2026-05-02T08:50:26.976Z</time></trkpt><trkpt lat="45.5446261" lon="11.842909"><ele>21.0</ele><time>2026-05-02T08:50:28.993Z</time></trkpt><trkpt lat="45.5445992" lon="11.8428218"><ele>21.0</ele><time>2026-05-02T08:50:30.995Z</time></trkpt><trkpt lat="45.5445678" lon="11.842728"><ele>21.0</ele><time>2026-05-02T08:50:32.997Z</time></trkpt><trkpt lat="45.5445387" lon="11.8426308"><ele>21.0</ele><time>2026-05-02T08:50:34.995Z</time></trkpt><trkpt lat="45.5445052" lon="11.8425358"><ele>21.0</ele><time>2026-05-02T08:50:36.962Z</time></trkpt><trkpt lat="45.5444753" lon="11.84243"><ele>21.0</ele><time>2026-05-02T08:50:39.01Z</time></trkpt><trkpt lat="45.5444337" lon="11.8423246"><ele>21.0</ele><time>2026-05-02T08:50:40.998Z</time></trkpt><trkpt lat="45.5443976" lon="11.8422187"><ele>21.0</ele><time>2026-05-02T08:50:42.997Z</time></trkpt><trkpt lat="45.544359" lon="11.8421069"><ele>21.0</ele><time>2026-05-02T08:50:44.992Z</time></trkpt><trkpt lat="45.5443221" lon="11.8419878"><ele>21.0</ele><time>2026-05-02T08:50:46.973Z</time></trkpt><trkpt lat="45.5442868" lon="11.8418609"><ele>21.0</ele><time>2026-05-02T08:50:48.973Z</time></trkpt><trkpt lat="45.5442485" lon="11.8417341"><ele>21.0</ele><time>2026-05-02T08:50:51.004Z</time></trkpt><trkpt lat="45.5442064" lon="11.8416134"><ele>21.0</ele><time>2026-05-02T08:50:53.007Z</time></trkpt><trkpt lat="45.5441674" lon="11.8414891"><ele>21.0</ele><time>2026-05-02T08:50:55.009Z</time></trkpt><trkpt lat="45.5441187" lon="11.8413679"><ele>21.0</ele><time>2026-05-02T08:50:56.991Z</time></trkpt><trkpt lat="45.5440926" lon="11.8412859"><ele>21.0</ele><time>2026-05-02T08:50:57.998Z</time></trkpt><trkpt lat="45.5440378" lon="11.841141"><ele>21.0</ele><time>2026-05-02T08:51:00.008Z</time></trkpt><trkpt lat="45.5439899" lon="11.8410094"><ele>21.0</ele><time>2026-05-02T08:51:01.994Z</time></trkpt><trkpt lat="45.5439337" lon="11.8408863"><ele>21.0</ele><time>2026-05-02T08:51:03.978Z</time></trkpt><trkpt lat="45.5438947" lon="11.8407702"><ele>21.0</ele><time>2026-05-02T08:51:05.992Z</time></trkpt><trkpt lat="45.5438576" lon="11.8406472"><ele>21.0</ele><time>2026-05-02T08:51:07.962Z</time></trkpt><trkpt lat="45.5438256" lon="11.8405334"><ele>21.0</ele><time>2026-05-02T08:51:09.985Z</time></trkpt><trkpt lat="45.5438009" lon="11.8404434"><ele>21.0</ele><time>2026-05-02T08:51:11.998Z</time></trkpt><trkpt lat="45.5437807" lon="11.8403457"><ele>21.0</ele><time>2026-05-02T08:51:14.007Z</time></trkpt><trkpt lat="45.5437401" lon="11.8402302"><ele>21.0</ele><time>2026-05-02T08:51:16.002Z</time></trkpt><trkpt lat="45.5436964" lon="11.8401068"><ele>21.0</ele><time>2026-05-02T08:51:17.994Z</time></trkpt><trkpt lat="45.5436522" lon="11.8399795"><ele>21.0</ele><time>2026-05-02T08:51:19.993Z</time></trkpt><trkpt lat="45.5436158" lon="11.8398632"><ele>21.0</ele><time>2026-05-02T08:51:21.989Z</time></trkpt><trkpt lat="45.5435823" lon="11.839751"><ele>21.0</ele><time>2026-05-02T08:51:23.987Z</time></trkpt><trkpt lat="45.5435391" lon="11.8396279"><ele>21.0</ele><time>2026-05-02T08:51:25.99Z</time></trkpt><trkpt lat="45.5434881" lon="11.8394967"><ele>21.0</ele><time>2026-05-02T08:51:27.997Z</time></trkpt><trkpt lat="45.5434326" lon="11.8393619"><ele>21.0</ele><time>2026-05-02T08:51:29.997Z</time></trkpt><trkpt lat="45.5433872" lon="11.8392389"><ele>21.0</ele><time>2026-05-02T08:51:31.993Z</time></trkpt><trkpt lat="45.5433459" lon="11.8391222"><ele>21.0</ele><time>2026-05-02T08:51:33.999Z</time></trkpt><trkpt lat="45.5433059" lon="11.839015"><ele>21.0</ele><time>2026-05-02T08:51:35.978Z</time></trkpt><trkpt lat="45.5432733" lon="11.8389213"><ele>21.0</ele><time>2026-05-02T08:51:37.998Z</time></trkpt><trkpt lat="45.5432401" lon="11.8388243"><ele>21.0</ele><time>2026-05-02T08:51:39.985Z</time></trkpt><trkpt lat="45.5432097" lon="11.8387334"><ele>21.0</ele><time>2026-05-02T08:51:41.985Z</time></trkpt><trkpt lat="45.5431674" lon="11.8386351"><ele>21.0</ele><time>2026-05-02T08:51:43.994Z</time></trkpt><trkpt lat="45.5431315" lon="11.8385394"><ele>21.0</ele><time>2026-05-02T08:51:45.988Z</time></trkpt><trkpt lat="45.5430959" lon="11.838444"><ele>21.0</ele><time>2026-05-02T08:51:47.986Z</time></trkpt><trkpt lat="45.5430734" lon="11.8383288"><ele>21.0</ele><time>2026-05-02T08:51:51.001Z</time></trkpt><trkpt lat="45.5430643" lon="11.8382282"><ele>21.0</ele><time>2026-05-02T08:51:54.997Z</time></trkpt><trkpt lat="45.5430312" lon="11.838135"><ele>21.0</ele><time>2026-05-02T08:51:58.001Z</time></trkpt><trkpt lat="45.5430019" lon="11.8380411"><ele>21.0</ele><time>2026-05-02T08:51:59.987Z</time></trkpt><trkpt lat="45.5429644" lon="11.8379495"><ele>21.0</ele><time>2026-05-02T08:52:01.999Z</time></trkpt><trkpt lat="45.5429302" lon="11.8378445"><ele>21.0</ele><time>2026-05-02T08:52:03.987Z</time></trkpt><trkpt lat="45.54289" lon="11.8377271"><ele>21.0</ele><time>2026-05-02T08:52:05.988Z</time></trkpt><trkpt lat="45.5428493" lon="11.8376046"><ele>21.0</ele><time>2026-05-02T08:52:07.989Z</time></trkpt><trkpt lat="45.5428106" lon="11.8374853"><ele>21.0</ele><time>2026-05-02T08:52:10.004Z</time></trkpt><trkpt lat="45.5427718" lon="11.837364"><ele>21.0</ele><time>2026-05-02T08:52:12.008Z</time></trkpt><trkpt lat="45.5427382" lon="11.837243"><ele>21.0</ele><time>2026-05-02T08:52:13.989Z</time></trkpt><trkpt lat="45.5427054" lon="11.8371356"><ele>21.0</ele><time>2026-05-02T08:52:16.004Z</time></trkpt><trkpt lat="45.5426758" lon="11.8370275"><ele>21.0</ele><time>2026-05-02T08:52:17.977Z</time></trkpt><trkpt lat="45.5426484" lon="11.8369186"><ele>21.0</ele><time>2026-05-02T08:52:20.002Z</time></trkpt><trkpt lat="45.5426084" lon="11.8367931"><ele>21.0</ele><time>2026-05-02T08:52:21.984Z</time></trkpt><trkpt lat="45.5425707" lon="11.8366693"><ele>21.0</ele><time>2026-05-02T08:52:24.01Z</time></trkpt><trkpt lat="45.5425307" lon="11.8365537"><ele>21.0</ele><time>2026-05-02T08:52:25.992Z</time></trkpt><trkpt lat="45.542492" lon="11.836449"><ele>21.0</ele><time>2026-05-02T08:52:28.006Z</time></trkpt><trkpt lat="45.5424525" lon="11.8363518"><ele>21.0</ele><time>2026-05-02T08:52:29.995Z</time></trkpt><trkpt lat="45.5424236" lon="11.8362396"><ele>21.0</ele><time>2026-05-02T08:52:32.009Z</time></trkpt><trkpt lat="45.5423871" lon="11.8361331"><ele>21.0</ele><time>2026-05-02T08:52:33.99Z</time></trkpt><trkpt lat="45.5423454" lon="11.8360185"><ele>20.8</ele><time>2026-05-02T08:52:35.988Z</time></trkpt><trkpt lat="45.5422996" lon="11.835901"><ele>20.6</ele><time>2026-05-02T08:52:37.982Z</time></trkpt><trkpt lat="45.5422576" lon="11.835772"><ele>20.4</ele><time>2026-05-02T08:52:40.01Z</time></trkpt><trkpt lat="45.5422109" lon="11.8356518"><ele>20.2</ele><time>2026-05-02T08:52:41.997Z</time></trkpt><trkpt lat="45.5421725" lon="11.8355339"><ele>20.0</ele><time>2026-05-02T08:52:43.987Z</time></trkpt><trkpt lat="45.5421298" lon="11.8354205"><ele>20.0</ele><time>2026-05-02T08:52:45.995Z</time></trkpt><trkpt lat="45.5420939" lon="11.8353065"><ele>20.0</ele><time>2026-05-02T08:52:47.996Z</time></trkpt><trkpt lat="45.5420634" lon="11.8352023"><ele>20.0</ele><time>2026-05-02T08:52:49.998Z</time></trkpt><trkpt lat="45.5420244" lon="11.8350888"><ele>20.0</ele><time>2026-05-02T08:52:52Z</time></trkpt><trkpt lat="45.5419822" lon="11.8349739"><ele>20.0</ele><time>2026-05-02T08:52:54.004Z</time></trkpt><trkpt lat="45.541943" lon="11.834865"><ele>20.0</ele><time>2026-05-02T08:52:56.007Z</time></trkpt><trkpt lat="45.5419112" lon="11.8347486"><ele>20.166666666666668</ele><time>2026-05-02T08:52:57.993Z</time></trkpt><trkpt lat="45.5418774" lon="11.8346341"><ele>20.333333333333336</ele><time>2026-05-02T08:52:59.995Z</time></trkpt><trkpt lat="45.5418438" lon="11.8345184"><ele>20.5</ele><time>2026-05-02T08:53:01.996Z</time></trkpt><trkpt lat="45.5417952" lon="11.8343981"><ele>20.666666666666668</ele><time>2026-05-02T08:53:03.995Z</time></trkpt><trkpt lat="45.5417596" lon="11.8342859"><ele>20.833333333333332</ele><time>2026-05-02T08:53:06.004Z</time></trkpt><trkpt lat="45.5417213" lon="11.8341801"><ele>21.0</ele><time>2026-05-02T08:53:07.986Z</time></trkpt><trkpt lat="45.5416849" lon="11.8340789"><ele>21.200000000000003</ele><time>2026-05-02T08:53:10Z</time></trkpt><trkpt lat="45.5416487" lon="11.8339698"><ele>21.400000000000002</ele><time>2026-05-02T08:53:11.987Z</time></trkpt><trkpt lat="45.5416102" lon="11.8338468"><ele>21.6</ele><time>2026-05-02T08:53:14.006Z</time></trkpt><trkpt lat="45.5415672" lon="11.8337255"><ele>21.8</ele><time>2026-05-02T08:53:15.987Z</time></trkpt><trkpt lat="45.5415198" lon="11.8336043"><ele>22.0</ele><time>2026-05-02T08:53:18Z</time></trkpt><trkpt lat="45.5414781" lon="11.8334893"><ele>21.857142857142858</ele><time>2026-05-02T08:53:19.978Z</time></trkpt><trkpt lat="45.5414359" lon="11.8333869"><ele>21.714285714285715</ele><time>2026-05-02T08:53:21.997Z</time></trkpt><trkpt lat="45.5413957" lon="11.8332871"><ele>21.57142857142857</ele><time>2026-05-02T08:53:23.988Z</time></trkpt><trkpt lat="45.5413647" lon="11.8331892"><ele>21.42857142857143</ele><time>2026-05-02T08:53:25.978Z</time></trkpt><trkpt lat="45.541342" lon="11.8330879"><ele>21.285714285714285</ele><time>2026-05-02T08:53:28.996Z</time></trkpt><trkpt lat="45.5413183" lon="11.8329963"><ele>21.142857142857142</ele><time>2026-05-02T08:53:31.992Z</time></trkpt><trkpt lat="45.5412904" lon="11.8329151"><ele>21.0</ele><time>2026-05-02T08:53:33.99Z</time></trkpt><trkpt lat="45.5412577" lon="11.8328135"><ele>21.0</ele><time>2026-05-02T08:53:35.994Z</time></trkpt><trkpt lat="45.5412229" lon="11.8327134"><ele>21.0</ele><time>2026-05-02T08:53:38Z</time></trkpt><trkpt lat="45.5411803" lon="11.8325999"><ele>21.0</ele><time>2026-05-02T08:53:39.99Z</time></trkpt><trkpt lat="45.5411422" lon="11.8324959"><ele>21.0</ele><time>2026-05-02T08:53:42.002Z</time></trkpt><trkpt lat="45.5411098" lon="11.832392"><ele>21.0</ele><time>2026-05-02T08:53:44.002Z</time></trkpt><trkpt lat="45.5410741" lon="11.8322883"><ele>21.0</ele><time>2026-05-02T08:53:45.998Z</time></trkpt><trkpt lat="45.5410387" lon="11.8322015"><ele>21.166666666666668</ele><time>2026-05-02T08:53:47.99Z</time></trkpt><trkpt lat="45.5410054" lon="11.8321072"><ele>21.333333333333332</ele><time>2026-05-02T08:53:49.998Z</time></trkpt><trkpt lat="45.5409732" lon="11.8320057"><ele>21.5</ele><time>2026-05-02T08:53:51.992Z</time></trkpt><trkpt lat="45.5409356" lon="11.8318947"><ele>21.666666666666664</ele><time>2026-05-02T08:53:53.974Z</time></trkpt><trkpt lat="45.5408937" lon="11.8317754"><ele>21.833333333333332</ele><time>2026-05-02T08:53:56Z</time></trkpt><trkpt lat="45.5408616" lon="11.8316612"><ele>22.0</ele><time>2026-05-02T08:53:57.989Z</time></trkpt><trkpt lat="45.5408356" lon="11.8315399"><ele>21.5</ele><time>2026-05-02T08:53:59.998Z</time></trkpt><trkpt lat="45.5408009" lon="11.8314345"><ele>21.0</ele><time>2026-05-02T08:54:01.991Z</time></trkpt><trkpt lat="45.5407682" lon="11.8313292"><ele>20.5</ele><time>2026-05-02T08:54:03.972Z</time></trkpt><trkpt lat="45.5407239" lon="11.8312199"><ele>20.0</ele><time>2026-05-02T08:54:05.996Z</time></trkpt><trkpt lat="45.5407003" lon="11.8311256"><ele>19.5</ele><time>2026-05-02T08:54:08.001Z</time></trkpt><trkpt lat="45.5406658" lon="11.8309922"><ele>19.0</ele><time>2026-05-02T08:54:09.991Z</time></trkpt><trkpt lat="45.5406238" lon="11.8308704"><ele>18.8</ele><time>2026-05-02T08:54:11.995Z</time></trkpt><trkpt lat="45.5405785" lon="11.830741"><ele>18.599999999999998</ele><time>2026-05-02T08:54:13.968Z</time></trkpt><trkpt lat="45.5405367" lon="11.8306187"><ele>18.4</ele><time>2026-05-02T08:54:16.006Z</time></trkpt><trkpt lat="45.5404938" lon="11.8304974"><ele>18.2</ele><time>2026-05-02T08:54:17.999Z</time></trkpt><trkpt lat="45.5404558" lon="11.8303726"><ele>18.0</ele><time>2026-05-02T08:54:19.976Z</time></trkpt><trkpt lat="45.5404181" lon="11.8302426"><ele>18.5</ele><time>2026-05-02T08:54:21.99Z</time></trkpt><trkpt lat="45.540377" lon="11.8301187"><ele>19.0</ele><time>2026-05-02T08:54:23.996Z</time></trkpt><trkpt lat="45.5403389" lon="11.8299984"><ele>19.5</ele><time>2026-05-02T08:54:25.988Z</time></trkpt><trkpt lat="45.5403051" lon="11.829887"><ele>20.0</ele><time>2026-05-02T08:54:27.997Z</time></trkpt><trkpt lat="45.5402732" lon="11.829795"><ele>20.5</ele><time>2026-05-02T08:54:30.005Z</time></trkpt><trkpt lat="45.5402433" lon="11.8297091"><ele>21.0</ele><time>2026-05-02T08:54:31.98Z</time></trkpt><trkpt lat="45.5402009" lon="11.8296107"><ele>21.0</ele><time>2026-05-02T08:54:34.979Z</time></trkpt><trkpt lat="45.5401582" lon="11.8295049"><ele>21.0</ele><time>2026-05-02T08:54:38.001Z</time></trkpt><trkpt lat="45.5401395" lon="11.8294092"><ele>21.0</ele><time>2026-05-02T08:54:39.996Z</time></trkpt><trkpt lat="45.5401074" lon="11.8293075"><ele>21.0</ele><time>2026-05-02T08:54:41.999Z</time></trkpt><trkpt lat="45.5400692" lon="11.8292031"><ele>21.0</ele><time>2026-05-02T08:54:44.007Z</time></trkpt><trkpt lat="45.540035" lon="11.8290933"><ele>21.0</ele><time>2026-05-02T08:54:46.001Z</time></trkpt><trkpt lat="45.5399981" lon="11.8289807"><ele>21.0</ele><time>2026-05-02T08:54:48Z</time></trkpt><trkpt lat="45.5399632" lon="11.8288696"><ele>21.0</ele><time>2026-05-02T08:54:49.998Z</time></trkpt><trkpt lat="45.5399304" lon="11.8287639"><ele>21.0</ele><time>2026-05-02T08:54:51.988Z</time></trkpt><trkpt lat="45.5399014" lon="11.8286672"><ele>21.0</ele><time>2026-05-02T08:54:53.996Z</time></trkpt><trkpt lat="45.5398708" lon="11.8285673"><ele>21.0</ele><time>2026-05-02T08:54:55.984Z</time></trkpt><trkpt lat="45.5398427" lon="11.8284691"><ele>21.0</ele><time>2026-05-02T08:54:57.999Z</time></trkpt><trkpt lat="45.5398111" lon="11.828374"><ele>21.0</ele><time>2026-05-02T08:55:00.003Z</time></trkpt><trkpt lat="45.5397853" lon="11.828283"><ele>21.0</ele><time>2026-05-02T08:55:01.995Z</time></trkpt><trkpt lat="45.5397602" lon="11.8281921"><ele>21.0</ele><time>2026-05-02T08:55:04.005Z</time></trkpt><trkpt lat="45.5397226" lon="11.8280737"><ele>21.0</ele><time>2026-05-02T08:55:06.999Z</time></trkpt><trkpt lat="45.5396972" lon="11.8279726"><ele>21.0</ele><time>2026-05-02T08:55:08.999Z</time></trkpt><trkpt lat="45.5396621" lon="11.8278708"><ele>21.0</ele><time>2026-05-02T08:55:10.998Z</time></trkpt><trkpt lat="45.539623" lon="11.8277586"><ele>21.0</ele><time>2026-05-02T08:55:12.995Z</time></trkpt><trkpt lat="45.5395847" lon="11.8276522"><ele>21.0</ele><time>2026-05-02T08:55:14.964Z</time></trkpt><trkpt lat="45.5395588" lon="11.8275462"><ele>21.0</ele><time>2026-05-02T08:55:16.963Z</time></trkpt><trkpt lat="45.5395273" lon="11.8274404"><ele>21.0</ele><time>2026-05-02T08:55:18.973Z</time></trkpt><trkpt lat="45.5394973" lon="11.8273179"><ele>21.0</ele><time>2026-05-02T08:55:20.972Z</time></trkpt><trkpt lat="45.5394823" lon="11.8272128"><ele>21.0</ele><time>2026-05-02T08:55:22.974Z</time></trkpt><trkpt lat="45.5394644" lon="11.8271006"><ele>21.166666666666668</ele><time>2026-05-02T08:55:24.959Z</time></trkpt><trkpt lat="45.5394395" lon="11.8269958"><ele>21.333333333333332</ele><time>2026-05-02T08:55:26.965Z</time></trkpt><trkpt lat="45.5394164" lon="11.8268961"><ele>21.5</ele><time>2026-05-02T08:55:28.959Z</time></trkpt><trkpt lat="45.5393797" lon="11.8267574"><ele>21.666666666666664</ele><time>2026-05-02T08:55:30.973Z</time></trkpt><trkpt lat="45.5393359" lon="11.8266289"><ele>21.833333333333332</ele><time>2026-05-02T08:55:32.975Z</time></trkpt><trkpt lat="45.5393008" lon="11.8265051"><ele>22.0</ele><time>2026-05-02T08:55:35.006Z</time></trkpt><trkpt lat="45.5392637" lon="11.8263755"><ele>22.400000000000002</ele><time>2026-05-02T08:55:36.962Z</time></trkpt><trkpt lat="45.5392386" lon="11.826246"><ele>22.8</ele><time>2026-05-02T08:55:39.006Z</time></trkpt><trkpt lat="45.5392064" lon="11.8261258"><ele>23.2</ele><time>2026-05-02T08:55:40.995Z</time></trkpt><trkpt lat="45.5391849" lon="11.825999"><ele>23.6</ele><time>2026-05-02T08:55:43.005Z</time></trkpt><trkpt lat="45.5391543" lon="11.8258724"><ele>24.0</ele><time>2026-05-02T08:55:44.99Z</time></trkpt><trkpt lat="45.5391267" lon="11.8257405"><ele>24.166666666666668</ele><time>2026-05-02T08:55:46.955Z</time></trkpt><trkpt lat="45.5391004" lon="11.8256066"><ele>24.333333333333336</ele><time>2026-05-02T08:55:48.953Z</time></trkpt><trkpt lat="45.5390771" lon="11.8254865"><ele>24.5</ele><time>2026-05-02T08:55:50.992Z</time></trkpt><trkpt lat="45.5390598" lon="11.8253849"><ele>24.666666666666668</ele><time>2026-05-02T08:55:52.982Z</time></trkpt><trkpt lat="45.5390399" lon="11.8252738"><ele>24.833333333333336</ele><time>2026-05-02T08:55:54.995Z</time></trkpt><trkpt lat="45.5390179" lon="11.8251622"><ele>25.0</ele><time>2026-05-02T08:55:56.996Z</time></trkpt><trkpt lat="45.5390029" lon="11.8250596"><ele>24.666666666666668</ele><time>2026-05-02T08:55:58.986Z</time></trkpt><trkpt lat="45.5389895" lon="11.8249545"><ele>24.333333333333336</ele><time>2026-05-02T08:56:00.994Z</time></trkpt><trkpt lat="45.538969" lon="11.8248498"><ele>24.0</ele><time>2026-05-02T08:56:02.99Z</time></trkpt><trkpt lat="45.5389526" lon="11.8247198"><ele>23.666666666666668</ele><time>2026-05-02T08:56:04.991Z</time></trkpt><trkpt lat="45.5389403" lon="11.8246052"><ele>23.333333333333336</ele><time>2026-05-02T08:56:06.992Z</time></trkpt><trkpt lat="45.5389409" lon="11.8245024"><ele>23.0</ele><time>2026-05-02T08:56:08.985Z</time></trkpt><trkpt lat="45.5389277" lon="11.8243878"><ele>23.166666666666668</ele><time>2026-05-02T08:56:11.002Z</time></trkpt><trkpt lat="45.5389052" lon="11.8242837"><ele>23.333333333333336</ele><time>2026-05-02T08:56:12.979Z</time></trkpt><trkpt lat="45.5388818" lon="11.8241672"><ele>23.5</ele><time>2026-05-02T08:56:14.963Z</time></trkpt><trkpt lat="45.5388512" lon="11.8240498"><ele>23.666666666666668</ele><time>2026-05-02T08:56:16.994Z</time></trkpt><trkpt lat="45.5388387" lon="11.8239461"><ele>23.833333333333332</ele><time>2026-05-02T08:56:18.997Z</time></trkpt><trkpt lat="45.538824" lon="11.8238341"><ele>24.0</ele><time>2026-05-02T08:56:21.989Z</time></trkpt><trkpt lat="45.5388856" lon="11.8237616"><ele>24.0</ele><time>2026-05-02T08:56:26.974Z</time></trkpt><trkpt lat="45.5389296" lon="11.8236953"><ele>24.0</ele><time>2026-05-02T08:56:30.988Z</time></trkpt><trkpt lat="45.5388734" lon="11.8236235"><ele>24.0</ele><time>2026-05-02T08:56:35.003Z</time></trkpt><trkpt lat="45.5388027" lon="11.8236191"><ele>24.0</ele><time>2026-05-02T08:56:37.98Z</time></trkpt><trkpt lat="45.5387635" lon="11.823526"><ele>24.0</ele><time>2026-05-02T08:56:41.996Z</time></trkpt><trkpt lat="45.5387583" lon="11.8234"><ele>24.0</ele><time>2026-05-02T08:56:44.992Z</time></trkpt><trkpt lat="45.5387632" lon="11.8232854"><ele>23.833333333333332</ele><time>2026-05-02T08:56:47.006Z</time></trkpt><trkpt lat="45.5387431" lon="11.8231909"><ele>23.666666666666668</ele><time>2026-05-02T08:56:48.97Z</time></trkpt><trkpt lat="45.5387288" lon="11.8230833"><ele>23.5</ele><time>2026-05-02T08:56:50.992Z</time></trkpt><trkpt lat="45.5387103" lon="11.8229649"><ele>23.333333333333336</ele><time>2026-05-02T08:56:53.009Z</time></trkpt><trkpt lat="45.5386954" lon="11.8228506"><ele>23.166666666666668</ele><time>2026-05-02T08:56:55.005Z</time></trkpt><trkpt lat="45.5386774" lon="11.8227394"><ele>23.0</ele><time>2026-05-02T08:56:56.993Z</time></trkpt><trkpt lat="45.5386558" lon="11.8226385"><ele>23.0</ele><time>2026-05-02T08:56:59.002Z</time></trkpt><trkpt lat="45.5386381" lon="11.8225407"><ele>23.0</ele><time>2026-05-02T08:57:00.973Z</time></trkpt><trkpt lat="45.5386064" lon="11.8224381"><ele>23.0</ele><time>2026-05-02T08:57:02.999Z</time></trkpt><trkpt lat="45.5385817" lon="11.8223296"><ele>23.0</ele><time>2026-05-02T08:57:04.995Z</time></trkpt><trkpt lat="45.5385572" lon="11.8222167"><ele>23.0</ele><time>2026-05-02T08:57:07.002Z</time></trkpt><trkpt lat="45.5385431" lon="11.8220918"><ele>23.0</ele><time>2026-05-02T08:57:09.004Z</time></trkpt><trkpt lat="45.5385225" lon="11.8219724"><ele>23.0</ele><time>2026-05-02T08:57:11.009Z</time></trkpt><trkpt lat="45.5385171" lon="11.8218522"><ele>23.0</ele><time>2026-05-02T08:57:12.997Z</time></trkpt><trkpt lat="45.5385131" lon="11.8217372"><ele>23.0</ele><time>2026-05-02T08:57:14.988Z</time></trkpt><trkpt lat="45.5384985" lon="11.8216158"><ele>23.0</ele><time>2026-05-02T08:57:17.012Z</time></trkpt><trkpt lat="45.5384824" lon="11.8214863"><ele>23.0</ele><time>2026-05-02T08:57:18.999Z</time></trkpt><trkpt lat="45.5384856" lon="11.821351"><ele>23.0</ele><time>2026-05-02T08:57:20.985Z</time></trkpt><trkpt lat="45.5384692" lon="11.821231"><ele>23.0</ele><time>2026-05-02T08:57:22.991Z</time></trkpt><trkpt lat="45.5384604" lon="11.8211261"><ele>23.0</ele><time>2026-05-02T08:57:24.984Z</time></trkpt><trkpt lat="45.5384486" lon="11.8210126"><ele>23.0</ele><time>2026-05-02T08:57:27.987Z</time></trkpt><trkpt lat="45.5384351" lon="11.8209098"><ele>23.0</ele><time>2026-05-02T08:57:30.982Z</time></trkpt><trkpt lat="45.5384297" lon="11.8208112"><ele>23.0</ele><time>2026-05-02T08:57:33.962Z</time></trkpt><trkpt lat="45.5384161" lon="11.8207221"><ele>23.0</ele><time>2026-05-02T08:57:35.986Z</time></trkpt><trkpt lat="45.5384109" lon="11.8206284"><ele>23.0</ele><time>2026-05-02T08:57:37.986Z</time></trkpt><trkpt lat="45.5384153" lon="11.8205283"><ele>22.833333333333336</ele><time>2026-05-02T08:57:39.989Z</time></trkpt><trkpt lat="45.5384072" lon="11.8203916"><ele>22.666666666666668</ele><time>2026-05-02T08:57:42Z</time></trkpt><trkpt lat="45.5384019" lon="11.820237"><ele>22.5</ele><time>2026-05-02T08:57:43.967Z</time></trkpt><trkpt lat="45.538394" lon="11.8201424"><ele>22.333333333333332</ele><time>2026-05-02T08:57:45.002Z</time></trkpt><trkpt lat="45.5383882" lon="11.8200418"><ele>22.166666666666664</ele><time>2026-05-02T08:57:45.993Z</time></trkpt><trkpt lat="45.5383851" lon="11.8199481"><ele>22.0</ele><time>2026-05-02T08:57:46.995Z</time></trkpt><trkpt lat="45.5383699" lon="11.8197755"><ele>21.5</ele><time>2026-05-02T08:57:48.994Z</time></trkpt><trkpt lat="45.5383638" lon="11.819602"><ele>21.0</ele><time>2026-05-02T08:57:50.994Z</time></trkpt><trkpt lat="45.5383501" lon="11.8194341"><ele>20.5</ele><time>2026-05-02T08:57:52.998Z</time></trkpt><trkpt lat="45.5383385" lon="11.8192744"><ele>20.0</ele><time>2026-05-02T08:57:54.996Z</time></trkpt><trkpt lat="45.5383334" lon="11.8191278"><ele>19.8</ele><time>2026-05-02T08:57:57.01Z</time></trkpt><trkpt lat="45.5383274" lon="11.8189924"><ele>19.6</ele><time>2026-05-02T08:57:58.996Z</time></trkpt><trkpt lat="45.5383395" lon="11.8188576"><ele>19.4</ele><time>2026-05-02T08:58:00.995Z</time></trkpt><trkpt lat="45.5383411" lon="11.8187298"><ele>19.2</ele><time>2026-05-02T08:58:02.993Z</time></trkpt><trkpt lat="45.5383472" lon="11.8186024"><ele>19.0</ele><time>2026-05-02T08:58:05.011Z</time></trkpt><trkpt lat="45.5383482" lon="11.8184675"><ele>19.0</ele><time>2026-05-02T08:58:07.006Z</time></trkpt><trkpt lat="45.5383416" lon="11.8183283"><ele>19.0</ele><time>2026-05-02T08:58:08.995Z</time></trkpt><trkpt lat="45.538322" lon="11.8182016"><ele>19.0</ele><time>2026-05-02T08:58:10.958Z</time></trkpt><trkpt lat="45.538321" lon="11.8180728"><ele>19.0</ele><time>2026-05-02T08:58:12.991Z</time></trkpt><trkpt lat="45.5383347" lon="11.8179599"><ele>19.0</ele><time>2026-05-02T08:58:14.999Z</time></trkpt><trkpt lat="45.5383385" lon="11.8178334"><ele>19.0</ele><time>2026-05-02T08:58:16.979Z</time></trkpt><trkpt lat="45.5383322" lon="11.8177023"><ele>19.2</ele><time>2026-05-02T08:58:19.011Z</time></trkpt><trkpt lat="45.5383264" lon="11.8175617"><ele>19.4</ele><time>2026-05-02T08:58:20.991Z</time></trkpt><trkpt lat="45.5383231" lon="11.8174336"><ele>19.6</ele><time>2026-05-02T08:58:22.988Z</time></trkpt><trkpt lat="45.5383259" lon="11.8172987"><ele>19.8</ele><time>2026-05-02T08:58:24.984Z</time></trkpt><trkpt lat="45.5383212" lon="11.8171762"><ele>20.0</ele><time>2026-05-02T08:58:26.997Z</time></trkpt><trkpt lat="45.5383154" lon="11.8170605"><ele>20.0</ele><time>2026-05-02T08:58:29.012Z</time></trkpt><trkpt lat="45.5383148" lon="11.816937"><ele>20.0</ele><time>2026-05-02T08:58:31.002Z</time></trkpt><trkpt lat="45.5383133" lon="11.8168086"><ele>20.0</ele><time>2026-05-02T08:58:32.999Z</time></trkpt><trkpt lat="45.5383133" lon="11.816681"><ele>20.0</ele><time>2026-05-02T08:58:35Z</time></trkpt><trkpt lat="45.5383066" lon="11.8165668"><ele>20.0</ele><time>2026-05-02T08:58:36.988Z</time></trkpt><trkpt lat="45.5383031" lon="11.8164535"><ele>20.0</ele><time>2026-05-02T08:58:39.004Z</time></trkpt><trkpt lat="45.5383038" lon="11.8163537"><ele>20.0</ele><time>2026-05-02T08:58:41.002Z</time></trkpt><trkpt lat="45.5383149" lon="11.8162464"><ele>20.0</ele><time>2026-05-02T08:58:44.015Z</time></trkpt><trkpt lat="45.5383175" lon="11.8161225"><ele>20.0</ele><time>2026-05-02T08:58:48.022Z</time></trkpt><trkpt lat="45.5383193" lon="11.8160248"><ele>20.0</ele><time>2026-05-02T08:58:50.004Z</time></trkpt><trkpt lat="45.538317" lon="11.8159189"><ele>20.0</ele><time>2026-05-02T08:58:52.01Z</time></trkpt><trkpt lat="45.5383116" lon="11.815815"><ele>20.0</ele><time>2026-05-02T08:58:53.984Z</time></trkpt><trkpt lat="45.5383087" lon="11.815695"><ele>20.0</ele><time>2026-05-02T08:58:56.013Z</time></trkpt><trkpt lat="45.5383097" lon="11.8155622"><ele>20.0</ele><time>2026-05-02T08:58:57.985Z</time></trkpt><trkpt lat="45.5383122" lon="11.8154306"><ele>20.0</ele><time>2026-05-02T08:59:00.004Z</time></trkpt><trkpt lat="45.538315" lon="11.815292"><ele>20.0</ele><time>2026-05-02T08:59:02.008Z</time></trkpt><trkpt lat="45.5383046" lon="11.8151648"><ele>20.0</ele><time>2026-05-02T08:59:03.998Z</time></trkpt><trkpt lat="45.5383038" lon="11.8150466"><ele>20.166666666666668</ele><time>2026-05-02T08:59:06.006Z</time></trkpt><trkpt lat="45.538304" lon="11.8149403"><ele>20.333333333333336</ele><time>2026-05-02T08:59:07.978Z</time></trkpt><trkpt lat="45.5383023" lon="11.8148389"><ele>20.5</ele><time>2026-05-02T08:59:09.988Z</time></trkpt><trkpt lat="45.5383064" lon="11.8147301"><ele>20.666666666666668</ele><time>2026-05-02T08:59:11.983Z</time></trkpt><trkpt lat="45.5383068" lon="11.8146038"><ele>20.833333333333332</ele><time>2026-05-02T08:59:13.992Z</time></trkpt><trkpt lat="45.5383052" lon="11.8144695"><ele>21.0</ele><time>2026-05-02T08:59:16.009Z</time></trkpt><trkpt lat="45.5383004" lon="11.8143316"><ele>20.833333333333332</ele><time>2026-05-02T08:59:17.983Z</time></trkpt><trkpt lat="45.5382963" lon="11.8142045"><ele>20.666666666666668</ele><time>2026-05-02T08:59:19.995Z</time></trkpt><trkpt lat="45.5382952" lon="11.8140714"><ele>20.5</ele><time>2026-05-02T08:59:21.973Z</time></trkpt><trkpt lat="45.538302" lon="11.8139457"><ele>20.333333333333336</ele><time>2026-05-02T08:59:24.006Z</time></trkpt><trkpt lat="45.5383012" lon="11.8138362"><ele>20.166666666666668</ele><time>2026-05-02T08:59:25.975Z</time></trkpt><trkpt lat="45.5382963" lon="11.8137146"><ele>20.0</ele><time>2026-05-02T08:59:28.986Z</time></trkpt><trkpt lat="45.5382917" lon="11.8136131"><ele>20.0</ele><time>2026-05-02T08:59:31.996Z</time></trkpt><trkpt lat="45.5382886" lon="11.8135113"><ele>20.0</ele><time>2026-05-02T08:59:34.991Z</time></trkpt><trkpt lat="45.5382816" lon="11.8133987"><ele>20.0</ele><time>2026-05-02T08:59:38.004Z</time></trkpt><trkpt lat="45.5382815" lon="11.8132788"><ele>20.0</ele><time>2026-05-02T08:59:40.991Z</time></trkpt><trkpt lat="45.53828" lon="11.8131778"><ele>20.0</ele><time>2026-05-02T08:59:42.996Z</time></trkpt><trkpt lat="45.5382745" lon="11.8130491"><ele>20.0</ele><time>2026-05-02T08:59:45.98Z</time></trkpt><trkpt lat="45.5382675" lon="11.8129128"><ele>20.0</ele><time>2026-05-02T08:59:47.986Z</time></trkpt><trkpt lat="45.5382695" lon="11.8127339"><ele>20.0</ele><time>2026-05-02T08:59:50.004Z</time></trkpt><trkpt lat="45.5382699" lon="11.812633"><ele>20.0</ele><time>2026-05-02T08:59:51.01Z</time></trkpt><trkpt lat="45.5382699" lon="11.8125389"><ele>20.0</ele><time>2026-05-02T08:59:52.001Z</time></trkpt><trkpt lat="45.5382686" lon="11.8124462"><ele>20.0</ele><time>2026-05-02T08:59:53.01Z</time></trkpt><trkpt lat="45.5382701" lon="11.8123544"><ele>20.0</ele><time>2026-05-02T08:59:53.986Z</time></trkpt><trkpt lat="45.5382747" lon="11.8121948"><ele>20.2</ele><time>2026-05-02T08:59:55.966Z</time></trkpt><trkpt lat="45.5382795" lon="11.8120409"><ele>20.4</ele><time>2026-05-02T08:59:58Z</time></trkpt><trkpt lat="45.5382776" lon="11.8118836"><ele>20.6</ele><time>2026-05-02T09:00:00.001Z</time></trkpt><trkpt lat="45.5382781" lon="11.8117582"><ele>20.8</ele><time>2026-05-02T09:00:01.989Z</time></trkpt><trkpt lat="45.538275" lon="11.8116289"><ele>21.0</ele><time>2026-05-02T09:00:03.986Z</time></trkpt><trkpt lat="45.5382778" lon="11.8114986"><ele>21.0</ele><time>2026-05-02T09:00:06.005Z</time></trkpt><trkpt lat="45.5382746" lon="11.8113907"><ele>21.0</ele><time>2026-05-02T09:00:07.998Z</time></trkpt><trkpt lat="45.538269" lon="11.8112649"><ele>21.0</ele><time>2026-05-02T09:00:09.986Z</time></trkpt><trkpt lat="45.5382676" lon="11.8111258"><ele>21.0</ele><time>2026-05-02T09:00:12.004Z</time></trkpt><trkpt lat="45.5382607" lon="11.810989"><ele>21.0</ele><time>2026-05-02T09:00:14.007Z</time></trkpt><trkpt lat="45.5382618" lon="11.8108629"><ele>21.0</ele><time>2026-05-02T09:00:15.994Z</time></trkpt><trkpt lat="45.5382595" lon="11.8107443"><ele>21.0</ele><time>2026-05-02T09:00:18.004Z</time></trkpt><trkpt lat="45.5382613" lon="11.8106245"><ele>21.0</ele><time>2026-05-02T09:00:19.987Z</time></trkpt><trkpt lat="45.5382653" lon="11.8104976"><ele>21.0</ele><time>2026-05-02T09:00:21.994Z</time></trkpt><trkpt lat="45.5382596" lon="11.8103691"><ele>21.0</ele><time>2026-05-02T09:00:23.994Z</time></trkpt><trkpt lat="45.5382574" lon="11.8102428"><ele>21.0</ele><time>2026-05-02T09:00:26.003Z</time></trkpt><trkpt lat="45.5382604" lon="11.8101185"><ele>21.0</ele><time>2026-05-02T09:00:27.991Z</time></trkpt><trkpt lat="45.5382494" lon="11.810026"><ele>21.142857142857142</ele><time>2026-05-02T09:00:29.985Z</time></trkpt><trkpt lat="45.5382436" lon="11.8099306"><ele>21.285714285714285</ele><time>2026-05-02T09:00:32.995Z</time></trkpt><trkpt lat="45.5382611" lon="11.8098344"><ele>21.42857142857143</ele><time>2026-05-02T09:02:11.979Z</time></trkpt><trkpt lat="45.5382624" lon="11.8097166"><ele>21.57142857142857</ele><time>2026-05-02T09:02:15.982Z</time></trkpt><trkpt lat="45.5382514" lon="11.8096165"><ele>21.714285714285715</ele><time>2026-05-02T09:02:17.979Z</time></trkpt><trkpt lat="45.5382373" lon="11.8095028"><ele>21.857142857142858</ele><time>2026-05-02T09:02:19.98Z</time></trkpt><trkpt lat="45.5382416" lon="11.8093946"><ele>22.0</ele><time>2026-05-02T09:02:21.977Z</time></trkpt><trkpt lat="45.5382414" lon="11.80929"><ele>22.0</ele><time>2026-05-02T09:02:23.979Z</time></trkpt><trkpt lat="45.5382401" lon="11.8091687"><ele>22.0</ele><time>2026-05-02T09:02:25.974Z</time></trkpt><trkpt lat="45.5382372" lon="11.80903"><ele>22.0</ele><time>2026-05-02T09:02:27.979Z</time></trkpt><trkpt lat="45.5382351" lon="11.8089041"><ele>22.0</ele><time>2026-05-02T09:02:29.981Z</time></trkpt><trkpt lat="45.5382276" lon="11.8087963"><ele>22.0</ele><time>2026-05-02T09:02:31.977Z</time></trkpt><trkpt lat="45.5382238" lon="11.808693"><ele>22.0</ele><time>2026-05-02T09:02:33.984Z</time></trkpt><trkpt lat="45.5382241" lon="11.8085913"><ele>21.571428571428573</ele><time>2026-05-02T09:02:35.977Z</time></trkpt><trkpt lat="45.538224" lon="11.8084824"><ele>21.142857142857142</ele><time>2026-05-02T09:02:37.985Z</time></trkpt><trkpt lat="45.5382216" lon="11.8083818"><ele>20.714285714285715</ele><time>2026-05-02T09:02:39.978Z</time></trkpt><trkpt lat="45.5382166" lon="11.8082871"><ele>20.285714285714285</ele><time>2026-05-02T09:02:41.98Z</time></trkpt><trkpt lat="45.5382126" lon="11.8081646"><ele>19.857142857142858</ele><time>2026-05-02T09:02:44.982Z</time></trkpt><trkpt lat="45.5382153" lon="11.8080541"><ele>19.428571428571427</ele><time>2026-05-02T09:02:47.977Z</time></trkpt><trkpt lat="45.5382163" lon="11.8079593"><ele>19.0</ele><time>2026-05-02T09:02:50.976Z</time></trkpt><trkpt lat="45.5382284" lon="11.807852"><ele>19.0</ele><time>2026-05-02T09:05:56.981Z</time></trkpt><trkpt lat="45.5382281" lon="11.807748"><ele>19.0</ele><time>2026-05-02T09:07:58.982Z</time></trkpt><trkpt lat="45.5382301" lon="11.807628"><ele>19.0</ele><time>2026-05-02T09:08:02.977Z</time></trkpt><trkpt lat="45.5382283" lon="11.8075041"><ele>19.0</ele><time>2026-05-02T09:08:05.979Z</time></trkpt><trkpt lat="45.5382214" lon="11.8073805"><ele>19.0</ele><time>2026-05-02T09:08:08.971Z</time></trkpt><trkpt lat="45.5382134" lon="11.8072852"><ele>19.0</ele><time>2026-05-02T09:08:10.981Z</time></trkpt><trkpt lat="45.5382082" lon="11.8071825"><ele>18.666666666666664</ele><time>2026-05-02T09:08:12.975Z</time></trkpt><trkpt lat="45.5382229" lon="11.8070781"><ele>18.333333333333332</ele><time>2026-05-02T09:08:14.975Z</time></trkpt><trkpt lat="45.5382188" lon="11.8069798"><ele>18.0</ele><time>2026-05-02T09:08:16.975Z</time></trkpt><trkpt lat="45.5382176" lon="11.8068744"><ele>17.666666666666668</ele><time>2026-05-02T09:08:18.971Z</time></trkpt><trkpt lat="45.538212" lon="11.8067448"><ele>17.333333333333336</ele><time>2026-05-02T09:08:20.983Z</time></trkpt><trkpt lat="45.5382055" lon="11.8066015"><ele>17.0</ele><time>2026-05-02T09:08:22.978Z</time></trkpt><trkpt lat="45.5382025" lon="11.8064446"><ele>17.8</ele><time>2026-05-02T09:08:24.984Z</time></trkpt><trkpt lat="45.5382076" lon="11.8062927"><ele>18.6</ele><time>2026-05-02T09:08:26.976Z</time></trkpt><trkpt lat="45.5382092" lon="11.8061401"><ele>19.400000000000002</ele><time>2026-05-02T09:08:28.977Z</time></trkpt><trkpt lat="45.5381997" lon="11.8059906"><ele>20.2</ele><time>2026-05-02T09:08:30.977Z</time></trkpt><trkpt lat="45.5381915" lon="11.8058462"><ele>21.0</ele><time>2026-05-02T09:08:32.978Z</time></trkpt><trkpt lat="45.538192" lon="11.8057192"><ele>21.166666666666668</ele><time>2026-05-02T09:08:34.982Z</time></trkpt><trkpt lat="45.5381912" lon="11.8055836"><ele>21.333333333333332</ele><time>2026-05-02T09:08:36.965Z</time></trkpt><trkpt lat="45.5381813" lon="11.8054677"><ele>21.5</ele><time>2026-05-02T09:08:38.982Z</time></trkpt><trkpt lat="45.5381735" lon="11.8053449"><ele>21.666666666666664</ele><time>2026-05-02T09:08:40.986Z</time></trkpt><trkpt lat="45.5381597" lon="11.8052253"><ele>21.833333333333332</ele><time>2026-05-02T09:08:42.978Z</time></trkpt><trkpt lat="45.5381536" lon="11.8050925"><ele>22.0</ele><time>2026-05-02T09:08:44.976Z</time></trkpt><trkpt lat="45.538143" lon="11.804962"><ele>22.166666666666664</ele><time>2026-05-02T09:08:46.975Z</time></trkpt><trkpt lat="45.5381339" lon="11.8048398"><ele>22.333333333333332</ele><time>2026-05-02T09:08:48.98Z</time></trkpt><trkpt lat="45.5381238" lon="11.80473"><ele>22.5</ele><time>2026-05-02T09:08:50.978Z</time></trkpt><trkpt lat="45.5381158" lon="11.8046021"><ele>22.666666666666668</ele><time>2026-05-02T09:08:52.977Z</time></trkpt><trkpt lat="45.5381044" lon="11.8044716"><ele>22.833333333333336</ele><time>2026-05-02T09:08:54.987Z</time></trkpt><trkpt lat="45.5380905" lon="11.8043523"><ele>23.0</ele><time>2026-05-02T09:08:56.964Z</time></trkpt><trkpt lat="45.5380798" lon="11.8042348"><ele>22.666666666666668</ele><time>2026-05-02T09:08:58.985Z</time></trkpt><trkpt lat="45.5380666" lon="11.8041236"><ele>22.333333333333336</ele><time>2026-05-02T09:09:00.985Z</time></trkpt><trkpt lat="45.5380564" lon="11.8040111"><ele>22.0</ele><time>2026-05-02T09:09:02.983Z</time></trkpt><trkpt lat="45.5380419" lon="11.8039046"><ele>21.666666666666668</ele><time>2026-05-02T09:09:04.979Z</time></trkpt><trkpt lat="45.5380314" lon="11.8037827"><ele>21.333333333333332</ele><time>2026-05-02T09:09:06.979Z</time></trkpt><trkpt lat="45.5380165" lon="11.8036504"><ele>21.0</ele><time>2026-05-02T09:09:08.979Z</time></trkpt><trkpt lat="45.5380002" lon="11.8035177"><ele>21.0</ele><time>2026-05-02T09:09:10.983Z</time></trkpt><trkpt lat="45.5379839" lon="11.8033845"><ele>21.0</ele><time>2026-05-02T09:09:12.984Z</time></trkpt><trkpt lat="45.5379683" lon="11.8032671"><ele>21.0</ele><time>2026-05-02T09:09:14.973Z</time></trkpt><trkpt lat="45.5379455" lon="11.8031554"><ele>21.0</ele><time>2026-05-02T09:09:16.979Z</time></trkpt><trkpt lat="45.5379328" lon="11.803044"><ele>21.0</ele><time>2026-05-02T09:09:18.98Z</time></trkpt><trkpt lat="45.5379192" lon="11.8029173"><ele>21.0</ele><time>2026-05-02T09:09:20.978Z</time></trkpt><trkpt lat="45.5379016" lon="11.8027942"><ele>21.0</ele><time>2026-05-02T09:09:22.984Z</time></trkpt><trkpt lat="45.5378902" lon="11.8026828"><ele>21.0</ele><time>2026-05-02T09:09:24.982Z</time></trkpt><trkpt lat="45.5378796" lon="11.8025622"><ele>21.0</ele><time>2026-05-02T09:09:26.974Z</time></trkpt><trkpt lat="45.5378526" lon="11.802446"><ele>21.0</ele><time>2026-05-02T09:09:28.978Z</time></trkpt><trkpt lat="45.5378247" lon="11.8023331"><ele>21.0</ele><time>2026-05-02T09:09:30.976Z</time></trkpt><trkpt lat="45.5378034" lon="11.8022064"><ele>21.0</ele><time>2026-05-02T09:09:32.98Z</time></trkpt><trkpt lat="45.5377723" lon="11.8020877"><ele>20.8</ele><time>2026-05-02T09:09:34.982Z</time></trkpt><trkpt lat="45.5377458" lon="11.8019715"><ele>20.6</ele><time>2026-05-02T09:09:36.979Z</time></trkpt><trkpt lat="45.5377256" lon="11.8018545"><ele>20.4</ele><time>2026-05-02T09:09:38.978Z</time></trkpt><trkpt lat="45.5377016" lon="11.8017264"><ele>20.2</ele><time>2026-05-02T09:09:40.98Z</time></trkpt><trkpt lat="45.5376668" lon="11.8015924"><ele>20.0</ele><time>2026-05-02T09:09:42.979Z</time></trkpt><trkpt lat="45.5376361" lon="11.8014558"><ele>20.0</ele><time>2026-05-02T09:09:44.985Z</time></trkpt><trkpt lat="45.5376054" lon="11.8013164"><ele>20.0</ele><time>2026-05-02T09:09:46.977Z</time></trkpt><trkpt lat="45.537577" lon="11.8011744"><ele>20.0</ele><time>2026-05-02T09:09:48.98Z</time></trkpt><trkpt lat="45.5375482" lon="11.8010297"><ele>20.0</ele><time>2026-05-02T09:09:50.98Z</time></trkpt><trkpt lat="45.5375099" lon="11.8009084"><ele>20.0</ele><time>2026-05-02T09:09:52.983Z</time></trkpt><trkpt lat="45.5374797" lon="11.8007827"><ele>20.166666666666668</ele><time>2026-05-02T09:09:54.981Z</time></trkpt><trkpt lat="45.5374461" lon="11.8006644"><ele>20.333333333333336</ele><time>2026-05-02T09:09:56.981Z</time></trkpt><trkpt lat="45.5374203" lon="11.800551"><ele>20.5</ele><time>2026-05-02T09:09:58.983Z</time></trkpt><trkpt lat="45.5373921" lon="11.8004388"><ele>20.666666666666668</ele><time>2026-05-02T09:10:00.974Z</time></trkpt><trkpt lat="45.5373584" lon="11.8003319"><ele>20.833333333333332</ele><time>2026-05-02T09:10:02.981Z</time></trkpt><trkpt lat="45.5373316" lon="11.8002081"><ele>21.0</ele><time>2026-05-02T09:10:04.982Z</time></trkpt><trkpt lat="45.5373098" lon="11.8000971"><ele>21.0</ele><time>2026-05-02T09:10:06.98Z</time></trkpt><trkpt lat="45.5372846" lon="11.7999834"><ele>21.0</ele><time>2026-05-02T09:10:08.983Z</time></trkpt><trkpt lat="45.5372572" lon="11.7998734"><ele>21.0</ele><time>2026-05-02T09:10:10.981Z</time></trkpt><trkpt lat="45.5372197" lon="11.7997585"><ele>21.0</ele><time>2026-05-02T09:10:12.982Z</time></trkpt><trkpt lat="45.5371832" lon="11.7996317"><ele>21.0</ele><time>2026-05-02T09:10:14.975Z</time></trkpt><trkpt lat="45.5371606" lon="11.79951"><ele>21.0</ele><time>2026-05-02T09:10:16.972Z</time></trkpt><trkpt lat="45.5371244" lon="11.7993766"><ele>21.0</ele><time>2026-05-02T09:10:18.983Z</time></trkpt><trkpt lat="45.5370945" lon="11.7992494"><ele>21.0</ele><time>2026-05-02T09:10:20.978Z</time></trkpt><trkpt lat="45.5370656" lon="11.799127"><ele>21.0</ele><time>2026-05-02T09:10:22.976Z</time></trkpt><trkpt lat="45.5370343" lon="11.7989961"><ele>21.0</ele><time>2026-05-02T09:10:24.983Z</time></trkpt><trkpt lat="45.5369997" lon="11.7988764"><ele>21.0</ele><time>2026-05-02T09:10:26.984Z</time></trkpt><trkpt lat="45.5369683" lon="11.7987609"><ele>21.0</ele><time>2026-05-02T09:10:28.983Z</time></trkpt><trkpt lat="45.536938" lon="11.7986407"><ele>21.0</ele><time>2026-05-02T09:10:30.978Z</time></trkpt><trkpt lat="45.536907" lon="11.7985198"><ele>21.0</ele><time>2026-05-02T09:10:32.993Z</time></trkpt><trkpt lat="45.5368762" lon="11.7984066"><ele>21.0</ele><time>2026-05-02T09:10:34.982Z</time></trkpt><trkpt lat="45.5368542" lon="11.7982978"><ele>21.0</ele><time>2026-05-02T09:10:36.984Z</time></trkpt><trkpt lat="45.5368166" lon="11.7981838"><ele>21.0</ele><time>2026-05-02T09:10:38.959Z</time></trkpt><trkpt lat="45.5367928" lon="11.7980773"><ele>21.0</ele><time>2026-05-02T09:10:40.985Z</time></trkpt><trkpt lat="45.5367609" lon="11.7979769"><ele>21.0</ele><time>2026-05-02T09:10:42.979Z</time></trkpt><trkpt lat="45.5367274" lon="11.7978665"><ele>21.0</ele><time>2026-05-02T09:10:44.987Z</time></trkpt><trkpt lat="45.5366987" lon="11.7977544"><ele>21.0</ele><time>2026-05-02T09:10:46.962Z</time></trkpt><trkpt lat="45.5366739" lon="11.7976521"><ele>21.0</ele><time>2026-05-02T09:10:48.976Z</time></trkpt><trkpt lat="45.5366465" lon="11.7975447"><ele>21.0</ele><time>2026-05-02T09:10:50.974Z</time></trkpt><trkpt lat="45.536612" lon="11.7974299"><ele>21.0</ele><time>2026-05-02T09:10:52.981Z</time></trkpt><trkpt lat="45.5365757" lon="11.7973066"><ele>21.0</ele><time>2026-05-02T09:10:54.974Z</time></trkpt><trkpt lat="45.5365512" lon="11.7971707"><ele>21.0</ele><time>2026-05-02T09:10:56.976Z</time></trkpt><trkpt lat="45.5365152" lon="11.7970242"><ele>21.0</ele><time>2026-05-02T09:10:58.977Z</time></trkpt><trkpt lat="45.5364823" lon="11.796885"><ele>21.0</ele><time>2026-05-02T09:11:00.967Z</time></trkpt><trkpt lat="45.5364486" lon="11.7967406"><ele>21.0</ele><time>2026-05-02T09:11:02.977Z</time></trkpt><trkpt lat="45.5364168" lon="11.7965961"><ele>21.0</ele><time>2026-05-02T09:11:04.973Z</time></trkpt><trkpt lat="45.5363773" lon="11.7964685"><ele>21.0</ele><time>2026-05-02T09:11:06.98Z</time></trkpt><trkpt lat="45.5363407" lon="11.7963375"><ele>21.0</ele><time>2026-05-02T09:11:08.974Z</time></trkpt><trkpt lat="45.536304" lon="11.7962035"><ele>21.0</ele><time>2026-05-02T09:11:10.977Z</time></trkpt><trkpt lat="45.5362724" lon="11.7960818"><ele>20.833333333333332</ele><time>2026-05-02T09:11:12.982Z</time></trkpt><trkpt lat="45.5362492" lon="11.7959569"><ele>20.666666666666668</ele><time>2026-05-02T09:11:14.982Z</time></trkpt><trkpt lat="45.5362172" lon="11.7958335"><ele>20.5</ele><time>2026-05-02T09:11:16.979Z</time></trkpt><trkpt lat="45.536189" lon="11.7957171"><ele>20.333333333333336</ele><time>2026-05-02T09:11:18.984Z</time></trkpt><trkpt lat="45.5361535" lon="11.7956043"><ele>20.166666666666668</ele><time>2026-05-02T09:11:20.985Z</time></trkpt><trkpt lat="45.5361199" lon="11.7954873"><ele>20.0</ele><time>2026-05-02T09:11:22.998Z</time></trkpt><trkpt lat="45.5360854" lon="11.7953719"><ele>20.0</ele><time>2026-05-02T09:11:24.984Z</time></trkpt><trkpt lat="45.5360579" lon="11.7952612"><ele>20.0</ele><time>2026-05-02T09:11:26.976Z</time></trkpt><trkpt lat="45.5360221" lon="11.7951358"><ele>20.0</ele><time>2026-05-02T09:11:28.984Z</time></trkpt><trkpt lat="45.5359892" lon="11.7950089"><ele>20.0</ele><time>2026-05-02T09:11:30.985Z</time></trkpt><trkpt lat="45.5359569" lon="11.7948984"><ele>20.0</ele><time>2026-05-02T09:11:32.974Z</time></trkpt><trkpt lat="45.535926" lon="11.7947769"><ele>20.0</ele><time>2026-05-02T09:11:34.982Z</time></trkpt><trkpt lat="45.5358978" lon="11.7946549"><ele>20.0</ele><time>2026-05-02T09:11:36.978Z</time></trkpt><trkpt lat="45.5358663" lon="11.7945333"><ele>20.0</ele><time>2026-05-02T09:11:38.978Z</time></trkpt><trkpt lat="45.5358491" lon="11.7944038"><ele>20.0</ele><time>2026-05-02T09:11:40.976Z</time></trkpt><trkpt lat="45.5358179" lon="11.7942922"><ele>20.0</ele><time>2026-05-02T09:11:42.979Z</time></trkpt><trkpt lat="45.5357891" lon="11.7941887"><ele>20.0</ele><time>2026-05-02T09:11:44.983Z</time></trkpt><trkpt lat="45.5357605" lon="11.7940884"><ele>20.0</ele><time>2026-05-02T09:11:46.982Z</time></trkpt><trkpt lat="45.5357307" lon="11.7939686"><ele>20.0</ele><time>2026-05-02T09:11:48.976Z</time></trkpt><trkpt lat="45.5356977" lon="11.7938359"><ele>20.0</ele><time>2026-05-02T09:11:50.977Z</time></trkpt><trkpt lat="45.5356659" lon="11.7937061"><ele>20.0</ele><time>2026-05-02T09:11:52.981Z</time></trkpt><trkpt lat="45.5356317" lon="11.7935844"><ele>20.0</ele><time>2026-05-02T09:11:54.979Z</time></trkpt><trkpt lat="45.535595" lon="11.7934619"><ele>20.0</ele><time>2026-05-02T09:11:56.983Z</time></trkpt><trkpt lat="45.5355601" lon="11.7933271"><ele>20.4</ele><time>2026-05-02T09:11:58.98Z</time></trkpt><trkpt lat="45.5355232" lon="11.793191"><ele>20.8</ele><time>2026-05-02T09:12:00.979Z</time></trkpt><trkpt lat="45.5354788" lon="11.79306"><ele>21.200000000000003</ele><time>2026-05-02T09:12:02.982Z</time></trkpt><trkpt lat="45.5354375" lon="11.7929166"><ele>21.6</ele><time>2026-05-02T09:12:04.976Z</time></trkpt><trkpt lat="45.5353935" lon="11.7927599"><ele>22.0</ele><time>2026-05-02T09:12:06.975Z</time></trkpt><trkpt lat="45.5353741" lon="11.7926739"><ele>22.200000000000003</ele><time>2026-05-02T09:12:07.976Z</time></trkpt><trkpt lat="45.5353571" lon="11.792586"><ele>22.4</ele><time>2026-05-02T09:12:08.975Z</time></trkpt><trkpt lat="45.5353221" lon="11.7924283"><ele>22.6</ele><time>2026-05-02T09:12:10.973Z</time></trkpt><trkpt lat="45.5352862" lon="11.7922868"><ele>22.799999999999997</ele><time>2026-05-02T09:12:12.978Z</time></trkpt><trkpt lat="45.5352545" lon="11.7921492"><ele>23.0</ele><time>2026-05-02T09:12:14.979Z</time></trkpt><trkpt lat="45.535226" lon="11.7920148"><ele>23.0</ele><time>2026-05-02T09:12:16.981Z</time></trkpt><trkpt lat="45.5351974" lon="11.7918817"><ele>23.0</ele><time>2026-05-02T09:12:18.98Z</time></trkpt><trkpt lat="45.53517" lon="11.7917589"><ele>23.0</ele><time>2026-05-02T09:12:20.975Z</time></trkpt><trkpt lat="45.535149" lon="11.791638"><ele>23.0</ele><time>2026-05-02T09:12:22.99Z</time></trkpt><trkpt lat="45.5351235" lon="11.7915252"><ele>23.0</ele><time>2026-05-02T09:12:24.983Z</time></trkpt><trkpt lat="45.5350893" lon="11.7914174"><ele>23.0</ele><time>2026-05-02T09:12:26.98Z</time></trkpt><trkpt lat="45.535061" lon="11.7912992"><ele>23.0</ele><time>2026-05-02T09:12:28.979Z</time></trkpt><trkpt lat="45.5350311" lon="11.7911828"><ele>23.0</ele><time>2026-05-02T09:12:30.979Z</time></trkpt><trkpt lat="45.5349829" lon="11.7910479"><ele>23.0</ele><time>2026-05-02T09:12:32.983Z</time></trkpt><trkpt lat="45.5349452" lon="11.7909314"><ele>23.0</ele><time>2026-05-02T09:12:34.984Z</time></trkpt><trkpt lat="45.5349191" lon="11.7908136"><ele>23.0</ele><time>2026-05-02T09:12:36.982Z</time></trkpt><trkpt lat="45.534896" lon="11.7907201"><ele>23.0</ele><time>2026-05-02T09:12:38.996Z</time></trkpt><trkpt lat="45.5348639" lon="11.7906224"><ele>23.28571428571429</ele><time>2026-05-02T09:12:40.986Z</time></trkpt><trkpt lat="45.5348329" lon="11.7905221"><ele>23.57142857142857</ele><time>2026-05-02T09:12:42.978Z</time></trkpt><trkpt lat="45.5348129" lon="11.7904027"><ele>23.857142857142858</ele><time>2026-05-02T09:12:44.984Z</time></trkpt><trkpt lat="45.5347909" lon="11.7903165"><ele>24.142857142857146</ele><time>2026-05-02T09:12:46.979Z</time></trkpt><trkpt lat="45.534763" lon="11.7902064"><ele>24.42857142857143</ele><time>2026-05-02T09:12:49.985Z</time></trkpt><trkpt lat="45.5347547" lon="11.7901094"><ele>24.714285714285715</ele><time>2026-05-02T09:12:53.993Z</time></trkpt><trkpt lat="45.5348011" lon="11.7900474"><ele>25.0</ele><time>2026-05-02T09:13:24.973Z</time></trkpt><trkpt lat="45.5348768" lon="11.7900319"><ele>25.166666666666668</ele><time>2026-05-02T09:13:27.985Z</time></trkpt><trkpt lat="45.5349633" lon="11.7899967"><ele>25.333333333333336</ele><time>2026-05-02T09:13:30.98Z</time></trkpt><trkpt lat="45.5350456" lon="11.7899286"><ele>25.5</ele><time>2026-05-02T09:13:33.978Z</time></trkpt><trkpt lat="45.5351143" lon="11.7898959"><ele>25.666666666666664</ele><time>2026-05-02T09:13:35.973Z</time></trkpt><trkpt lat="45.5351987" lon="11.7898573"><ele>25.833333333333332</ele><time>2026-05-02T09:13:37.98Z</time></trkpt><trkpt lat="45.5352767" lon="11.7898193"><ele>26.0</ele><time>2026-05-02T09:13:39.985Z</time></trkpt><trkpt lat="45.5353543" lon="11.7897788"><ele>25.666666666666664</ele><time>2026-05-02T09:13:42.98Z</time></trkpt><trkpt lat="45.5354095" lon="11.7898244"><ele>25.333333333333332</ele><time>2026-05-02T09:13:45.963Z</time></trkpt><trkpt lat="45.5354792" lon="11.7898698"><ele>25.0</ele><time>2026-05-02T09:13:48.963Z</time></trkpt><trkpt lat="45.5355714" lon="11.7898421"><ele>24.666666666666664</ele><time>2026-05-02T09:13:51.979Z</time></trkpt><trkpt lat="45.5356395" lon="11.7898114"><ele>24.333333333333332</ele><time>2026-05-02T09:13:53.978Z</time></trkpt><trkpt lat="45.5357184" lon="11.7897729"><ele>24.0</ele><time>2026-05-02T09:13:55.974Z</time></trkpt><trkpt lat="45.5357895" lon="11.7897454"><ele>24.0</ele><time>2026-05-02T09:13:57.978Z</time></trkpt><trkpt lat="45.5358606" lon="11.7897246"><ele>24.0</ele><time>2026-05-02T09:13:59.985Z</time></trkpt><trkpt lat="45.5359224" lon="11.7896929"><ele>24.0</ele><time>2026-05-02T09:14:01.977Z</time></trkpt><trkpt lat="45.5359919" lon="11.7896607"><ele>24.0</ele><time>2026-05-02T09:14:03.982Z</time></trkpt><trkpt lat="45.5360766" lon="11.7896111"><ele>24.0</ele><time>2026-05-02T09:14:05.986Z</time></trkpt><trkpt lat="45.5361636" lon="11.7895654"><ele>24.0</ele><time>2026-05-02T09:14:07.979Z</time></trkpt><trkpt lat="45.5362509" lon="11.7895144"><ele>24.2</ele><time>2026-05-02T09:14:09.977Z</time></trkpt><trkpt lat="45.5363441" lon="11.7894706"><ele>24.4</ele><time>2026-05-02T09:14:11.976Z</time></trkpt><trkpt lat="45.5364356" lon="11.7894282"><ele>24.6</ele><time>2026-05-02T09:14:13.975Z</time></trkpt><trkpt lat="45.5365225" lon="11.7893775"><ele>24.8</ele><time>2026-05-02T09:14:15.982Z</time></trkpt><trkpt lat="45.5366092" lon="11.7893268"><ele>25.0</ele><time>2026-05-02T09:14:17.976Z</time></trkpt><trkpt lat="45.5366964" lon="11.7892853"><ele>25.000000000000004</ele><time>2026-05-02T09:14:19.981Z</time></trkpt><trkpt lat="45.5367721" lon="11.7892435"><ele>25.0</ele><time>2026-05-02T09:14:21.977Z</time></trkpt><trkpt lat="45.5368478" lon="11.789205"><ele>25.0</ele><time>2026-05-02T09:14:23.976Z</time></trkpt><trkpt lat="45.53693" lon="11.7891635"><ele>25.0</ele><time>2026-05-02T09:14:25.986Z</time></trkpt><trkpt lat="45.5370147" lon="11.7891278"><ele>25.000000000000004</ele><time>2026-05-02T09:14:27.98Z</time></trkpt><trkpt lat="45.5371107" lon="11.7890822"><ele>25.0</ele><time>2026-05-02T09:14:29.977Z</time></trkpt><trkpt lat="45.5371994" lon="11.7890407"><ele>25.0</ele><time>2026-05-02T09:14:31.982Z</time></trkpt><trkpt lat="45.5372926" lon="11.7890036"><ele>25.0</ele><time>2026-05-02T09:14:33.985Z</time></trkpt><trkpt lat="45.5373827" lon="11.7889645"><ele>25.0</ele><time>2026-05-02T09:14:35.976Z</time></trkpt><trkpt lat="45.5374648" lon="11.7889165"><ele>25.0</ele><time>2026-05-02T09:14:37.977Z</time></trkpt><trkpt lat="45.5375426" lon="11.7888856"><ele>25.0</ele><time>2026-05-02T09:14:39.974Z</time></trkpt><trkpt lat="45.5376276" lon="11.7888327"><ele>25.000000000000004</ele><time>2026-05-02T09:14:41.983Z</time></trkpt><trkpt lat="45.5377091" lon="11.7887866"><ele>25.0</ele><time>2026-05-02T09:14:43.978Z</time></trkpt><trkpt lat="45.5377901" lon="11.7887463"><ele>25.0</ele><time>2026-05-02T09:14:45.982Z</time></trkpt><trkpt lat="45.537857" lon="11.7887154"><ele>25.0</ele><time>2026-05-02T09:14:47.982Z</time></trkpt><trkpt lat="45.5379346" lon="11.7886729"><ele>25.000000000000004</ele><time>2026-05-02T09:14:50.976Z</time></trkpt><trkpt lat="45.5379894" lon="11.7886255"><ele>25.0</ele><time>2026-05-02T09:15:24.981Z</time></trkpt><trkpt lat="45.5380454" lon="11.7885613"><ele>25.000000000000004</ele><time>2026-05-02T09:15:30.979Z</time></trkpt><trkpt lat="45.5380603" lon="11.7884553"><ele>25.0</ele><time>2026-05-02T09:15:33.975Z</time></trkpt><trkpt lat="45.538065" lon="11.7883555"><ele>25.0</ele><time>2026-05-02T09:15:35.986Z</time></trkpt><trkpt lat="45.5381054" lon="11.7882791"><ele>25.0</ele><time>2026-05-02T09:15:37.959Z</time></trkpt><trkpt lat="45.5381819" lon="11.7882447"><ele>25.000000000000004</ele><time>2026-05-02T09:15:40.968Z</time></trkpt><trkpt lat="45.538261" lon="11.7882077"><ele>25.0</ele><time>2026-05-02T09:15:43.985Z</time></trkpt><trkpt lat="45.5383366" lon="11.788166"><ele>25.0</ele><time>2026-05-02T09:15:46.978Z</time></trkpt><trkpt lat="45.5384112" lon="11.7881134"><ele>25.0</ele><time>2026-05-02T09:15:49.983Z</time></trkpt><trkpt lat="45.5384864" lon="11.7880604"><ele>25.0</ele><time>2026-05-02T09:15:51.984Z</time></trkpt><trkpt lat="45.5385604" lon="11.7880098"><ele>25.0</ele><time>2026-05-02T09:15:53.981Z</time></trkpt><trkpt lat="45.5386912" lon="11.7879532"><ele>25.0</ele><time>2026-05-02T09:15:55.982Z</time></trkpt><trkpt lat="45.5388054" lon="11.7879205"><ele>25.2</ele><time>2026-05-02T09:15:57.982Z</time></trkpt><trkpt lat="45.5389004" lon="11.7878769"><ele>25.4</ele><time>2026-05-02T09:15:59.985Z</time></trkpt><trkpt lat="45.538997" lon="11.7878424"><ele>25.6</ele><time>2026-05-02T09:16:01.987Z</time></trkpt><trkpt lat="45.53909" lon="11.7878017"><ele>25.8</ele><time>2026-05-02T09:16:03.983Z</time></trkpt><trkpt lat="45.5391611" lon="11.7877694"><ele>26.0</ele><time>2026-05-02T09:16:05.966Z</time></trkpt><trkpt lat="45.5392414" lon="11.7877252"><ele>25.999999999999996</ele><time>2026-05-02T09:16:08.955Z</time></trkpt><trkpt lat="45.5393302" lon="11.7876894"><ele>26.0</ele><time>2026-05-02T09:16:11.98Z</time></trkpt><trkpt lat="45.5394093" lon="11.7876382"><ele>26.0</ele><time>2026-05-02T09:16:14.965Z</time></trkpt><trkpt lat="45.5394748" lon="11.7876122"><ele>26.0</ele><time>2026-05-02T09:16:16.986Z</time></trkpt><trkpt lat="45.5395386" lon="11.7875589"><ele>25.999999999999996</ele><time>2026-05-02T09:16:18.98Z</time></trkpt><trkpt lat="45.5396205" lon="11.7875185"><ele>26.0</ele><time>2026-05-02T09:16:20.965Z</time></trkpt><trkpt lat="45.5396857" lon="11.7874841"><ele>26.499999999999996</ele><time>2026-05-02T09:16:22.987Z</time></trkpt><trkpt lat="45.5397575" lon="11.7874601"><ele>27.0</ele><time>2026-05-02T09:16:24.985Z</time></trkpt><trkpt lat="45.5398406" lon="11.7874095"><ele>27.5</ele><time>2026-05-02T09:16:27.981Z</time></trkpt><trkpt lat="45.5399191" lon="11.7873666"><ele>28.0</ele><time>2026-05-02T09:16:30.979Z</time></trkpt><trkpt lat="45.5400093" lon="11.787321"><ele>28.499999999999996</ele><time>2026-05-02T09:16:33.97Z</time></trkpt><trkpt lat="45.540092" lon="11.7872967"><ele>29.0</ele><time>2026-05-02T09:16:35.988Z</time></trkpt><trkpt lat="45.5402087" lon="11.7872491"><ele>28.999999999999996</ele><time>2026-05-02T09:16:37.973Z</time></trkpt><trkpt lat="45.5402903" lon="11.7871994"><ele>29.0</ele><time>2026-05-02T09:16:39.982Z</time></trkpt><trkpt lat="45.5403621" lon="11.7871649"><ele>29.0</ele><time>2026-05-02T09:16:41.973Z</time></trkpt><trkpt lat="45.5404545" lon="11.7871145"><ele>29.0</ele><time>2026-05-02T09:16:44.98Z</time></trkpt><trkpt lat="45.5405417" lon="11.7870697"><ele>28.999999999999996</ele><time>2026-05-02T09:16:46.98Z</time></trkpt><trkpt lat="45.5406268" lon="11.7870291"><ele>29.0</ele><time>2026-05-02T09:16:48.98Z</time></trkpt><trkpt lat="45.5407023" lon="11.7869931"><ele>28.999999999999996</ele><time>2026-05-02T09:16:50.986Z</time></trkpt><trkpt lat="45.5407696" lon="11.7869393"><ele>29.0</ele><time>2026-05-02T09:16:52.984Z</time></trkpt><trkpt lat="45.5408442" lon="11.7868876"><ele>29.0</ele><time>2026-05-02T09:16:54.979Z</time></trkpt><trkpt lat="45.5409263" lon="11.7868439"><ele>29.0</ele><time>2026-05-02T09:16:56.984Z</time></trkpt><trkpt lat="45.5410084" lon="11.7868021"><ele>28.999999999999996</ele><time>2026-05-02T09:16:58.978Z</time></trkpt><trkpt lat="45.5410735" lon="11.7867701"><ele>29.0</ele><time>2026-05-02T09:17:00.986Z</time></trkpt><trkpt lat="45.5411369" lon="11.7867301"><ele>28.799999999999997</ele><time>2026-05-02T09:17:02.986Z</time></trkpt><trkpt lat="45.5412111" lon="11.7866843"><ele>28.599999999999998</ele><time>2026-05-02T09:17:04.981Z</time></trkpt><trkpt lat="45.5412939" lon="11.7866507"><ele>28.4</ele><time>2026-05-02T09:17:06.983Z</time></trkpt><trkpt lat="45.5413709" lon="11.7866152"><ele>28.2</ele><time>2026-05-02T09:17:08.984Z</time></trkpt><trkpt lat="45.5414639" lon="11.7865667"><ele>28.0</ele><time>2026-05-02T09:17:10.979Z</time></trkpt><trkpt lat="45.5415683" lon="11.7865097"><ele>28.0</ele><time>2026-05-02T09:17:12.976Z</time></trkpt><trkpt lat="45.5416829" lon="11.7864587"><ele>27.999999999999996</ele><time>2026-05-02T09:17:14.972Z</time></trkpt><trkpt lat="45.5417854" lon="11.7864222"><ele>27.999999999999996</ele><time>2026-05-02T09:17:16.985Z</time></trkpt><trkpt lat="45.5418771" lon="11.7863767"><ele>28.0</ele><time>2026-05-02T09:17:18.976Z</time></trkpt><trkpt lat="45.5419604" lon="11.7863266"><ele>28.0</ele><time>2026-05-02T09:17:20.986Z</time></trkpt><trkpt lat="45.5420349" lon="11.7862903"><ele>28.142857142857142</ele><time>2026-05-02T09:17:22.978Z</time></trkpt><trkpt lat="45.5421073" lon="11.7862702"><ele>28.285714285714285</ele><time>2026-05-02T09:17:24.982Z</time></trkpt><trkpt lat="45.5421797" lon="11.7862344"><ele>28.42857142857143</ele><time>2026-05-02T09:17:27.983Z</time></trkpt><trkpt lat="45.542242" lon="11.7862146"><ele>28.571428571428573</ele><time>2026-05-02T09:17:32.982Z</time></trkpt><trkpt lat="45.5423097" lon="11.7861704"><ele>28.714285714285715</ele><time>2026-05-02T09:17:38.984Z</time></trkpt><trkpt lat="45.5423858" lon="11.7861242"><ele>28.85714285714286</ele><time>2026-05-02T09:17:41.981Z</time></trkpt><trkpt lat="45.5424488" lon="11.7861038"><ele>29.000000000000004</ele><time>2026-05-02T09:17:43.977Z</time></trkpt><trkpt lat="45.5425231" lon="11.786065"><ele>28.999999999999996</ele><time>2026-05-02T09:17:46.978Z</time></trkpt><trkpt lat="45.5426014" lon="11.7860316"><ele>29.0</ele><time>2026-05-02T09:17:49.979Z</time></trkpt><trkpt lat="45.542679" lon="11.7859863"><ele>29.0</ele><time>2026-05-02T09:17:52.967Z</time></trkpt><trkpt lat="45.5427496" lon="11.7859504"><ele>29.0</ele><time>2026-05-02T09:17:55.976Z</time></trkpt><trkpt lat="45.5428256" lon="11.7859049"><ele>28.999999999999996</ele><time>2026-05-02T09:17:58.97Z</time></trkpt><trkpt lat="45.542903" lon="11.7858443"><ele>29.0</ele><time>2026-05-02T09:18:01.973Z</time></trkpt><trkpt lat="45.5429559" lon="11.7857746"><ele>28.28571428571429</ele><time>2026-05-02T09:18:04.979Z</time></trkpt><trkpt lat="45.5430206" lon="11.7857107"><ele>27.571428571428573</ele><time>2026-05-02T09:18:08.979Z</time></trkpt><trkpt lat="45.5431031" lon="11.7856553"><ele>26.857142857142858</ele><time>2026-05-02T09:18:12.984Z</time></trkpt><trkpt lat="45.5431675" lon="11.7856167"><ele>26.142857142857146</ele><time>2026-05-02T09:18:14.979Z</time></trkpt><trkpt lat="45.5432443" lon="11.7855792"><ele>25.42857142857143</ele><time>2026-05-02T09:18:17.983Z</time></trkpt><trkpt lat="45.5433034" lon="11.7855464"><ele>24.71428571428571</ele><time>2026-05-02T09:18:20.988Z</time></trkpt><trkpt lat="45.5433671" lon="11.7855275"><ele>24.0</ele><time>2026-05-02T09:18:49.98Z</time></trkpt><trkpt lat="45.5433069" lon="11.7855633"><ele>24.0</ele><time>2026-05-02T09:21:38.979Z</time></trkpt><trkpt lat="45.5432298" lon="11.7855924"><ele>24.0</ele><time>2026-05-02T09:22:53.984Z</time></trkpt><trkpt lat="45.5431637" lon="11.7856259"><ele>24.0</ele><time>2026-05-02T09:22:56.986Z</time></trkpt><trkpt lat="45.543087" lon="11.7856713"><ele>24.0</ele><time>2026-05-02T09:22:59.974Z</time></trkpt><trkpt lat="45.5430226" lon="11.7857037"><ele>24.0</ele><time>2026-05-02T09:23:02.977Z</time></trkpt><trkpt lat="45.5429853" lon="11.7856293"><ele>24.0</ele><time>2026-05-02T09:23:05.983Z</time></trkpt><trkpt lat="45.5429522" lon="11.7855109"><ele>24.0</ele><time>2026-05-02T09:23:08.979Z</time></trkpt><trkpt lat="45.5429194" lon="11.7853979"><ele>24.0</ele><time>2026-05-02T09:23:10.982Z</time></trkpt><trkpt lat="45.5428922" lon="11.7852838"><ele>24.0</ele><time>2026-05-02T09:23:12.979Z</time></trkpt><trkpt lat="45.5428664" lon="11.7851846"><ele>24.0</ele><time>2026-05-02T09:23:14.974Z</time></trkpt><trkpt lat="45.5428389" lon="11.7850947"><ele>24.0</ele><time>2026-05-02T09:23:16.978Z</time></trkpt><trkpt lat="45.5428124" lon="11.784972"><ele>24.0</ele><time>2026-05-02T09:23:19.978Z</time></trkpt><trkpt lat="45.5427718" lon="11.7848766"><ele>24.142857142857142</ele><time>2026-05-02T09:23:23.981Z</time></trkpt><trkpt lat="45.5426985" lon="11.7848973"><ele>24.285714285714285</ele><time>2026-05-02T09:23:27.978Z</time></trkpt><trkpt lat="45.542637" lon="11.7849471"><ele>24.42857142857143</ele><time>2026-05-02T09:23:30.983Z</time></trkpt><trkpt lat="45.5425787" lon="11.7849889"><ele>24.57142857142857</ele><time>2026-05-02T09:23:33.961Z</time></trkpt><trkpt lat="45.5425149" lon="11.7850214"><ele>24.714285714285715</ele><time>2026-05-02T09:23:36.972Z</time></trkpt><trkpt lat="45.5424553" lon="11.7850589"><ele>24.857142857142858</ele><time>2026-05-02T09:23:38.984Z</time></trkpt><trkpt lat="45.5423858" lon="11.7850857"><ele>25.0</ele><time>2026-05-02T09:23:40.984Z</time></trkpt><trkpt lat="45.5423101" lon="11.7851148"><ele>25.000000000000004</ele><time>2026-05-02T09:23:42.98Z</time></trkpt><trkpt lat="45.5422349" lon="11.7851475"><ele>25.0</ele><time>2026-05-02T09:23:44.978Z</time></trkpt><trkpt lat="45.5421665" lon="11.7851784"><ele>25.0</ele><time>2026-05-02T09:23:46.983Z</time></trkpt><trkpt lat="45.5420951" lon="11.7852104"><ele>25.0</ele><time>2026-05-02T09:23:48.978Z</time></trkpt><trkpt lat="45.542029" lon="11.7852399"><ele>25.0</ele><time>2026-05-02T09:23:50.982Z</time></trkpt><trkpt lat="45.541961" lon="11.7852755"><ele>25.000000000000004</ele><time>2026-05-02T09:23:52.978Z</time></trkpt><trkpt lat="45.5419009" lon="11.7853085"><ele>25.0</ele><time>2026-05-02T09:23:54.974Z</time></trkpt><trkpt lat="45.541841" lon="11.7853403"><ele>25.571428571428573</ele><time>2026-05-02T09:23:56.976Z</time></trkpt><trkpt lat="45.5417748" lon="11.7853636"><ele>26.142857142857146</ele><time>2026-05-02T09:23:59.982Z</time></trkpt><trkpt lat="45.5417098" lon="11.7854112"><ele>26.714285714285715</ele><time>2026-05-02T09:24:03.978Z</time></trkpt><trkpt lat="45.5416385" lon="11.7854639"><ele>27.28571428571429</ele><time>2026-05-02T09:24:06.972Z</time></trkpt><trkpt lat="45.541569" lon="11.7854807"><ele>27.857142857142858</ele><time>2026-05-02T09:24:08.968Z</time></trkpt><trkpt lat="45.5414991" lon="11.7855081"><ele>28.428571428571434</ele><time>2026-05-02T09:24:10.975Z</time></trkpt><trkpt lat="45.5414376" lon="11.7855334"><ele>29.000000000000004</ele><time>2026-05-02T09:24:12.984Z</time></trkpt><trkpt lat="45.5413776" lon="11.7855676"><ele>28.999999999999996</ele><time>2026-05-02T09:24:14.985Z</time></trkpt><trkpt lat="45.5413142" lon="11.7856137"><ele>29.0</ele><time>2026-05-02T09:24:17.987Z</time></trkpt><trkpt lat="45.5413202" lon="11.7857486"><ele>29.0</ele><time>2026-05-02T09:24:21.979Z</time></trkpt><trkpt lat="45.5413482" lon="11.7858803"><ele>29.0</ele><time>2026-05-02T09:24:24.984Z</time></trkpt><trkpt lat="45.5413632" lon="11.785992"><ele>28.999999999999996</ele><time>2026-05-02T09:24:26.984Z</time></trkpt><trkpt lat="45.5413836" lon="11.786108"><ele>29.0</ele><time>2026-05-02T09:24:28.983Z</time></trkpt><trkpt lat="45.5414027" lon="11.7862134"><ele>28.833333333333332</ele><time>2026-05-02T09:24:30.977Z</time></trkpt><trkpt lat="45.5414321" lon="11.7863349"><ele>28.666666666666664</ele><time>2026-05-02T09:24:33.988Z</time></trkpt><trkpt lat="45.541457" lon="11.7864428"><ele>28.5</ele><time>2026-05-02T09:24:36.978Z</time></trkpt><trkpt lat="45.541398" lon="11.786513"><ele>28.333333333333336</ele><time>2026-05-02T09:24:40.986Z</time></trkpt><trkpt lat="45.541327" lon="11.7865196"><ele>28.166666666666668</ele><time>2026-05-02T09:24:43.962Z</time></trkpt><trkpt lat="45.5412549" lon="11.7865304"><ele>28.0</ele><time>2026-05-02T09:24:46.976Z</time></trkpt><trkpt lat="45.5411745" lon="11.7865518"><ele>28.000000000000004</ele><time>2026-05-02T09:24:49.979Z</time></trkpt><trkpt lat="45.5411116" lon="11.7865833"><ele>28.0</ele><time>2026-05-02T09:24:51.978Z</time></trkpt><trkpt lat="45.5410426" lon="11.7866217"><ele>28.0</ele><time>2026-05-02T09:24:53.98Z</time></trkpt><trkpt lat="45.5409627" lon="11.7866699"><ele>28.0</ele><time>2026-05-02T09:24:55.973Z</time></trkpt><trkpt lat="45.5408873" lon="11.7867161"><ele>28.000000000000004</ele><time>2026-05-02T09:24:57.98Z</time></trkpt><trkpt lat="45.5408111" lon="11.7867642"><ele>28.0</ele><time>2026-05-02T09:24:59.981Z</time></trkpt><trkpt lat="45.5407622" lon="11.7868319"><ele>28.142857142857142</ele><time>2026-05-02T09:25:02.978Z</time></trkpt><trkpt lat="45.5407311" lon="11.7869241"><ele>28.285714285714285</ele><time>2026-05-02T09:25:07.974Z</time></trkpt><trkpt lat="45.5406622" lon="11.7869385"><ele>28.42857142857143</ele><time>2026-05-02T09:25:10.983Z</time></trkpt><trkpt lat="45.5406027" lon="11.786971"><ele>28.571428571428573</ele><time>2026-05-02T09:25:12.981Z</time></trkpt><trkpt lat="45.5405405" lon="11.7870119"><ele>28.714285714285715</ele><time>2026-05-02T09:25:14.977Z</time></trkpt><trkpt lat="45.540473" lon="11.7870451"><ele>28.85714285714286</ele><time>2026-05-02T09:25:16.983Z</time></trkpt><trkpt lat="45.5403978" lon="11.7870831"><ele>29.000000000000004</ele><time>2026-05-02T09:25:18.983Z</time></trkpt><trkpt lat="45.5403168" lon="11.7871126"><ele>28.999999999999996</ele><time>2026-05-02T09:25:20.987Z</time></trkpt><trkpt lat="45.5402368" lon="11.7871647"><ele>29.0</ele><time>2026-05-02T09:25:22.989Z</time></trkpt><trkpt lat="45.5401529" lon="11.7872125"><ele>29.0</ele><time>2026-05-02T09:25:24.985Z</time></trkpt><trkpt lat="45.5400712" lon="11.787266"><ele>29.0</ele><time>2026-05-02T09:25:26.971Z</time></trkpt><trkpt lat="45.5399873" lon="11.7872963"><ele>28.999999999999996</ele><time>2026-05-02T09:25:28.983Z</time></trkpt><trkpt lat="45.5399211" lon="11.7873308"><ele>29.0</ele><time>2026-05-02T09:25:30.979Z</time></trkpt><trkpt lat="45.5398354" lon="11.7873792"><ele>29.0</ele><time>2026-05-02T09:25:32.985Z</time></trkpt><trkpt lat="45.539746" lon="11.7874279"><ele>29.0</ele><time>2026-05-02T09:25:34.978Z</time></trkpt><trkpt lat="45.5396621" lon="11.7874766"><ele>29.0</ele><time>2026-05-02T09:25:36.984Z</time></trkpt><trkpt lat="45.5395798" lon="11.7875303"><ele>29.0</ele><time>2026-05-02T09:25:38.978Z</time></trkpt><trkpt lat="45.5394977" lon="11.7875678"><ele>29.0</ele><time>2026-05-02T09:25:40.974Z</time></trkpt><trkpt lat="45.5394097" lon="11.7876088"><ele>28.666666666666664</ele><time>2026-05-02T09:25:42.981Z</time></trkpt><trkpt lat="45.5393301" lon="11.7876534"><ele>28.333333333333332</ele><time>2026-05-02T09:25:44.984Z</time></trkpt><trkpt lat="45.5392392" lon="11.7876931"><ele>28.0</ele><time>2026-05-02T09:25:46.98Z</time></trkpt><trkpt lat="45.5391676" lon="11.7877406"><ele>27.666666666666664</ele><time>2026-05-02T09:25:48.975Z</time></trkpt><trkpt lat="45.5390852" lon="11.7877827"><ele>27.333333333333332</ele><time>2026-05-02T09:25:50.979Z</time></trkpt><trkpt lat="45.5389991" lon="11.7877984"><ele>27.0</ele><time>2026-05-02T09:25:52.989Z</time></trkpt><trkpt lat="45.5389244" lon="11.7878399"><ele>26.8</ele><time>2026-05-02T09:25:54.975Z</time></trkpt><trkpt lat="45.5388325" lon="11.7878862"><ele>26.6</ele><time>2026-05-02T09:25:56.978Z</time></trkpt><trkpt lat="45.5387511" lon="11.7879265"><ele>26.400000000000002</ele><time>2026-05-02T09:25:58.98Z</time></trkpt><trkpt lat="45.5386597" lon="11.7879625"><ele>26.200000000000003</ele><time>2026-05-02T09:26:00.975Z</time></trkpt><trkpt lat="45.5385761" lon="11.788022"><ele>26.0</ele><time>2026-05-02T09:26:02.981Z</time></trkpt><trkpt lat="45.5384922" lon="11.7880675"><ele>25.833333333333332</ele><time>2026-05-02T09:26:04.976Z</time></trkpt><trkpt lat="45.538423" lon="11.7881106"><ele>25.666666666666664</ele><time>2026-05-02T09:26:06.98Z</time></trkpt><trkpt lat="45.5383505" lon="11.7881738"><ele>25.5</ele><time>2026-05-02T09:26:09.981Z</time></trkpt><trkpt lat="45.5382985" lon="11.7882375"><ele>25.333333333333336</ele><time>2026-05-02T09:26:12.979Z</time></trkpt><trkpt lat="45.5382254" lon="11.7882743"><ele>25.166666666666668</ele><time>2026-05-02T09:26:17.982Z</time></trkpt><trkpt lat="45.5381854" lon="11.7883685"><ele>25.0</ele><time>2026-05-02T09:26:22.977Z</time></trkpt><trkpt lat="45.5381906" lon="11.7884757"><ele>25.000000000000004</ele><time>2026-05-02T09:26:26.991Z</time></trkpt><trkpt lat="45.5381097" lon="11.7884891"><ele>25.0</ele><time>2026-05-02T09:26:35.983Z</time></trkpt><trkpt lat="45.5380323" lon="11.7885351"><ele>25.0</ele><time>2026-05-02T09:26:38.978Z</time></trkpt><trkpt lat="45.5379705" lon="11.7885735"><ele>25.0</ele><time>2026-05-02T09:26:40.984Z</time></trkpt><trkpt lat="45.537889" lon="11.7886236"><ele>25.000000000000004</ele><time>2026-05-02T09:26:42.978Z</time></trkpt><trkpt lat="45.5378066" lon="11.7886839"><ele>25.0</ele><time>2026-05-02T09:26:44.984Z</time></trkpt><trkpt lat="45.53772" lon="11.7887369"><ele>25.0</ele><time>2026-05-02T09:26:46.976Z</time></trkpt><trkpt lat="45.5376319" lon="11.7887802"><ele>25.0</ele><time>2026-05-02T09:26:48.977Z</time></trkpt><trkpt lat="45.537544" lon="11.7888325"><ele>25.0</ele><time>2026-05-02T09:26:50.98Z</time></trkpt><trkpt lat="45.5374596" lon="11.7888769"><ele>25.0</ele><time>2026-05-02T09:26:52.978Z</time></trkpt><trkpt lat="45.537375" lon="11.7889253"><ele>25.0</ele><time>2026-05-02T09:26:54.982Z</time></trkpt><trkpt lat="45.537293" lon="11.7889639"><ele>25.0</ele><time>2026-05-02T09:26:56.98Z</time></trkpt><trkpt lat="45.5372046" lon="11.7890062"><ele>25.0</ele><time>2026-05-02T09:26:58.979Z</time></trkpt><trkpt lat="45.5371159" lon="11.7890503"><ele>25.0</ele><time>2026-05-02T09:27:00.965Z</time></trkpt><trkpt lat="45.5370379" lon="11.7890974"><ele>25.0</ele><time>2026-05-02T09:27:02.972Z</time></trkpt><trkpt lat="45.536955" lon="11.7891373"><ele>25.0</ele><time>2026-05-02T09:27:04.976Z</time></trkpt><trkpt lat="45.5368672" lon="11.7891914"><ele>25.0</ele><time>2026-05-02T09:27:06.977Z</time></trkpt><trkpt lat="45.5367829" lon="11.7892325"><ele>25.0</ele><time>2026-05-02T09:27:08.959Z</time></trkpt><trkpt lat="45.5366984" lon="11.7892787"><ele>25.0</ele><time>2026-05-02T09:27:10.977Z</time></trkpt><trkpt lat="45.5366075" lon="11.7893222"><ele>25.0</ele><time>2026-05-02T09:27:12.976Z</time></trkpt><trkpt lat="45.5365227" lon="11.7893538"><ele>25.0</ele><time>2026-05-02T09:27:14.975Z</time></trkpt><trkpt lat="45.5364438" lon="11.7894087"><ele>25.000000000000004</ele><time>2026-05-02T09:27:16.979Z</time></trkpt><trkpt lat="45.5363592" lon="11.7894465"><ele>25.0</ele><time>2026-05-02T09:27:18.98Z</time></trkpt><trkpt lat="45.5362821" lon="11.7894876"><ele>25.0</ele><time>2026-05-02T09:27:20.979Z</time></trkpt><trkpt lat="45.536203" lon="11.7895226"><ele>25.0</ele><time>2026-05-02T09:27:22.987Z</time></trkpt><trkpt lat="45.5361178" lon="11.7895564"><ele>25.000000000000004</ele><time>2026-05-02T09:27:24.982Z</time></trkpt><trkpt lat="45.5360324" lon="11.7895924"><ele>25.0</ele><time>2026-05-02T09:27:26.981Z</time></trkpt><trkpt lat="45.5359493" lon="11.7896459"><ele>24.833333333333336</ele><time>2026-05-02T09:27:28.987Z</time></trkpt><trkpt lat="45.5358593" lon="11.7896936"><ele>24.666666666666668</ele><time>2026-05-02T09:27:30.983Z</time></trkpt><trkpt lat="45.5357746" lon="11.7897429"><ele>24.5</ele><time>2026-05-02T09:27:32.978Z</time></trkpt><trkpt lat="45.5356917" lon="11.7897801"><ele>24.333333333333336</ele><time>2026-05-02T09:27:34.977Z</time></trkpt><trkpt lat="45.5356119" lon="11.7898174"><ele>24.166666666666668</ele><time>2026-05-02T09:27:36.979Z</time></trkpt><trkpt lat="45.5355467" lon="11.7898466"><ele>24.0</ele><time>2026-05-02T09:27:39.997Z</time></trkpt><trkpt lat="45.5354795" lon="11.7898391"><ele>24.0</ele><time>2026-05-02T09:27:42.97Z</time></trkpt><trkpt lat="45.5354092" lon="11.7897637"><ele>24.0</ele><time>2026-05-02T09:27:45.975Z</time></trkpt><trkpt lat="45.5353151" lon="11.7897823"><ele>24.0</ele><time>2026-05-02T09:27:48.979Z</time></trkpt><trkpt lat="45.5352341" lon="11.7898323"><ele>24.0</ele><time>2026-05-02T09:27:50.975Z</time></trkpt><trkpt lat="45.5351505" lon="11.7898872"><ele>24.0</ele><time>2026-05-02T09:27:52.977Z</time></trkpt><trkpt lat="45.5350665" lon="11.789933"><ele>24.285714285714285</ele><time>2026-05-02T09:27:54.978Z</time></trkpt><trkpt lat="45.5349927" lon="11.7899739"><ele>24.57142857142857</ele><time>2026-05-02T09:27:56.977Z</time></trkpt><trkpt lat="45.5349256" lon="11.7900165"><ele>24.857142857142854</ele><time>2026-05-02T09:27:58.98Z</time></trkpt><trkpt lat="45.5348487" lon="11.7900454"><ele>25.142857142857142</ele><time>2026-05-02T09:28:00.969Z</time></trkpt><trkpt lat="45.5347852" lon="11.790064"><ele>25.42857142857143</ele><time>2026-05-02T09:28:02.974Z</time></trkpt><trkpt lat="45.5347261" lon="11.7900296"><ele>25.71428571428571</ele><time>2026-05-02T09:28:21.98Z</time></trkpt><trkpt lat="45.5347009" lon="11.7899441"><ele>26.0</ele><time>2026-05-02T09:28:25.979Z</time></trkpt><trkpt lat="45.5346892" lon="11.7898447"><ele>26.0</ele><time>2026-05-02T09:28:32.978Z</time></trkpt><trkpt lat="45.5346789" lon="11.789753"><ele>26.0</ele><time>2026-05-02T09:28:39.989Z</time></trkpt><trkpt lat="45.5346503" lon="11.7896638"><ele>26.0</ele><time>2026-05-02T09:28:49.979Z</time></trkpt><trkpt lat="45.5346294" lon="11.7895642"><ele>26.0</ele><time>2026-05-02T09:28:52.981Z</time></trkpt><trkpt lat="45.5346133" lon="11.7894741"><ele>26.0</ele><time>2026-05-02T09:28:54.973Z</time></trkpt><trkpt lat="45.5345917" lon="11.789383"><ele>26.0</ele><time>2026-05-02T09:28:56.979Z</time></trkpt><trkpt lat="45.5345647" lon="11.7892683"><ele>26.0</ele><time>2026-05-02T09:28:58.982Z</time></trkpt><trkpt lat="45.5345301" lon="11.7891444"><ele>25.833333333333332</ele><time>2026-05-02T09:29:00.969Z</time></trkpt><trkpt lat="45.5344967" lon="11.7890197"><ele>25.666666666666664</ele><time>2026-05-02T09:29:02.98Z</time></trkpt><trkpt lat="45.5344668" lon="11.7889006"><ele>25.5</ele><time>2026-05-02T09:29:04.961Z</time></trkpt><trkpt lat="45.5344328" lon="11.788782"><ele>25.333333333333336</ele><time>2026-05-02T09:29:06.97Z</time></trkpt><trkpt lat="45.5344003" lon="11.7886655"><ele>25.166666666666668</ele><time>2026-05-02T09:29:08.978Z</time></trkpt><trkpt lat="45.5343678" lon="11.7885518"><ele>25.0</ele><time>2026-05-02T09:29:10.976Z</time></trkpt><trkpt lat="45.5343377" lon="11.7884354"><ele>24.666666666666668</ele><time>2026-05-02T09:29:12.977Z</time></trkpt><trkpt lat="45.5343133" lon="11.7883205"><ele>24.333333333333336</ele><time>2026-05-02T09:29:14.96Z</time></trkpt><trkpt lat="45.5342833" lon="11.788192"><ele>24.0</ele><time>2026-05-02T09:29:16.955Z</time></trkpt><trkpt lat="45.5342529" lon="11.7880676"><ele>23.666666666666668</ele><time>2026-05-02T09:29:18.974Z</time></trkpt><trkpt lat="45.5342271" lon="11.7879541"><ele>23.333333333333336</ele><time>2026-05-02T09:29:20.977Z</time></trkpt><trkpt lat="45.5341957" lon="11.7878345"><ele>23.0</ele><time>2026-05-02T09:29:22.979Z</time></trkpt><trkpt lat="45.534168" lon="11.7877162"><ele>23.0</ele><time>2026-05-02T09:29:24.978Z</time></trkpt><trkpt lat="45.5341385" lon="11.7875964"><ele>23.0</ele><time>2026-05-02T09:29:26.968Z</time></trkpt><trkpt lat="45.5341069" lon="11.7874752"><ele>23.0</ele><time>2026-05-02T09:29:28.978Z</time></trkpt><trkpt lat="45.5340695" lon="11.7873587"><ele>23.0</ele><time>2026-05-02T09:29:30.982Z</time></trkpt><trkpt lat="45.5340343" lon="11.7872478"><ele>23.0</ele><time>2026-05-02T09:29:32.981Z</time></trkpt><trkpt lat="45.5340031" lon="11.7871481"><ele>23.0</ele><time>2026-05-02T09:29:34.979Z</time></trkpt><trkpt lat="45.5339758" lon="11.7870337"><ele>23.0</ele><time>2026-05-02T09:29:36.978Z</time></trkpt><trkpt lat="45.5339426" lon="11.786905"><ele>23.0</ele><time>2026-05-02T09:29:38.983Z</time></trkpt><trkpt lat="45.5339117" lon="11.7867616"><ele>23.0</ele><time>2026-05-02T09:29:40.979Z</time></trkpt><trkpt lat="45.5338788" lon="11.7866274"><ele>23.0</ele><time>2026-05-02T09:29:42.982Z</time></trkpt><trkpt lat="45.5338449" lon="11.7864869"><ele>23.0</ele><time>2026-05-02T09:29:44.98Z</time></trkpt><trkpt lat="45.533817" lon="11.7863411"><ele>23.0</ele><time>2026-05-02T09:29:46.98Z</time></trkpt><trkpt lat="45.5337929" lon="11.7861982"><ele>23.0</ele><time>2026-05-02T09:29:48.981Z</time></trkpt><trkpt lat="45.5337752" lon="11.7860704"><ele>23.0</ele><time>2026-05-02T09:29:50.986Z</time></trkpt><trkpt lat="45.5337462" lon="11.7859564"><ele>23.0</ele><time>2026-05-02T09:29:52.981Z</time></trkpt><trkpt lat="45.5337212" lon="11.7858222"><ele>23.0</ele><time>2026-05-02T09:29:54.977Z</time></trkpt><trkpt lat="45.5336913" lon="11.7856931"><ele>23.0</ele><time>2026-05-02T09:29:56.979Z</time></trkpt><trkpt lat="45.5336584" lon="11.785575"><ele>23.0</ele><time>2026-05-02T09:29:58.982Z</time></trkpt><trkpt lat="45.5336186" lon="11.7854709"><ele>23.0</ele><time>2026-05-02T09:30:00.981Z</time></trkpt><trkpt lat="45.5335791" lon="11.7853609"><ele>23.0</ele><time>2026-05-02T09:30:02.989Z</time></trkpt><trkpt lat="45.533544" lon="11.7852437"><ele>23.0</ele><time>2026-05-02T09:30:04.983Z</time></trkpt><trkpt lat="45.5335135" lon="11.7851232"><ele>23.0</ele><time>2026-05-02T09:30:06.98Z</time></trkpt><trkpt lat="45.5334806" lon="11.785008"><ele>23.0</ele><time>2026-05-02T09:30:08.983Z</time></trkpt><trkpt lat="45.5334506" lon="11.784871"><ele>23.0</ele><time>2026-05-02T09:30:10.984Z</time></trkpt><trkpt lat="45.5334337" lon="11.7847457"><ele>23.0</ele><time>2026-05-02T09:30:12.981Z</time></trkpt><trkpt lat="45.533405" lon="11.7846358"><ele>23.0</ele><time>2026-05-02T09:30:14.985Z</time></trkpt><trkpt lat="45.5333745" lon="11.7845233"><ele>23.0</ele><time>2026-05-02T09:30:16.986Z</time></trkpt><trkpt lat="45.533348" lon="11.7844103"><ele>23.0</ele><time>2026-05-02T09:30:18.982Z</time></trkpt><trkpt lat="45.5333265" lon="11.7842929"><ele>23.0</ele><time>2026-05-02T09:30:20.983Z</time></trkpt><trkpt lat="45.5332911" lon="11.7841799"><ele>23.0</ele><time>2026-05-02T09:30:22.988Z</time></trkpt><trkpt lat="45.5332572" lon="11.7840644"><ele>23.0</ele><time>2026-05-02T09:30:24.982Z</time></trkpt><trkpt lat="45.5332161" lon="11.7839538"><ele>23.0</ele><time>2026-05-02T09:30:26.981Z</time></trkpt><trkpt lat="45.5331892" lon="11.7838255"><ele>23.0</ele><time>2026-05-02T09:30:28.973Z</time></trkpt><trkpt lat="45.5331534" lon="11.7837023"><ele>23.0</ele><time>2026-05-02T09:30:30.984Z</time></trkpt><trkpt lat="45.5331185" lon="11.7835785"><ele>23.166666666666668</ele><time>2026-05-02T09:30:32.985Z</time></trkpt><trkpt lat="45.5330907" lon="11.7834661"><ele>23.333333333333336</ele><time>2026-05-02T09:30:34.984Z</time></trkpt><trkpt lat="45.5330648" lon="11.7833631"><ele>23.5</ele><time>2026-05-02T09:30:36.983Z</time></trkpt><trkpt lat="45.5330343" lon="11.7832599"><ele>23.666666666666668</ele><time>2026-05-02T09:30:38.983Z</time></trkpt><trkpt lat="45.5330085" lon="11.783156"><ele>23.833333333333332</ele><time>2026-05-02T09:30:40.962Z</time></trkpt><trkpt lat="45.5329774" lon="11.7830408"><ele>24.0</ele><time>2026-05-02T09:30:42.967Z</time></trkpt><trkpt lat="45.5329432" lon="11.7829073"><ele>24.0</ele><time>2026-05-02T09:30:44.966Z</time></trkpt><trkpt lat="45.5329021" lon="11.7827827"><ele>24.0</ele><time>2026-05-02T09:30:46.958Z</time></trkpt><trkpt lat="45.5328596" lon="11.7826359"><ele>24.0</ele><time>2026-05-02T09:30:48.958Z</time></trkpt><trkpt lat="45.5328289" lon="11.7825"><ele>24.0</ele><time>2026-05-02T09:30:50.959Z</time></trkpt><trkpt lat="45.5327854" lon="11.7823528"><ele>24.0</ele><time>2026-05-02T09:30:52.959Z</time></trkpt><trkpt lat="45.5327498" lon="11.7822179"><ele>24.4</ele><time>2026-05-02T09:30:54.981Z</time></trkpt><trkpt lat="45.5327108" lon="11.7820728"><ele>24.799999999999997</ele><time>2026-05-02T09:30:56.967Z</time></trkpt><trkpt lat="45.5326717" lon="11.7819553"><ele>25.200000000000003</ele><time>2026-05-02T09:30:58.978Z</time></trkpt><trkpt lat="45.5326346" lon="11.7818226"><ele>25.6</ele><time>2026-05-02T09:31:00.956Z</time></trkpt><trkpt lat="45.5325981" lon="11.7817038"><ele>26.0</ele><time>2026-05-02T09:31:02.979Z</time></trkpt><trkpt lat="45.5325609" lon="11.7815981"><ele>26.166666666666664</ele><time>2026-05-02T09:31:04.96Z</time></trkpt><trkpt lat="45.5325266" lon="11.7815001"><ele>26.333333333333332</ele><time>2026-05-02T09:31:06.962Z</time></trkpt><trkpt lat="45.5324866" lon="11.7813832"><ele>26.5</ele><time>2026-05-02T09:31:08.968Z</time></trkpt><trkpt lat="45.532449" lon="11.7812744"><ele>26.666666666666664</ele><time>2026-05-02T09:31:10.96Z</time></trkpt><trkpt lat="45.5324149" lon="11.7811718"><ele>26.833333333333332</ele><time>2026-05-02T09:31:12.965Z</time></trkpt><trkpt lat="45.5323842" lon="11.7810713"><ele>27.0</ele><time>2026-05-02T09:31:14.961Z</time></trkpt><trkpt lat="45.5323575" lon="11.7809833"><ele>26.5</ele><time>2026-05-02T09:31:16.964Z</time></trkpt><trkpt lat="45.5323334" lon="11.7808884"><ele>26.0</ele><time>2026-05-02T09:31:18.974Z</time></trkpt><trkpt lat="45.5323075" lon="11.7807709"><ele>25.5</ele><time>2026-05-02T09:31:20.962Z</time></trkpt><trkpt lat="45.5322765" lon="11.780659"><ele>25.0</ele><time>2026-05-02T09:31:22.985Z</time></trkpt><trkpt lat="45.5322467" lon="11.7805429"><ele>24.5</ele><time>2026-05-02T09:31:24.972Z</time></trkpt><trkpt lat="45.5322196" lon="11.7804166"><ele>24.0</ele><time>2026-05-02T09:31:26.972Z</time></trkpt><trkpt lat="45.5321943" lon="11.780305"><ele>24.0</ele><time>2026-05-02T09:31:28.98Z</time></trkpt><trkpt lat="45.5321778" lon="11.7801854"><ele>24.0</ele><time>2026-05-02T09:31:30.977Z</time></trkpt><trkpt lat="45.5321585" lon="11.7800557"><ele>24.0</ele><time>2026-05-02T09:31:32.973Z</time></trkpt><trkpt lat="45.5321328" lon="11.7799315"><ele>24.0</ele><time>2026-05-02T09:31:34.981Z</time></trkpt><trkpt lat="45.5321046" lon="11.7798069"><ele>24.0</ele><time>2026-05-02T09:31:36.973Z</time></trkpt><trkpt lat="45.5320828" lon="11.7796814"><ele>24.0</ele><time>2026-05-02T09:31:38.98Z</time></trkpt><trkpt lat="45.5320517" lon="11.7795635"><ele>24.0</ele><time>2026-05-02T09:31:40.981Z</time></trkpt><trkpt lat="45.5320185" lon="11.7794535"><ele>24.0</ele><time>2026-05-02T09:31:42.983Z</time></trkpt><trkpt lat="45.5319895" lon="11.7793323"><ele>24.0</ele><time>2026-05-02T09:31:44.982Z</time></trkpt><trkpt lat="45.5319633" lon="11.7792164"><ele>24.0</ele><time>2026-05-02T09:31:46.973Z</time></trkpt><trkpt lat="45.5319333" lon="11.7790969"><ele>24.0</ele><time>2026-05-02T09:31:48.984Z</time></trkpt><trkpt lat="45.5318994" lon="11.7789771"><ele>24.166666666666668</ele><time>2026-05-02T09:31:50.982Z</time></trkpt><trkpt lat="45.5318748" lon="11.7788551"><ele>24.333333333333336</ele><time>2026-05-02T09:31:52.978Z</time></trkpt><trkpt lat="45.5318494" lon="11.7787509"><ele>24.5</ele><time>2026-05-02T09:31:54.984Z</time></trkpt><trkpt lat="45.5318204" lon="11.778632"><ele>24.666666666666668</ele><time>2026-05-02T09:31:57.985Z</time></trkpt><trkpt lat="45.5317944" lon="11.7785398"><ele>24.833333333333336</ele><time>2026-05-02T09:32:15.97Z</time></trkpt><trkpt lat="45.5317707" lon="11.778448"><ele>25.0</ele><time>2026-05-02T09:32:20.979Z</time></trkpt><trkpt lat="45.5317497" lon="11.7783305"><ele>25.000000000000004</ele><time>2026-05-02T09:32:23.985Z</time></trkpt><trkpt lat="45.5317432" lon="11.778223"><ele>25.0</ele><time>2026-05-02T09:32:29.985Z</time></trkpt><trkpt lat="45.531694" lon="11.7781219"><ele>25.0</ele><time>2026-05-02T09:32:34.966Z</time></trkpt><trkpt lat="45.531651" lon="11.7780001"><ele>25.0</ele><time>2026-05-02T09:32:37.983Z</time></trkpt><trkpt lat="45.5316287" lon="11.7778898"><ele>25.000000000000004</ele><time>2026-05-02T09:32:39.972Z</time></trkpt><trkpt lat="45.5316047" lon="11.7777599"><ele>25.0</ele><time>2026-05-02T09:32:41.986Z</time></trkpt><trkpt lat="45.5315793" lon="11.7776464"><ele>25.0</ele><time>2026-05-02T09:32:43.973Z</time></trkpt><trkpt lat="45.5315485" lon="11.7775383"><ele>25.0</ele><time>2026-05-02T09:32:45.975Z</time></trkpt><trkpt lat="45.5315072" lon="11.7774261"><ele>25.0</ele><time>2026-05-02T09:32:47.984Z</time></trkpt><trkpt lat="45.5314703" lon="11.7773003"><ele>25.0</ele><time>2026-05-02T09:32:49.983Z</time></trkpt><trkpt lat="45.5314441" lon="11.777172"><ele>25.0</ele><time>2026-05-02T09:32:51.982Z</time></trkpt><trkpt lat="45.5314079" lon="11.7770354"><ele>25.000000000000004</ele><time>2026-05-02T09:32:53.98Z</time></trkpt><trkpt lat="45.5313824" lon="11.776909"><ele>25.0</ele><time>2026-05-02T09:32:55.98Z</time></trkpt><trkpt lat="45.5313577" lon="11.7767866"><ele>25.0</ele><time>2026-05-02T09:32:57.985Z</time></trkpt><trkpt lat="45.5313268" lon="11.776674"><ele>25.0</ele><time>2026-05-02T09:32:59.988Z</time></trkpt><trkpt lat="45.5313045" lon="11.7765652"><ele>25.000000000000004</ele><time>2026-05-02T09:33:01.982Z</time></trkpt><trkpt lat="45.5312657" lon="11.7764561"><ele>25.0</ele><time>2026-05-02T09:33:03.978Z</time></trkpt><trkpt lat="45.5312345" lon="11.7763338"><ele>25.0</ele><time>2026-05-02T09:33:05.978Z</time></trkpt><trkpt lat="45.5312001" lon="11.7762224"><ele>25.0</ele><time>2026-05-02T09:33:07.974Z</time></trkpt><trkpt lat="45.5311612" lon="11.7760921"><ele>25.0</ele><time>2026-05-02T09:33:09.984Z</time></trkpt><trkpt lat="45.5311307" lon="11.7759703"><ele>25.0</ele><time>2026-05-02T09:33:11.973Z</time></trkpt><trkpt lat="45.5310975" lon="11.7758502"><ele>25.0</ele><time>2026-05-02T09:33:13.979Z</time></trkpt><trkpt lat="45.5310625" lon="11.7757178"><ele>25.0</ele><time>2026-05-02T09:33:15.982Z</time></trkpt><trkpt lat="45.5310257" lon="11.7755902"><ele>25.0</ele><time>2026-05-02T09:33:17.983Z</time></trkpt><trkpt lat="45.5309961" lon="11.7754598"><ele>25.0</ele><time>2026-05-02T09:33:19.983Z</time></trkpt><trkpt lat="45.5309652" lon="11.77534"><ele>25.0</ele><time>2026-05-02T09:33:21.976Z</time></trkpt><trkpt lat="45.530937" lon="11.7752284"><ele>25.0</ele><time>2026-05-02T09:33:23.984Z</time></trkpt><trkpt lat="45.5309135" lon="11.7751091"><ele>24.833333333333336</ele><time>2026-05-02T09:33:25.982Z</time></trkpt><trkpt lat="45.5308905" lon="11.7749872"><ele>24.666666666666668</ele><time>2026-05-02T09:33:27.983Z</time></trkpt><trkpt lat="45.530858" lon="11.7748669"><ele>24.5</ele><time>2026-05-02T09:33:29.984Z</time></trkpt><trkpt lat="45.5308273" lon="11.7747395"><ele>24.333333333333336</ele><time>2026-05-02T09:33:31.984Z</time></trkpt><trkpt lat="45.5307962" lon="11.7746298"><ele>24.166666666666668</ele><time>2026-05-02T09:33:33.974Z</time></trkpt><trkpt lat="45.5307671" lon="11.7745186"><ele>24.0</ele><time>2026-05-02T09:33:35.983Z</time></trkpt><trkpt lat="45.5307304" lon="11.7743982"><ele>24.0</ele><time>2026-05-02T09:33:37.976Z</time></trkpt><trkpt lat="45.5306998" lon="11.774295"><ele>24.0</ele><time>2026-05-02T09:33:39.981Z</time></trkpt><trkpt lat="45.5306809" lon="11.7742015"><ele>24.0</ele><time>2026-05-02T09:33:41.981Z</time></trkpt><trkpt lat="45.5306567" lon="11.7740974"><ele>24.0</ele><time>2026-05-02T09:33:43.982Z</time></trkpt><trkpt lat="45.5306305" lon="11.7739912"><ele>24.0</ele><time>2026-05-02T09:33:45.972Z</time></trkpt><trkpt lat="45.5305905" lon="11.7738692"><ele>24.0</ele><time>2026-05-02T09:33:47.981Z</time></trkpt><trkpt lat="45.5305688" lon="11.7737757"><ele>24.0</ele><time>2026-05-02T09:33:49.984Z</time></trkpt><trkpt lat="45.530538" lon="11.7736792"><ele>24.0</ele><time>2026-05-02T09:33:51.99Z</time></trkpt><trkpt lat="45.5305155" lon="11.7735878"><ele>24.0</ele><time>2026-05-02T09:33:53.975Z</time></trkpt><trkpt lat="45.5304919" lon="11.7734869"><ele>24.0</ele><time>2026-05-02T09:33:55.979Z</time></trkpt><trkpt lat="45.5304653" lon="11.7733766"><ele>24.0</ele><time>2026-05-02T09:33:57.979Z</time></trkpt><trkpt lat="45.5304332" lon="11.7732681"><ele>24.0</ele><time>2026-05-02T09:33:59.978Z</time></trkpt><trkpt lat="45.5303946" lon="11.7731484"><ele>24.0</ele><time>2026-05-02T09:34:01.98Z</time></trkpt><trkpt lat="45.5303573" lon="11.7730149"><ele>24.0</ele><time>2026-05-02T09:34:03.988Z</time></trkpt><trkpt lat="45.5303214" lon="11.7728868"><ele>24.0</ele><time>2026-05-02T09:34:05.978Z</time></trkpt><trkpt lat="45.5302799" lon="11.7727718"><ele>24.0</ele><time>2026-05-02T09:34:07.977Z</time></trkpt><trkpt lat="45.5302389" lon="11.7726569"><ele>24.0</ele><time>2026-05-02T09:34:09.985Z</time></trkpt><trkpt lat="45.5302037" lon="11.7725421"><ele>23.833333333333332</ele><time>2026-05-02T09:34:11.972Z</time></trkpt><trkpt lat="45.5301664" lon="11.7724307"><ele>23.666666666666668</ele><time>2026-05-02T09:34:13.977Z</time></trkpt><trkpt lat="45.5301265" lon="11.7723087"><ele>23.5</ele><time>2026-05-02T09:34:15.976Z</time></trkpt><trkpt lat="45.5300874" lon="11.7721951"><ele>23.333333333333336</ele><time>2026-05-02T09:34:17.982Z</time></trkpt><trkpt lat="45.5300467" lon="11.772088"><ele>23.166666666666668</ele><time>2026-05-02T09:34:19.982Z</time></trkpt><trkpt lat="45.5300071" lon="11.7719811"><ele>23.0</ele><time>2026-05-02T09:34:21.981Z</time></trkpt><trkpt lat="45.5299638" lon="11.7718732"><ele>23.166666666666668</ele><time>2026-05-02T09:34:23.976Z</time></trkpt><trkpt lat="45.5299223" lon="11.7717618"><ele>23.333333333333336</ele><time>2026-05-02T09:34:25.976Z</time></trkpt><trkpt lat="45.5298782" lon="11.7716635"><ele>23.5</ele><time>2026-05-02T09:34:27.979Z</time></trkpt><trkpt lat="45.5298566" lon="11.7715711"><ele>23.666666666666668</ele><time>2026-05-02T09:34:29.963Z</time></trkpt><trkpt lat="45.5298098" lon="11.7714726"><ele>23.833333333333332</ele><time>2026-05-02T09:34:32.983Z</time></trkpt><trkpt lat="45.529774" lon="11.7713704"><ele>24.0</ele><time>2026-05-02T09:34:35.984Z</time></trkpt><trkpt lat="45.5297401" lon="11.7712636"><ele>24.0</ele><time>2026-05-02T09:34:37.98Z</time></trkpt><trkpt lat="45.5296889" lon="11.7711535"><ele>24.0</ele><time>2026-05-02T09:34:39.977Z</time></trkpt><trkpt lat="45.5296385" lon="11.7710546"><ele>24.0</ele><time>2026-05-02T09:34:41.972Z</time></trkpt><trkpt lat="45.5295966" lon="11.7709501"><ele>24.0</ele><time>2026-05-02T09:34:43.982Z</time></trkpt><trkpt lat="45.5295457" lon="11.7708598"><ele>24.0</ele><time>2026-05-02T09:34:45.98Z</time></trkpt><trkpt lat="45.5295" lon="11.7707659"><ele>24.0</ele><time>2026-05-02T09:34:47.985Z</time></trkpt><trkpt lat="45.5294407" lon="11.7706649"><ele>24.2</ele><time>2026-05-02T09:34:49.983Z</time></trkpt><trkpt lat="45.5293755" lon="11.7705575"><ele>24.4</ele><time>2026-05-02T09:34:51.981Z</time></trkpt><trkpt lat="45.5293182" lon="11.7704556"><ele>24.6</ele><time>2026-05-02T09:34:53.977Z</time></trkpt><trkpt lat="45.5292606" lon="11.7703599"><ele>24.8</ele><time>2026-05-02T09:34:55.978Z</time></trkpt><trkpt lat="45.5292099" lon="11.7702501"><ele>25.0</ele><time>2026-05-02T09:34:57.978Z</time></trkpt><trkpt lat="45.5291646" lon="11.7701439"><ele>24.666666666666668</ele><time>2026-05-02T09:34:59.983Z</time></trkpt><trkpt lat="45.5291094" lon="11.7700395"><ele>24.333333333333336</ele><time>2026-05-02T09:35:01.982Z</time></trkpt><trkpt lat="45.5290467" lon="11.7699452"><ele>24.0</ele><time>2026-05-02T09:35:03.966Z</time></trkpt><trkpt lat="45.5289922" lon="11.7698388"><ele>23.666666666666668</ele><time>2026-05-02T09:35:05.979Z</time></trkpt><trkpt lat="45.5289451" lon="11.7697421"><ele>23.333333333333336</ele><time>2026-05-02T09:35:07.983Z</time></trkpt><trkpt lat="45.5288975" lon="11.769647"><ele>23.0</ele><time>2026-05-02T09:35:09.984Z</time></trkpt><trkpt lat="45.5288396" lon="11.7695517"><ele>23.0</ele><time>2026-05-02T09:35:11.983Z</time></trkpt><trkpt lat="45.5287956" lon="11.7694779"><ele>23.0</ele><time>2026-05-02T09:35:13.982Z</time></trkpt><trkpt lat="45.5287422" lon="11.7693911"><ele>23.0</ele><time>2026-05-02T09:35:16.983Z</time></trkpt><trkpt lat="45.5286925" lon="11.7693154"><ele>23.0</ele><time>2026-05-02T09:35:19.976Z</time></trkpt><trkpt lat="45.5286513" lon="11.7692359"><ele>23.0</ele><time>2026-05-02T09:35:22.983Z</time></trkpt><trkpt lat="45.5285826" lon="11.7691472"><ele>23.0</ele><time>2026-05-02T09:35:25.981Z</time></trkpt><trkpt lat="45.5285307" lon="11.7690701"><ele>23.0</ele><time>2026-05-02T09:35:27.984Z</time></trkpt><trkpt lat="45.5284786" lon="11.7689939"><ele>23.0</ele><time>2026-05-02T09:35:29.983Z</time></trkpt><trkpt lat="45.5284215" lon="11.7689173"><ele>23.0</ele><time>2026-05-02T09:35:31.981Z</time></trkpt><trkpt lat="45.528354" lon="11.7688354"><ele>23.0</ele><time>2026-05-02T09:35:33.975Z</time></trkpt><trkpt lat="45.5282843" lon="11.7687594"><ele>23.0</ele><time>2026-05-02T09:35:35.976Z</time></trkpt><trkpt lat="45.528213" lon="11.7686686"><ele>23.0</ele><time>2026-05-02T09:35:37.979Z</time></trkpt><trkpt lat="45.5281473" lon="11.7685731"><ele>23.166666666666668</ele><time>2026-05-02T09:35:39.998Z</time></trkpt><trkpt lat="45.5280824" lon="11.7684872"><ele>23.333333333333336</ele><time>2026-05-02T09:35:41.968Z</time></trkpt><trkpt lat="45.5280163" lon="11.768408"><ele>23.5</ele><time>2026-05-02T09:35:43.982Z</time></trkpt><trkpt lat="45.5279539" lon="11.7683139"><ele>23.666666666666668</ele><time>2026-05-02T09:35:45.983Z</time></trkpt><trkpt lat="45.5278862" lon="11.7682306"><ele>23.833333333333332</ele><time>2026-05-02T09:35:47.99Z</time></trkpt><trkpt lat="45.5278188" lon="11.7681478"><ele>24.0</ele><time>2026-05-02T09:35:49.982Z</time></trkpt><trkpt lat="45.5277493" lon="11.7680646"><ele>24.0</ele><time>2026-05-02T09:35:51.978Z</time></trkpt><trkpt lat="45.5276776" lon="11.7679921"><ele>24.0</ele><time>2026-05-02T09:35:53.976Z</time></trkpt><trkpt lat="45.5276107" lon="11.767916"><ele>24.0</ele><time>2026-05-02T09:35:55.971Z</time></trkpt><trkpt lat="45.5275413" lon="11.7678387"><ele>24.0</ele><time>2026-05-02T09:35:57.987Z</time></trkpt><trkpt lat="45.5274699" lon="11.7677637"><ele>24.0</ele><time>2026-05-02T09:35:59.98Z</time></trkpt><trkpt lat="45.5274002" lon="11.7676986"><ele>24.0</ele><time>2026-05-02T09:36:01.979Z</time></trkpt><trkpt lat="45.5273336" lon="11.7676264"><ele>24.0</ele><time>2026-05-02T09:36:03.981Z</time></trkpt><trkpt lat="45.5272639" lon="11.767557"><ele>24.0</ele><time>2026-05-02T09:36:05.978Z</time></trkpt><trkpt lat="45.5271848" lon="11.7674762"><ele>24.0</ele><time>2026-05-02T09:36:07.982Z</time></trkpt><trkpt lat="45.5271057" lon="11.7673949"><ele>24.0</ele><time>2026-05-02T09:36:09.98Z</time></trkpt><trkpt lat="45.5270242" lon="11.7673107"><ele>24.0</ele><time>2026-05-02T09:36:11.974Z</time></trkpt><trkpt lat="45.5269457" lon="11.7672352"><ele>24.0</ele><time>2026-05-02T09:36:13.986Z</time></trkpt><trkpt lat="45.5268746" lon="11.7671468"><ele>24.0</ele><time>2026-05-02T09:36:15.983Z</time></trkpt><trkpt lat="45.5268029" lon="11.7670701"><ele>24.0</ele><time>2026-05-02T09:36:17.985Z</time></trkpt><trkpt lat="45.526724" lon="11.766997"><ele>24.0</ele><time>2026-05-02T09:36:19.981Z</time></trkpt><trkpt lat="45.5266539" lon="11.7669238"><ele>24.0</ele><time>2026-05-02T09:36:21.967Z</time></trkpt><trkpt lat="45.5265839" lon="11.7668577"><ele>24.0</ele><time>2026-05-02T09:36:23.98Z</time></trkpt><trkpt lat="45.5265146" lon="11.7667942"><ele>24.0</ele><time>2026-05-02T09:36:25.983Z</time></trkpt><trkpt lat="45.5264488" lon="11.7667428"><ele>24.0</ele><time>2026-05-02T09:36:27.981Z</time></trkpt><trkpt lat="45.526389" lon="11.7666862"><ele>24.0</ele><time>2026-05-02T09:36:29.974Z</time></trkpt><trkpt lat="45.5263282" lon="11.7666303"><ele>24.0</ele><time>2026-05-02T09:36:31.987Z</time></trkpt><trkpt lat="45.5262531" lon="11.7665619"><ele>24.0</ele><time>2026-05-02T09:36:33.978Z</time></trkpt><trkpt lat="45.5261713" lon="11.766489"><ele>24.0</ele><time>2026-05-02T09:36:35.979Z</time></trkpt><trkpt lat="45.5261048" lon="11.7664303"><ele>24.0</ele><time>2026-05-02T09:36:37.979Z</time></trkpt><trkpt lat="45.5260378" lon="11.7663711"><ele>24.0</ele><time>2026-05-02T09:36:39.981Z</time></trkpt><trkpt lat="45.5259676" lon="11.7663075"><ele>24.0</ele><time>2026-05-02T09:36:41.982Z</time></trkpt><trkpt lat="45.5258905" lon="11.7662341"><ele>24.0</ele><time>2026-05-02T09:36:43.976Z</time></trkpt><trkpt lat="45.5258163" lon="11.7661562"><ele>24.0</ele><time>2026-05-02T09:36:45.974Z</time></trkpt><trkpt lat="45.5257427" lon="11.766079"><ele>24.0</ele><time>2026-05-02T09:36:47.982Z</time></trkpt><trkpt lat="45.5256672" lon="11.7660005"><ele>24.0</ele><time>2026-05-02T09:36:49.979Z</time></trkpt><trkpt lat="45.5255916" lon="11.7659258"><ele>24.0</ele><time>2026-05-02T09:36:51.979Z</time></trkpt><trkpt lat="45.5255163" lon="11.7658533"><ele>24.0</ele><time>2026-05-02T09:36:53.979Z</time></trkpt><trkpt lat="45.5254403" lon="11.7657802"><ele>24.0</ele><time>2026-05-02T09:36:55.98Z</time></trkpt><trkpt lat="45.5253733" lon="11.7657015"><ele>24.0</ele><time>2026-05-02T09:36:57.986Z</time></trkpt><trkpt lat="45.5253122" lon="11.7656271"><ele>24.0</ele><time>2026-05-02T09:36:59.972Z</time></trkpt><trkpt lat="45.5252473" lon="11.7655506"><ele>24.0</ele><time>2026-05-02T09:37:01.978Z</time></trkpt><trkpt lat="45.5251762" lon="11.7654803"><ele>24.0</ele><time>2026-05-02T09:37:04.01Z</time></trkpt><trkpt lat="45.5251063" lon="11.7654009"><ele>24.0</ele><time>2026-05-02T09:37:05.979Z</time></trkpt><trkpt lat="45.5250415" lon="11.7653279"><ele>24.0</ele><time>2026-05-02T09:37:07.984Z</time></trkpt><trkpt lat="45.5249715" lon="11.7652637"><ele>24.0</ele><time>2026-05-02T09:37:09.994Z</time></trkpt><trkpt lat="45.5249015" lon="11.765202"><ele>24.0</ele><time>2026-05-02T09:37:11.985Z</time></trkpt><trkpt lat="45.5248263" lon="11.7651347"><ele>23.833333333333332</ele><time>2026-05-02T09:37:13.976Z</time></trkpt><trkpt lat="45.5247511" lon="11.7650569"><ele>23.666666666666668</ele><time>2026-05-02T09:37:15.984Z</time></trkpt><trkpt lat="45.5246834" lon="11.7649913"><ele>23.5</ele><time>2026-05-02T09:37:17.981Z</time></trkpt><trkpt lat="45.5246153" lon="11.7649265"><ele>23.333333333333336</ele><time>2026-05-02T09:37:19.98Z</time></trkpt><trkpt lat="45.5245452" lon="11.7648727"><ele>23.166666666666668</ele><time>2026-05-02T09:37:21.988Z</time></trkpt><trkpt lat="45.5244828" lon="11.7648204"><ele>23.0</ele><time>2026-05-02T09:37:23.976Z</time></trkpt><trkpt lat="45.5244238" lon="11.7647579"><ele>22.857142857142858</ele><time>2026-05-02T09:37:25.969Z</time></trkpt><trkpt lat="45.5243652" lon="11.7646965"><ele>22.71428571428571</ele><time>2026-05-02T09:37:27.982Z</time></trkpt><trkpt lat="45.5243158" lon="11.7646389"><ele>22.57142857142857</ele><time>2026-05-02T09:37:29.984Z</time></trkpt><trkpt lat="45.5242473" lon="11.7645606"><ele>22.42857142857143</ele><time>2026-05-02T09:37:32.985Z</time></trkpt><trkpt lat="45.524183" lon="11.764531"><ele>22.285714285714285</ele><time>2026-05-02T09:37:35.987Z</time></trkpt><trkpt lat="45.5241166" lon="11.7645224"><ele>22.142857142857142</ele><time>2026-05-02T09:37:38.979Z</time></trkpt><trkpt lat="45.5240587" lon="11.7644824"><ele>22.0</ele><time>2026-05-02T09:37:41.986Z</time></trkpt><trkpt lat="45.5240115" lon="11.764409"><ele>22.0</ele><time>2026-05-02T09:37:45.979Z</time></trkpt><trkpt lat="45.5239505" lon="11.7643406"><ele>22.0</ele><time>2026-05-02T09:37:48.982Z</time></trkpt><trkpt lat="45.523863" lon="11.7642372"><ele>22.0</ele><time>2026-05-02T09:37:51.981Z</time></trkpt><trkpt lat="45.5237816" lon="11.7641669"><ele>22.0</ele><time>2026-05-02T09:37:53.976Z</time></trkpt><trkpt lat="45.5236985" lon="11.7640972"><ele>22.0</ele><time>2026-05-02T09:37:55.985Z</time></trkpt><trkpt lat="45.5236243" lon="11.764033"><ele>22.166666666666664</ele><time>2026-05-02T09:37:57.979Z</time></trkpt><trkpt lat="45.5235584" lon="11.7639718"><ele>22.333333333333332</ele><time>2026-05-02T09:37:59.983Z</time></trkpt><trkpt lat="45.5235026" lon="11.7639194"><ele>22.5</ele><time>2026-05-02T09:38:01.985Z</time></trkpt><trkpt lat="45.5234505" lon="11.7638636"><ele>22.666666666666668</ele><time>2026-05-02T09:38:03.98Z</time></trkpt><trkpt lat="45.5233825" lon="11.7637895"><ele>22.833333333333336</ele><time>2026-05-02T09:38:06.984Z</time></trkpt><trkpt lat="45.5233059" lon="11.7637017"><ele>23.0</ele><time>2026-05-02T09:38:09.981Z</time></trkpt><trkpt lat="45.5232347" lon="11.7636569"><ele>23.0</ele><time>2026-05-02T09:38:11.967Z</time></trkpt><trkpt lat="45.5231711" lon="11.7636125"><ele>23.0</ele><time>2026-05-02T09:38:13.986Z</time></trkpt><trkpt lat="45.5231035" lon="11.7635522"><ele>23.0</ele><time>2026-05-02T09:38:15.98Z</time></trkpt><trkpt lat="45.5230473" lon="11.7634895"><ele>23.0</ele><time>2026-05-02T09:38:17.979Z</time></trkpt><trkpt lat="45.5229928" lon="11.7634336"><ele>23.0</ele><time>2026-05-02T09:38:19.997Z</time></trkpt><trkpt lat="45.5229136" lon="11.7633606"><ele>23.0</ele><time>2026-05-02T09:38:22.983Z</time></trkpt><trkpt lat="45.5228613" lon="11.7633039"><ele>23.0</ele><time>2026-05-02T09:38:24.992Z</time></trkpt><trkpt lat="45.5227951" lon="11.7632404"><ele>22.833333333333336</ele><time>2026-05-02T09:38:26.975Z</time></trkpt><trkpt lat="45.5227345" lon="11.7631891"><ele>22.666666666666668</ele><time>2026-05-02T09:38:28.98Z</time></trkpt><trkpt lat="45.5226828" lon="11.7631311"><ele>22.5</ele><time>2026-05-02T09:38:30.975Z</time></trkpt><trkpt lat="45.5226293" lon="11.7630657"><ele>22.333333333333332</ele><time>2026-05-02T09:38:32.983Z</time></trkpt><trkpt lat="45.5225626" lon="11.7630042"><ele>22.166666666666664</ele><time>2026-05-02T09:38:34.984Z</time></trkpt><trkpt lat="45.5224831" lon="11.7629401"><ele>22.0</ele><time>2026-05-02T09:38:36.981Z</time></trkpt><trkpt lat="45.5224071" lon="11.7628768"><ele>22.0</ele><time>2026-05-02T09:38:38.988Z</time></trkpt><trkpt lat="45.5223304" lon="11.7628052"><ele>22.0</ele><time>2026-05-02T09:38:40.976Z</time></trkpt><trkpt lat="45.5222469" lon="11.7627293"><ele>22.0</ele><time>2026-05-02T09:38:42.974Z</time></trkpt><trkpt lat="45.5221679" lon="11.7626489"><ele>22.0</ele><time>2026-05-02T09:38:44.971Z</time></trkpt><trkpt lat="45.5220978" lon="11.7625817"><ele>22.0</ele><time>2026-05-02T09:38:46.974Z</time></trkpt><trkpt lat="45.5220259" lon="11.7625162"><ele>22.166666666666664</ele><time>2026-05-02T09:38:48.978Z</time></trkpt><trkpt lat="45.5219535" lon="11.7624539"><ele>22.333333333333332</ele><time>2026-05-02T09:38:50.987Z</time></trkpt><trkpt lat="45.5218839" lon="11.7623803"><ele>22.5</ele><time>2026-05-02T09:38:52.982Z</time></trkpt><trkpt lat="45.5218127" lon="11.7623076"><ele>22.666666666666668</ele><time>2026-05-02T09:38:54.981Z</time></trkpt><trkpt lat="45.5217429" lon="11.7622438"><ele>22.833333333333336</ele><time>2026-05-02T09:38:56.982Z</time></trkpt><trkpt lat="45.5216681" lon="11.762175"><ele>23.0</ele><time>2026-05-02T09:38:58.98Z</time></trkpt><trkpt lat="45.5215982" lon="11.7620996"><ele>23.0</ele><time>2026-05-02T09:39:00.984Z</time></trkpt><trkpt lat="45.5215239" lon="11.7620215"><ele>23.0</ele><time>2026-05-02T09:39:02.976Z</time></trkpt><trkpt lat="45.5214508" lon="11.7619458"><ele>23.0</ele><time>2026-05-02T09:39:04.975Z</time></trkpt><trkpt lat="45.5213795" lon="11.7618784"><ele>23.0</ele><time>2026-05-02T09:39:06.979Z</time></trkpt><trkpt lat="45.5213158" lon="11.7618134"><ele>23.0</ele><time>2026-05-02T09:39:08.985Z</time></trkpt><trkpt lat="45.5212501" lon="11.7617461"><ele>23.0</ele><time>2026-05-02T09:39:10.971Z</time></trkpt><trkpt lat="45.5211908" lon="11.7616936"><ele>23.166666666666668</ele><time>2026-05-02T09:39:12.982Z</time></trkpt><trkpt lat="45.5211344" lon="11.7616435"><ele>23.333333333333336</ele><time>2026-05-02T09:39:14.979Z</time></trkpt><trkpt lat="45.5210623" lon="11.7615808"><ele>23.5</ele><time>2026-05-02T09:39:17.982Z</time></trkpt><trkpt lat="45.5209908" lon="11.7615191"><ele>23.666666666666668</ele><time>2026-05-02T09:39:20.976Z</time></trkpt><trkpt lat="45.5209292" lon="11.7614647"><ele>23.833333333333332</ele><time>2026-05-02T09:39:24.994Z</time></trkpt><trkpt lat="45.5208787" lon="11.7614091"><ele>24.0</ele><time>2026-05-02T09:39:27.986Z</time></trkpt><trkpt lat="45.5208077" lon="11.7613321"><ele>24.0</ele><time>2026-05-02T09:39:30.988Z</time></trkpt><trkpt lat="45.5207438" lon="11.7612914"><ele>24.0</ele><time>2026-05-02T09:39:33.966Z</time></trkpt><trkpt lat="45.5206961" lon="11.761222"><ele>24.0</ele><time>2026-05-02T09:45:03.983Z</time></trkpt><trkpt lat="45.5206352" lon="11.7611505"><ele>24.0</ele><time>2026-05-02T09:45:06.986Z</time></trkpt><trkpt lat="45.5205773" lon="11.7610923"><ele>24.0</ele><time>2026-05-02T09:45:08.987Z</time></trkpt><trkpt lat="45.5204975" lon="11.7610193"><ele>24.0</ele><time>2026-05-02T09:45:10.982Z</time></trkpt><trkpt lat="45.5204171" lon="11.7609448"><ele>24.0</ele><time>2026-05-02T09:45:12.98Z</time></trkpt><trkpt lat="45.5203441" lon="11.7608648"><ele>24.0</ele><time>2026-05-02T09:45:14.978Z</time></trkpt><trkpt lat="45.5202774" lon="11.7608033"><ele>24.0</ele><time>2026-05-02T09:45:16.983Z</time></trkpt><trkpt lat="45.5202049" lon="11.7607444"><ele>24.0</ele><time>2026-05-02T09:45:18.981Z</time></trkpt><trkpt lat="45.5201373" lon="11.7606822"><ele>24.0</ele><time>2026-05-02T09:45:20.979Z</time></trkpt><trkpt lat="45.5200555" lon="11.7606176"><ele>24.0</ele><time>2026-05-02T09:45:22.987Z</time></trkpt><trkpt lat="45.519976" lon="11.760555"><ele>24.0</ele><time>2026-05-02T09:45:24.984Z</time></trkpt><trkpt lat="45.519895" lon="11.7604814"><ele>24.0</ele><time>2026-05-02T09:45:26.979Z</time></trkpt><trkpt lat="45.5198194" lon="11.7604078"><ele>24.0</ele><time>2026-05-02T09:45:28.984Z</time></trkpt><trkpt lat="45.51975" lon="11.760339"><ele>24.0</ele><time>2026-05-02T09:45:30.982Z</time></trkpt><trkpt lat="45.5196782" lon="11.7602515"><ele>24.0</ele><time>2026-05-02T09:45:32.98Z</time></trkpt><trkpt lat="45.5196089" lon="11.7601821"><ele>23.799999999999997</ele><time>2026-05-02T09:45:34.984Z</time></trkpt><trkpt lat="45.5195309" lon="11.7601125"><ele>23.599999999999998</ele><time>2026-05-02T09:45:36.98Z</time></trkpt><trkpt lat="45.5194539" lon="11.7600552"><ele>23.4</ele><time>2026-05-02T09:45:38.978Z</time></trkpt><trkpt lat="45.5193825" lon="11.7599752"><ele>23.2</ele><time>2026-05-02T09:45:40.986Z</time></trkpt><trkpt lat="45.5193079" lon="11.7599086"><ele>23.0</ele><time>2026-05-02T09:45:42.965Z</time></trkpt><trkpt lat="45.5192286" lon="11.7598296"><ele>23.0</ele><time>2026-05-02T09:45:44.99Z</time></trkpt><trkpt lat="45.5191584" lon="11.7597571"><ele>23.0</ele><time>2026-05-02T09:45:46.985Z</time></trkpt><trkpt lat="45.5190865" lon="11.7596846"><ele>23.0</ele><time>2026-05-02T09:45:48.983Z</time></trkpt><trkpt lat="45.5190206" lon="11.7596112"><ele>23.0</ele><time>2026-05-02T09:45:50.972Z</time></trkpt><trkpt lat="45.5189453" lon="11.7595433"><ele>23.0</ele><time>2026-05-02T09:45:52.964Z</time></trkpt><trkpt lat="45.5188727" lon="11.7594852"><ele>23.0</ele><time>2026-05-02T09:45:54.968Z</time></trkpt><trkpt lat="45.518796" lon="11.7594215"><ele>23.0</ele><time>2026-05-02T09:45:56.973Z</time></trkpt><trkpt lat="45.5187142" lon="11.7593394"><ele>23.0</ele><time>2026-05-02T09:45:58.981Z</time></trkpt><trkpt lat="45.5186337" lon="11.7592602"><ele>23.0</ele><time>2026-05-02T09:46:00.977Z</time></trkpt><trkpt lat="45.518552" lon="11.759188"><ele>23.0</ele><time>2026-05-02T09:46:02.979Z</time></trkpt><trkpt lat="45.5184765" lon="11.7591025"><ele>23.0</ele><time>2026-05-02T09:46:04.983Z</time></trkpt><trkpt lat="45.5184017" lon="11.7590256"><ele>23.0</ele><time>2026-05-02T09:46:06.981Z</time></trkpt><trkpt lat="45.518327" lon="11.7589574"><ele>23.0</ele><time>2026-05-02T09:46:08.982Z</time></trkpt><trkpt lat="45.5182528" lon="11.7588915"><ele>23.0</ele><time>2026-05-02T09:46:10.979Z</time></trkpt><trkpt lat="45.5181823" lon="11.7588244"><ele>23.0</ele><time>2026-05-02T09:46:12.963Z</time></trkpt><trkpt lat="45.5181092" lon="11.758753"><ele>23.0</ele><time>2026-05-02T09:46:14.975Z</time></trkpt><trkpt lat="45.5180343" lon="11.7586815"><ele>23.0</ele><time>2026-05-02T09:46:16.978Z</time></trkpt><trkpt lat="45.5179577" lon="11.7586086"><ele>23.0</ele><time>2026-05-02T09:46:18.972Z</time></trkpt><trkpt lat="45.5178805" lon="11.7585449"><ele>23.0</ele><time>2026-05-02T09:46:20.986Z</time></trkpt><trkpt lat="45.517803" lon="11.7584685"><ele>23.0</ele><time>2026-05-02T09:46:22.979Z</time></trkpt><trkpt lat="45.517732" lon="11.7583885"><ele>23.0</ele><time>2026-05-02T09:46:24.986Z</time></trkpt><trkpt lat="45.5176617" lon="11.7583066"><ele>23.0</ele><time>2026-05-02T09:46:26.974Z</time></trkpt><trkpt lat="45.5175888" lon="11.7582273"><ele>23.0</ele><time>2026-05-02T09:46:28.978Z</time></trkpt><trkpt lat="45.5175101" lon="11.7581618"><ele>23.0</ele><time>2026-05-02T09:46:30.987Z</time></trkpt><trkpt lat="45.5174365" lon="11.7580907"><ele>23.0</ele><time>2026-05-02T09:46:32.981Z</time></trkpt><trkpt lat="45.5173613" lon="11.7580266"><ele>23.0</ele><time>2026-05-02T09:46:34.975Z</time></trkpt><trkpt lat="45.5172919" lon="11.7579697"><ele>23.0</ele><time>2026-05-02T09:46:36.974Z</time></trkpt><trkpt lat="45.5172183" lon="11.7578898"><ele>23.0</ele><time>2026-05-02T09:46:38.983Z</time></trkpt><trkpt lat="45.5171369" lon="11.7578107"><ele>22.799999999999997</ele><time>2026-05-02T09:46:40.981Z</time></trkpt><trkpt lat="45.5170514" lon="11.7577393"><ele>22.6</ele><time>2026-05-02T09:46:42.985Z</time></trkpt><trkpt lat="45.516967" lon="11.7576543"><ele>22.4</ele><time>2026-05-02T09:46:44.984Z</time></trkpt><trkpt lat="45.5168855" lon="11.7575749"><ele>22.200000000000003</ele><time>2026-05-02T09:46:46.987Z</time></trkpt><trkpt lat="45.5168006" lon="11.7574965"><ele>22.0</ele><time>2026-05-02T09:46:48.979Z</time></trkpt><trkpt lat="45.5167162" lon="11.7574201"><ele>22.0</ele><time>2026-05-02T09:46:50.99Z</time></trkpt><trkpt lat="45.5166427" lon="11.7573405"><ele>22.0</ele><time>2026-05-02T09:46:52.965Z</time></trkpt><trkpt lat="45.5165645" lon="11.757267"><ele>22.0</ele><time>2026-05-02T09:46:54.983Z</time></trkpt><trkpt lat="45.5164899" lon="11.7571876"><ele>22.0</ele><time>2026-05-02T09:46:56.985Z</time></trkpt><trkpt lat="45.5164156" lon="11.7571134"><ele>22.0</ele><time>2026-05-02T09:46:58.986Z</time></trkpt><trkpt lat="45.5163418" lon="11.7570456"><ele>22.0</ele><time>2026-05-02T09:47:00.978Z</time></trkpt><trkpt lat="45.5162729" lon="11.756973"><ele>22.0</ele><time>2026-05-02T09:47:02.986Z</time></trkpt><trkpt lat="45.5161994" lon="11.7569065"><ele>22.0</ele><time>2026-05-02T09:47:04.981Z</time></trkpt><trkpt lat="45.5161305" lon="11.7568414"><ele>22.0</ele><time>2026-05-02T09:47:06.971Z</time></trkpt><trkpt lat="45.5160551" lon="11.7567729"><ele>22.0</ele><time>2026-05-02T09:47:08.983Z</time></trkpt><trkpt lat="45.515973" lon="11.756698"><ele>22.0</ele><time>2026-05-02T09:47:10.986Z</time></trkpt><trkpt lat="45.5158934" lon="11.7566156"><ele>22.5</ele><time>2026-05-02T09:47:12.981Z</time></trkpt><trkpt lat="45.5158154" lon="11.7565398"><ele>23.0</ele><time>2026-05-02T09:47:14.981Z</time></trkpt><trkpt lat="45.5157401" lon="11.7564703"><ele>23.5</ele><time>2026-05-02T09:47:16.985Z</time></trkpt><trkpt lat="45.5156709" lon="11.7563987"><ele>24.0</ele><time>2026-05-02T09:47:18.982Z</time></trkpt><trkpt lat="45.5156002" lon="11.7563321"><ele>24.500000000000004</ele><time>2026-05-02T09:47:20.983Z</time></trkpt><trkpt lat="45.5155318" lon="11.7562685"><ele>25.0</ele><time>2026-05-02T09:47:22.983Z</time></trkpt><trkpt lat="45.5154814" lon="11.7562078"><ele>25.000000000000004</ele><time>2026-05-02T09:47:24.987Z</time></trkpt><trkpt lat="45.5154317" lon="11.7561488"><ele>25.0</ele><time>2026-05-02T09:47:26.986Z</time></trkpt><trkpt lat="45.5153769" lon="11.7561012"><ele>25.0</ele><time>2026-05-02T09:47:28.964Z</time></trkpt><trkpt lat="45.5153171" lon="11.7560388"><ele>25.0</ele><time>2026-05-02T09:47:30.983Z</time></trkpt><trkpt lat="45.5152516" lon="11.7559743"><ele>25.0</ele><time>2026-05-02T09:47:32.968Z</time></trkpt><trkpt lat="45.5151897" lon="11.7559114"><ele>25.000000000000004</ele><time>2026-05-02T09:47:34.985Z</time></trkpt><trkpt lat="45.5151357" lon="11.7558472"><ele>25.0</ele><time>2026-05-02T09:47:36.98Z</time></trkpt><trkpt lat="45.51505" lon="11.7557742"><ele>24.666666666666668</ele><time>2026-05-02T09:47:39.982Z</time></trkpt><trkpt lat="45.5149882" lon="11.75575"><ele>24.333333333333336</ele><time>2026-05-02T09:47:41.981Z</time></trkpt><trkpt lat="45.5149265" lon="11.7556783"><ele>24.0</ele><time>2026-05-02T09:47:44.984Z</time></trkpt><trkpt lat="45.5148707" lon="11.7555888"><ele>23.666666666666668</ele><time>2026-05-02T09:47:47.976Z</time></trkpt><trkpt lat="45.5148109" lon="11.7555351"><ele>23.333333333333336</ele><time>2026-05-02T09:47:49.983Z</time></trkpt><trkpt lat="45.5147383" lon="11.7554772"><ele>23.0</ele><time>2026-05-02T09:47:51.972Z</time></trkpt><trkpt lat="45.5146636" lon="11.7553941"><ele>23.0</ele><time>2026-05-02T09:47:53.974Z</time></trkpt><trkpt lat="45.5145883" lon="11.7553283"><ele>23.0</ele><time>2026-05-02T09:47:55.967Z</time></trkpt><trkpt lat="45.5145199" lon="11.7552615"><ele>23.0</ele><time>2026-05-02T09:47:57.981Z</time></trkpt><trkpt lat="45.5144599" lon="11.7552027"><ele>23.0</ele><time>2026-05-02T09:47:59.982Z</time></trkpt><trkpt lat="45.5143963" lon="11.7551443"><ele>23.0</ele><time>2026-05-02T09:48:01.985Z</time></trkpt><trkpt lat="45.514325" lon="11.7550874"><ele>23.0</ele><time>2026-05-02T09:48:03.96Z</time></trkpt><trkpt lat="45.5142434" lon="11.7550046"><ele>22.799999999999997</ele><time>2026-05-02T09:48:05.986Z</time></trkpt><trkpt lat="45.5141588" lon="11.7549443"><ele>22.6</ele><time>2026-05-02T09:48:07.984Z</time></trkpt><trkpt lat="45.5140824" lon="11.7548661"><ele>22.4</ele><time>2026-05-02T09:48:09.994Z</time></trkpt><trkpt lat="45.514005" lon="11.7547886"><ele>22.200000000000003</ele><time>2026-05-02T09:48:11.982Z</time></trkpt><trkpt lat="45.5139318" lon="11.7547249"><ele>22.0</ele><time>2026-05-02T09:48:13.975Z</time></trkpt><trkpt lat="45.5138582" lon="11.7546565"><ele>22.0</ele><time>2026-05-02T09:48:15.977Z</time></trkpt><trkpt lat="45.5137918" lon="11.7545934"><ele>22.0</ele><time>2026-05-02T09:48:17.981Z</time></trkpt><trkpt lat="45.513722" lon="11.7545306"><ele>22.0</ele><time>2026-05-02T09:48:19.978Z</time></trkpt><trkpt lat="45.5136457" lon="11.7544595"><ele>22.0</ele><time>2026-05-02T09:48:21.975Z</time></trkpt><trkpt lat="45.5135716" lon="11.7543814"><ele>22.0</ele><time>2026-05-02T09:48:23.98Z</time></trkpt><trkpt lat="45.5134994" lon="11.754315"><ele>22.0</ele><time>2026-05-02T09:48:25.977Z</time></trkpt><trkpt lat="45.5134298" lon="11.7542573"><ele>22.0</ele><time>2026-05-02T09:48:27.975Z</time></trkpt><trkpt lat="45.5133608" lon="11.754186"><ele>22.0</ele><time>2026-05-02T09:48:29.987Z</time></trkpt><trkpt lat="45.5132826" lon="11.7541229"><ele>22.0</ele><time>2026-05-02T09:48:31.988Z</time></trkpt><trkpt lat="45.5132067" lon="11.7540463"><ele>22.0</ele><time>2026-05-02T09:48:33.985Z</time></trkpt><trkpt lat="45.5131297" lon="11.7539675"><ele>22.0</ele><time>2026-05-02T09:48:35.981Z</time></trkpt><trkpt lat="45.5130563" lon="11.7538876"><ele>22.0</ele><time>2026-05-02T09:48:37.982Z</time></trkpt><trkpt lat="45.5129863" lon="11.7538113"><ele>22.0</ele><time>2026-05-02T09:48:39.981Z</time></trkpt><trkpt lat="45.5129144" lon="11.7537487"><ele>22.0</ele><time>2026-05-02T09:48:41.983Z</time></trkpt><trkpt lat="45.5128426" lon="11.7536869"><ele>22.0</ele><time>2026-05-02T09:48:43.984Z</time></trkpt><trkpt lat="45.5127693" lon="11.753613"><ele>22.0</ele><time>2026-05-02T09:48:45.974Z</time></trkpt><trkpt lat="45.5126945" lon="11.7535484"><ele>22.0</ele><time>2026-05-02T09:48:47.98Z</time></trkpt><trkpt lat="45.5126235" lon="11.7534785"><ele>21.833333333333332</ele><time>2026-05-02T09:48:49.984Z</time></trkpt><trkpt lat="45.5125566" lon="11.7534117"><ele>21.666666666666664</ele><time>2026-05-02T09:48:51.966Z</time></trkpt><trkpt lat="45.5124893" lon="11.7533376"><ele>21.5</ele><time>2026-05-02T09:48:53.982Z</time></trkpt><trkpt lat="45.512417" lon="11.7532714"><ele>21.333333333333332</ele><time>2026-05-02T09:48:55.979Z</time></trkpt><trkpt lat="45.5123466" lon="11.7532115"><ele>21.166666666666668</ele><time>2026-05-02T09:48:57.98Z</time></trkpt><trkpt lat="45.5122893" lon="11.7531477"><ele>21.0</ele><time>2026-05-02T09:48:59.972Z</time></trkpt><trkpt lat="45.5122317" lon="11.7530947"><ele>21.0</ele><time>2026-05-02T09:49:01.975Z</time></trkpt><trkpt lat="45.5121732" lon="11.7530382"><ele>21.0</ele><time>2026-05-02T09:49:03.982Z</time></trkpt><trkpt lat="45.5121097" lon="11.7529786"><ele>21.0</ele><time>2026-05-02T09:49:05.977Z</time></trkpt><trkpt lat="45.512027" lon="11.7529097"><ele>21.0</ele><time>2026-05-02T09:49:07.985Z</time></trkpt><trkpt lat="45.5119596" lon="11.7528394"><ele>21.0</ele><time>2026-05-02T09:49:09.975Z</time></trkpt><trkpt lat="45.5118906" lon="11.7527781"><ele>21.0</ele><time>2026-05-02T09:49:11.979Z</time></trkpt><trkpt lat="45.5118303" lon="11.7527201"><ele>21.0</ele><time>2026-05-02T09:49:13.98Z</time></trkpt><trkpt lat="45.5117699" lon="11.7526663"><ele>21.0</ele><time>2026-05-02T09:49:15.96Z</time></trkpt><trkpt lat="45.5116971" lon="11.7525912"><ele>21.0</ele><time>2026-05-02T09:49:17.977Z</time></trkpt><trkpt lat="45.5116289" lon="11.7525336"><ele>21.0</ele><time>2026-05-02T09:49:19.975Z</time></trkpt><trkpt lat="45.5115701" lon="11.7524726"><ele>21.0</ele><time>2026-05-02T09:49:21.984Z</time></trkpt><trkpt lat="45.5115097" lon="11.7524126"><ele>21.0</ele><time>2026-05-02T09:49:23.982Z</time></trkpt><trkpt lat="45.5114426" lon="11.7523501"><ele>21.0</ele><time>2026-05-02T09:49:25.975Z</time></trkpt><trkpt lat="45.5113599" lon="11.7522745"><ele>21.0</ele><time>2026-05-02T09:49:27.975Z</time></trkpt><trkpt lat="45.5112857" lon="11.7521841"><ele>21.0</ele><time>2026-05-02T09:49:29.968Z</time></trkpt><trkpt lat="45.5112116" lon="11.7521176"><ele>21.0</ele><time>2026-05-02T09:49:31.985Z</time></trkpt><trkpt lat="45.5111389" lon="11.7520469"><ele>21.0</ele><time>2026-05-02T09:49:33.988Z</time></trkpt><trkpt lat="45.5110752" lon="11.7519807"><ele>21.0</ele><time>2026-05-02T09:49:35.985Z</time></trkpt><trkpt lat="45.5110128" lon="11.7519125"><ele>21.0</ele><time>2026-05-02T09:49:37.981Z</time></trkpt><trkpt lat="45.5109493" lon="11.7518561"><ele>21.0</ele><time>2026-05-02T09:49:39.987Z</time></trkpt><trkpt lat="45.510883" lon="11.7517914"><ele>21.0</ele><time>2026-05-02T09:49:41.981Z</time></trkpt><trkpt lat="45.5108124" lon="11.7517232"><ele>21.0</ele><time>2026-05-02T09:49:43.985Z</time></trkpt><trkpt lat="45.5107342" lon="11.7516428"><ele>21.0</ele><time>2026-05-02T09:49:45.985Z</time></trkpt><trkpt lat="45.51066" lon="11.7515738"><ele>21.200000000000003</ele><time>2026-05-02T09:49:47.979Z</time></trkpt><trkpt lat="45.5105768" lon="11.751502"><ele>21.400000000000002</ele><time>2026-05-02T09:49:49.976Z</time></trkpt><trkpt lat="45.5105043" lon="11.7514293"><ele>21.6</ele><time>2026-05-02T09:49:51.962Z</time></trkpt><trkpt lat="45.5104276" lon="11.7513567"><ele>21.8</ele><time>2026-05-02T09:49:53.984Z</time></trkpt><trkpt lat="45.5103541" lon="11.7512851"><ele>22.0</ele><time>2026-05-02T09:49:55.985Z</time></trkpt><trkpt lat="45.5102798" lon="11.7512167"><ele>22.166666666666664</ele><time>2026-05-02T09:49:57.977Z</time></trkpt><trkpt lat="45.51021" lon="11.7511496"><ele>22.333333333333332</ele><time>2026-05-02T09:49:59.982Z</time></trkpt><trkpt lat="45.510137" lon="11.7510804"><ele>22.5</ele><time>2026-05-02T09:50:01.984Z</time></trkpt><trkpt lat="45.5100647" lon="11.7510178"><ele>22.666666666666668</ele><time>2026-05-02T09:50:03.979Z</time></trkpt><trkpt lat="45.5099865" lon="11.7509434"><ele>22.833333333333336</ele><time>2026-05-02T09:50:05.981Z</time></trkpt><trkpt lat="45.5099101" lon="11.7508632"><ele>23.0</ele><time>2026-05-02T09:50:07.977Z</time></trkpt><trkpt lat="45.5098272" lon="11.7507861"><ele>23.0</ele><time>2026-05-02T09:50:09.977Z</time></trkpt><trkpt lat="45.5097501" lon="11.7507155"><ele>23.0</ele><time>2026-05-02T09:50:11.977Z</time></trkpt><trkpt lat="45.5096751" lon="11.7506467"><ele>23.0</ele><time>2026-05-02T09:50:13.985Z</time></trkpt><trkpt lat="45.5095957" lon="11.7505777"><ele>23.0</ele><time>2026-05-02T09:50:15.984Z</time></trkpt><trkpt lat="45.5095171" lon="11.7505184"><ele>23.0</ele><time>2026-05-02T09:50:17.979Z</time></trkpt><trkpt lat="45.5094489" lon="11.7504532"><ele>23.0</ele><time>2026-05-02T09:50:19.974Z</time></trkpt><trkpt lat="45.5093763" lon="11.7503957"><ele>23.142857142857142</ele><time>2026-05-02T09:50:21.975Z</time></trkpt><trkpt lat="45.5093083" lon="11.7503351"><ele>23.285714285714285</ele><time>2026-05-02T09:50:23.977Z</time></trkpt><trkpt lat="45.5092414" lon="11.7502684"><ele>23.428571428571427</ele><time>2026-05-02T09:50:25.983Z</time></trkpt><trkpt lat="45.5091825" lon="11.7502037"><ele>23.57142857142857</ele><time>2026-05-02T09:50:27.987Z</time></trkpt><trkpt lat="45.5091378" lon="11.7501256"><ele>23.714285714285715</ele><time>2026-05-02T09:50:29.974Z</time></trkpt><trkpt lat="45.5090867" lon="11.7500455"><ele>23.857142857142854</ele><time>2026-05-02T09:50:32.979Z</time></trkpt><trkpt lat="45.5090262" lon="11.7500142"><ele>24.0</ele><time>2026-05-02T09:50:36.979Z</time></trkpt><trkpt lat="45.5089557" lon="11.7499793"><ele>23.833333333333332</ele><time>2026-05-02T09:50:39.98Z</time></trkpt><trkpt lat="45.5088948" lon="11.7498941"><ele>23.666666666666668</ele><time>2026-05-02T09:50:43.984Z</time></trkpt><trkpt lat="45.5088412" lon="11.7498413"><ele>23.5</ele><time>2026-05-02T09:50:45.978Z</time></trkpt><trkpt lat="45.5087749" lon="11.7497764"><ele>23.333333333333336</ele><time>2026-05-02T09:50:47.98Z</time></trkpt><trkpt lat="45.5087009" lon="11.7497048"><ele>23.166666666666668</ele><time>2026-05-02T09:50:49.977Z</time></trkpt><trkpt lat="45.5086219" lon="11.7496304"><ele>23.0</ele><time>2026-05-02T09:50:51.978Z</time></trkpt><trkpt lat="45.5085482" lon="11.7495469"><ele>23.0</ele><time>2026-05-02T09:50:53.977Z</time></trkpt><trkpt lat="45.5084746" lon="11.7494758"><ele>23.0</ele><time>2026-05-02T09:50:55.98Z</time></trkpt><trkpt lat="45.5084043" lon="11.749412"><ele>23.0</ele><time>2026-05-02T09:50:57.984Z</time></trkpt><trkpt lat="45.5083324" lon="11.7493524"><ele>23.0</ele><time>2026-05-02T09:50:59.975Z</time></trkpt><trkpt lat="45.5082644" lon="11.7492761"><ele>23.0</ele><time>2026-05-02T09:51:01.973Z</time></trkpt><trkpt lat="45.5081848" lon="11.7491999"><ele>23.0</ele><time>2026-05-02T09:51:03.977Z</time></trkpt><trkpt lat="45.5081073" lon="11.7491291"><ele>22.833333333333336</ele><time>2026-05-02T09:51:05.974Z</time></trkpt><trkpt lat="45.5080369" lon="11.7490578"><ele>22.666666666666668</ele><time>2026-05-02T09:51:07.974Z</time></trkpt><trkpt lat="45.5079634" lon="11.7489938"><ele>22.5</ele><time>2026-05-02T09:51:09.979Z</time></trkpt><trkpt lat="45.5078927" lon="11.7489283"><ele>22.333333333333332</ele><time>2026-05-02T09:51:11.982Z</time></trkpt><trkpt lat="45.5078165" lon="11.7488627"><ele>22.166666666666664</ele><time>2026-05-02T09:51:13.982Z</time></trkpt><trkpt lat="45.5077363" lon="11.7487842"><ele>22.0</ele><time>2026-05-02T09:51:15.981Z</time></trkpt><trkpt lat="45.5076632" lon="11.7487105"><ele>21.666666666666664</ele><time>2026-05-02T09:51:17.972Z</time></trkpt><trkpt lat="45.5075946" lon="11.748632"><ele>21.333333333333332</ele><time>2026-05-02T09:51:19.98Z</time></trkpt><trkpt lat="45.5075231" lon="11.7485605"><ele>21.0</ele><time>2026-05-02T09:51:21.989Z</time></trkpt><trkpt lat="45.507452" lon="11.7484936"><ele>20.666666666666668</ele><time>2026-05-02T09:51:23.972Z</time></trkpt><trkpt lat="45.50738" lon="11.7484258"><ele>20.333333333333336</ele><time>2026-05-02T09:51:25.991Z</time></trkpt><trkpt lat="45.5073147" lon="11.7483696"><ele>20.0</ele><time>2026-05-02T09:51:27.982Z</time></trkpt><trkpt lat="45.5072512" lon="11.7483132"><ele>20.0</ele><time>2026-05-02T09:51:29.983Z</time></trkpt><trkpt lat="45.5071965" lon="11.7482527"><ele>20.0</ele><time>2026-05-02T09:51:31.986Z</time></trkpt><trkpt lat="45.5071393" lon="11.7481973"><ele>20.0</ele><time>2026-05-02T09:51:33.982Z</time></trkpt><trkpt lat="45.5070732" lon="11.74813"><ele>20.0</ele><time>2026-05-02T09:51:35.98Z</time></trkpt><trkpt lat="45.5069989" lon="11.7480528"><ele>20.0</ele><time>2026-05-02T09:51:37.977Z</time></trkpt><trkpt lat="45.506928" lon="11.747982"><ele>20.0</ele><time>2026-05-02T09:51:39.982Z</time></trkpt><trkpt lat="45.5068596" lon="11.747911"><ele>20.285714285714285</ele><time>2026-05-02T09:51:41.983Z</time></trkpt><trkpt lat="45.506792" lon="11.7478476"><ele>20.571428571428573</ele><time>2026-05-02T09:51:43.977Z</time></trkpt><trkpt lat="45.5067211" lon="11.7477924"><ele>20.857142857142858</ele><time>2026-05-02T09:51:45.981Z</time></trkpt><trkpt lat="45.5066638" lon="11.7477275"><ele>21.142857142857142</ele><time>2026-05-02T09:51:47.977Z</time></trkpt><trkpt lat="45.5066094" lon="11.7476704"><ele>21.428571428571427</ele><time>2026-05-02T09:51:49.979Z</time></trkpt><trkpt lat="45.5065501" lon="11.7476182"><ele>21.714285714285715</ele><time>2026-05-02T09:51:51.987Z</time></trkpt><trkpt lat="45.5064819" lon="11.7475719"><ele>22.0</ele><time>2026-05-02T09:51:53.979Z</time></trkpt><trkpt lat="45.5064027" lon="11.7474995"><ele>22.0</ele><time>2026-05-02T09:51:55.981Z</time></trkpt><trkpt lat="45.506336" lon="11.7474232"><ele>22.0</ele><time>2026-05-02T09:51:57.978Z</time></trkpt><trkpt lat="45.5062562" lon="11.7473448"><ele>22.0</ele><time>2026-05-02T09:51:59.973Z</time></trkpt><trkpt lat="45.5061808" lon="11.7472673"><ele>22.0</ele><time>2026-05-02T09:52:01.979Z</time></trkpt><trkpt lat="45.5061025" lon="11.7471883"><ele>22.0</ele><time>2026-05-02T09:52:03.984Z</time></trkpt><trkpt lat="45.5060276" lon="11.7471057"><ele>22.0</ele><time>2026-05-02T09:52:05.978Z</time></trkpt><trkpt lat="45.5059481" lon="11.7470273"><ele>22.0</ele><time>2026-05-02T09:52:07.979Z</time></trkpt><trkpt lat="45.5058759" lon="11.7469701"><ele>22.0</ele><time>2026-05-02T09:52:09.975Z</time></trkpt><trkpt lat="45.5058112" lon="11.746906"><ele>22.0</ele><time>2026-05-02T09:52:11.981Z</time></trkpt><trkpt lat="45.5057337" lon="11.7468415"><ele>22.0</ele><time>2026-05-02T09:52:13.977Z</time></trkpt><trkpt lat="45.5056626" lon="11.7467678"><ele>22.0</ele><time>2026-05-02T09:52:15.982Z</time></trkpt><trkpt lat="45.5055884" lon="11.7466931"><ele>21.833333333333332</ele><time>2026-05-02T09:52:17.99Z</time></trkpt><trkpt lat="45.5055112" lon="11.7466296"><ele>21.666666666666664</ele><time>2026-05-02T09:52:19.982Z</time></trkpt><trkpt lat="45.5054332" lon="11.746571"><ele>21.5</ele><time>2026-05-02T09:52:21.983Z</time></trkpt><trkpt lat="45.5053641" lon="11.7465018"><ele>21.333333333333332</ele><time>2026-05-02T09:52:23.985Z</time></trkpt><trkpt lat="45.5052924" lon="11.7464369"><ele>21.166666666666668</ele><time>2026-05-02T09:52:25.98Z</time></trkpt><trkpt lat="45.5052175" lon="11.7463641"><ele>21.0</ele><time>2026-05-02T09:52:27.983Z</time></trkpt><trkpt lat="45.5051478" lon="11.7462897"><ele>21.333333333333332</ele><time>2026-05-02T09:52:29.984Z</time></trkpt><trkpt lat="45.5050838" lon="11.7462064"><ele>21.666666666666668</ele><time>2026-05-02T09:52:31.984Z</time></trkpt><trkpt lat="45.5050207" lon="11.7461447"><ele>22.0</ele><time>2026-05-02T09:52:33.975Z</time></trkpt><trkpt lat="45.5049633" lon="11.7460839"><ele>22.333333333333336</ele><time>2026-05-02T09:52:35.983Z</time></trkpt><trkpt lat="45.5048955" lon="11.7460041"><ele>22.666666666666668</ele><time>2026-05-02T09:52:38.984Z</time></trkpt><trkpt lat="45.5048318" lon="11.7459227"><ele>23.0</ele><time>2026-05-02T09:52:41.986Z</time></trkpt><trkpt lat="45.5047554" lon="11.7458387"><ele>23.0</ele><time>2026-05-02T09:52:44.976Z</time></trkpt><trkpt lat="45.5046932" lon="11.7457732"><ele>23.0</ele><time>2026-05-02T09:52:46.978Z</time></trkpt><trkpt lat="45.5046272" lon="11.7457138"><ele>23.0</ele><time>2026-05-02T09:52:48.979Z</time></trkpt><trkpt lat="45.5045725" lon="11.7456559"><ele>23.0</ele><time>2026-05-02T09:52:50.971Z</time></trkpt><trkpt lat="45.5045236" lon="11.7455974"><ele>23.0</ele><time>2026-05-02T09:52:52.984Z</time></trkpt><trkpt lat="45.5044649" lon="11.7455473"><ele>23.0</ele><time>2026-05-02T09:52:56.982Z</time></trkpt><trkpt lat="45.5045234" lon="11.7456005"><ele>23.0</ele><time>2026-05-02T09:53:11.983Z</time></trkpt><trkpt lat="45.504577" lon="11.7456656"><ele>23.0</ele><time>2026-05-02T09:53:15.979Z</time></trkpt><trkpt lat="45.5046463" lon="11.7457353"><ele>23.0</ele><time>2026-05-02T09:53:18.982Z</time></trkpt><trkpt lat="45.5047016" lon="11.7457947"><ele>23.0</ele><time>2026-05-02T09:53:20.976Z</time></trkpt><trkpt lat="45.5047539" lon="11.745845"><ele>23.0</ele><time>2026-05-02T09:53:22.978Z</time></trkpt><trkpt lat="45.504814" lon="11.7459124"><ele>23.0</ele><time>2026-05-02T09:53:24.984Z</time></trkpt><trkpt lat="45.5048714" lon="11.7459624"><ele>23.0</ele><time>2026-05-02T09:53:26.98Z</time></trkpt><trkpt lat="45.5049594" lon="11.745983"><ele>23.0</ele><time>2026-05-02T09:53:29.986Z</time></trkpt><trkpt lat="45.5049665" lon="11.7458697"><ele>23.0</ele><time>2026-05-02T09:54:10.974Z</time></trkpt><trkpt lat="45.5049066" lon="11.7458335"><ele>23.0</ele><time>2026-05-02T09:54:17.981Z</time></trkpt><trkpt lat="45.5048381" lon="11.7458239"><ele>23.0</ele><time>2026-05-02T09:54:24.978Z</time></trkpt><trkpt lat="45.5047688" lon="11.7458285"><ele>23.0</ele><time>2026-05-02T09:54:33.981Z</time></trkpt><trkpt lat="45.5047299" lon="11.7457554"><ele>23.0</ele><time>2026-05-02T09:54:52.979Z</time></trkpt><trkpt lat="45.5047634" lon="11.7456708"><ele>23.0</ele><time>2026-05-02T09:55:00.98Z</time></trkpt><trkpt lat="45.5046987" lon="11.7456928"><ele>23.0</ele><time>2026-05-02T09:59:35.976Z</time></trkpt><trkpt lat="45.5046282" lon="11.7456684"><ele>23.0</ele><time>2026-05-02T09:59:40.999Z</time></trkpt><trkpt lat="45.5045744" lon="11.7456094"><ele>23.0</ele><time>2026-05-02T09:59:44.887Z</time></trkpt><trkpt lat="45.5045129" lon="11.7455601"><ele>23.0</ele><time>2026-05-02T09:59:47.987Z</time></trkpt><trkpt lat="45.5044489" lon="11.7455067"><ele>23.0</ele><time>2026-05-02T09:59:50.986Z</time></trkpt><trkpt lat="45.504387" lon="11.7454566"><ele>23.0</ele><time>2026-05-02T09:59:53.974Z</time></trkpt><trkpt lat="45.5043319" lon="11.745404"><ele>23.0</ele><time>2026-05-02T09:59:56.983Z</time></trkpt><trkpt lat="45.504271" lon="11.7453545"><ele>23.0</ele><time>2026-05-02T09:59:59.986Z</time></trkpt><trkpt lat="45.5042018" lon="11.7453025"><ele>23.0</ele><time>2026-05-02T10:00:02.983Z</time></trkpt><trkpt lat="45.5041414" lon="11.7452574"><ele>23.0</ele><time>2026-05-02T10:00:04.983Z</time></trkpt><trkpt lat="45.5040587" lon="11.7452089"><ele>23.0</ele><time>2026-05-02T10:00:06.99Z</time></trkpt><trkpt lat="45.5039642" lon="11.7451494"><ele>23.0</ele><time>2026-05-02T10:00:08.976Z</time></trkpt><trkpt lat="45.5038853" lon="11.7450779"><ele>23.0</ele><time>2026-05-02T10:00:10.99Z</time></trkpt><trkpt lat="45.5038128" lon="11.7450172"><ele>22.599999999999998</ele><time>2026-05-02T10:00:12.98Z</time></trkpt><trkpt lat="45.5037339" lon="11.744951"><ele>22.2</ele><time>2026-05-02T10:00:15.972Z</time></trkpt><trkpt lat="45.5036819" lon="11.7448848"><ele>21.8</ele><time>2026-05-02T10:00:17.981Z</time></trkpt><trkpt lat="45.5036128" lon="11.7448245"><ele>21.4</ele><time>2026-05-02T10:00:20.049Z</time></trkpt><trkpt lat="45.5035131" lon="11.7447304"><ele>21.0</ele><time>2026-05-02T10:00:21.984Z</time></trkpt><trkpt lat="45.5034233" lon="11.7446418"><ele>21.0</ele><time>2026-05-02T10:00:23.983Z</time></trkpt><trkpt lat="45.5033394" lon="11.7445573"><ele>21.0</ele><time>2026-05-02T10:00:25.982Z</time></trkpt><trkpt lat="45.5032542" lon="11.7444771"><ele>21.0</ele><time>2026-05-02T10:00:28.036Z</time></trkpt><trkpt lat="45.5031741" lon="11.744396"><ele>21.0</ele><time>2026-05-02T10:00:29.983Z</time></trkpt><trkpt lat="45.5030996" lon="11.7443203"><ele>21.0</ele><time>2026-05-02T10:00:31.964Z</time></trkpt><trkpt lat="45.5030251" lon="11.7442427"><ele>20.833333333333332</ele><time>2026-05-02T10:00:33.964Z</time></trkpt><trkpt lat="45.5029505" lon="11.7441704"><ele>20.666666666666668</ele><time>2026-05-02T10:00:35.978Z</time></trkpt><trkpt lat="45.5028828" lon="11.7441129"><ele>20.5</ele><time>2026-05-02T10:00:37.981Z</time></trkpt><trkpt lat="45.5028183" lon="11.7440443"><ele>20.333333333333336</ele><time>2026-05-02T10:00:39.974Z</time></trkpt><trkpt lat="45.5027485" lon="11.7439771"><ele>20.166666666666668</ele><time>2026-05-02T10:00:41.975Z</time></trkpt><trkpt lat="45.5026661" lon="11.7439053"><ele>20.0</ele><time>2026-05-02T10:00:43.989Z</time></trkpt><trkpt lat="45.5025821" lon="11.7438184"><ele>20.4</ele><time>2026-05-02T10:00:45.971Z</time></trkpt><trkpt lat="45.5025077" lon="11.7437343"><ele>20.8</ele><time>2026-05-02T10:00:47.988Z</time></trkpt><trkpt lat="45.5024345" lon="11.7436529"><ele>21.200000000000003</ele><time>2026-05-02T10:00:49.988Z</time></trkpt><trkpt lat="45.5023554" lon="11.743584"><ele>21.6</ele><time>2026-05-02T10:00:51.989Z</time></trkpt><trkpt lat="45.502277" lon="11.7435249"><ele>22.0</ele><time>2026-05-02T10:00:53.996Z</time></trkpt><trkpt lat="45.5022051" lon="11.7434603"><ele>22.0</ele><time>2026-05-02T10:00:55.978Z</time></trkpt><trkpt lat="45.5021444" lon="11.7433954"><ele>22.0</ele><time>2026-05-02T10:00:57.982Z</time></trkpt><trkpt lat="45.5021066" lon="11.7433182"><ele>22.0</ele><time>2026-05-02T10:00:59.981Z</time></trkpt><trkpt lat="45.5021227" lon="11.7432222"><ele>22.0</ele><time>2026-05-02T10:01:01.988Z</time></trkpt><trkpt lat="45.5021653" lon="11.743142"><ele>22.0</ele><time>2026-05-02T10:01:03.987Z</time></trkpt><trkpt lat="45.5021886" lon="11.7430421"><ele>22.0</ele><time>2026-05-02T10:01:06.969Z</time></trkpt><trkpt lat="45.5021622" lon="11.7429281"><ele>22.0</ele><time>2026-05-02T10:01:09.991Z</time></trkpt><trkpt lat="45.5020913" lon="11.7429137"><ele>22.142857142857142</ele><time>2026-05-02T10:01:14.981Z</time></trkpt><trkpt lat="45.5020213" lon="11.7429348"><ele>22.285714285714285</ele><time>2026-05-02T10:01:18.98Z</time></trkpt><trkpt lat="45.5019553" lon="11.7429514"><ele>22.42857142857143</ele><time>2026-05-02T10:01:22.988Z</time></trkpt><trkpt lat="45.5018793" lon="11.7430019"><ele>22.57142857142857</ele><time>2026-05-02T10:01:26.992Z</time></trkpt><trkpt lat="45.5018143" lon="11.7430312"><ele>22.71428571428571</ele><time>2026-05-02T10:01:29.991Z</time></trkpt><trkpt lat="45.5017428" lon="11.7430041"><ele>22.857142857142858</ele><time>2026-05-02T10:01:33.989Z</time></trkpt><trkpt lat="45.5016987" lon="11.7429294"><ele>23.0</ele><time>2026-05-02T10:02:25.98Z</time></trkpt><trkpt lat="45.5016354" lon="11.7428648"><ele>23.0</ele><time>2026-05-02T10:02:30.991Z</time></trkpt><trkpt lat="45.5015803" lon="11.7428093"><ele>23.0</ele><time>2026-05-02T10:02:32.993Z</time></trkpt><trkpt lat="45.5015194" lon="11.742751"><ele>23.0</ele><time>2026-05-02T10:02:34.993Z</time></trkpt><trkpt lat="45.5014357" lon="11.7426856"><ele>23.0</ele><time>2026-05-02T10:02:36.994Z</time></trkpt><trkpt lat="45.501357" lon="11.742605"><ele>23.0</ele><time>2026-05-02T10:02:38.992Z</time></trkpt><trkpt lat="45.5012814" lon="11.7425496"><ele>23.0</ele><time>2026-05-02T10:02:40.983Z</time></trkpt><trkpt lat="45.5012052" lon="11.742494"><ele>22.833333333333336</ele><time>2026-05-02T10:02:42.979Z</time></trkpt><trkpt lat="45.5011316" lon="11.7424312"><ele>22.666666666666668</ele><time>2026-05-02T10:02:44.986Z</time></trkpt><trkpt lat="45.5010641" lon="11.7423686"><ele>22.5</ele><time>2026-05-02T10:02:46.979Z</time></trkpt><trkpt lat="45.5009962" lon="11.7422949"><ele>22.333333333333332</ele><time>2026-05-02T10:02:48.988Z</time></trkpt><trkpt lat="45.5009362" lon="11.7422351"><ele>22.166666666666664</ele><time>2026-05-02T10:02:50.989Z</time></trkpt><trkpt lat="45.5008805" lon="11.7421792"><ele>22.0</ele><time>2026-05-02T10:02:52.987Z</time></trkpt><trkpt lat="45.5008134" lon="11.7421169"><ele>22.0</ele><time>2026-05-02T10:02:54.984Z</time></trkpt><trkpt lat="45.5007412" lon="11.7420627"><ele>22.0</ele><time>2026-05-02T10:02:56.99Z</time></trkpt><trkpt lat="45.5006795" lon="11.7420136"><ele>22.0</ele><time>2026-05-02T10:02:58.993Z</time></trkpt><trkpt lat="45.5006148" lon="11.7419393"><ele>22.0</ele><time>2026-05-02T10:03:00.989Z</time></trkpt><trkpt lat="45.5005408" lon="11.7418621"><ele>22.0</ele><time>2026-05-02T10:03:02.984Z</time></trkpt><trkpt lat="45.500463" lon="11.741776"><ele>22.0</ele><time>2026-05-02T10:03:04.992Z</time></trkpt><trkpt lat="45.5003841" lon="11.7417093"><ele>21.833333333333332</ele><time>2026-05-02T10:03:06.985Z</time></trkpt><trkpt lat="45.5003058" lon="11.7416373"><ele>21.666666666666664</ele><time>2026-05-02T10:03:08.979Z</time></trkpt><trkpt lat="45.5002282" lon="11.7415599"><ele>21.5</ele><time>2026-05-02T10:03:10.987Z</time></trkpt><trkpt lat="45.5001519" lon="11.741491"><ele>21.333333333333332</ele><time>2026-05-02T10:03:12.992Z</time></trkpt><trkpt lat="45.5000803" lon="11.7414295"><ele>21.166666666666668</ele><time>2026-05-02T10:03:14.997Z</time></trkpt><trkpt lat="45.5000178" lon="11.7413716"><ele>21.0</ele><time>2026-05-02T10:03:16.984Z</time></trkpt><trkpt lat="45.4999675" lon="11.7413156"><ele>21.0</ele><time>2026-05-02T10:03:18.991Z</time></trkpt><trkpt lat="45.4999191" lon="11.7412505"><ele>21.0</ele><time>2026-05-02T10:03:20.986Z</time></trkpt><trkpt lat="45.4998473" lon="11.7411814"><ele>21.0</ele><time>2026-05-02T10:03:23.985Z</time></trkpt><trkpt lat="45.499796" lon="11.7411098"><ele>21.0</ele><time>2026-05-02T10:03:25.985Z</time></trkpt><trkpt lat="45.4997244" lon="11.7410377"><ele>21.0</ele><time>2026-05-02T10:03:27.984Z</time></trkpt><trkpt lat="45.4996284" lon="11.7409695"><ele>21.0</ele><time>2026-05-02T10:03:29.974Z</time></trkpt><trkpt lat="45.4995435" lon="11.7409034"><ele>20.666666666666668</ele><time>2026-05-02T10:03:31.981Z</time></trkpt><trkpt lat="45.4994636" lon="11.7408374"><ele>20.333333333333332</ele><time>2026-05-02T10:03:33.981Z</time></trkpt><trkpt lat="45.4993954" lon="11.7407596"><ele>20.0</ele><time>2026-05-02T10:03:35.98Z</time></trkpt><trkpt lat="45.4993262" lon="11.740681"><ele>19.666666666666664</ele><time>2026-05-02T10:03:37.993Z</time></trkpt><trkpt lat="45.4992653" lon="11.7406154"><ele>19.333333333333332</ele><time>2026-05-02T10:03:39.985Z</time></trkpt><trkpt lat="45.4992073" lon="11.7405481"><ele>19.0</ele><time>2026-05-02T10:03:41.982Z</time></trkpt><trkpt lat="45.4991463" lon="11.7404838"><ele>19.0</ele><time>2026-05-02T10:03:43.992Z</time></trkpt><trkpt lat="45.4990588" lon="11.7404201"><ele>19.0</ele><time>2026-05-02T10:03:45.983Z</time></trkpt><trkpt lat="45.4989662" lon="11.7403437"><ele>19.0</ele><time>2026-05-02T10:03:47.988Z</time></trkpt><trkpt lat="45.4988801" lon="11.7402602"><ele>19.0</ele><time>2026-05-02T10:03:49.993Z</time></trkpt><trkpt lat="45.4988015" lon="11.7401981"><ele>19.0</ele><time>2026-05-02T10:03:51.987Z</time></trkpt><trkpt lat="45.4987267" lon="11.7401175"><ele>18.833333333333332</ele><time>2026-05-02T10:03:53.985Z</time></trkpt><trkpt lat="45.4986534" lon="11.7400351"><ele>18.666666666666664</ele><time>2026-05-02T10:03:55.986Z</time></trkpt><trkpt lat="45.4985781" lon="11.7399709"><ele>18.5</ele><time>2026-05-02T10:03:57.993Z</time></trkpt><trkpt lat="45.4985061" lon="11.7399095"><ele>18.333333333333332</ele><time>2026-05-02T10:03:59.986Z</time></trkpt><trkpt lat="45.4984371" lon="11.739835"><ele>18.166666666666668</ele><time>2026-05-02T10:04:01.992Z</time></trkpt><trkpt lat="45.4983685" lon="11.7397637"><ele>18.0</ele><time>2026-05-02T10:04:03.981Z</time></trkpt><trkpt lat="45.498291" lon="11.739699"><ele>18.0</ele><time>2026-05-02T10:04:05.988Z</time></trkpt><trkpt lat="45.4982139" lon="11.7396212"><ele>18.0</ele><time>2026-05-02T10:04:07.992Z</time></trkpt><trkpt lat="45.4981324" lon="11.739544"><ele>18.0</ele><time>2026-05-02T10:04:09.991Z</time></trkpt><trkpt lat="45.4980609" lon="11.7394772"><ele>18.0</ele><time>2026-05-02T10:04:11.996Z</time></trkpt><trkpt lat="45.4979957" lon="11.739412"><ele>18.0</ele><time>2026-05-02T10:04:13.995Z</time></trkpt><trkpt lat="45.4979241" lon="11.7393484"><ele>18.0</ele><time>2026-05-02T10:04:15.983Z</time></trkpt><trkpt lat="45.4978624" lon="11.7392858"><ele>18.166666666666668</ele><time>2026-05-02T10:04:17.995Z</time></trkpt><trkpt lat="45.497801" lon="11.7392178"><ele>18.333333333333332</ele><time>2026-05-02T10:04:19.989Z</time></trkpt><trkpt lat="45.4977364" lon="11.7391423"><ele>18.5</ele><time>2026-05-02T10:04:21.979Z</time></trkpt><trkpt lat="45.4976656" lon="11.739081"><ele>18.666666666666664</ele><time>2026-05-02T10:04:23.99Z</time></trkpt><trkpt lat="45.4975944" lon="11.739021"><ele>18.833333333333332</ele><time>2026-05-02T10:04:25.986Z</time></trkpt><trkpt lat="45.4975187" lon="11.7389533"><ele>19.0</ele><time>2026-05-02T10:04:27.999Z</time></trkpt><trkpt lat="45.4974439" lon="11.7388727"><ele>19.0</ele><time>2026-05-02T10:04:29.991Z</time></trkpt><trkpt lat="45.4973637" lon="11.7387961"><ele>19.0</ele><time>2026-05-02T10:04:31.987Z</time></trkpt><trkpt lat="45.49728" lon="11.7387195"><ele>19.0</ele><time>2026-05-02T10:04:33.99Z</time></trkpt><trkpt lat="45.4972055" lon="11.7386494"><ele>19.0</ele><time>2026-05-02T10:04:35.994Z</time></trkpt><trkpt lat="45.4971321" lon="11.7385873"><ele>19.0</ele><time>2026-05-02T10:04:37.988Z</time></trkpt><trkpt lat="45.4970777" lon="11.7385293"><ele>19.0</ele><time>2026-05-02T10:04:39.989Z</time></trkpt><trkpt lat="45.4970266" lon="11.7384755"><ele>19.333333333333332</ele><time>2026-05-02T10:04:42.011Z</time></trkpt><trkpt lat="45.4969773" lon="11.7384169"><ele>19.666666666666664</ele><time>2026-05-02T10:04:43.98Z</time></trkpt><trkpt lat="45.4969218" lon="11.7383603"><ele>20.0</ele><time>2026-05-02T10:04:45.989Z</time></trkpt><trkpt lat="45.4968629" lon="11.7382936"><ele>20.333333333333332</ele><time>2026-05-02T10:04:47.992Z</time></trkpt><trkpt lat="45.4968046" lon="11.7382125"><ele>20.666666666666668</ele><time>2026-05-02T10:04:49.988Z</time></trkpt><trkpt lat="45.496705" lon="11.7381378"><ele>21.0</ele><time>2026-05-02T10:04:51.969Z</time></trkpt><trkpt lat="45.4966128" lon="11.7380579"><ele>21.0</ele><time>2026-05-02T10:04:53.993Z</time></trkpt><trkpt lat="45.4965273" lon="11.7379862"><ele>21.0</ele><time>2026-05-02T10:04:55.995Z</time></trkpt><trkpt lat="45.4964599" lon="11.7379216"><ele>21.0</ele><time>2026-05-02T10:04:57.98Z</time></trkpt><trkpt lat="45.4963856" lon="11.737851"><ele>21.0</ele><time>2026-05-02T10:04:59.994Z</time></trkpt><trkpt lat="45.4963112" lon="11.7377792"><ele>21.0</ele><time>2026-05-02T10:05:01.996Z</time></trkpt><trkpt lat="45.496236" lon="11.7377079"><ele>21.0</ele><time>2026-05-02T10:05:03.985Z</time></trkpt><trkpt lat="45.4961779" lon="11.7376409"><ele>21.0</ele><time>2026-05-02T10:05:05.992Z</time></trkpt><trkpt lat="45.4961075" lon="11.7375818"><ele>21.0</ele><time>2026-05-02T10:05:07.996Z</time></trkpt><trkpt lat="45.4960306" lon="11.737505"><ele>21.0</ele><time>2026-05-02T10:05:09.984Z</time></trkpt><trkpt lat="45.4959498" lon="11.7374259"><ele>21.0</ele><time>2026-05-02T10:05:11.981Z</time></trkpt><trkpt lat="45.4958744" lon="11.7373564"><ele>21.0</ele><time>2026-05-02T10:05:13.983Z</time></trkpt><trkpt lat="45.4958013" lon="11.7372802"><ele>21.0</ele><time>2026-05-02T10:05:15.997Z</time></trkpt><trkpt lat="45.4957259" lon="11.7372119"><ele>21.0</ele><time>2026-05-02T10:05:17.995Z</time></trkpt><trkpt lat="45.4956515" lon="11.7371488"><ele>21.0</ele><time>2026-05-02T10:05:19.985Z</time></trkpt><trkpt lat="45.4955797" lon="11.7370812"><ele>21.0</ele><time>2026-05-02T10:05:21.992Z</time></trkpt><trkpt lat="45.4955054" lon="11.7370148"><ele>21.0</ele><time>2026-05-02T10:05:23.986Z</time></trkpt><trkpt lat="45.4954346" lon="11.7369348"><ele>21.0</ele><time>2026-05-02T10:05:25.986Z</time></trkpt><trkpt lat="45.4953626" lon="11.7368721"><ele>20.571428571428573</ele><time>2026-05-02T10:05:28.03Z</time></trkpt><trkpt lat="45.4953052" lon="11.7368095"><ele>20.142857142857142</ele><time>2026-05-02T10:05:29.985Z</time></trkpt><trkpt lat="45.4952523" lon="11.736748"><ele>19.714285714285715</ele><time>2026-05-02T10:05:31.987Z</time></trkpt><trkpt lat="45.4952009" lon="11.7366819"><ele>19.285714285714285</ele><time>2026-05-02T10:05:33.988Z</time></trkpt><trkpt lat="45.4951443" lon="11.7366298"><ele>18.857142857142858</ele><time>2026-05-02T10:05:35.986Z</time></trkpt><trkpt lat="45.495083" lon="11.7365704"><ele>18.42857142857143</ele><time>2026-05-02T10:05:37.993Z</time></trkpt><trkpt lat="45.495029" lon="11.73651"><ele>18.0</ele><time>2026-05-02T10:05:39.992Z</time></trkpt><trkpt lat="45.4949542" lon="11.7364637"><ele>18.0</ele><time>2026-05-02T10:05:41.991Z</time></trkpt><trkpt lat="45.4948751" lon="11.7363895"><ele>18.0</ele><time>2026-05-02T10:05:43.979Z</time></trkpt><trkpt lat="45.4947871" lon="11.7363112"><ele>18.0</ele><time>2026-05-02T10:05:45.987Z</time></trkpt><trkpt lat="45.4947024" lon="11.7362391"><ele>18.0</ele><time>2026-05-02T10:05:47.983Z</time></trkpt><trkpt lat="45.4946162" lon="11.7361628"><ele>18.0</ele><time>2026-05-02T10:05:49.988Z</time></trkpt><trkpt lat="45.494529" lon="11.7360889"><ele>18.5</ele><time>2026-05-02T10:05:51.99Z</time></trkpt><trkpt lat="45.4944472" lon="11.7360198"><ele>19.0</ele><time>2026-05-02T10:05:53.989Z</time></trkpt><trkpt lat="45.4943837" lon="11.7359492"><ele>19.5</ele><time>2026-05-02T10:05:55.989Z</time></trkpt><trkpt lat="45.4943208" lon="11.7358882"><ele>20.0</ele><time>2026-05-02T10:05:57.986Z</time></trkpt><trkpt lat="45.4942533" lon="11.7358264"><ele>20.5</ele><time>2026-05-02T10:05:59.99Z</time></trkpt><trkpt lat="45.4941974" lon="11.7357532"><ele>21.0</ele><time>2026-05-02T10:06:02.983Z</time></trkpt><trkpt lat="45.4941429" lon="11.7356783"><ele>21.0</ele><time>2026-05-02T10:06:06.989Z</time></trkpt><trkpt lat="45.4940796" lon="11.7356084"><ele>21.0</ele><time>2026-05-02T10:06:09.984Z</time></trkpt><trkpt lat="45.4940192" lon="11.7355362"><ele>21.0</ele><time>2026-05-02T10:06:12.978Z</time></trkpt><trkpt lat="45.4939443" lon="11.7354533"><ele>21.0</ele><time>2026-05-02T10:06:15.991Z</time></trkpt><trkpt lat="45.4938551" lon="11.7353983"><ele>21.0</ele><time>2026-05-02T10:06:17.99Z</time></trkpt><trkpt lat="45.4937648" lon="11.7353301"><ele>20.8</ele><time>2026-05-02T10:06:19.99Z</time></trkpt><trkpt lat="45.4936816" lon="11.7352602"><ele>20.6</ele><time>2026-05-02T10:06:21.985Z</time></trkpt><trkpt lat="45.4936095" lon="11.7351851"><ele>20.4</ele><time>2026-05-02T10:06:23.994Z</time></trkpt><trkpt lat="45.4935302" lon="11.7351135"><ele>20.2</ele><time>2026-05-02T10:06:25.991Z</time></trkpt><trkpt lat="45.4934536" lon="11.7350366"><ele>20.0</ele><time>2026-05-02T10:06:27.981Z</time></trkpt><trkpt lat="45.4933753" lon="11.7349731"><ele>20.0</ele><time>2026-05-02T10:06:29.989Z</time></trkpt><trkpt lat="45.4933052" lon="11.7349076"><ele>20.0</ele><time>2026-05-02T10:06:31.988Z</time></trkpt><trkpt lat="45.4932474" lon="11.7348504"><ele>20.0</ele><time>2026-05-02T10:06:33.976Z</time></trkpt><trkpt lat="45.493193" lon="11.7347855"><ele>20.0</ele><time>2026-05-02T10:06:35.974Z</time></trkpt><trkpt lat="45.4931275" lon="11.7347255"><ele>20.0</ele><time>2026-05-02T10:06:37.987Z</time></trkpt><trkpt lat="45.493047" lon="11.734671"><ele>20.0</ele><time>2026-05-02T10:06:39.987Z</time></trkpt><trkpt lat="45.4929625" lon="11.7346001"><ele>20.0</ele><time>2026-05-02T10:06:41.984Z</time></trkpt><trkpt lat="45.4928894" lon="11.7345121"><ele>20.0</ele><time>2026-05-02T10:06:43.982Z</time></trkpt><trkpt lat="45.4928112" lon="11.7344285"><ele>20.0</ele><time>2026-05-02T10:06:45.985Z</time></trkpt><trkpt lat="45.492733" lon="11.7343619"><ele>20.0</ele><time>2026-05-02T10:06:47.984Z</time></trkpt><trkpt lat="45.4926599" lon="11.7342861"><ele>20.0</ele><time>2026-05-02T10:06:49.995Z</time></trkpt><trkpt lat="45.4925824" lon="11.7342164"><ele>20.0</ele><time>2026-05-02T10:06:51.996Z</time></trkpt><trkpt lat="45.4925103" lon="11.7341482"><ele>20.0</ele><time>2026-05-02T10:06:53.989Z</time></trkpt><trkpt lat="45.4924391" lon="11.7340664"><ele>20.0</ele><time>2026-05-02T10:06:55.986Z</time></trkpt><trkpt lat="45.4923718" lon="11.7340023"><ele>20.0</ele><time>2026-05-02T10:06:57.992Z</time></trkpt><trkpt lat="45.4923057" lon="11.7339418"><ele>20.0</ele><time>2026-05-02T10:06:59.997Z</time></trkpt><trkpt lat="45.4922437" lon="11.7338667"><ele>20.0</ele><time>2026-05-02T10:07:01.986Z</time></trkpt><trkpt lat="45.4921837" lon="11.7338119"><ele>20.0</ele><time>2026-05-02T10:07:03.992Z</time></trkpt><trkpt lat="45.4921172" lon="11.7337498"><ele>20.0</ele><time>2026-05-02T10:07:06.994Z</time></trkpt><trkpt lat="45.492059" lon="11.7336977"><ele>20.0</ele><time>2026-05-02T10:07:10.986Z</time></trkpt><trkpt lat="45.492003" lon="11.7336258"><ele>20.0</ele><time>2026-05-02T10:07:14.991Z</time></trkpt><trkpt lat="45.491925" lon="11.7335542"><ele>20.0</ele><time>2026-05-02T10:07:17.986Z</time></trkpt><trkpt lat="45.4918587" lon="11.7334983"><ele>20.0</ele><time>2026-05-02T10:07:19.984Z</time></trkpt><trkpt lat="45.4917786" lon="11.7334446"><ele>20.333333333333336</ele><time>2026-05-02T10:07:21.981Z</time></trkpt><trkpt lat="45.4917084" lon="11.7333779"><ele>20.666666666666668</ele><time>2026-05-02T10:07:23.993Z</time></trkpt><trkpt lat="45.4916337" lon="11.7333233"><ele>21.0</ele><time>2026-05-02T10:07:25.992Z</time></trkpt><trkpt lat="45.4915654" lon="11.7332504"><ele>21.333333333333332</ele><time>2026-05-02T10:07:27.978Z</time></trkpt><trkpt lat="45.4914972" lon="11.733185"><ele>21.666666666666664</ele><time>2026-05-02T10:07:29.99Z</time></trkpt><trkpt lat="45.4914296" lon="11.7331157"><ele>22.0</ele><time>2026-05-02T10:07:31.988Z</time></trkpt><trkpt lat="45.4913686" lon="11.7330546"><ele>22.0</ele><time>2026-05-02T10:07:33.983Z</time></trkpt><trkpt lat="45.4913075" lon="11.7329939"><ele>22.0</ele><time>2026-05-02T10:07:35.989Z</time></trkpt><trkpt lat="45.4912511" lon="11.7329321"><ele>22.0</ele><time>2026-05-02T10:07:37.988Z</time></trkpt><trkpt lat="45.4911957" lon="11.7328754"><ele>22.0</ele><time>2026-05-02T10:07:39.991Z</time></trkpt><trkpt lat="45.4911374" lon="11.7328159"><ele>22.0</ele><time>2026-05-02T10:07:41.991Z</time></trkpt><trkpt lat="45.4910635" lon="11.7327598"><ele>22.0</ele><time>2026-05-02T10:07:43.992Z</time></trkpt><trkpt lat="45.4909893" lon="11.7326899"><ele>22.0</ele><time>2026-05-02T10:07:45.991Z</time></trkpt><trkpt lat="45.4909125" lon="11.7326172"><ele>22.0</ele><time>2026-05-02T10:07:47.984Z</time></trkpt><trkpt lat="45.4908344" lon="11.7325342"><ele>22.0</ele><time>2026-05-02T10:07:49.985Z</time></trkpt><trkpt lat="45.4907546" lon="11.7324511"><ele>22.0</ele><time>2026-05-02T10:07:51.986Z</time></trkpt><trkpt lat="45.4906793" lon="11.732371"><ele>22.0</ele><time>2026-05-02T10:07:53.988Z</time></trkpt><trkpt lat="45.4906008" lon="11.7322945"><ele>22.0</ele><time>2026-05-02T10:07:55.993Z</time></trkpt><trkpt lat="45.4905204" lon="11.7322213"><ele>22.0</ele><time>2026-05-02T10:07:57.978Z</time></trkpt><trkpt lat="45.4904311" lon="11.7321396"><ele>22.0</ele><time>2026-05-02T10:07:59.989Z</time></trkpt><trkpt lat="45.4903803" lon="11.732078"><ele>22.0</ele><time>2026-05-02T10:08:00.993Z</time></trkpt><trkpt lat="45.4903154" lon="11.7320141"><ele>22.0</ele><time>2026-05-02T10:08:01.982Z</time></trkpt><trkpt lat="45.4902344" lon="11.7319464"><ele>22.0</ele><time>2026-05-02T10:08:02.988Z</time></trkpt><trkpt lat="45.4901611" lon="11.7318824"><ele>21.666666666666664</ele><time>2026-05-02T10:08:03.99Z</time></trkpt><trkpt lat="45.4900891" lon="11.7318163"><ele>21.333333333333332</ele><time>2026-05-02T10:08:04.994Z</time></trkpt><trkpt lat="45.4900229" lon="11.731748"><ele>21.0</ele><time>2026-05-02T10:08:05.993Z</time></trkpt><trkpt lat="45.4899572" lon="11.731685"><ele>20.666666666666668</ele><time>2026-05-02T10:08:06.986Z</time></trkpt><trkpt lat="45.489891" lon="11.7316216"><ele>20.333333333333336</ele><time>2026-05-02T10:08:07.99Z</time></trkpt><trkpt lat="45.489823" lon="11.7315638"><ele>20.0</ele><time>2026-05-02T10:08:08.989Z</time></trkpt><trkpt lat="45.4897596" lon="11.7315138"><ele>20.0</ele><time>2026-05-02T10:08:09.991Z</time></trkpt><trkpt lat="45.4897004" lon="11.7314593"><ele>20.0</ele><time>2026-05-02T10:08:10.984Z</time></trkpt><trkpt lat="45.4896452" lon="11.7314036"><ele>20.0</ele><time>2026-05-02T10:08:11.981Z</time></trkpt><trkpt lat="45.4895877" lon="11.7313512"><ele>20.0</ele><time>2026-05-02T10:08:12.987Z</time></trkpt><trkpt lat="45.4895329" lon="11.7313022"><ele>20.0</ele><time>2026-05-02T10:08:13.975Z</time></trkpt><trkpt lat="45.4894409" lon="11.7312032"><ele>20.0</ele><time>2026-05-02T10:08:15.991Z</time></trkpt><trkpt lat="45.4893464" lon="11.7311089"><ele>20.0</ele><time>2026-05-02T10:08:17.985Z</time></trkpt><trkpt lat="45.4892576" lon="11.7310177"><ele>20.0</ele><time>2026-05-02T10:08:19.984Z</time></trkpt><trkpt lat="45.4891768" lon="11.7309386"><ele>20.0</ele><time>2026-05-02T10:08:21.971Z</time></trkpt><trkpt lat="45.489117" lon="11.7308718"><ele>20.0</ele><time>2026-05-02T10:08:23.991Z</time></trkpt><trkpt lat="45.4890553" lon="11.7307994"><ele>20.0</ele><time>2026-05-02T10:08:26.998Z</time></trkpt><trkpt lat="45.4890034" lon="11.7307247"><ele>20.0</ele><time>2026-05-02T10:08:29.979Z</time></trkpt><trkpt lat="45.4889911" lon="11.7306256"><ele>20.0</ele><time>2026-05-02T10:08:34.974Z</time></trkpt><trkpt lat="45.4889973" lon="11.7305089"><ele>20.0</ele><time>2026-05-02T10:08:38.978Z</time></trkpt><trkpt lat="45.4889449" lon="11.7304522"><ele>20.0</ele><time>2026-05-02T10:08:42.986Z</time></trkpt><trkpt lat="45.4888821" lon="11.7303956"><ele>20.0</ele><time>2026-05-02T10:08:46.988Z</time></trkpt><trkpt lat="45.4888179" lon="11.7303319"><ele>20.0</ele><time>2026-05-02T10:08:49.991Z</time></trkpt><trkpt lat="45.4887735" lon="11.7302671"><ele>20.0</ele><time>2026-05-02T10:08:52.989Z</time></trkpt><trkpt lat="45.4887129" lon="11.7301931"><ele>20.0</ele><time>2026-05-02T10:08:56.985Z</time></trkpt><trkpt lat="45.4886475" lon="11.7301196"><ele>20.0</ele><time>2026-05-02T10:08:59.988Z</time></trkpt><trkpt lat="45.4885856" lon="11.7300625"><ele>20.0</ele><time>2026-05-02T10:09:01.991Z</time></trkpt><trkpt lat="45.4885086" lon="11.7300103"><ele>20.0</ele><time>2026-05-02T10:09:03.989Z</time></trkpt><trkpt lat="45.4884394" lon="11.729954"><ele>20.0</ele><time>2026-05-02T10:09:05.988Z</time></trkpt><trkpt lat="45.4883684" lon="11.7298852"><ele>20.0</ele><time>2026-05-02T10:09:07.992Z</time></trkpt><trkpt lat="45.4882906" lon="11.7298148"><ele>20.0</ele><time>2026-05-02T10:09:09.995Z</time></trkpt><trkpt lat="45.4882115" lon="11.7297515"><ele>20.0</ele><time>2026-05-02T10:09:11.994Z</time></trkpt><trkpt lat="45.48814" lon="11.7296709"><ele>20.0</ele><time>2026-05-02T10:09:13.994Z</time></trkpt><trkpt lat="45.4880689" lon="11.7295921"><ele>20.0</ele><time>2026-05-02T10:09:15.99Z</time></trkpt><trkpt lat="45.4879952" lon="11.729511"><ele>20.0</ele><time>2026-05-02T10:09:17.986Z</time></trkpt><trkpt lat="45.4879251" lon="11.7294365"><ele>20.0</ele><time>2026-05-02T10:09:19.986Z</time></trkpt><trkpt lat="45.4878692" lon="11.7293594"><ele>20.0</ele><time>2026-05-02T10:09:21.991Z</time></trkpt><trkpt lat="45.4878024" lon="11.7292958"><ele>20.166666666666668</ele><time>2026-05-02T10:09:23.976Z</time></trkpt><trkpt lat="45.4877292" lon="11.7292349"><ele>20.333333333333336</ele><time>2026-05-02T10:09:25.994Z</time></trkpt><trkpt lat="45.487669" lon="11.7291776"><ele>20.5</ele><time>2026-05-02T10:09:27.986Z</time></trkpt><trkpt lat="45.4876111" lon="11.7291037"><ele>20.666666666666668</ele><time>2026-05-02T10:09:30.993Z</time></trkpt><trkpt lat="45.487543" lon="11.7290579"><ele>20.833333333333332</ele><time>2026-05-02T10:11:07.998Z</time></trkpt><trkpt lat="45.4875122" lon="11.7289656"><ele>21.0</ele><time>2026-05-02T10:11:10.989Z</time></trkpt><trkpt lat="45.4874853" lon="11.7288742"><ele>21.0</ele><time>2026-05-02T10:11:12.997Z</time></trkpt><trkpt lat="45.4874373" lon="11.7287663"><ele>21.0</ele><time>2026-05-02T10:11:14.977Z</time></trkpt><trkpt lat="45.4873995" lon="11.7286473"><ele>21.0</ele><time>2026-05-02T10:11:16.993Z</time></trkpt><trkpt lat="45.487343" lon="11.7285443"><ele>21.0</ele><time>2026-05-02T10:11:18.992Z</time></trkpt><trkpt lat="45.4872793" lon="11.7284395"><ele>21.0</ele><time>2026-05-02T10:11:20.99Z</time></trkpt><trkpt lat="45.4872161" lon="11.728344"><ele>21.0</ele><time>2026-05-02T10:11:22.997Z</time></trkpt><trkpt lat="45.4871501" lon="11.7282621"><ele>21.0</ele><time>2026-05-02T10:11:24.987Z</time></trkpt><trkpt lat="45.4870946" lon="11.7281696"><ele>21.0</ele><time>2026-05-02T10:11:26.993Z</time></trkpt><trkpt lat="45.4870406" lon="11.7280872"><ele>21.0</ele><time>2026-05-02T10:11:28.99Z</time></trkpt><trkpt lat="45.4869897" lon="11.7280051"><ele>21.0</ele><time>2026-05-02T10:11:30.995Z</time></trkpt><trkpt lat="45.4869294" lon="11.7279161"><ele>21.0</ele><time>2026-05-02T10:11:32.988Z</time></trkpt><trkpt lat="45.4868631" lon="11.7278235"><ele>21.0</ele><time>2026-05-02T10:11:34.984Z</time></trkpt><trkpt lat="45.4867979" lon="11.7277316"><ele>21.0</ele><time>2026-05-02T10:11:36.985Z</time></trkpt><trkpt lat="45.4867426" lon="11.7276313"><ele>21.0</ele><time>2026-05-02T10:11:38.991Z</time></trkpt><trkpt lat="45.4866989" lon="11.7275394"><ele>21.0</ele><time>2026-05-02T10:11:40.988Z</time></trkpt><trkpt lat="45.4866455" lon="11.7274356"><ele>21.0</ele><time>2026-05-02T10:11:42.98Z</time></trkpt><trkpt lat="45.4865888" lon="11.727338"><ele>21.0</ele><time>2026-05-02T10:11:44.992Z</time></trkpt><trkpt lat="45.4865381" lon="11.727225"><ele>21.0</ele><time>2026-05-02T10:11:46.997Z</time></trkpt><trkpt lat="45.486489" lon="11.7271155"><ele>21.0</ele><time>2026-05-02T10:11:48.991Z</time></trkpt><trkpt lat="45.4864445" lon="11.7269977"><ele>21.0</ele><time>2026-05-02T10:11:50.993Z</time></trkpt><trkpt lat="45.4864018" lon="11.7268891"><ele>21.0</ele><time>2026-05-02T10:11:52.991Z</time></trkpt><trkpt lat="45.486357" lon="11.726771"><ele>21.0</ele><time>2026-05-02T10:11:54.987Z</time></trkpt><trkpt lat="45.4863192" lon="11.7266652"><ele>21.0</ele><time>2026-05-02T10:11:56.991Z</time></trkpt><trkpt lat="45.4862839" lon="11.7265594"><ele>21.0</ele><time>2026-05-02T10:11:58.973Z</time></trkpt><trkpt lat="45.4862531" lon="11.7264523"><ele>21.0</ele><time>2026-05-02T10:12:00.991Z</time></trkpt><trkpt lat="45.4862329" lon="11.7263659"><ele>21.0</ele><time>2026-05-02T10:12:02.989Z</time></trkpt><trkpt lat="45.4861965" lon="11.7262445"><ele>21.0</ele><time>2026-05-02T10:12:05.975Z</time></trkpt><trkpt lat="45.4861783" lon="11.7261286"><ele>21.0</ele><time>2026-05-02T10:12:08.993Z</time></trkpt><trkpt lat="45.4861653" lon="11.7260405"><ele>21.166666666666668</ele><time>2026-05-02T10:12:10.993Z</time></trkpt><trkpt lat="45.4861529" lon="11.7259405"><ele>21.333333333333332</ele><time>2026-05-02T10:12:12.996Z</time></trkpt><trkpt lat="45.4861254" lon="11.725835"><ele>21.5</ele><time>2026-05-02T10:12:14.985Z</time></trkpt><trkpt lat="45.4860975" lon="11.7257098"><ele>21.666666666666664</ele><time>2026-05-02T10:12:16.984Z</time></trkpt><trkpt lat="45.4860654" lon="11.7255827"><ele>21.833333333333332</ele><time>2026-05-02T10:12:18.983Z</time></trkpt><trkpt lat="45.4860346" lon="11.7254655"><ele>22.0</ele><time>2026-05-02T10:12:20.984Z</time></trkpt><trkpt lat="45.486004" lon="11.7253454"><ele>22.0</ele><time>2026-05-02T10:12:22.983Z</time></trkpt><trkpt lat="45.4859677" lon="11.7252323"><ele>22.0</ele><time>2026-05-02T10:12:24.993Z</time></trkpt><trkpt lat="45.4859432" lon="11.7251097"><ele>22.0</ele><time>2026-05-02T10:12:26.983Z</time></trkpt><trkpt lat="45.485911" lon="11.7249868"><ele>22.0</ele><time>2026-05-02T10:12:28.985Z</time></trkpt><trkpt lat="45.4858886" lon="11.7248653"><ele>22.0</ele><time>2026-05-02T10:12:30.991Z</time></trkpt><trkpt lat="45.485865" lon="11.7247445"><ele>22.0</ele><time>2026-05-02T10:12:32.987Z</time></trkpt><trkpt lat="45.4858442" lon="11.7246209"><ele>21.833333333333332</ele><time>2026-05-02T10:12:34.992Z</time></trkpt><trkpt lat="45.4858232" lon="11.7244961"><ele>21.666666666666664</ele><time>2026-05-02T10:12:36.988Z</time></trkpt><trkpt lat="45.4858022" lon="11.7243755"><ele>21.5</ele><time>2026-05-02T10:12:38.989Z</time></trkpt><trkpt lat="45.4857843" lon="11.7242696"><ele>21.333333333333332</ele><time>2026-05-02T10:12:40.984Z</time></trkpt><trkpt lat="45.4857931" lon="11.7241633"><ele>21.166666666666668</ele><time>2026-05-02T10:12:42.984Z</time></trkpt><trkpt lat="45.4858295" lon="11.7240732"><ele>21.0</ele><time>2026-05-02T10:12:44.979Z</time></trkpt><trkpt lat="45.4858672" lon="11.723967"><ele>21.0</ele><time>2026-05-02T10:12:47.984Z</time></trkpt><trkpt lat="45.4858388" lon="11.7238521"><ele>21.0</ele><time>2026-05-02T10:12:50.993Z</time></trkpt><trkpt lat="45.4857659" lon="11.7238145"><ele>21.0</ele><time>2026-05-02T10:12:53.981Z</time></trkpt><trkpt lat="45.4856928" lon="11.723814"><ele>21.0</ele><time>2026-05-02T10:12:55.989Z</time></trkpt><trkpt lat="45.4856362" lon="11.7237043"><ele>21.0</ele><time>2026-05-02T10:12:57.992Z</time></trkpt><trkpt lat="45.4856074" lon="11.7236022"><ele>21.0</ele><time>2026-05-02T10:12:59.98Z</time></trkpt><trkpt lat="45.4855775" lon="11.7235022"><ele>21.166666666666668</ele><time>2026-05-02T10:13:01.99Z</time></trkpt><trkpt lat="45.4855559" lon="11.7234013"><ele>21.333333333333332</ele><time>2026-05-02T10:13:03.995Z</time></trkpt><trkpt lat="45.4855308" lon="11.7232883"><ele>21.5</ele><time>2026-05-02T10:13:05.993Z</time></trkpt><trkpt lat="45.4854999" lon="11.7231587"><ele>21.666666666666664</ele><time>2026-05-02T10:13:07.993Z</time></trkpt><trkpt lat="45.4854704" lon="11.7230392"><ele>21.833333333333332</ele><time>2026-05-02T10:13:09.995Z</time></trkpt><trkpt lat="45.4854386" lon="11.722919"><ele>22.0</ele><time>2026-05-02T10:13:11.985Z</time></trkpt><trkpt lat="45.4854052" lon="11.722793"><ele>21.833333333333332</ele><time>2026-05-02T10:13:13.988Z</time></trkpt><trkpt lat="45.4853792" lon="11.722682"><ele>21.666666666666664</ele><time>2026-05-02T10:13:15.991Z</time></trkpt><trkpt lat="45.4853627" lon="11.7225574"><ele>21.5</ele><time>2026-05-02T10:13:17.992Z</time></trkpt><trkpt lat="45.4853375" lon="11.7224349"><ele>21.333333333333332</ele><time>2026-05-02T10:13:19.986Z</time></trkpt><trkpt lat="45.4853112" lon="11.7223167"><ele>21.166666666666668</ele><time>2026-05-02T10:13:21.991Z</time></trkpt><trkpt lat="45.4852808" lon="11.7221946"><ele>21.0</ele><time>2026-05-02T10:13:23.979Z</time></trkpt><trkpt lat="45.4852554" lon="11.7220768"><ele>21.0</ele><time>2026-05-02T10:13:25.994Z</time></trkpt><trkpt lat="45.4852326" lon="11.7219626"><ele>21.0</ele><time>2026-05-02T10:13:27.992Z</time></trkpt><trkpt lat="45.4852071" lon="11.7218466"><ele>21.0</ele><time>2026-05-02T10:13:29.986Z</time></trkpt><trkpt lat="45.4851879" lon="11.7217437"><ele>21.0</ele><time>2026-05-02T10:13:31.995Z</time></trkpt><trkpt lat="45.4851599" lon="11.72163"><ele>21.0</ele><time>2026-05-02T10:13:33.987Z</time></trkpt><trkpt lat="45.48513" lon="11.721503"><ele>21.0</ele><time>2026-05-02T10:13:35.986Z</time></trkpt><trkpt lat="45.4851083" lon="11.7213772"><ele>21.0</ele><time>2026-05-02T10:13:37.992Z</time></trkpt><trkpt lat="45.4850826" lon="11.7212538"><ele>21.0</ele><time>2026-05-02T10:13:39.995Z</time></trkpt><trkpt lat="45.4850547" lon="11.7211316"><ele>21.0</ele><time>2026-05-02T10:13:41.993Z</time></trkpt><trkpt lat="45.4850418" lon="11.7210144"><ele>21.0</ele><time>2026-05-02T10:13:43.988Z</time></trkpt><trkpt lat="45.4850313" lon="11.720911"><ele>21.0</ele><time>2026-05-02T10:13:45.978Z</time></trkpt><trkpt lat="45.4850052" lon="11.720795"><ele>21.0</ele><time>2026-05-02T10:13:47.992Z</time></trkpt><trkpt lat="45.4849756" lon="11.7206654"><ele>21.0</ele><time>2026-05-02T10:13:49.975Z</time></trkpt><trkpt lat="45.4849415" lon="11.7205512"><ele>21.0</ele><time>2026-05-02T10:13:51.99Z</time></trkpt><trkpt lat="45.4849152" lon="11.720432"><ele>21.0</ele><time>2026-05-02T10:13:53.992Z</time></trkpt><trkpt lat="45.4848923" lon="11.7203214"><ele>21.0</ele><time>2026-05-02T10:13:55.994Z</time></trkpt><trkpt lat="45.484866" lon="11.7202164"><ele>21.0</ele><time>2026-05-02T10:13:57.987Z</time></trkpt><trkpt lat="45.4848439" lon="11.7200936"><ele>21.0</ele><time>2026-05-02T10:13:59.985Z</time></trkpt><trkpt lat="45.4848147" lon="11.7199714"><ele>21.0</ele><time>2026-05-02T10:14:01.991Z</time></trkpt><trkpt lat="45.4848108" lon="11.7198448"><ele>21.0</ele><time>2026-05-02T10:14:03.987Z</time></trkpt><trkpt lat="45.4848151" lon="11.7197267"><ele>21.0</ele><time>2026-05-02T10:14:05.995Z</time></trkpt><trkpt lat="45.4848144" lon="11.7196096"><ele>21.0</ele><time>2026-05-02T10:14:07.994Z</time></trkpt><trkpt lat="45.4848052" lon="11.7194971"><ele>21.0</ele><time>2026-05-02T10:14:09.992Z</time></trkpt><trkpt lat="45.4847932" lon="11.7193726"><ele>21.0</ele><time>2026-05-02T10:14:11.993Z</time></trkpt><trkpt lat="45.4847844" lon="11.7192439"><ele>21.0</ele><time>2026-05-02T10:14:13.98Z</time></trkpt><trkpt lat="45.4847801" lon="11.7191193"><ele>21.0</ele><time>2026-05-02T10:14:15.995Z</time></trkpt><trkpt lat="45.484777" lon="11.7190025"><ele>21.0</ele><time>2026-05-02T10:14:17.986Z</time></trkpt><trkpt lat="45.4847762" lon="11.7188882"><ele>21.0</ele><time>2026-05-02T10:14:19.998Z</time></trkpt><trkpt lat="45.4847695" lon="11.7187692"><ele>21.0</ele><time>2026-05-02T10:14:21.99Z</time></trkpt><trkpt lat="45.4847573" lon="11.7186645"><ele>21.0</ele><time>2026-05-02T10:14:23.993Z</time></trkpt><trkpt lat="45.4847513" lon="11.7185657"><ele>21.285714285714285</ele><time>2026-05-02T10:14:25.99Z</time></trkpt><trkpt lat="45.4847481" lon="11.718462"><ele>21.57142857142857</ele><time>2026-05-02T10:14:27.995Z</time></trkpt><trkpt lat="45.4847429" lon="11.7183528"><ele>21.857142857142858</ele><time>2026-05-02T10:14:29.989Z</time></trkpt><trkpt lat="45.4847413" lon="11.7182511"><ele>22.142857142857142</ele><time>2026-05-02T10:14:31.99Z</time></trkpt><trkpt lat="45.4847411" lon="11.7181561"><ele>22.428571428571427</ele><time>2026-05-02T10:14:33.987Z</time></trkpt><trkpt lat="45.4847401" lon="11.7180631"><ele>22.714285714285715</ele><time>2026-05-02T10:14:35.98Z</time></trkpt><trkpt lat="45.4847388" lon="11.7179708"><ele>23.0</ele><time>2026-05-02T10:14:37.984Z</time></trkpt><trkpt lat="45.4847258" lon="11.7178743"><ele>23.0</ele><time>2026-05-02T10:14:39.973Z</time></trkpt><trkpt lat="45.4847159" lon="11.7177715"><ele>23.0</ele><time>2026-05-02T10:14:41.986Z</time></trkpt><trkpt lat="45.4847066" lon="11.7176736"><ele>23.0</ele><time>2026-05-02T10:14:43.998Z</time></trkpt><trkpt lat="45.484702" lon="11.7175815"><ele>23.0</ele><time>2026-05-02T10:14:45.992Z</time></trkpt><trkpt lat="45.4847012" lon="11.7174865"><ele>23.0</ele><time>2026-05-02T10:14:47.987Z</time></trkpt><trkpt lat="45.4846976" lon="11.7173875"><ele>23.0</ele><time>2026-05-02T10:14:49.984Z</time></trkpt><trkpt lat="45.4846876" lon="11.7172889"><ele>23.0</ele><time>2026-05-02T10:14:51.986Z</time></trkpt><trkpt lat="45.4846789" lon="11.7171958"><ele>23.0</ele><time>2026-05-02T10:14:53.984Z</time></trkpt><trkpt lat="45.4846602" lon="11.7171049"><ele>23.0</ele><time>2026-05-02T10:14:55.986Z</time></trkpt><trkpt lat="45.4846351" lon="11.7170003"><ele>23.0</ele><time>2026-05-02T10:14:57.993Z</time></trkpt><trkpt lat="45.4846125" lon="11.7169115"><ele>23.0</ele><time>2026-05-02T10:14:59.995Z</time></trkpt><trkpt lat="45.484589" lon="11.7168181"><ele>23.0</ele><time>2026-05-02T10:15:01.989Z</time></trkpt><trkpt lat="45.4845525" lon="11.7167195"><ele>23.0</ele><time>2026-05-02T10:15:04.992Z</time></trkpt><trkpt lat="45.4845189" lon="11.7166376"><ele>23.0</ele><time>2026-05-02T10:15:07.984Z</time></trkpt><trkpt lat="45.4845029" lon="11.7165396"><ele>23.166666666666668</ele><time>2026-05-02T10:15:10.985Z</time></trkpt><trkpt lat="45.4845132" lon="11.7164377"><ele>23.333333333333336</ele><time>2026-05-02T10:15:13.982Z</time></trkpt><trkpt lat="45.4845368" lon="11.7163337"><ele>23.5</ele><time>2026-05-02T10:15:17.989Z</time></trkpt><trkpt lat="45.4845984" lon="11.7162325"><ele>23.666666666666668</ele><time>2026-05-02T10:15:20.982Z</time></trkpt><trkpt lat="45.4846378" lon="11.7161549"><ele>23.833333333333332</ele><time>2026-05-02T10:15:22.99Z</time></trkpt><trkpt lat="45.4846791" lon="11.716065"><ele>24.0</ele><time>2026-05-02T10:15:24.995Z</time></trkpt><trkpt lat="45.4847259" lon="11.7159323"><ele>24.0</ele><time>2026-05-02T10:15:26.981Z</time></trkpt><trkpt lat="45.4847788" lon="11.7158033"><ele>24.0</ele><time>2026-05-02T10:15:28.978Z</time></trkpt><trkpt lat="45.4848082" lon="11.7157205"><ele>24.0</ele><time>2026-05-02T10:15:29.994Z</time></trkpt><trkpt lat="45.4848737" lon="11.7155789"><ele>24.0</ele><time>2026-05-02T10:15:31.989Z</time></trkpt><trkpt lat="45.4849081" lon="11.7154854"><ele>24.0</ele><time>2026-05-02T10:15:32.988Z</time></trkpt><trkpt lat="45.4849398" lon="11.7153966"><ele>24.0</ele><time>2026-05-02T10:15:33.991Z</time></trkpt><trkpt lat="45.4849749" lon="11.7153044"><ele>23.833333333333332</ele><time>2026-05-02T10:15:34.979Z</time></trkpt><trkpt lat="45.4850112" lon="11.7152077"><ele>23.666666666666668</ele><time>2026-05-02T10:15:35.986Z</time></trkpt><trkpt lat="45.485047" lon="11.7151081"><ele>23.5</ele><time>2026-05-02T10:15:36.988Z</time></trkpt><trkpt lat="45.4850816" lon="11.7150107"><ele>23.333333333333336</ele><time>2026-05-02T10:15:37.972Z</time></trkpt><trkpt lat="45.4851279" lon="11.7149201"><ele>23.166666666666668</ele><time>2026-05-02T10:15:38.987Z</time></trkpt><trkpt lat="45.4851735" lon="11.7148228"><ele>23.0</ele><time>2026-05-02T10:15:39.992Z</time></trkpt><trkpt lat="45.4852109" lon="11.7147196"><ele>23.0</ele><time>2026-05-02T10:15:40.995Z</time></trkpt><trkpt lat="45.4852501" lon="11.7146113"><ele>23.0</ele><time>2026-05-02T10:15:41.981Z</time></trkpt><trkpt lat="45.485298" lon="11.7144999"><ele>23.0</ele><time>2026-05-02T10:15:42.982Z</time></trkpt><trkpt lat="45.4853432" lon="11.7143927"><ele>23.0</ele><time>2026-05-02T10:15:43.985Z</time></trkpt><trkpt lat="45.4853888" lon="11.7142847"><ele>23.0</ele><time>2026-05-02T10:15:44.984Z</time></trkpt><trkpt lat="45.4854342" lon="11.7141814"><ele>23.0</ele><time>2026-05-02T10:15:45.971Z</time></trkpt><trkpt lat="45.4854766" lon="11.7140783"><ele>23.0</ele><time>2026-05-02T10:15:46.975Z</time></trkpt><trkpt lat="45.4855181" lon="11.7139766"><ele>23.0</ele><time>2026-05-02T10:15:47.965Z</time></trkpt><trkpt lat="45.4855633" lon="11.7138835"><ele>23.0</ele><time>2026-05-02T10:15:48.966Z</time></trkpt><trkpt lat="45.4856092" lon="11.7137934"><ele>23.0</ele><time>2026-05-02T10:15:49.984Z</time></trkpt><trkpt lat="45.4856574" lon="11.7137049"><ele>23.0</ele><time>2026-05-02T10:15:50.96Z</time></trkpt><trkpt lat="45.4856976" lon="11.7136212"><ele>23.0</ele><time>2026-05-02T10:15:51.99Z</time></trkpt><trkpt lat="45.4857319" lon="11.7135415"><ele>23.0</ele><time>2026-05-02T10:15:52.988Z</time></trkpt><trkpt lat="45.4857714" lon="11.7134588"><ele>23.0</ele><time>2026-05-02T10:15:53.989Z</time></trkpt><trkpt lat="45.4858113" lon="11.7133811"><ele>23.0</ele><time>2026-05-02T10:15:54.968Z</time></trkpt><trkpt lat="45.4858498" lon="11.7133059"><ele>23.0</ele><time>2026-05-02T10:15:55.984Z</time></trkpt><trkpt lat="45.4858862" lon="11.7132297"><ele>23.0</ele><time>2026-05-02T10:15:56.994Z</time></trkpt><trkpt lat="45.485922" lon="11.7131516"><ele>23.0</ele><time>2026-05-02T10:15:57.986Z</time></trkpt><trkpt lat="45.485996" lon="11.7130142"><ele>23.0</ele><time>2026-05-02T10:15:59.99Z</time></trkpt><trkpt lat="45.486071" lon="11.7128774"><ele>23.0</ele><time>2026-05-02T10:16:01.981Z</time></trkpt><trkpt lat="45.4861438" lon="11.7127426"><ele>23.0</ele><time>2026-05-02T10:16:03.986Z</time></trkpt><trkpt lat="45.4862099" lon="11.7126183"><ele>23.0</ele><time>2026-05-02T10:16:05.986Z</time></trkpt><trkpt lat="45.4862669" lon="11.7124888"><ele>23.0</ele><time>2026-05-02T10:16:07.986Z</time></trkpt><trkpt lat="45.4863215" lon="11.7123762"><ele>23.0</ele><time>2026-05-02T10:16:09.99Z</time></trkpt><trkpt lat="45.4863739" lon="11.712275"><ele>23.0</ele><time>2026-05-02T10:16:11.991Z</time></trkpt><trkpt lat="45.4864184" lon="11.7121794"><ele>23.0</ele><time>2026-05-02T10:16:13.97Z</time></trkpt><trkpt lat="45.4864579" lon="11.7120902"><ele>23.0</ele><time>2026-05-02T10:16:15.981Z</time></trkpt><trkpt lat="45.4865026" lon="11.7120113"><ele>23.0</ele><time>2026-05-02T10:16:17.989Z</time></trkpt><trkpt lat="45.4865435" lon="11.7119206"><ele>23.166666666666668</ele><time>2026-05-02T10:16:19.988Z</time></trkpt><trkpt lat="45.4865864" lon="11.7118315"><ele>23.333333333333336</ele><time>2026-05-02T10:16:21.977Z</time></trkpt><trkpt lat="45.4866369" lon="11.7117269"><ele>23.5</ele><time>2026-05-02T10:16:23.989Z</time></trkpt><trkpt lat="45.4866818" lon="11.7116186"><ele>23.666666666666668</ele><time>2026-05-02T10:16:25.981Z</time></trkpt><trkpt lat="45.4867265" lon="11.7115067"><ele>23.833333333333332</ele><time>2026-05-02T10:16:27.982Z</time></trkpt><trkpt lat="45.4867696" lon="11.7114081"><ele>24.0</ele><time>2026-05-02T10:16:29.997Z</time></trkpt><trkpt lat="45.4868192" lon="11.7113203"><ele>23.999999999999996</ele><time>2026-05-02T10:16:31.997Z</time></trkpt><trkpt lat="45.4868653" lon="11.7112316"><ele>24.0</ele><time>2026-05-02T10:16:33.988Z</time></trkpt><trkpt lat="45.4869118" lon="11.711139"><ele>24.0</ele><time>2026-05-02T10:16:36Z</time></trkpt><trkpt lat="45.4869456" lon="11.7110434"><ele>24.0</ele><time>2026-05-02T10:16:37.986Z</time></trkpt><trkpt lat="45.4869892" lon="11.7109637"><ele>24.0</ele><time>2026-05-02T10:16:39.986Z</time></trkpt><trkpt lat="45.4870368" lon="11.7108901"><ele>23.999999999999996</ele><time>2026-05-02T10:16:41.987Z</time></trkpt><trkpt lat="45.4870801" lon="11.7108162"><ele>24.0</ele><time>2026-05-02T10:16:43.984Z</time></trkpt><trkpt lat="45.4871272" lon="11.7107502"><ele>23.57142857142857</ele><time>2026-05-02T10:16:45.993Z</time></trkpt><trkpt lat="45.4871713" lon="11.7106779"><ele>23.142857142857142</ele><time>2026-05-02T10:16:47.993Z</time></trkpt><trkpt lat="45.4872055" lon="11.7105999"><ele>22.714285714285715</ele><time>2026-05-02T10:16:49.982Z</time></trkpt><trkpt lat="45.4872416" lon="11.7105213"><ele>22.285714285714285</ele><time>2026-05-02T10:16:51.977Z</time></trkpt><trkpt lat="45.4872805" lon="11.7104386"><ele>21.857142857142858</ele><time>2026-05-02T10:16:53.988Z</time></trkpt><trkpt lat="45.4873191" lon="11.710357"><ele>21.428571428571427</ele><time>2026-05-02T10:16:55.989Z</time></trkpt><trkpt lat="45.4873547" lon="11.7102717"><ele>21.0</ele><time>2026-05-02T10:16:57.985Z</time></trkpt><trkpt lat="45.4873759" lon="11.710175"><ele>21.0</ele><time>2026-05-02T10:16:59.988Z</time></trkpt><trkpt lat="45.4873977" lon="11.710076"><ele>21.0</ele><time>2026-05-02T10:17:01.988Z</time></trkpt><trkpt lat="45.4874012" lon="11.7099565"><ele>21.0</ele><time>2026-05-02T10:17:03.989Z</time></trkpt><trkpt lat="45.4874224" lon="11.7098292"><ele>21.0</ele><time>2026-05-02T10:17:05.994Z</time></trkpt><trkpt lat="45.4874444" lon="11.7096933"><ele>21.0</ele><time>2026-05-02T10:17:07.988Z</time></trkpt><trkpt lat="45.4874786" lon="11.7095646"><ele>21.0</ele><time>2026-05-02T10:17:09.99Z</time></trkpt><trkpt lat="45.4875243" lon="11.7094461"><ele>21.333333333333332</ele><time>2026-05-02T10:17:11.983Z</time></trkpt><trkpt lat="45.4875717" lon="11.7093386"><ele>21.666666666666668</ele><time>2026-05-02T10:17:13.983Z</time></trkpt><trkpt lat="45.4876189" lon="11.7092412"><ele>22.0</ele><time>2026-05-02T10:17:15.988Z</time></trkpt><trkpt lat="45.4876681" lon="11.709147"><ele>22.333333333333336</ele><time>2026-05-02T10:17:17.99Z</time></trkpt><trkpt lat="45.4877137" lon="11.7090564"><ele>22.666666666666668</ele><time>2026-05-02T10:17:19.988Z</time></trkpt><trkpt lat="45.4877652" lon="11.7089805"><ele>23.0</ele><time>2026-05-02T10:17:21.981Z</time></trkpt><trkpt lat="45.4878154" lon="11.7088986"><ele>23.0</ele><time>2026-05-02T10:17:23.983Z</time></trkpt><trkpt lat="45.4878812" lon="11.7088454"><ele>23.0</ele><time>2026-05-02T10:17:25.989Z</time></trkpt><trkpt lat="45.4879485" lon="11.7088039"><ele>23.0</ele><time>2026-05-02T10:17:27.983Z</time></trkpt><trkpt lat="45.4880413" lon="11.7087932"><ele>23.0</ele><time>2026-05-02T10:17:30.985Z</time></trkpt><trkpt lat="45.4881277" lon="11.708824"><ele>23.0</ele><time>2026-05-02T10:17:33.988Z</time></trkpt><trkpt lat="45.4882095" lon="11.7088463"><ele>23.0</ele><time>2026-05-02T10:17:36.983Z</time></trkpt><trkpt lat="45.4882894" lon="11.7088831"><ele>23.166666666666668</ele><time>2026-05-02T10:17:39.986Z</time></trkpt><trkpt lat="45.4883534" lon="11.7089083"><ele>23.333333333333336</ele><time>2026-05-02T10:17:41.986Z</time></trkpt><trkpt lat="45.4884237" lon="11.7089361"><ele>23.5</ele><time>2026-05-02T10:17:43.992Z</time></trkpt><trkpt lat="45.4885025" lon="11.7089762"><ele>23.666666666666668</ele><time>2026-05-02T10:17:45.99Z</time></trkpt><trkpt lat="45.4885844" lon="11.7090113"><ele>23.833333333333332</ele><time>2026-05-02T10:17:47.987Z</time></trkpt><trkpt lat="45.4886545" lon="11.7090441"><ele>24.0</ele><time>2026-05-02T10:17:49.989Z</time></trkpt><trkpt lat="45.4887373" lon="11.7090751"><ele>24.0</ele><time>2026-05-02T10:17:52.982Z</time></trkpt><trkpt lat="45.48869" lon="11.7089975"><ele>24.0</ele><time>2026-05-02T10:18:02.986Z</time></trkpt><trkpt lat="45.4885981" lon="11.7089613"><ele>24.0</ele><time>2026-05-02T10:18:05.986Z</time></trkpt><trkpt lat="45.4884988" lon="11.7089504"><ele>24.0</ele><time>2026-05-02T10:18:07.987Z</time></trkpt><trkpt lat="45.4884203" lon="11.70891"><ele>24.0</ele><time>2026-05-02T10:18:09.987Z</time></trkpt><trkpt lat="45.4883433" lon="11.7088821"><ele>24.0</ele><time>2026-05-02T10:18:11.992Z</time></trkpt><trkpt lat="45.4882704" lon="11.7088363"><ele>24.0</ele><time>2026-05-02T10:18:13.982Z</time></trkpt><trkpt lat="45.4882051" lon="11.7088156"><ele>24.0</ele><time>2026-05-02T10:18:15.989Z</time></trkpt><trkpt lat="45.4881214" lon="11.7087675"><ele>24.0</ele><time>2026-05-02T10:18:18.979Z</time></trkpt><trkpt lat="45.4880571" lon="11.708738"><ele>24.0</ele><time>2026-05-02T10:18:20.984Z</time></trkpt><trkpt lat="45.487989" lon="11.7087315"><ele>24.0</ele><time>2026-05-02T10:18:22.995Z</time></trkpt><trkpt lat="45.4879052" lon="11.7087763"><ele>24.0</ele><time>2026-05-02T10:18:25.971Z</time></trkpt><trkpt lat="45.4878378" lon="11.7088329"><ele>23.857142857142854</ele><time>2026-05-02T10:18:27.989Z</time></trkpt><trkpt lat="45.4877935" lon="11.7088991"><ele>23.714285714285715</ele><time>2026-05-02T10:18:29.984Z</time></trkpt><trkpt lat="45.4877453" lon="11.7089795"><ele>23.57142857142857</ele><time>2026-05-02T10:18:32.984Z</time></trkpt><trkpt lat="45.4877019" lon="11.7090613"><ele>23.428571428571427</ele><time>2026-05-02T10:20:19.008Z</time></trkpt><trkpt lat="45.4876645" lon="11.7091407"><ele>23.285714285714285</ele><time>2026-05-02T10:20:24.986Z</time></trkpt><trkpt lat="45.4876265" lon="11.7092141"><ele>23.142857142857142</ele><time>2026-05-02T10:20:28.989Z</time></trkpt><trkpt lat="45.4875918" lon="11.709302"><ele>23.0</ele><time>2026-05-02T10:20:32.984Z</time></trkpt><trkpt lat="45.4875585" lon="11.7093855"><ele>22.714285714285715</ele><time>2026-05-02T10:20:36.993Z</time></trkpt><trkpt lat="45.4875199" lon="11.7094711"><ele>22.428571428571427</ele><time>2026-05-02T10:20:40.988Z</time></trkpt><trkpt lat="45.4874899" lon="11.7095765"><ele>22.142857142857142</ele><time>2026-05-02T10:20:44.98Z</time></trkpt><trkpt lat="45.4874584" lon="11.7096606"><ele>21.857142857142858</ele><time>2026-05-02T10:20:47.995Z</time></trkpt><trkpt lat="45.487441" lon="11.7097497"><ele>21.57142857142857</ele><time>2026-05-02T10:20:50.992Z</time></trkpt><trkpt lat="45.4874221" lon="11.7098361"><ele>21.285714285714285</ele><time>2026-05-02T10:20:53.988Z</time></trkpt><trkpt lat="45.4874053" lon="11.7099273"><ele>21.0</ele><time>2026-05-02T10:20:56.987Z</time></trkpt><trkpt lat="45.4873898" lon="11.7100437"><ele>21.0</ele><time>2026-05-02T10:21:00.988Z</time></trkpt><trkpt lat="45.4873688" lon="11.7101445"><ele>21.0</ele><time>2026-05-02T10:21:04.983Z</time></trkpt><trkpt lat="45.4873489" lon="11.7102408"><ele>21.0</ele><time>2026-05-02T10:22:33.99Z</time></trkpt><trkpt lat="45.4873126" lon="11.7103474"><ele>21.0</ele><time>2026-05-02T10:22:37.989Z</time></trkpt><trkpt lat="45.4872746" lon="11.7104376"><ele>21.0</ele><time>2026-05-02T10:22:39.988Z</time></trkpt><trkpt lat="45.4872135" lon="11.7105435"><ele>21.0</ele><time>2026-05-02T10:22:41.993Z</time></trkpt><trkpt lat="45.487158" lon="11.7106573"><ele>20.833333333333332</ele><time>2026-05-02T10:22:43.991Z</time></trkpt><trkpt lat="45.4871052" lon="11.7107592"><ele>20.666666666666668</ele><time>2026-05-02T10:22:45.985Z</time></trkpt><trkpt lat="45.4870465" lon="11.7108516"><ele>20.5</ele><time>2026-05-02T10:22:47.986Z</time></trkpt><trkpt lat="45.4870068" lon="11.7109472"><ele>20.333333333333336</ele><time>2026-05-02T10:22:49.983Z</time></trkpt><trkpt lat="45.4869708" lon="11.7110265"><ele>20.166666666666668</ele><time>2026-05-02T10:22:51.994Z</time></trkpt><trkpt lat="45.4869144" lon="11.7111263"><ele>20.0</ele><time>2026-05-02T10:22:54.983Z</time></trkpt><trkpt lat="45.4868652" lon="11.7112246"><ele>20.666666666666668</ele><time>2026-05-02T10:22:57.987Z</time></trkpt><trkpt lat="45.4868214" lon="11.7113306"><ele>21.333333333333336</ele><time>2026-05-02T10:23:00.982Z</time></trkpt><trkpt lat="45.4867848" lon="11.7114104"><ele>22.0</ele><time>2026-05-02T10:23:02.985Z</time></trkpt><trkpt lat="45.4867334" lon="11.7115011"><ele>22.666666666666668</ele><time>2026-05-02T10:23:04.989Z</time></trkpt><trkpt lat="45.486674" lon="11.7115975"><ele>23.333333333333332</ele><time>2026-05-02T10:23:06.985Z</time></trkpt><trkpt lat="45.4866237" lon="11.7117133"><ele>24.0</ele><time>2026-05-02T10:23:08.986Z</time></trkpt><trkpt lat="45.4865734" lon="11.7118261"><ele>23.799999999999997</ele><time>2026-05-02T10:23:10.994Z</time></trkpt><trkpt lat="45.486518" lon="11.711926"><ele>23.599999999999998</ele><time>2026-05-02T10:23:12.991Z</time></trkpt><trkpt lat="45.4864606" lon="11.7120351"><ele>23.4</ele><time>2026-05-02T10:23:14.981Z</time></trkpt><trkpt lat="45.4864092" lon="11.7121506"><ele>23.2</ele><time>2026-05-02T10:23:16.987Z</time></trkpt><trkpt lat="45.4863477" lon="11.7122657"><ele>23.0</ele><time>2026-05-02T10:23:18.981Z</time></trkpt><trkpt lat="45.4862828" lon="11.7123968"><ele>23.0</ele><time>2026-05-02T10:23:20.986Z</time></trkpt><trkpt lat="45.4862224" lon="11.712522"><ele>23.0</ele><time>2026-05-02T10:23:22.988Z</time></trkpt><trkpt lat="45.48616" lon="11.7126629"><ele>23.0</ele><time>2026-05-02T10:23:24.984Z</time></trkpt><trkpt lat="45.4860953" lon="11.7127959"><ele>23.0</ele><time>2026-05-02T10:23:26.989Z</time></trkpt><trkpt lat="45.486033" lon="11.7129092"><ele>23.0</ele><time>2026-05-02T10:23:28.987Z</time></trkpt><trkpt lat="45.4859615" lon="11.7130207"><ele>23.0</ele><time>2026-05-02T10:23:30.987Z</time></trkpt><trkpt lat="45.4859057" lon="11.7131459"><ele>23.0</ele><time>2026-05-02T10:23:32.959Z</time></trkpt><trkpt lat="45.4858425" lon="11.7132511"><ele>23.0</ele><time>2026-05-02T10:23:34.989Z</time></trkpt><trkpt lat="45.4857943" lon="11.7133708"><ele>23.0</ele><time>2026-05-02T10:23:36.986Z</time></trkpt><trkpt lat="45.4857463" lon="11.7134765"><ele>23.0</ele><time>2026-05-02T10:23:38.984Z</time></trkpt><trkpt lat="45.4856922" lon="11.7135653"><ele>23.0</ele><time>2026-05-02T10:23:40.984Z</time></trkpt><trkpt lat="45.4856493" lon="11.7136659"><ele>23.0</ele><time>2026-05-02T10:23:42.989Z</time></trkpt><trkpt lat="45.4856003" lon="11.7137744"><ele>23.0</ele><time>2026-05-02T10:23:44.99Z</time></trkpt><trkpt lat="45.485545" lon="11.7138891"><ele>23.0</ele><time>2026-05-02T10:23:46.995Z</time></trkpt><trkpt lat="45.4854929" lon="11.7139967"><ele>23.0</ele><time>2026-05-02T10:23:48.988Z</time></trkpt><trkpt lat="45.4854438" lon="11.7140989"><ele>23.0</ele><time>2026-05-02T10:23:50.987Z</time></trkpt><trkpt lat="45.4854007" lon="11.7141993"><ele>23.0</ele><time>2026-05-02T10:23:52.989Z</time></trkpt><trkpt lat="45.4853631" lon="11.7143145"><ele>23.0</ele><time>2026-05-02T10:23:54.991Z</time></trkpt><trkpt lat="45.4853263" lon="11.7144138"><ele>23.0</ele><time>2026-05-02T10:23:56.983Z</time></trkpt><trkpt lat="45.4852826" lon="11.7145254"><ele>23.0</ele><time>2026-05-02T10:23:58.993Z</time></trkpt><trkpt lat="45.4852399" lon="11.714628"><ele>23.0</ele><time>2026-05-02T10:24:00.999Z</time></trkpt><trkpt lat="45.4852051" lon="11.7147281"><ele>23.0</ele><time>2026-05-02T10:24:02.991Z</time></trkpt><trkpt lat="45.4851614" lon="11.7148255"><ele>23.0</ele><time>2026-05-02T10:24:04.992Z</time></trkpt><trkpt lat="45.4851195" lon="11.7149173"><ele>23.0</ele><time>2026-05-02T10:24:06.987Z</time></trkpt><trkpt lat="45.4850741" lon="11.7150015"><ele>23.0</ele><time>2026-05-02T10:24:08.984Z</time></trkpt><trkpt lat="45.4850353" lon="11.7150951"><ele>23.0</ele><time>2026-05-02T10:24:10.966Z</time></trkpt><trkpt lat="45.4850073" lon="11.7151832"><ele>23.0</ele><time>2026-05-02T10:24:12.985Z</time></trkpt><trkpt lat="45.484978" lon="11.7152668"><ele>23.0</ele><time>2026-05-02T10:24:14.987Z</time></trkpt><trkpt lat="45.4849525" lon="11.7153504"><ele>23.0</ele><time>2026-05-02T10:24:16.999Z</time></trkpt><trkpt lat="45.484924" lon="11.7154307"><ele>23.166666666666668</ele><time>2026-05-02T10:24:18.993Z</time></trkpt><trkpt lat="45.4848913" lon="11.7155143"><ele>23.333333333333336</ele><time>2026-05-02T10:24:20.985Z</time></trkpt><trkpt lat="45.4848622" lon="11.7156001"><ele>23.5</ele><time>2026-05-02T10:24:22.983Z</time></trkpt><trkpt lat="45.4848341" lon="11.7156812"><ele>23.666666666666668</ele><time>2026-05-02T10:24:24.987Z</time></trkpt><trkpt lat="45.4847798" lon="11.7157901"><ele>23.833333333333332</ele><time>2026-05-02T10:24:27.993Z</time></trkpt><trkpt lat="45.484723" lon="11.7158943"><ele>24.0</ele><time>2026-05-02T10:24:30.99Z</time></trkpt><trkpt lat="45.4846894" lon="11.7159798"><ele>23.999999999999996</ele><time>2026-05-02T10:24:32.984Z</time></trkpt><trkpt lat="45.4846548" lon="11.7160624"><ele>24.0</ele><time>2026-05-02T10:24:34.992Z</time></trkpt><trkpt lat="45.4846258" lon="11.7161479"><ele>24.0</ele><time>2026-05-02T10:24:36.992Z</time></trkpt><trkpt lat="45.4845946" lon="11.7162351"><ele>24.0</ele><time>2026-05-02T10:24:38.993Z</time></trkpt><trkpt lat="45.4845621" lon="11.7163159"><ele>24.0</ele><time>2026-05-02T10:24:40.988Z</time></trkpt><trkpt lat="45.4845268" lon="11.7163972"><ele>23.999999999999996</ele><time>2026-05-02T10:24:43.983Z</time></trkpt><trkpt lat="45.4845363" lon="11.7165007"><ele>24.0</ele><time>2026-05-02T10:24:47.99Z</time></trkpt><trkpt lat="45.4845057" lon="11.7165997"><ele>24.0</ele><time>2026-05-02T10:24:51.985Z</time></trkpt><trkpt lat="45.484542" lon="11.7166843"><ele>24.0</ele><time>2026-05-02T10:24:54.991Z</time></trkpt><trkpt lat="45.4845763" lon="11.7167925"><ele>24.0</ele><time>2026-05-02T10:24:57.989Z</time></trkpt><trkpt lat="45.4846057" lon="11.7169055"><ele>24.0</ele><time>2026-05-02T10:25:00.987Z</time></trkpt><trkpt lat="45.4846361" lon="11.7169961"><ele>24.0</ele><time>2026-05-02T10:25:02.984Z</time></trkpt><trkpt lat="45.484661" lon="11.7171124"><ele>24.0</ele><time>2026-05-02T10:25:04.994Z</time></trkpt><trkpt lat="45.4846759" lon="11.7172368"><ele>23.799999999999997</ele><time>2026-05-02T10:25:06.988Z</time></trkpt><trkpt lat="45.4846818" lon="11.7173816"><ele>23.599999999999998</ele><time>2026-05-02T10:25:08.989Z</time></trkpt><trkpt lat="45.4846915" lon="11.717554"><ele>23.4</ele><time>2026-05-02T10:25:10.986Z</time></trkpt><trkpt lat="45.4846929" lon="11.7176459"><ele>23.2</ele><time>2026-05-02T10:25:11.993Z</time></trkpt><trkpt lat="45.4847077" lon="11.7178348"><ele>23.0</ele><time>2026-05-02T10:25:13.995Z</time></trkpt><trkpt lat="45.4847162" lon="11.7179341"><ele>23.0</ele><time>2026-05-02T10:25:14.986Z</time></trkpt><trkpt lat="45.4847218" lon="11.7180334"><ele>23.0</ele><time>2026-05-02T10:25:15.993Z</time></trkpt><trkpt lat="45.4847344" lon="11.7181331"><ele>23.0</ele><time>2026-05-02T10:25:16.989Z</time></trkpt><trkpt lat="45.4847403" lon="11.7182355"><ele>23.0</ele><time>2026-05-02T10:25:17.987Z</time></trkpt><trkpt lat="45.4847442" lon="11.7183414"><ele>23.0</ele><time>2026-05-02T10:25:18.992Z</time></trkpt><trkpt lat="45.4847485" lon="11.7184419"><ele>23.0</ele><time>2026-05-02T10:25:19.986Z</time></trkpt><trkpt lat="45.4847553" lon="11.7185344"><ele>23.0</ele><time>2026-05-02T10:25:20.988Z</time></trkpt><trkpt lat="45.4847633" lon="11.7186286"><ele>22.599999999999998</ele><time>2026-05-02T10:25:21.988Z</time></trkpt><trkpt lat="45.4847742" lon="11.718775"><ele>22.2</ele><time>2026-05-02T10:25:23.984Z</time></trkpt><trkpt lat="45.4847753" lon="11.7189154"><ele>21.8</ele><time>2026-05-02T10:25:25.986Z</time></trkpt><trkpt lat="45.4847775" lon="11.719055"><ele>21.4</ele><time>2026-05-02T10:25:27.989Z</time></trkpt><trkpt lat="45.4847866" lon="11.7191805"><ele>21.0</ele><time>2026-05-02T10:25:29.991Z</time></trkpt><trkpt lat="45.4847902" lon="11.7193049"><ele>20.8</ele><time>2026-05-02T10:25:31.989Z</time></trkpt><trkpt lat="45.4848017" lon="11.7194345"><ele>20.6</ele><time>2026-05-02T10:25:33.989Z</time></trkpt><trkpt lat="45.4848167" lon="11.7195654"><ele>20.4</ele><time>2026-05-02T10:25:35.982Z</time></trkpt><trkpt lat="45.484817" lon="11.7196902"><ele>20.2</ele><time>2026-05-02T10:25:37.977Z</time></trkpt><trkpt lat="45.4848154" lon="11.719819"><ele>20.0</ele><time>2026-05-02T10:25:39.985Z</time></trkpt><trkpt lat="45.4848249" lon="11.7199474"><ele>20.0</ele><time>2026-05-02T10:25:41.984Z</time></trkpt><trkpt lat="45.484841" lon="11.7200775"><ele>20.0</ele><time>2026-05-02T10:25:43.991Z</time></trkpt><trkpt lat="45.484852" lon="11.7202012"><ele>20.0</ele><time>2026-05-02T10:25:45.991Z</time></trkpt><trkpt lat="45.4848704" lon="11.7203244"><ele>20.0</ele><time>2026-05-02T10:25:47.99Z</time></trkpt><trkpt lat="45.4848962" lon="11.7204447"><ele>20.0</ele><time>2026-05-02T10:25:49.987Z</time></trkpt><trkpt lat="45.484924" lon="11.7205657"><ele>20.0</ele><time>2026-05-02T10:25:51.99Z</time></trkpt><trkpt lat="45.4849497" lon="11.7206838"><ele>20.166666666666668</ele><time>2026-05-02T10:25:53.989Z</time></trkpt><trkpt lat="45.4849795" lon="11.7207947"><ele>20.333333333333336</ele><time>2026-05-02T10:25:55.993Z</time></trkpt><trkpt lat="45.4850126" lon="11.7209161"><ele>20.5</ele><time>2026-05-02T10:25:57.992Z</time></trkpt><trkpt lat="45.4850342" lon="11.7210388"><ele>20.666666666666668</ele><time>2026-05-02T10:25:59.991Z</time></trkpt><trkpt lat="45.4850532" lon="11.7211523"><ele>20.833333333333332</ele><time>2026-05-02T10:26:01.988Z</time></trkpt><trkpt lat="45.4850789" lon="11.7212761"><ele>21.0</ele><time>2026-05-02T10:26:03.979Z</time></trkpt><trkpt lat="45.485101" lon="11.7213986"><ele>21.0</ele><time>2026-05-02T10:26:05.983Z</time></trkpt><trkpt lat="45.4851346" lon="11.7215257"><ele>21.0</ele><time>2026-05-02T10:26:07.993Z</time></trkpt><trkpt lat="45.4851648" lon="11.7216504"><ele>21.0</ele><time>2026-05-02T10:26:09.987Z</time></trkpt><trkpt lat="45.4851911" lon="11.7217735"><ele>21.0</ele><time>2026-05-02T10:26:11.992Z</time></trkpt><trkpt lat="45.4852283" lon="11.7218986"><ele>21.0</ele><time>2026-05-02T10:26:13.991Z</time></trkpt><trkpt lat="45.4852547" lon="11.7220136"><ele>21.0</ele><time>2026-05-02T10:26:15.991Z</time></trkpt><trkpt lat="45.485276" lon="11.722119"><ele>21.0</ele><time>2026-05-02T10:26:17.991Z</time></trkpt><trkpt lat="45.4852987" lon="11.722238"><ele>21.0</ele><time>2026-05-02T10:26:19.991Z</time></trkpt><trkpt lat="45.4853188" lon="11.7223536"><ele>21.0</ele><time>2026-05-02T10:26:21.991Z</time></trkpt><trkpt lat="45.4853443" lon="11.7224733"><ele>21.0</ele><time>2026-05-02T10:26:23.996Z</time></trkpt><trkpt lat="45.4853709" lon="11.7225986"><ele>21.0</ele><time>2026-05-02T10:26:25.977Z</time></trkpt><trkpt lat="45.4853913" lon="11.7227185"><ele>20.833333333333332</ele><time>2026-05-02T10:26:27.987Z</time></trkpt><trkpt lat="45.4854266" lon="11.7228288"><ele>20.666666666666668</ele><time>2026-05-02T10:26:29.989Z</time></trkpt><trkpt lat="45.4854549" lon="11.7229497"><ele>20.5</ele><time>2026-05-02T10:26:31.986Z</time></trkpt><trkpt lat="45.485481" lon="11.7230661"><ele>20.333333333333336</ele><time>2026-05-02T10:26:33.983Z</time></trkpt><trkpt lat="45.4855112" lon="11.7231922"><ele>20.166666666666668</ele><time>2026-05-02T10:26:35.99Z</time></trkpt><trkpt lat="45.4855366" lon="11.7233051"><ele>20.0</ele><time>2026-05-02T10:26:37.987Z</time></trkpt><trkpt lat="45.4855626" lon="11.7234138"><ele>20.142857142857142</ele><time>2026-05-02T10:26:39.98Z</time></trkpt><trkpt lat="45.4855828" lon="11.7235183"><ele>20.285714285714285</ele><time>2026-05-02T10:26:41.993Z</time></trkpt><trkpt lat="45.4856012" lon="11.7236268"><ele>20.42857142857143</ele><time>2026-05-02T10:26:43.985Z</time></trkpt><trkpt lat="45.4856244" lon="11.7237247"><ele>20.57142857142857</ele><time>2026-05-02T10:26:45.99Z</time></trkpt><trkpt lat="45.4856679" lon="11.7238037"><ele>20.714285714285715</ele><time>2026-05-02T10:26:47.984Z</time></trkpt><trkpt lat="45.4857273" lon="11.7238446"><ele>20.857142857142858</ele><time>2026-05-02T10:26:49.98Z</time></trkpt><trkpt lat="45.4857937" lon="11.7238437"><ele>21.0</ele><time>2026-05-02T10:26:51.987Z</time></trkpt><trkpt lat="45.4858447" lon="11.7239078"><ele>21.0</ele><time>2026-05-02T10:26:53.984Z</time></trkpt><trkpt lat="45.4858788" lon="11.7240284"><ele>21.0</ele><time>2026-05-02T10:26:56.989Z</time></trkpt><trkpt lat="45.4858406" lon="11.7241167"><ele>21.0</ele><time>2026-05-02T10:26:58.991Z</time></trkpt><trkpt lat="45.4858017" lon="11.7242274"><ele>21.0</ele><time>2026-05-02T10:27:00.984Z</time></trkpt><trkpt lat="45.4858041" lon="11.7243675"><ele>21.0</ele><time>2026-05-02T10:27:02.987Z</time></trkpt><trkpt lat="45.4858338" lon="11.7245031"><ele>21.0</ele><time>2026-05-02T10:27:04.983Z</time></trkpt><trkpt lat="45.4858605" lon="11.724633"><ele>20.833333333333332</ele><time>2026-05-02T10:27:06.996Z</time></trkpt><trkpt lat="45.485878" lon="11.7247656"><ele>20.666666666666668</ele><time>2026-05-02T10:27:08.988Z</time></trkpt><trkpt lat="45.485893" lon="11.7248823"><ele>20.5</ele><time>2026-05-02T10:27:10.991Z</time></trkpt><trkpt lat="45.4859105" lon="11.725003"><ele>20.333333333333336</ele><time>2026-05-02T10:27:12.983Z</time></trkpt><trkpt lat="45.4859463" lon="11.7251254"><ele>20.166666666666668</ele><time>2026-05-02T10:27:14.988Z</time></trkpt><trkpt lat="45.4859717" lon="11.7252461"><ele>20.0</ele><time>2026-05-02T10:27:16.991Z</time></trkpt><trkpt lat="45.4859972" lon="11.7253679"><ele>20.333333333333336</ele><time>2026-05-02T10:27:18.987Z</time></trkpt><trkpt lat="45.4860265" lon="11.7254948"><ele>20.666666666666668</ele><time>2026-05-02T10:27:20.988Z</time></trkpt><trkpt lat="45.4860493" lon="11.7256119"><ele>21.0</ele><time>2026-05-02T10:27:22.987Z</time></trkpt><trkpt lat="45.4860767" lon="11.7257241"><ele>21.333333333333332</ele><time>2026-05-02T10:27:24.99Z</time></trkpt><trkpt lat="45.4860984" lon="11.7258314"><ele>21.666666666666664</ele><time>2026-05-02T10:27:26.996Z</time></trkpt><trkpt lat="45.486122" lon="11.7259372"><ele>22.0</ele><time>2026-05-02T10:27:28.986Z</time></trkpt><trkpt lat="45.4861454" lon="11.7260422"><ele>22.0</ele><time>2026-05-02T10:27:30.982Z</time></trkpt><trkpt lat="45.4861682" lon="11.7261633"><ele>22.0</ele><time>2026-05-02T10:27:33.991Z</time></trkpt><trkpt lat="45.4862022" lon="11.7262691"><ele>22.0</ele><time>2026-05-02T10:27:36.988Z</time></trkpt><trkpt lat="45.4862349" lon="11.72637"><ele>22.0</ele><time>2026-05-02T10:27:39.988Z</time></trkpt><trkpt lat="45.4862705" lon="11.7264463"><ele>22.0</ele><time>2026-05-02T10:27:43.991Z</time></trkpt><trkpt lat="45.4862098" lon="11.7264879"><ele>22.0</ele><time>2026-05-02T10:27:54.971Z</time></trkpt><trkpt lat="45.4861593" lon="11.7265587"><ele>22.0</ele><time>2026-05-02T10:27:57.992Z</time></trkpt><trkpt lat="45.4861172" lon="11.7266417"><ele>22.0</ele><time>2026-05-02T10:27:59.985Z</time></trkpt><trkpt lat="45.4860439" lon="11.7267217"><ele>22.0</ele><time>2026-05-02T10:28:01.983Z</time></trkpt><trkpt lat="45.4859654" lon="11.7267947"><ele>22.0</ele><time>2026-05-02T10:28:03.984Z</time></trkpt><trkpt lat="45.4858798" lon="11.7268146"><ele>22.0</ele><time>2026-05-02T10:28:05.988Z</time></trkpt><trkpt lat="45.4858259" lon="11.7268682"><ele>22.0</ele><time>2026-05-02T10:28:07.992Z</time></trkpt><trkpt lat="45.4857908" lon="11.7269632"><ele>21.833333333333332</ele><time>2026-05-02T10:28:09.985Z</time></trkpt><trkpt lat="45.4857364" lon="11.7270588"><ele>21.666666666666664</ele><time>2026-05-02T10:28:11.986Z</time></trkpt><trkpt lat="45.4856791" lon="11.7271565"><ele>21.5</ele><time>2026-05-02T10:28:13.987Z</time></trkpt><trkpt lat="45.485628" lon="11.7272545"><ele>21.333333333333332</ele><time>2026-05-02T10:28:15.981Z</time></trkpt><trkpt lat="45.4855833" lon="11.7273548"><ele>21.166666666666668</ele><time>2026-05-02T10:28:17.969Z</time></trkpt><trkpt lat="45.4855333" lon="11.7274451"><ele>21.0</ele><time>2026-05-02T10:28:19.99Z</time></trkpt><trkpt lat="45.4855539" lon="11.7275527"><ele>21.0</ele><time>2026-05-02T10:28:22Z</time></trkpt><trkpt lat="45.4856217" lon="11.7276265"><ele>21.0</ele><time>2026-05-02T10:28:23.989Z</time></trkpt><trkpt lat="45.4856943" lon="11.7276974"><ele>21.0</ele><time>2026-05-02T10:28:26.001Z</time></trkpt><trkpt lat="45.4857766" lon="11.7277825"><ele>21.0</ele><time>2026-05-02T10:28:27.989Z</time></trkpt><trkpt lat="45.4858691" lon="11.727864"><ele>21.0</ele><time>2026-05-02T10:28:29.983Z</time></trkpt><trkpt lat="45.4859464" lon="11.727953"><ele>21.0</ele><time>2026-05-02T10:28:31.981Z</time></trkpt><trkpt lat="45.4860203" lon="11.7280406"><ele>21.0</ele><time>2026-05-02T10:28:33.992Z</time></trkpt><trkpt lat="45.4860889" lon="11.7281129"><ele>21.0</ele><time>2026-05-02T10:28:35.981Z</time></trkpt><trkpt lat="45.4861467" lon="11.7281644"><ele>21.0</ele><time>2026-05-02T10:28:37.993Z</time></trkpt><trkpt lat="45.4862396" lon="11.7281722"><ele>21.0</ele><time>2026-05-02T10:28:40.992Z</time></trkpt><trkpt lat="45.4863156" lon="11.728199"><ele>21.0</ele><time>2026-05-02T10:28:43.982Z</time></trkpt><trkpt lat="45.4863781" lon="11.7282566"><ele>21.0</ele><time>2026-05-02T10:28:46.992Z</time></trkpt><trkpt lat="45.4864254" lon="11.7283168"><ele>21.0</ele><time>2026-05-02T10:28:49.994Z</time></trkpt><trkpt lat="45.4864004" lon="11.7284332"><ele>21.0</ele><time>2026-05-02T10:28:52.996Z</time></trkpt><trkpt lat="45.4863661" lon="11.7285242"><ele>21.0</ele><time>2026-05-02T10:28:54.992Z</time></trkpt><trkpt lat="45.4863248" lon="11.7286496"><ele>21.0</ele><time>2026-05-02T10:28:56.99Z</time></trkpt><trkpt lat="45.4862914" lon="11.7287868"><ele>21.0</ele><time>2026-05-02T10:28:58.99Z</time></trkpt><trkpt lat="45.4862586" lon="11.728915"><ele>20.666666666666668</ele><time>2026-05-02T10:29:00.992Z</time></trkpt><trkpt lat="45.4862229" lon="11.7290393"><ele>20.333333333333332</ele><time>2026-05-02T10:29:02.987Z</time></trkpt><trkpt lat="45.4861873" lon="11.7291558"><ele>20.0</ele><time>2026-05-02T10:29:04.989Z</time></trkpt><trkpt lat="45.4861559" lon="11.7292712"><ele>19.666666666666664</ele><time>2026-05-02T10:29:06.988Z</time></trkpt><trkpt lat="45.4861309" lon="11.7293825"><ele>19.333333333333332</ele><time>2026-05-02T10:29:08.988Z</time></trkpt><trkpt lat="45.486109" lon="11.7294971"><ele>19.0</ele><time>2026-05-02T10:29:10.984Z</time></trkpt><trkpt lat="45.4861283" lon="11.7296146"><ele>19.0</ele><time>2026-05-02T10:29:12.983Z</time></trkpt><trkpt lat="45.4861853" lon="11.7297223"><ele>19.0</ele><time>2026-05-02T10:29:14.998Z</time></trkpt><trkpt lat="45.4862412" lon="11.7298246"><ele>19.0</ele><time>2026-05-02T10:29:16.988Z</time></trkpt><trkpt lat="45.4862904" lon="11.7299271"><ele>19.0</ele><time>2026-05-02T10:29:18.986Z</time></trkpt><trkpt lat="45.4863402" lon="11.7300219"><ele>19.0</ele><time>2026-05-02T10:29:20.992Z</time></trkpt><trkpt lat="45.4863897" lon="11.7301222"><ele>19.0</ele><time>2026-05-02T10:29:22.987Z</time></trkpt><trkpt lat="45.486438" lon="11.7302196"><ele>19.0</ele><time>2026-05-02T10:29:24.987Z</time></trkpt><trkpt lat="45.4864956" lon="11.7303219"><ele>19.0</ele><time>2026-05-02T10:29:26.991Z</time></trkpt><trkpt lat="45.4865519" lon="11.7304278"><ele>19.0</ele><time>2026-05-02T10:29:28.991Z</time></trkpt><trkpt lat="45.486612" lon="11.7305333"><ele>19.0</ele><time>2026-05-02T10:29:30.986Z</time></trkpt><trkpt lat="45.4866804" lon="11.7306226"><ele>19.0</ele><time>2026-05-02T10:29:32.987Z</time></trkpt><trkpt lat="45.4867576" lon="11.7307089"><ele>19.0</ele><time>2026-05-02T10:29:34.996Z</time></trkpt><trkpt lat="45.4868333" lon="11.7307917"><ele>19.0</ele><time>2026-05-02T10:29:36.982Z</time></trkpt><trkpt lat="45.4869016" lon="11.7308738"><ele>19.0</ele><time>2026-05-02T10:29:38.985Z</time></trkpt><trkpt lat="45.486968" lon="11.7309648"><ele>19.0</ele><time>2026-05-02T10:29:40.983Z</time></trkpt><trkpt lat="45.4870347" lon="11.7310487"><ele>19.0</ele><time>2026-05-02T10:29:42.99Z</time></trkpt><trkpt lat="45.4871048" lon="11.7310826"><ele>19.0</ele><time>2026-05-02T10:29:44.971Z</time></trkpt><trkpt lat="45.4871853" lon="11.7310657"><ele>19.333333333333332</ele><time>2026-05-02T10:29:46.995Z</time></trkpt><trkpt lat="45.4872674" lon="11.7310267"><ele>19.666666666666664</ele><time>2026-05-02T10:29:48.988Z</time></trkpt><trkpt lat="45.4873468" lon="11.7309906"><ele>20.0</ele><time>2026-05-02T10:29:50.99Z</time></trkpt><trkpt lat="45.4873979" lon="11.7309304"><ele>20.333333333333332</ele><time>2026-05-02T10:29:52.984Z</time></trkpt><trkpt lat="45.4874471" lon="11.7308389"><ele>20.666666666666668</ele><time>2026-05-02T10:29:55.978Z</time></trkpt><trkpt lat="45.487397" lon="11.7307732"><ele>21.0</ele><time>2026-05-02T10:30:00.002Z</time></trkpt><trkpt lat="45.4873216" lon="11.7308019"><ele>21.0</ele><time>2026-05-02T10:30:04.993Z</time></trkpt><trkpt lat="45.4872607" lon="11.7308569"><ele>21.0</ele><time>2026-05-02T10:30:07.983Z</time></trkpt><trkpt lat="45.487216" lon="11.7309206"><ele>21.0</ele><time>2026-05-02T10:30:10.991Z</time></trkpt><trkpt lat="45.4876511" lon="11.7307786"><ele>19.0</ele><time>2026-05-02T10:36:32.556Z</time></trkpt><trkpt lat="45.4865584" lon="11.7296717"><ele>21.0</ele><time>2026-05-02T10:41:25.012Z</time></trkpt><trkpt lat="45.4876511" lon="11.7307754"><ele>21.0</ele><time>2026-05-02T10:41:35.902Z</time></trkpt><trkpt lat="45.4872218" lon="11.7309246"><ele>21.0</ele><time>2026-05-02T10:42:55.339Z</time></trkpt><trkpt lat="45.4876361" lon="11.7307605"><ele>19.0</ele><time>2026-05-02T10:46:05.656Z</time></trkpt><trkpt lat="45.4870636" lon="11.7309331"><ele>19.333333333333332</ele><time>2026-05-02T10:47:45.643Z</time></trkpt><trkpt lat="45.4872124" lon="11.7309093"><ele>19.666666666666664</ele><time>2026-05-02T10:47:48.653Z</time></trkpt><trkpt lat="45.4872776" lon="11.7309487"><ele>20.0</ele><time>2026-05-02T11:01:49.658Z</time></trkpt><trkpt lat="45.4873437" lon="11.7309742"><ele>20.333333333333332</ele><time>2026-05-02T11:01:56.653Z</time></trkpt><trkpt lat="45.4874119" lon="11.7309518"><ele>20.666666666666668</ele><time>2026-05-02T11:02:09.656Z</time></trkpt><trkpt lat="45.4874817" lon="11.7309238"><ele>21.0</ele><time>2026-05-02T11:02:18.659Z</time></trkpt><trkpt lat="45.4875464" lon="11.7309053"><ele>21.0</ele><time>2026-05-02T11:03:28.664Z</time></trkpt><trkpt lat="45.4876116" lon="11.7309508"><ele>21.0</ele><time>2026-05-02T11:03:36.65Z</time></trkpt><trkpt lat="45.4876836" lon="11.7309617"><ele>21.0</ele><time>2026-05-02T11:04:08.653Z</time></trkpt><trkpt lat="45.487755" lon="11.7309425"><ele>21.0</ele><time>2026-05-02T11:04:13.661Z</time></trkpt><trkpt lat="45.4878243" lon="11.7309295"><ele>21.0</ele><time>2026-05-02T11:04:16.656Z</time></trkpt><trkpt lat="45.4879033" lon="11.7309684"><ele>21.0</ele><time>2026-05-02T11:04:19.659Z</time></trkpt><trkpt lat="45.4879646" lon="11.7310005"><ele>21.0</ele><time>2026-05-02T11:04:22.659Z</time></trkpt><trkpt lat="45.4880298" lon="11.7310074"><ele>21.0</ele><time>2026-05-02T11:04:25.654Z</time></trkpt><trkpt lat="45.4880963" lon="11.7309912"><ele>21.0</ele><time>2026-05-02T11:04:28.645Z</time></trkpt><trkpt lat="45.4881716" lon="11.7309773"><ele>21.0</ele><time>2026-05-02T11:04:31.663Z</time></trkpt><trkpt lat="45.4882487" lon="11.7309374"><ele>21.0</ele><time>2026-05-02T11:04:34.659Z</time></trkpt><trkpt lat="45.4883216" lon="11.730918"><ele>21.0</ele><time>2026-05-02T11:04:37.661Z</time></trkpt><trkpt lat="45.4884053" lon="11.7308834"><ele>21.0</ele><time>2026-05-02T11:04:40.642Z</time></trkpt><trkpt lat="45.4884732" lon="11.7308632"><ele>21.0</ele><time>2026-05-02T11:04:42.652Z</time></trkpt><trkpt lat="45.488548" lon="11.7308405"><ele>21.0</ele><time>2026-05-02T11:04:44.657Z</time></trkpt><trkpt lat="45.4886132" lon="11.7308109"><ele>21.0</ele><time>2026-05-02T11:04:46.656Z</time></trkpt><trkpt lat="45.4886795" lon="11.7307832"><ele>21.0</ele><time>2026-05-02T11:04:48.65Z</time></trkpt><trkpt lat="45.488744" lon="11.7307617"><ele>21.0</ele><time>2026-05-02T11:04:50.663Z</time></trkpt><trkpt lat="45.4888321" lon="11.7307401"><ele>21.0</ele><time>2026-05-02T11:04:53.66Z</time></trkpt><trkpt lat="45.4888996" lon="11.7307349"><ele>21.0</ele><time>2026-05-02T11:04:56.653Z</time></trkpt><trkpt lat="45.4889659" lon="11.730728"><ele>20.833333333333332</ele><time>2026-05-02T11:04:59.658Z</time></trkpt><trkpt lat="45.4890259" lon="11.7307928"><ele>20.666666666666668</ele><time>2026-05-02T11:05:03.658Z</time></trkpt><trkpt lat="45.4890881" lon="11.7308596"><ele>20.5</ele><time>2026-05-02T11:05:07.657Z</time></trkpt><trkpt lat="45.4891604" lon="11.7309229"><ele>20.333333333333336</ele><time>2026-05-02T11:05:11.656Z</time></trkpt><trkpt lat="45.4892366" lon="11.7310156"><ele>20.166666666666668</ele><time>2026-05-02T11:05:14.66Z</time></trkpt><trkpt lat="45.4893057" lon="11.7310963"><ele>20.0</ele><time>2026-05-02T11:05:16.654Z</time></trkpt><trkpt lat="45.4893821" lon="11.7311718"><ele>20.0</ele><time>2026-05-02T11:05:18.654Z</time></trkpt><trkpt lat="45.4894495" lon="11.7312451"><ele>20.0</ele><time>2026-05-02T11:05:20.652Z</time></trkpt><trkpt lat="45.4895211" lon="11.7313226"><ele>20.0</ele><time>2026-05-02T11:05:22.652Z</time></trkpt><trkpt lat="45.4895939" lon="11.7313952"><ele>20.0</ele><time>2026-05-02T11:05:24.655Z</time></trkpt><trkpt lat="45.4896666" lon="11.7314719"><ele>20.0</ele><time>2026-05-02T11:05:26.661Z</time></trkpt><trkpt lat="45.4897426" lon="11.7315475"><ele>20.0</ele><time>2026-05-02T11:05:28.654Z</time></trkpt><trkpt lat="45.4898205" lon="11.7316184"><ele>20.0</ele><time>2026-05-02T11:05:30.652Z</time></trkpt><trkpt lat="45.4899004" lon="11.7316904"><ele>20.0</ele><time>2026-05-02T11:05:32.662Z</time></trkpt><trkpt lat="45.4899726" lon="11.7317558"><ele>20.0</ele><time>2026-05-02T11:05:34.652Z</time></trkpt><trkpt lat="45.4900492" lon="11.7318328"><ele>20.0</ele><time>2026-05-02T11:05:36.652Z</time></trkpt><trkpt lat="45.4901276" lon="11.7319029"><ele>20.0</ele><time>2026-05-02T11:05:38.654Z</time></trkpt><trkpt lat="45.490202" lon="11.7319824"><ele>19.857142857142858</ele><time>2026-05-02T11:05:40.661Z</time></trkpt><trkpt lat="45.4902718" lon="11.7320618"><ele>19.714285714285715</ele><time>2026-05-02T11:05:42.658Z</time></trkpt><trkpt lat="45.4903312" lon="11.7321164"><ele>19.57142857142857</ele><time>2026-05-02T11:05:44.65Z</time></trkpt><trkpt lat="45.4903946" lon="11.7321754"><ele>19.42857142857143</ele><time>2026-05-02T11:05:47.654Z</time></trkpt><trkpt lat="45.490458" lon="11.7322423"><ele>19.28571428571429</ele><time>2026-05-02T11:05:50.664Z</time></trkpt><trkpt lat="45.4905141" lon="11.7322924"><ele>19.142857142857142</ele><time>2026-05-02T11:05:53.658Z</time></trkpt><trkpt lat="45.4905686" lon="11.7323385"><ele>19.0</ele><time>2026-05-02T11:05:56.657Z</time></trkpt><trkpt lat="45.4906303" lon="11.7323924"><ele>19.5</ele><time>2026-05-02T11:05:59.656Z</time></trkpt><trkpt lat="45.4907148" lon="11.7324557"><ele>20.0</ele><time>2026-05-02T11:06:02.657Z</time></trkpt><trkpt lat="45.4907823" lon="11.7325196"><ele>20.5</ele><time>2026-05-02T11:06:04.657Z</time></trkpt><trkpt lat="45.4908454" lon="11.7325877"><ele>21.0</ele><time>2026-05-02T11:06:06.656Z</time></trkpt><trkpt lat="45.4909243" lon="11.7326587"><ele>21.5</ele><time>2026-05-02T11:06:08.66Z</time></trkpt><trkpt lat="45.4909994" lon="11.7327302"><ele>22.0</ele><time>2026-05-02T11:06:10.661Z</time></trkpt><trkpt lat="45.4910786" lon="11.7328078"><ele>22.0</ele><time>2026-05-02T11:06:12.662Z</time></trkpt><trkpt lat="45.491145" lon="11.7328861"><ele>22.0</ele><time>2026-05-02T11:06:14.657Z</time></trkpt><trkpt lat="45.4912165" lon="11.7329638"><ele>22.0</ele><time>2026-05-02T11:06:16.643Z</time></trkpt><trkpt lat="45.4912795" lon="11.7330255"><ele>22.0</ele><time>2026-05-02T11:06:18.654Z</time></trkpt><trkpt lat="45.4913416" lon="11.7330839"><ele>22.0</ele><time>2026-05-02T11:06:20.65Z</time></trkpt><trkpt lat="45.4914013" lon="11.7331388"><ele>22.0</ele><time>2026-05-02T11:06:22.658Z</time></trkpt><trkpt lat="45.4914542" lon="11.7331945"><ele>22.0</ele><time>2026-05-02T11:06:24.658Z</time></trkpt><trkpt lat="45.4915061" lon="11.7332491"><ele>22.0</ele><time>2026-05-02T11:06:26.654Z</time></trkpt><trkpt lat="45.4915871" lon="11.7333218"><ele>22.0</ele><time>2026-05-02T11:06:29.656Z</time></trkpt><trkpt lat="45.4916446" lon="11.7333787"><ele>22.0</ele><time>2026-05-02T11:06:31.659Z</time></trkpt><trkpt lat="45.4917164" lon="11.7334387"><ele>22.0</ele><time>2026-05-02T11:06:33.662Z</time></trkpt><trkpt lat="45.4917839" lon="11.733502"><ele>22.0</ele><time>2026-05-02T11:06:35.657Z</time></trkpt><trkpt lat="45.4918428" lon="11.7335564"><ele>21.666666666666664</ele><time>2026-05-02T11:06:37.653Z</time></trkpt><trkpt lat="45.4918984" lon="11.7336047"><ele>21.333333333333332</ele><time>2026-05-02T11:06:39.651Z</time></trkpt><trkpt lat="45.4919522" lon="11.7336574"><ele>21.0</ele><time>2026-05-02T11:06:41.641Z</time></trkpt><trkpt lat="45.4920212" lon="11.7337283"><ele>20.666666666666668</ele><time>2026-05-02T11:06:44.66Z</time></trkpt><trkpt lat="45.4920884" lon="11.7337929"><ele>20.333333333333336</ele><time>2026-05-02T11:06:47.64Z</time></trkpt><trkpt lat="45.492164" lon="11.7338561"><ele>20.0</ele><time>2026-05-02T11:06:50.656Z</time></trkpt><trkpt lat="45.4922189" lon="11.7339097"><ele>20.0</ele><time>2026-05-02T11:06:52.661Z</time></trkpt><trkpt lat="45.4922777" lon="11.7339745"><ele>20.0</ele><time>2026-05-02T11:06:54.656Z</time></trkpt><trkpt lat="45.4923399" lon="11.7340582"><ele>20.0</ele><time>2026-05-02T11:06:56.663Z</time></trkpt><trkpt lat="45.4924164" lon="11.7341398"><ele>20.0</ele><time>2026-05-02T11:06:58.651Z</time></trkpt><trkpt lat="45.4924879" lon="11.7342133"><ele>20.0</ele><time>2026-05-02T11:07:00.656Z</time></trkpt><trkpt lat="45.4925637" lon="11.7342758"><ele>20.0</ele><time>2026-05-02T11:07:02.652Z</time></trkpt><trkpt lat="45.4926301" lon="11.7343481"><ele>20.0</ele><time>2026-05-02T11:07:04.643Z</time></trkpt><trkpt lat="45.4927014" lon="11.7344152"><ele>20.0</ele><time>2026-05-02T11:07:06.658Z</time></trkpt><trkpt lat="45.4927805" lon="11.7344888"><ele>20.0</ele><time>2026-05-02T11:07:08.655Z</time></trkpt><trkpt lat="45.4928603" lon="11.7345535"><ele>20.0</ele><time>2026-05-02T11:07:10.652Z</time></trkpt><trkpt lat="45.492938" lon="11.7346152"><ele>20.0</ele><time>2026-05-02T11:07:12.656Z</time></trkpt><trkpt lat="45.4930133" lon="11.734679"><ele>20.0</ele><time>2026-05-02T11:07:14.669Z</time></trkpt><trkpt lat="45.4930867" lon="11.7347475"><ele>20.0</ele><time>2026-05-02T11:07:16.659Z</time></trkpt><trkpt lat="45.4931613" lon="11.7348126"><ele>20.0</ele><time>2026-05-02T11:07:18.662Z</time></trkpt><trkpt lat="45.4932353" lon="11.7348786"><ele>20.0</ele><time>2026-05-02T11:07:20.655Z</time></trkpt><trkpt lat="45.4933056" lon="11.7349485"><ele>20.0</ele><time>2026-05-02T11:07:22.656Z</time></trkpt><trkpt lat="45.493373" lon="11.7350205"><ele>20.0</ele><time>2026-05-02T11:07:24.649Z</time></trkpt><trkpt lat="45.4934433" lon="11.7350997"><ele>20.0</ele><time>2026-05-02T11:07:26.66Z</time></trkpt><trkpt lat="45.4935195" lon="11.7351702"><ele>19.833333333333336</ele><time>2026-05-02T11:07:28.653Z</time></trkpt><trkpt lat="45.4935946" lon="11.7352369"><ele>19.666666666666668</ele><time>2026-05-02T11:07:30.665Z</time></trkpt><trkpt lat="45.4936548" lon="11.7353041"><ele>19.5</ele><time>2026-05-02T11:07:32.656Z</time></trkpt><trkpt lat="45.4937245" lon="11.7353689"><ele>19.333333333333332</ele><time>2026-05-02T11:07:34.659Z</time></trkpt><trkpt lat="45.4937914" lon="11.7354187"><ele>19.166666666666664</ele><time>2026-05-02T11:07:36.656Z</time></trkpt><trkpt lat="45.493852" lon="11.7354826"><ele>19.0</ele><time>2026-05-02T11:07:38.647Z</time></trkpt><trkpt lat="45.4939166" lon="11.7355343"><ele>19.285714285714285</ele><time>2026-05-02T11:07:40.651Z</time></trkpt><trkpt lat="45.4939736" lon="11.7355781"><ele>19.571428571428573</ele><time>2026-05-02T11:07:42.659Z</time></trkpt><trkpt lat="45.494033" lon="11.735632"><ele>19.857142857142858</ele><time>2026-05-02T11:07:46.651Z</time></trkpt><trkpt lat="45.4940896" lon="11.7357115"><ele>20.142857142857142</ele><time>2026-05-02T11:07:51.649Z</time></trkpt><trkpt lat="45.4941635" lon="11.7357381"><ele>20.42857142857143</ele><time>2026-05-02T11:07:55.653Z</time></trkpt><trkpt lat="45.4942239" lon="11.7357867"><ele>20.714285714285715</ele><time>2026-05-02T11:07:59.652Z</time></trkpt><trkpt lat="45.4942837" lon="11.7358685"><ele>21.0</ele><time>2026-05-02T11:08:03.656Z</time></trkpt><trkpt lat="45.4943401" lon="11.7359176"><ele>21.0</ele><time>2026-05-02T11:08:06.65Z</time></trkpt><trkpt lat="45.4943921" lon="11.7359735"><ele>21.0</ele><time>2026-05-02T11:08:09.658Z</time></trkpt><trkpt lat="45.494446" lon="11.7360252"><ele>21.0</ele><time>2026-05-02T11:08:12.659Z</time></trkpt><trkpt lat="45.4945045" lon="11.7360822"><ele>21.0</ele><time>2026-05-02T11:08:15.654Z</time></trkpt><trkpt lat="45.4945731" lon="11.7361421"><ele>21.0</ele><time>2026-05-02T11:08:18.652Z</time></trkpt><trkpt lat="45.4946354" lon="11.7362079"><ele>21.0</ele><time>2026-05-02T11:08:21.643Z</time></trkpt><trkpt lat="45.4947004" lon="11.7362552"><ele>21.0</ele><time>2026-05-02T11:08:24.652Z</time></trkpt><trkpt lat="45.4947579" lon="11.7363081"><ele>20.5</ele><time>2026-05-02T11:08:27.652Z</time></trkpt><trkpt lat="45.4948182" lon="11.7363668"><ele>20.0</ele><time>2026-05-02T11:08:30.655Z</time></trkpt><trkpt lat="45.4948977" lon="11.7364466"><ele>19.5</ele><time>2026-05-02T11:08:33.657Z</time></trkpt><trkpt lat="45.4949507" lon="11.7365018"><ele>19.0</ele><time>2026-05-02T11:08:35.655Z</time></trkpt><trkpt lat="45.4950136" lon="11.7365644"><ele>18.5</ele><time>2026-05-02T11:08:38.66Z</time></trkpt><trkpt lat="45.495094" lon="11.7366349"><ele>18.0</ele><time>2026-05-02T11:11:17.654Z</time></trkpt><trkpt lat="45.4951471" lon="11.7366979"><ele>18.0</ele><time>2026-05-02T11:11:23.655Z</time></trkpt><trkpt lat="45.4952213" lon="11.7367703"><ele>18.0</ele><time>2026-05-02T11:11:26.652Z</time></trkpt><trkpt lat="45.4952947" lon="11.7368462"><ele>18.0</ele><time>2026-05-02T11:11:29.645Z</time></trkpt><trkpt lat="45.4953532" lon="11.7368958"><ele>18.0</ele><time>2026-05-02T11:11:31.654Z</time></trkpt><trkpt lat="45.4954125" lon="11.7369545"><ele>18.0</ele><time>2026-05-02T11:11:33.66Z</time></trkpt><trkpt lat="45.4954674" lon="11.7370164"><ele>18.0</ele><time>2026-05-02T11:11:35.662Z</time></trkpt><trkpt lat="45.495523" lon="11.7370757"><ele>18.5</ele><time>2026-05-02T11:11:37.655Z</time></trkpt><trkpt lat="45.4955827" lon="11.7371279"><ele>19.0</ele><time>2026-05-02T11:11:39.665Z</time></trkpt><trkpt lat="45.4956489" lon="11.7371909"><ele>19.5</ele><time>2026-05-02T11:11:41.653Z</time></trkpt><trkpt lat="45.4957265" lon="11.7372579"><ele>20.0</ele><time>2026-05-02T11:11:43.648Z</time></trkpt><trkpt lat="45.4958067" lon="11.7373221"><ele>20.5</ele><time>2026-05-02T11:11:45.655Z</time></trkpt><trkpt lat="45.4958728" lon="11.7373965"><ele>21.0</ele><time>2026-05-02T11:11:47.66Z</time></trkpt><trkpt lat="45.4959538" lon="11.7374881"><ele>21.0</ele><time>2026-05-02T11:11:49.647Z</time></trkpt><trkpt lat="45.496037" lon="11.7375694"><ele>21.0</ele><time>2026-05-02T11:11:51.668Z</time></trkpt><trkpt lat="45.4961119" lon="11.7376486"><ele>21.0</ele><time>2026-05-02T11:11:53.663Z</time></trkpt><trkpt lat="45.4961868" lon="11.7377156"><ele>21.0</ele><time>2026-05-02T11:11:55.657Z</time></trkpt><trkpt lat="45.4962577" lon="11.7377851"><ele>21.0</ele><time>2026-05-02T11:11:57.66Z</time></trkpt><trkpt lat="45.4963281" lon="11.7378559"><ele>21.0</ele><time>2026-05-02T11:11:59.652Z</time></trkpt><trkpt lat="45.4963996" lon="11.7379178"><ele>21.0</ele><time>2026-05-02T11:12:01.656Z</time></trkpt><trkpt lat="45.4964775" lon="11.7379939"><ele>21.0</ele><time>2026-05-02T11:12:03.654Z</time></trkpt><trkpt lat="45.4965545" lon="11.7380672"><ele>21.0</ele><time>2026-05-02T11:12:05.653Z</time></trkpt><trkpt lat="45.4966334" lon="11.7381411"><ele>21.0</ele><time>2026-05-02T11:12:07.665Z</time></trkpt><trkpt lat="45.4967104" lon="11.7382164"><ele>21.0</ele><time>2026-05-02T11:12:09.658Z</time></trkpt><trkpt lat="45.4967865" lon="11.738285"><ele>21.0</ele><time>2026-05-02T11:12:11.657Z</time></trkpt><trkpt lat="45.4968589" lon="11.7383632"><ele>21.0</ele><time>2026-05-02T11:12:13.646Z</time></trkpt><trkpt lat="45.4969289" lon="11.7384244"><ele>21.0</ele><time>2026-05-02T11:12:15.655Z</time></trkpt><trkpt lat="45.4970016" lon="11.7384858"><ele>21.0</ele><time>2026-05-02T11:12:17.655Z</time></trkpt><trkpt lat="45.4970712" lon="11.7385603"><ele>21.0</ele><time>2026-05-02T11:12:19.652Z</time></trkpt><trkpt lat="45.4971282" lon="11.7386259"><ele>20.714285714285715</ele><time>2026-05-02T11:12:21.651Z</time></trkpt><trkpt lat="45.4971894" lon="11.7386914"><ele>20.42857142857143</ele><time>2026-05-02T11:12:23.657Z</time></trkpt><trkpt lat="45.4972487" lon="11.7387508"><ele>20.142857142857142</ele><time>2026-05-02T11:12:25.663Z</time></trkpt><trkpt lat="45.4973132" lon="11.7388028"><ele>19.857142857142858</ele><time>2026-05-02T11:12:27.652Z</time></trkpt><trkpt lat="45.4973751" lon="11.738857"><ele>19.571428571428573</ele><time>2026-05-02T11:12:29.65Z</time></trkpt><trkpt lat="45.4974352" lon="11.7389112"><ele>19.285714285714285</ele><time>2026-05-02T11:12:31.659Z</time></trkpt><trkpt lat="45.4974934" lon="11.7389706"><ele>19.0</ele><time>2026-05-02T11:12:33.65Z</time></trkpt><trkpt lat="45.497559" lon="11.7390327"><ele>19.0</ele><time>2026-05-02T11:12:35.653Z</time></trkpt><trkpt lat="45.4976373" lon="11.7390994"><ele>19.0</ele><time>2026-05-02T11:12:37.65Z</time></trkpt><trkpt lat="45.4977043" lon="11.7391785"><ele>19.0</ele><time>2026-05-02T11:12:39.66Z</time></trkpt><trkpt lat="45.4977861" lon="11.7392537"><ele>19.0</ele><time>2026-05-02T11:12:41.655Z</time></trkpt><trkpt lat="45.4978644" lon="11.7393306"><ele>19.0</ele><time>2026-05-02T11:12:43.658Z</time></trkpt><trkpt lat="45.4979494" lon="11.7394001"><ele>18.8</ele><time>2026-05-02T11:12:45.655Z</time></trkpt><trkpt lat="45.4980384" lon="11.7394889"><ele>18.599999999999998</ele><time>2026-05-02T11:12:47.656Z</time></trkpt><trkpt lat="45.4981291" lon="11.739572"><ele>18.4</ele><time>2026-05-02T11:12:49.657Z</time></trkpt><trkpt lat="45.4982158" lon="11.7396603"><ele>18.2</ele><time>2026-05-02T11:12:51.66Z</time></trkpt><trkpt lat="45.4982954" lon="11.7397578"><ele>18.0</ele><time>2026-05-02T11:12:53.651Z</time></trkpt><trkpt lat="45.4983727" lon="11.7398272"><ele>18.0</ele><time>2026-05-02T11:12:55.654Z</time></trkpt><trkpt lat="45.4984497" lon="11.7398906"><ele>18.0</ele><time>2026-05-02T11:12:57.653Z</time></trkpt><trkpt lat="45.4985161" lon="11.7399562"><ele>18.0</ele><time>2026-05-02T11:12:59.655Z</time></trkpt><trkpt lat="45.4985862" lon="11.740027"><ele>18.0</ele><time>2026-05-02T11:13:01.661Z</time></trkpt><trkpt lat="45.4986691" lon="11.7400991"><ele>18.0</ele><time>2026-05-02T11:13:03.664Z</time></trkpt><trkpt lat="45.4987493" lon="11.7401736"><ele>18.0</ele><time>2026-05-02T11:13:05.66Z</time></trkpt><trkpt lat="45.4988257" lon="11.7402398"><ele>18.166666666666668</ele><time>2026-05-02T11:13:07.659Z</time></trkpt><trkpt lat="45.4988961" lon="11.7403106"><ele>18.333333333333332</ele><time>2026-05-02T11:13:09.662Z</time></trkpt><trkpt lat="45.4989712" lon="11.7403926"><ele>18.5</ele><time>2026-05-02T11:13:11.653Z</time></trkpt><trkpt lat="45.4990396" lon="11.7404626"><ele>18.666666666666664</ele><time>2026-05-02T11:13:13.632Z</time></trkpt><trkpt lat="45.4991041" lon="11.7405314"><ele>18.833333333333332</ele><time>2026-05-02T11:13:15.656Z</time></trkpt><trkpt lat="45.4991751" lon="11.7405923"><ele>19.0</ele><time>2026-05-02T11:13:17.652Z</time></trkpt><trkpt lat="45.4992474" lon="11.7406455"><ele>19.0</ele><time>2026-05-02T11:13:19.657Z</time></trkpt><trkpt lat="45.4993272" lon="11.740721"><ele>19.0</ele><time>2026-05-02T11:13:21.661Z</time></trkpt><trkpt lat="45.4994018" lon="11.7407963"><ele>19.0</ele><time>2026-05-02T11:13:23.656Z</time></trkpt><trkpt lat="45.4994758" lon="11.7408673"><ele>19.0</ele><time>2026-05-02T11:13:25.66Z</time></trkpt><trkpt lat="45.4995536" lon="11.740948"><ele>19.0</ele><time>2026-05-02T11:13:27.649Z</time></trkpt><trkpt lat="45.4996333" lon="11.7410225"><ele>19.4</ele><time>2026-05-02T11:13:29.656Z</time></trkpt><trkpt lat="45.4997131" lon="11.7411015"><ele>19.799999999999997</ele><time>2026-05-02T11:13:31.657Z</time></trkpt><trkpt lat="45.4997907" lon="11.7411768"><ele>20.200000000000003</ele><time>2026-05-02T11:13:33.66Z</time></trkpt><trkpt lat="45.4998682" lon="11.7412459"><ele>20.6</ele><time>2026-05-02T11:13:35.654Z</time></trkpt><trkpt lat="45.4999397" lon="11.7413054"><ele>21.0</ele><time>2026-05-02T11:13:37.658Z</time></trkpt><trkpt lat="45.5000161" lon="11.7413724"><ele>21.0</ele><time>2026-05-02T11:13:39.656Z</time></trkpt><trkpt lat="45.500096" lon="11.7414571"><ele>21.0</ele><time>2026-05-02T11:13:41.656Z</time></trkpt><trkpt lat="45.5001697" lon="11.7415347"><ele>21.0</ele><time>2026-05-02T11:13:43.648Z</time></trkpt><trkpt lat="45.5002491" lon="11.7416085"><ele>21.0</ele><time>2026-05-02T11:13:45.639Z</time></trkpt><trkpt lat="45.5003209" lon="11.7416757"><ele>21.0</ele><time>2026-05-02T11:13:47.661Z</time></trkpt><trkpt lat="45.5003891" lon="11.741742"><ele>20.833333333333332</ele><time>2026-05-02T11:13:49.658Z</time></trkpt><trkpt lat="45.5004546" lon="11.7418111"><ele>20.666666666666668</ele><time>2026-05-02T11:13:51.663Z</time></trkpt><trkpt lat="45.5005283" lon="11.7418873"><ele>20.5</ele><time>2026-05-02T11:13:53.651Z</time></trkpt><trkpt lat="45.5005927" lon="11.7419559"><ele>20.333333333333336</ele><time>2026-05-02T11:13:55.641Z</time></trkpt><trkpt lat="45.5006639" lon="11.7420206"><ele>20.166666666666668</ele><time>2026-05-02T11:13:57.659Z</time></trkpt><trkpt lat="45.50074" lon="11.7420927"><ele>20.0</ele><time>2026-05-02T11:13:59.656Z</time></trkpt><trkpt lat="45.5008115" lon="11.7421652"><ele>20.285714285714285</ele><time>2026-05-02T11:14:01.65Z</time></trkpt><trkpt lat="45.5008747" lon="11.74222"><ele>20.571428571428573</ele><time>2026-05-02T11:14:03.658Z</time></trkpt><trkpt lat="45.5009499" lon="11.7422815"><ele>20.857142857142858</ele><time>2026-05-02T11:14:06.657Z</time></trkpt><trkpt lat="45.5010068" lon="11.7423464"><ele>21.142857142857142</ele><time>2026-05-02T11:14:10.652Z</time></trkpt><trkpt lat="45.5010686" lon="11.7424011"><ele>21.428571428571427</ele><time>2026-05-02T11:15:50.653Z</time></trkpt><trkpt lat="45.501121" lon="11.7424513"><ele>21.714285714285715</ele><time>2026-05-02T11:15:59.661Z</time></trkpt><trkpt lat="45.5011827" lon="11.7425076"><ele>22.0</ele><time>2026-05-02T11:16:03.652Z</time></trkpt><trkpt lat="45.5012368" lon="11.7425676"><ele>22.142857142857142</ele><time>2026-05-02T11:16:05.661Z</time></trkpt><trkpt lat="45.5013006" lon="11.7426313"><ele>22.285714285714285</ele><time>2026-05-02T11:16:07.656Z</time></trkpt><trkpt lat="45.5013587" lon="11.7426941"><ele>22.42857142857143</ele><time>2026-05-02T11:16:09.662Z</time></trkpt><trkpt lat="45.5014153" lon="11.7427495"><ele>22.57142857142857</ele><time>2026-05-02T11:16:11.656Z</time></trkpt><trkpt lat="45.5014719" lon="11.7428051"><ele>22.71428571428571</ele><time>2026-05-02T11:16:13.655Z</time></trkpt><trkpt lat="45.501528" lon="11.7428645"><ele>22.857142857142858</ele><time>2026-05-02T11:16:15.652Z</time></trkpt><trkpt lat="45.5015848" lon="11.7429184"><ele>23.0</ele><time>2026-05-02T11:16:17.66Z</time></trkpt><trkpt lat="45.5016379" lon="11.7429712"><ele>23.0</ele><time>2026-05-02T11:16:19.65Z</time></trkpt><trkpt lat="45.5017138" lon="11.7430425"><ele>23.0</ele><time>2026-05-02T11:16:22.656Z</time></trkpt><trkpt lat="45.5018041" lon="11.7430691"><ele>23.0</ele><time>2026-05-02T11:16:25.659Z</time></trkpt><trkpt lat="45.5018774" lon="11.7430344"><ele>23.0</ele><time>2026-05-02T11:16:27.655Z</time></trkpt><trkpt lat="45.5019464" lon="11.7429994"><ele>23.0</ele><time>2026-05-02T11:16:29.656Z</time></trkpt><trkpt lat="45.5020231" lon="11.742967"><ele>23.0</ele><time>2026-05-02T11:16:31.653Z</time></trkpt><trkpt lat="45.5020933" lon="11.7429321"><ele>22.833333333333336</ele><time>2026-05-02T11:16:33.653Z</time></trkpt><trkpt lat="45.5021682" lon="11.7429545"><ele>22.666666666666668</ele><time>2026-05-02T11:16:36.657Z</time></trkpt><trkpt lat="45.5021858" lon="11.7430713"><ele>22.5</ele><time>2026-05-02T11:16:39.653Z</time></trkpt><trkpt lat="45.5021545" lon="11.743199"><ele>22.333333333333332</ele><time>2026-05-02T11:16:42.657Z</time></trkpt><trkpt lat="45.5021156" lon="11.7432963"><ele>22.166666666666664</ele><time>2026-05-02T11:16:44.654Z</time></trkpt><trkpt lat="45.5021285" lon="11.7434067"><ele>22.0</ele><time>2026-05-02T11:16:46.652Z</time></trkpt><trkpt lat="45.5021952" lon="11.7434702"><ele>22.0</ele><time>2026-05-02T11:16:48.659Z</time></trkpt><trkpt lat="45.5022514" lon="11.7435297"><ele>22.0</ele><time>2026-05-02T11:16:50.65Z</time></trkpt><trkpt lat="45.502313" lon="11.7435825"><ele>22.0</ele><time>2026-05-02T11:16:52.653Z</time></trkpt><trkpt lat="45.5023739" lon="11.743652"><ele>22.0</ele><time>2026-05-02T11:16:54.656Z</time></trkpt><trkpt lat="45.5024416" lon="11.7437296"><ele>22.0</ele><time>2026-05-02T11:16:56.651Z</time></trkpt><trkpt lat="45.5025215" lon="11.7437973"><ele>22.0</ele><time>2026-05-02T11:16:58.652Z</time></trkpt><trkpt lat="45.5025961" lon="11.7438706"><ele>22.166666666666664</ele><time>2026-05-02T11:17:00.653Z</time></trkpt><trkpt lat="45.5026593" lon="11.7439385"><ele>22.333333333333332</ele><time>2026-05-02T11:17:02.65Z</time></trkpt><trkpt lat="45.5027252" lon="11.7440057"><ele>22.5</ele><time>2026-05-02T11:17:04.653Z</time></trkpt><trkpt lat="45.5027959" lon="11.7440756"><ele>22.666666666666668</ele><time>2026-05-02T11:17:06.65Z</time></trkpt><trkpt lat="45.5028704" lon="11.7441388"><ele>22.833333333333336</ele><time>2026-05-02T11:17:08.653Z</time></trkpt><trkpt lat="45.5029454" lon="11.744211"><ele>23.0</ele><time>2026-05-02T11:17:10.649Z</time></trkpt><trkpt lat="45.5030177" lon="11.7442855"><ele>22.599999999999998</ele><time>2026-05-02T11:17:12.654Z</time></trkpt><trkpt lat="45.5031" lon="11.7443621"><ele>22.2</ele><time>2026-05-02T11:17:14.649Z</time></trkpt><trkpt lat="45.5031793" lon="11.7444341"><ele>21.8</ele><time>2026-05-02T11:17:16.657Z</time></trkpt><trkpt lat="45.5032589" lon="11.7445097"><ele>21.4</ele><time>2026-05-02T11:17:18.652Z</time></trkpt><trkpt lat="45.5033325" lon="11.7445875"><ele>21.0</ele><time>2026-05-02T11:17:20.654Z</time></trkpt><trkpt lat="45.5034029" lon="11.7446558"><ele>21.0</ele><time>2026-05-02T11:17:22.639Z</time></trkpt><trkpt lat="45.5034758" lon="11.7447223"><ele>21.0</ele><time>2026-05-02T11:17:24.655Z</time></trkpt><trkpt lat="45.5035487" lon="11.7448002"><ele>21.0</ele><time>2026-05-02T11:17:26.657Z</time></trkpt><trkpt lat="45.5036253" lon="11.7448794"><ele>21.0</ele><time>2026-05-02T11:17:28.661Z</time></trkpt><trkpt lat="45.503694" lon="11.7449615"><ele>21.0</ele><time>2026-05-02T11:17:30.656Z</time></trkpt><trkpt lat="45.5037696" lon="11.7450484"><ele>21.166666666666668</ele><time>2026-05-02T11:17:32.662Z</time></trkpt><trkpt lat="45.5038458" lon="11.7451119"><ele>21.333333333333332</ele><time>2026-05-02T11:17:34.659Z</time></trkpt><trkpt lat="45.5039284" lon="11.7451639"><ele>21.5</ele><time>2026-05-02T11:17:36.646Z</time></trkpt><trkpt lat="45.5040091" lon="11.7452225"><ele>21.666666666666664</ele><time>2026-05-02T11:17:38.648Z</time></trkpt><trkpt lat="45.5040833" lon="11.7452778"><ele>21.833333333333332</ele><time>2026-05-02T11:17:40.656Z</time></trkpt><trkpt lat="45.5041676" lon="11.7453435"><ele>22.0</ele><time>2026-05-02T11:17:42.656Z</time></trkpt><trkpt lat="45.504253" lon="11.7454095"><ele>22.200000000000003</ele><time>2026-05-02T11:17:44.649Z</time></trkpt><trkpt lat="45.5043392" lon="11.7454811"><ele>22.4</ele><time>2026-05-02T11:17:46.658Z</time></trkpt><trkpt lat="45.5044111" lon="11.7455475"><ele>22.6</ele><time>2026-05-02T11:17:48.648Z</time></trkpt><trkpt lat="45.5044871" lon="11.7456148"><ele>22.799999999999997</ele><time>2026-05-02T11:17:50.655Z</time></trkpt><trkpt lat="45.504558" lon="11.7456879"><ele>23.0</ele><time>2026-05-02T11:17:52.656Z</time></trkpt><trkpt lat="45.5046365" lon="11.745767"><ele>23.0</ele><time>2026-05-02T11:17:54.656Z</time></trkpt><trkpt lat="45.5047141" lon="11.7458538"><ele>23.0</ele><time>2026-05-02T11:17:56.656Z</time></trkpt><trkpt lat="45.5047937" lon="11.7459451"><ele>23.0</ele><time>2026-05-02T11:17:58.656Z</time></trkpt><trkpt lat="45.5048684" lon="11.7460338"><ele>23.0</ele><time>2026-05-02T11:18:00.649Z</time></trkpt><trkpt lat="45.5049375" lon="11.74611"><ele>23.0</ele><time>2026-05-02T11:18:02.655Z</time></trkpt><trkpt lat="45.5050121" lon="11.7461898"><ele>23.0</ele><time>2026-05-02T11:18:04.66Z</time></trkpt><trkpt lat="45.5050896" lon="11.7462628"><ele>23.0</ele><time>2026-05-02T11:18:06.655Z</time></trkpt><trkpt lat="45.5051659" lon="11.7463335"><ele>23.0</ele><time>2026-05-02T11:18:08.654Z</time></trkpt><trkpt lat="45.5052453" lon="11.7464077"><ele>23.0</ele><time>2026-05-02T11:18:10.65Z</time></trkpt><trkpt lat="45.5053244" lon="11.7464869"><ele>23.0</ele><time>2026-05-02T11:18:12.658Z</time></trkpt><trkpt lat="45.5054055" lon="11.7465607"><ele>22.799999999999997</ele><time>2026-05-02T11:18:14.653Z</time></trkpt><trkpt lat="45.5054915" lon="11.7466388"><ele>22.6</ele><time>2026-05-02T11:18:16.646Z</time></trkpt><trkpt lat="45.5055713" lon="11.7467135"><ele>22.4</ele><time>2026-05-02T11:18:18.635Z</time></trkpt><trkpt lat="45.5056488" lon="11.7467954"><ele>22.200000000000003</ele><time>2026-05-02T11:18:20.664Z</time></trkpt><trkpt lat="45.5057206" lon="11.7468765"><ele>22.0</ele><time>2026-05-02T11:18:22.647Z</time></trkpt><trkpt lat="45.5057899" lon="11.7469515"><ele>22.0</ele><time>2026-05-02T11:18:24.654Z</time></trkpt><trkpt lat="45.5058689" lon="11.7470365"><ele>22.0</ele><time>2026-05-02T11:18:26.65Z</time></trkpt><trkpt lat="45.5059473" lon="11.7471211"><ele>22.0</ele><time>2026-05-02T11:18:28.654Z</time></trkpt><trkpt lat="45.5060352" lon="11.7471881"><ele>22.0</ele><time>2026-05-02T11:18:30.651Z</time></trkpt><trkpt lat="45.5061105" lon="11.7472512"><ele>22.0</ele><time>2026-05-02T11:18:32.66Z</time></trkpt><trkpt lat="45.5061815" lon="11.7473152"><ele>22.0</ele><time>2026-05-02T11:18:34.66Z</time></trkpt><trkpt lat="45.5062567" lon="11.7473843"><ele>22.0</ele><time>2026-05-02T11:18:36.659Z</time></trkpt><trkpt lat="45.5063309" lon="11.7474414"><ele>22.0</ele><time>2026-05-02T11:18:38.654Z</time></trkpt><trkpt lat="45.5064037" lon="11.7475052"><ele>22.0</ele><time>2026-05-02T11:18:40.655Z</time></trkpt><trkpt lat="45.5064709" lon="11.7475566"><ele>22.0</ele><time>2026-05-02T11:18:42.649Z</time></trkpt><trkpt lat="45.5065338" lon="11.7476291"><ele>22.0</ele><time>2026-05-02T11:18:44.648Z</time></trkpt><trkpt lat="45.5065927" lon="11.7476925"><ele>22.0</ele><time>2026-05-02T11:18:46.654Z</time></trkpt><trkpt lat="45.5066568" lon="11.7477514"><ele>22.0</ele><time>2026-05-02T11:18:48.66Z</time></trkpt><trkpt lat="45.5067168" lon="11.7478136"><ele>22.0</ele><time>2026-05-02T11:18:50.639Z</time></trkpt><trkpt lat="45.5067746" lon="11.7478711"><ele>22.0</ele><time>2026-05-02T11:18:52.655Z</time></trkpt><trkpt lat="45.506831" lon="11.7479296"><ele>22.0</ele><time>2026-05-02T11:18:54.653Z</time></trkpt><trkpt lat="45.5068974" lon="11.7479862"><ele>22.0</ele><time>2026-05-02T11:18:56.647Z</time></trkpt><trkpt lat="45.506961" lon="11.748052"><ele>22.0</ele><time>2026-05-02T11:18:58.636Z</time></trkpt><trkpt lat="45.5070255" lon="11.7481162"><ele>21.6</ele><time>2026-05-02T11:19:00.652Z</time></trkpt><trkpt lat="45.5070878" lon="11.7481846"><ele>21.200000000000003</ele><time>2026-05-02T11:19:02.637Z</time></trkpt><trkpt lat="45.5071577" lon="11.7482623"><ele>20.8</ele><time>2026-05-02T11:19:04.653Z</time></trkpt><trkpt lat="45.5072395" lon="11.7483395"><ele>20.4</ele><time>2026-05-02T11:19:06.659Z</time></trkpt><trkpt lat="45.5073167" lon="11.7484129"><ele>20.0</ele><time>2026-05-02T11:19:08.65Z</time></trkpt><trkpt lat="45.5075736" lon="11.7486363"><ele>20.0</ele><time>2026-05-02T11:19:14.126Z</time></trkpt><trkpt lat="45.5076285" lon="11.7487022"><ele>20.0</ele><time>2026-05-02T11:19:15.639Z</time></trkpt><trkpt lat="45.5077199" lon="11.7487925"><ele>20.0</ele><time>2026-05-02T11:19:17.648Z</time></trkpt><trkpt lat="45.5077976" lon="11.7488711"><ele>20.0</ele><time>2026-05-02T11:19:19.653Z</time></trkpt><trkpt lat="45.5078803" lon="11.7489565"><ele>20.0</ele><time>2026-05-02T11:19:21.647Z</time></trkpt><trkpt lat="45.507964" lon="11.7490439"><ele>20.4</ele><time>2026-05-02T11:19:23.639Z</time></trkpt><trkpt lat="45.5080492" lon="11.7491187"><ele>20.8</ele><time>2026-05-02T11:19:25.654Z</time></trkpt><trkpt lat="45.5081365" lon="11.7492076"><ele>21.200000000000003</ele><time>2026-05-02T11:19:27.655Z</time></trkpt><trkpt lat="45.5082165" lon="11.7492892"><ele>21.6</ele><time>2026-05-02T11:19:29.653Z</time></trkpt><trkpt lat="45.5083" lon="11.749376"><ele>22.0</ele><time>2026-05-02T11:19:31.65Z</time></trkpt><trkpt lat="45.5083862" lon="11.7494535"><ele>22.0</ele><time>2026-05-02T11:19:33.65Z</time></trkpt><trkpt lat="45.5084688" lon="11.7495363"><ele>22.0</ele><time>2026-05-02T11:19:35.647Z</time></trkpt><trkpt lat="45.5085504" lon="11.7496114"><ele>22.0</ele><time>2026-05-02T11:19:37.655Z</time></trkpt><trkpt lat="45.5086334" lon="11.7496881"><ele>22.0</ele><time>2026-05-02T11:19:39.653Z</time></trkpt><trkpt lat="45.5087094" lon="11.7497556"><ele>22.0</ele><time>2026-05-02T11:19:41.659Z</time></trkpt><trkpt lat="45.5087783" lon="11.7498238"><ele>22.0</ele><time>2026-05-02T11:19:43.65Z</time></trkpt><trkpt lat="45.5088416" lon="11.7498825"><ele>22.0</ele><time>2026-05-02T11:19:45.653Z</time></trkpt><trkpt lat="45.5088924" lon="11.7499379"><ele>22.0</ele><time>2026-05-02T11:19:47.643Z</time></trkpt><trkpt lat="45.5089553" lon="11.7500116"><ele>22.0</ele><time>2026-05-02T11:19:51.653Z</time></trkpt><trkpt lat="45.5090197" lon="11.7500411"><ele>22.0</ele><time>2026-05-02T11:19:55.633Z</time></trkpt><trkpt lat="45.509093" lon="11.7500676"><ele>22.0</ele><time>2026-05-02T11:19:58.645Z</time></trkpt><trkpt lat="45.5091501" lon="11.7501059"><ele>22.0</ele><time>2026-05-02T11:20:01.665Z</time></trkpt><trkpt lat="45.5091968" lon="11.7502084"><ele>22.200000000000003</ele><time>2026-05-02T11:20:04.659Z</time></trkpt><trkpt lat="45.5092671" lon="11.7502772"><ele>22.4</ele><time>2026-05-02T11:20:06.634Z</time></trkpt><trkpt lat="45.5093372" lon="11.7503483"><ele>22.6</ele><time>2026-05-02T11:20:08.658Z</time></trkpt><trkpt lat="45.5094258" lon="11.750442"><ele>22.799999999999997</ele><time>2026-05-02T11:20:10.653Z</time></trkpt><trkpt lat="45.5095129" lon="11.7505349"><ele>23.0</ele><time>2026-05-02T11:20:12.659Z</time></trkpt><trkpt lat="45.5096135" lon="11.7506274"><ele>23.0</ele><time>2026-05-02T11:20:14.653Z</time></trkpt><trkpt lat="45.5097037" lon="11.7507295"><ele>23.0</ele><time>2026-05-02T11:20:16.647Z</time></trkpt><trkpt lat="45.5097929" lon="11.7508095"><ele>23.0</ele><time>2026-05-02T11:20:18.656Z</time></trkpt><trkpt lat="45.5098768" lon="11.7508817"><ele>23.0</ele><time>2026-05-02T11:20:20.657Z</time></trkpt><trkpt lat="45.5099575" lon="11.7509506"><ele>23.0</ele><time>2026-05-02T11:20:22.648Z</time></trkpt><trkpt lat="45.5100436" lon="11.7510262"><ele>23.0</ele><time>2026-05-02T11:20:24.653Z</time></trkpt><trkpt lat="45.5101352" lon="11.7511112"><ele>23.0</ele><time>2026-05-02T11:20:26.653Z</time></trkpt><trkpt lat="45.510225" lon="11.7511995"><ele>23.0</ele><time>2026-05-02T11:20:28.656Z</time></trkpt><trkpt lat="45.5103157" lon="11.7512781"><ele>23.0</ele><time>2026-05-02T11:20:30.655Z</time></trkpt><trkpt lat="45.5103991" lon="11.7513606"><ele>23.0</ele><time>2026-05-02T11:20:32.657Z</time></trkpt><trkpt lat="45.5104839" lon="11.7514421"><ele>22.799999999999997</ele><time>2026-05-02T11:20:34.653Z</time></trkpt><trkpt lat="45.5105736" lon="11.7515266"><ele>22.6</ele><time>2026-05-02T11:20:36.652Z</time></trkpt><trkpt lat="45.510661" lon="11.751607"><ele>22.4</ele><time>2026-05-02T11:20:38.654Z</time></trkpt><trkpt lat="45.5107435" lon="11.7516923"><ele>22.200000000000003</ele><time>2026-05-02T11:20:40.655Z</time></trkpt><trkpt lat="45.5108203" lon="11.7517671"><ele>22.0</ele><time>2026-05-02T11:20:42.641Z</time></trkpt><trkpt lat="45.5109006" lon="11.7518441"><ele>21.8</ele><time>2026-05-02T11:20:44.662Z</time></trkpt><trkpt lat="45.5109804" lon="11.7519246"><ele>21.6</ele><time>2026-05-02T11:20:46.668Z</time></trkpt><trkpt lat="45.5110649" lon="11.7520051"><ele>21.400000000000002</ele><time>2026-05-02T11:20:48.652Z</time></trkpt><trkpt lat="45.511146" lon="11.7520853"><ele>21.200000000000003</ele><time>2026-05-02T11:20:50.654Z</time></trkpt><trkpt lat="45.5112201" lon="11.7521575"><ele>21.0</ele><time>2026-05-02T11:20:52.659Z</time></trkpt><trkpt lat="45.5112909" lon="11.7522364"><ele>21.0</ele><time>2026-05-02T11:20:54.659Z</time></trkpt><trkpt lat="45.5113579" lon="11.7523087"><ele>21.0</ele><time>2026-05-02T11:20:56.628Z</time></trkpt><trkpt lat="45.5114233" lon="11.7523741"><ele>21.0</ele><time>2026-05-02T11:20:58.643Z</time></trkpt><trkpt lat="45.511474" lon="11.7524298"><ele>21.0</ele><time>2026-05-02T11:21:00.657Z</time></trkpt><trkpt lat="45.5115301" lon="11.752512"><ele>21.0</ele><time>2026-05-02T11:21:02.655Z</time></trkpt><trkpt lat="45.511593" lon="11.7525833"><ele>21.0</ele><time>2026-05-02T11:21:04.542Z</time></trkpt><trkpt lat="45.5116598" lon="11.7526191"><ele>21.0</ele><time>2026-05-02T11:21:05.641Z</time></trkpt><trkpt lat="45.511749" lon="11.7527061"><ele>21.0</ele><time>2026-05-02T11:21:07.656Z</time></trkpt><trkpt lat="45.5118342" lon="11.7527946"><ele>21.0</ele><time>2026-05-02T11:21:09.652Z</time></trkpt><trkpt lat="45.5119188" lon="11.7528783"><ele>21.0</ele><time>2026-05-02T11:21:11.652Z</time></trkpt><trkpt lat="45.5120052" lon="11.7529571"><ele>21.0</ele><time>2026-05-02T11:21:13.666Z</time></trkpt><trkpt lat="45.5120931" lon="11.7530308"><ele>21.0</ele><time>2026-05-02T11:21:15.66Z</time></trkpt><trkpt lat="45.5121856" lon="11.7531106"><ele>21.0</ele><time>2026-05-02T11:21:17.649Z</time></trkpt><trkpt lat="45.512277" lon="11.7531921"><ele>21.0</ele><time>2026-05-02T11:21:19.65Z</time></trkpt><trkpt lat="45.512372" lon="11.7532805"><ele>21.0</ele><time>2026-05-02T11:21:21.658Z</time></trkpt><trkpt lat="45.5124687" lon="11.7533592"><ele>21.0</ele><time>2026-05-02T11:21:23.651Z</time></trkpt><trkpt lat="45.5125725" lon="11.7534453"><ele>21.0</ele><time>2026-05-02T11:21:25.657Z</time></trkpt><trkpt lat="45.512668" lon="11.7535313"><ele>21.0</ele><time>2026-05-02T11:21:27.654Z</time></trkpt><trkpt lat="45.5127598" lon="11.7536165"><ele>21.0</ele><time>2026-05-02T11:21:29.649Z</time></trkpt><trkpt lat="45.5128479" lon="11.7536944"><ele>21.0</ele><time>2026-05-02T11:21:31.652Z</time></trkpt><trkpt lat="45.5129316" lon="11.7537821"><ele>21.0</ele><time>2026-05-02T11:21:33.652Z</time></trkpt><trkpt lat="45.5130213" lon="11.7538707"><ele>21.200000000000003</ele><time>2026-05-02T11:21:35.656Z</time></trkpt><trkpt lat="45.5131127" lon="11.7539546"><ele>21.400000000000002</ele><time>2026-05-02T11:21:37.655Z</time></trkpt><trkpt lat="45.5132002" lon="11.754042"><ele>21.6</ele><time>2026-05-02T11:21:39.648Z</time></trkpt><trkpt lat="45.5132878" lon="11.7541302"><ele>21.8</ele><time>2026-05-02T11:21:41.649Z</time></trkpt><trkpt lat="45.5133637" lon="11.7542173"><ele>22.0</ele><time>2026-05-02T11:21:43.655Z</time></trkpt><trkpt lat="45.5134408" lon="11.7542954"><ele>22.0</ele><time>2026-05-02T11:21:45.651Z</time></trkpt><trkpt lat="45.5135141" lon="11.7543717"><ele>22.0</ele><time>2026-05-02T11:21:47.651Z</time></trkpt><trkpt lat="45.5136033" lon="11.7544457"><ele>22.0</ele><time>2026-05-02T11:21:49.651Z</time></trkpt><trkpt lat="45.5136828" lon="11.7545323"><ele>22.0</ele><time>2026-05-02T11:21:51.652Z</time></trkpt><trkpt lat="45.5137721" lon="11.7546237"><ele>22.0</ele><time>2026-05-02T11:21:53.648Z</time></trkpt><trkpt lat="45.5138582" lon="11.7546979"><ele>22.0</ele><time>2026-05-02T11:21:55.655Z</time></trkpt><trkpt lat="45.5139502" lon="11.7547768"><ele>22.0</ele><time>2026-05-02T11:21:57.658Z</time></trkpt><trkpt lat="45.5140409" lon="11.7548501"><ele>22.0</ele><time>2026-05-02T11:21:59.661Z</time></trkpt><trkpt lat="45.5141265" lon="11.7549342"><ele>22.0</ele><time>2026-05-02T11:22:01.665Z</time></trkpt><trkpt lat="45.5142145" lon="11.7550136"><ele>22.0</ele><time>2026-05-02T11:22:03.656Z</time></trkpt><trkpt lat="45.5143062" lon="11.7550928"><ele>22.0</ele><time>2026-05-02T11:22:05.649Z</time></trkpt><trkpt lat="45.514395" lon="11.75516"><ele>22.0</ele><time>2026-05-02T11:22:07.654Z</time></trkpt><trkpt lat="45.5144758" lon="11.7552351"><ele>22.0</ele><time>2026-05-02T11:22:09.651Z</time></trkpt><trkpt lat="45.5145548" lon="11.7553049"><ele>22.0</ele><time>2026-05-02T11:22:11.649Z</time></trkpt><trkpt lat="45.5146383" lon="11.7553735"><ele>22.0</ele><time>2026-05-02T11:22:13.633Z</time></trkpt><trkpt lat="45.5147075" lon="11.7554473"><ele>22.166666666666664</ele><time>2026-05-02T11:22:15.659Z</time></trkpt><trkpt lat="45.5147809" lon="11.7555278"><ele>22.333333333333332</ele><time>2026-05-02T11:22:17.659Z</time></trkpt><trkpt lat="45.5148483" lon="11.7555967"><ele>22.5</ele><time>2026-05-02T11:22:19.653Z</time></trkpt><trkpt lat="45.5149068" lon="11.7556787"><ele>22.666666666666668</ele><time>2026-05-02T11:22:21.657Z</time></trkpt><trkpt lat="45.5149747" lon="11.7557534"><ele>22.833333333333336</ele><time>2026-05-02T11:22:24.659Z</time></trkpt><trkpt lat="45.5150309" lon="11.7557967"><ele>23.0</ele><time>2026-05-02T11:22:27.65Z</time></trkpt><trkpt lat="45.5151091" lon="11.7558746"><ele>23.0</ele><time>2026-05-02T11:22:30.651Z</time></trkpt><trkpt lat="45.5151756" lon="11.7559497"><ele>23.0</ele><time>2026-05-02T11:22:32.652Z</time></trkpt><trkpt lat="45.5152478" lon="11.756014"><ele>23.0</ele><time>2026-05-02T11:22:34.651Z</time></trkpt><trkpt lat="45.5153096" lon="11.7560759"><ele>23.0</ele><time>2026-05-02T11:22:36.652Z</time></trkpt><trkpt lat="45.5153692" lon="11.7561238"><ele>23.0</ele><time>2026-05-02T11:22:38.655Z</time></trkpt><trkpt lat="45.5154318" lon="11.7561807"><ele>23.0</ele><time>2026-05-02T11:22:40.655Z</time></trkpt><trkpt lat="45.5154914" lon="11.7562357"><ele>23.4</ele><time>2026-05-02T11:22:42.65Z</time></trkpt><trkpt lat="45.5155515" lon="11.7563"><ele>23.799999999999997</ele><time>2026-05-02T11:22:44.67Z</time></trkpt><trkpt lat="45.5156239" lon="11.7563602"><ele>24.2</ele><time>2026-05-02T11:22:46.662Z</time></trkpt><trkpt lat="45.5156913" lon="11.7564291"><ele>24.6</ele><time>2026-05-02T11:22:48.651Z</time></trkpt><trkpt lat="45.5157778" lon="11.7565107"><ele>25.0</ele><time>2026-05-02T11:22:50.657Z</time></trkpt><trkpt lat="45.5158693" lon="11.7565948"><ele>25.0</ele><time>2026-05-02T11:22:52.664Z</time></trkpt><trkpt lat="45.5159634" lon="11.7566792"><ele>25.0</ele><time>2026-05-02T11:22:54.657Z</time></trkpt><trkpt lat="45.5160443" lon="11.7567591"><ele>25.0</ele><time>2026-05-02T11:22:56.658Z</time></trkpt><trkpt lat="45.5161282" lon="11.7568279"><ele>25.0</ele><time>2026-05-02T11:22:58.651Z</time></trkpt><trkpt lat="45.5162134" lon="11.7569049"><ele>25.0</ele><time>2026-05-02T11:23:00.647Z</time></trkpt><trkpt lat="45.5163037" lon="11.7569921"><ele>24.4</ele><time>2026-05-02T11:23:02.636Z</time></trkpt><trkpt lat="45.516396" lon="11.7570753"><ele>23.8</ele><time>2026-05-02T11:23:04.659Z</time></trkpt><trkpt lat="45.5164808" lon="11.7571564"><ele>23.200000000000003</ele><time>2026-05-02T11:23:06.655Z</time></trkpt><trkpt lat="45.5165634" lon="11.7572397"><ele>22.6</ele><time>2026-05-02T11:23:08.652Z</time></trkpt><trkpt lat="45.5166479" lon="11.7573456"><ele>22.0</ele><time>2026-05-02T11:23:10.655Z</time></trkpt><trkpt lat="45.5167317" lon="11.7574375"><ele>22.0</ele><time>2026-05-02T11:23:12.643Z</time></trkpt><trkpt lat="45.5168105" lon="11.7575224"><ele>22.0</ele><time>2026-05-02T11:23:14.653Z</time></trkpt><trkpt lat="45.5168973" lon="11.757598"><ele>22.0</ele><time>2026-05-02T11:23:16.648Z</time></trkpt><trkpt lat="45.5169806" lon="11.7576707"><ele>22.0</ele><time>2026-05-02T11:23:18.648Z</time></trkpt><trkpt lat="45.5170526" lon="11.7577323"><ele>22.0</ele><time>2026-05-02T11:23:20.65Z</time></trkpt><trkpt lat="45.5171119" lon="11.7577942"><ele>22.142857142857142</ele><time>2026-05-02T11:23:22.653Z</time></trkpt><trkpt lat="45.5171706" lon="11.7578518"><ele>22.285714285714285</ele><time>2026-05-02T11:23:24.651Z</time></trkpt><trkpt lat="45.5172214" lon="11.7579052"><ele>22.42857142857143</ele><time>2026-05-02T11:23:26.654Z</time></trkpt><trkpt lat="45.5172891" lon="11.7579787"><ele>22.57142857142857</ele><time>2026-05-02T11:23:29.635Z</time></trkpt><trkpt lat="45.5173427" lon="11.7580458"><ele>22.71428571428571</ele><time>2026-05-02T11:23:32.654Z</time></trkpt><trkpt lat="45.5173965" lon="11.7581098"><ele>22.857142857142858</ele><time>2026-05-02T11:23:34.65Z</time></trkpt><trkpt lat="45.51747" lon="11.7581777"><ele>23.0</ele><time>2026-05-02T11:23:36.649Z</time></trkpt><trkpt lat="45.5175548" lon="11.7582532"><ele>23.0</ele><time>2026-05-02T11:23:38.657Z</time></trkpt><trkpt lat="45.5176418" lon="11.7583299"><ele>23.0</ele><time>2026-05-02T11:23:40.659Z</time></trkpt><trkpt lat="45.5177336" lon="11.7584128"><ele>23.0</ele><time>2026-05-02T11:23:42.655Z</time></trkpt><trkpt lat="45.5178232" lon="11.7584963"><ele>23.0</ele><time>2026-05-02T11:23:44.644Z</time></trkpt><trkpt lat="45.51791" lon="11.7585889"><ele>23.0</ele><time>2026-05-02T11:23:46.652Z</time></trkpt><trkpt lat="45.5179976" lon="11.7586687"><ele>23.0</ele><time>2026-05-02T11:23:48.657Z</time></trkpt><trkpt lat="45.5180695" lon="11.7587467"><ele>23.0</ele><time>2026-05-02T11:23:50.658Z</time></trkpt><trkpt lat="45.5181586" lon="11.7588284"><ele>23.0</ele><time>2026-05-02T11:23:52.652Z</time></trkpt><trkpt lat="45.5182537" lon="11.7589133"><ele>23.0</ele><time>2026-05-02T11:23:54.655Z</time></trkpt><trkpt lat="45.5183407" lon="11.7589958"><ele>23.0</ele><time>2026-05-02T11:23:56.67Z</time></trkpt><trkpt lat="45.5184239" lon="11.7590758"><ele>23.0</ele><time>2026-05-02T11:23:58.65Z</time></trkpt><trkpt lat="45.5185099" lon="11.7591591"><ele>23.0</ele><time>2026-05-02T11:24:00.654Z</time></trkpt><trkpt lat="45.5185896" lon="11.7592385"><ele>23.0</ele><time>2026-05-02T11:24:02.649Z</time></trkpt><trkpt lat="45.5186713" lon="11.7593208"><ele>23.0</ele><time>2026-05-02T11:24:04.651Z</time></trkpt><trkpt lat="45.518749" lon="11.7594053"><ele>23.0</ele><time>2026-05-02T11:24:06.656Z</time></trkpt><trkpt lat="45.5188229" lon="11.7594814"><ele>23.0</ele><time>2026-05-02T11:24:08.647Z</time></trkpt><trkpt lat="45.518908" lon="11.7595607"><ele>23.0</ele><time>2026-05-02T11:24:10.652Z</time></trkpt><trkpt lat="45.5189938" lon="11.7596353"><ele>23.0</ele><time>2026-05-02T11:24:12.651Z</time></trkpt><trkpt lat="45.5190885" lon="11.7597189"><ele>23.0</ele><time>2026-05-02T11:24:14.653Z</time></trkpt><trkpt lat="45.5191759" lon="11.7597992"><ele>23.0</ele><time>2026-05-02T11:24:16.652Z</time></trkpt><trkpt lat="45.5192544" lon="11.7598796"><ele>23.0</ele><time>2026-05-02T11:24:18.656Z</time></trkpt><trkpt lat="45.5193368" lon="11.7599662"><ele>23.0</ele><time>2026-05-02T11:24:20.656Z</time></trkpt><trkpt lat="45.5194208" lon="11.7600541"><ele>23.0</ele><time>2026-05-02T11:24:22.656Z</time></trkpt><trkpt lat="45.5195029" lon="11.7601341"><ele>23.0</ele><time>2026-05-02T11:24:24.647Z</time></trkpt><trkpt lat="45.5195785" lon="11.7602087"><ele>23.0</ele><time>2026-05-02T11:24:26.66Z</time></trkpt><trkpt lat="45.5196487" lon="11.7602781"><ele>23.2</ele><time>2026-05-02T11:24:28.656Z</time></trkpt><trkpt lat="45.5197226" lon="11.7603473"><ele>23.4</ele><time>2026-05-02T11:24:30.661Z</time></trkpt><trkpt lat="45.5197982" lon="11.7604219"><ele>23.599999999999998</ele><time>2026-05-02T11:24:32.652Z</time></trkpt><trkpt lat="45.5198756" lon="11.7604901"><ele>23.799999999999997</ele><time>2026-05-02T11:24:34.652Z</time></trkpt><trkpt lat="45.5199642" lon="11.7605696"><ele>24.0</ele><time>2026-05-02T11:24:36.649Z</time></trkpt><trkpt lat="45.5200473" lon="11.7606558"><ele>24.0</ele><time>2026-05-02T11:24:38.646Z</time></trkpt><trkpt lat="45.520138" lon="11.7607338"><ele>24.0</ele><time>2026-05-02T11:24:40.657Z</time></trkpt><trkpt lat="45.5202213" lon="11.760819"><ele>24.0</ele><time>2026-05-02T11:24:42.653Z</time></trkpt><trkpt lat="45.5203083" lon="11.7608941"><ele>24.0</ele><time>2026-05-02T11:24:44.661Z</time></trkpt><trkpt lat="45.5203885" lon="11.7609715"><ele>24.0</ele><time>2026-05-02T11:24:46.64Z</time></trkpt><trkpt lat="45.5204643" lon="11.7610532"><ele>24.0</ele><time>2026-05-02T11:24:48.65Z</time></trkpt><trkpt lat="45.5205405" lon="11.7611328"><ele>24.0</ele><time>2026-05-02T11:24:50.653Z</time></trkpt><trkpt lat="45.5206118" lon="11.761201"><ele>24.0</ele><time>2026-05-02T11:24:52.656Z</time></trkpt><trkpt lat="45.5206738" lon="11.7612709"><ele>24.0</ele><time>2026-05-02T11:24:54.654Z</time></trkpt><trkpt lat="45.5207293" lon="11.7613269"><ele>24.0</ele><time>2026-05-02T11:24:56.654Z</time></trkpt><trkpt lat="45.5207917" lon="11.7613808"><ele>24.0</ele><time>2026-05-02T11:24:58.655Z</time></trkpt><trkpt lat="45.5208513" lon="11.7614414"><ele>24.0</ele><time>2026-05-02T11:25:00.642Z</time></trkpt><trkpt lat="45.5209083" lon="11.7615063"><ele>24.0</ele><time>2026-05-02T11:25:02.657Z</time></trkpt><trkpt lat="45.520973" lon="11.7615632"><ele>24.0</ele><time>2026-05-02T11:25:06.649Z</time></trkpt><trkpt lat="45.5210405" lon="11.7616102"><ele>24.0</ele><time>2026-05-02T11:25:10.659Z</time></trkpt><trkpt lat="45.5211134" lon="11.7616848"><ele>24.0</ele><time>2026-05-02T11:25:14.652Z</time></trkpt><trkpt lat="45.5211753" lon="11.7617232"><ele>24.0</ele><time>2026-05-02T11:25:16.659Z</time></trkpt><trkpt lat="45.5212336" lon="11.7617769"><ele>23.833333333333332</ele><time>2026-05-02T11:25:18.652Z</time></trkpt><trkpt lat="45.5212854" lon="11.761834"><ele>23.666666666666668</ele><time>2026-05-02T11:25:20.656Z</time></trkpt><trkpt lat="45.5213557" lon="11.7618988"><ele>23.5</ele><time>2026-05-02T11:25:22.657Z</time></trkpt><trkpt lat="45.5214196" lon="11.7619552"><ele>23.333333333333336</ele><time>2026-05-02T11:25:24.657Z</time></trkpt><trkpt lat="45.5214845" lon="11.7620162"><ele>23.166666666666668</ele><time>2026-05-02T11:25:26.661Z</time></trkpt><trkpt lat="45.5215547" lon="11.7620835"><ele>23.0</ele><time>2026-05-02T11:25:28.656Z</time></trkpt><trkpt lat="45.5216177" lon="11.7621488"><ele>23.0</ele><time>2026-05-02T11:25:30.652Z</time></trkpt><trkpt lat="45.5216845" lon="11.7622096"><ele>23.0</ele><time>2026-05-02T11:25:32.659Z</time></trkpt><trkpt lat="45.5217493" lon="11.7622798"><ele>23.0</ele><time>2026-05-02T11:25:34.655Z</time></trkpt><trkpt lat="45.5218126" lon="11.7623431"><ele>23.0</ele><time>2026-05-02T11:25:36.652Z</time></trkpt><trkpt lat="45.5218741" lon="11.762405"><ele>23.0</ele><time>2026-05-02T11:25:38.654Z</time></trkpt><trkpt lat="45.5219375" lon="11.7624525"><ele>23.0</ele><time>2026-05-02T11:25:40.649Z</time></trkpt><trkpt lat="45.5219946" lon="11.7625195"><ele>23.0</ele><time>2026-05-02T11:25:42.64Z</time></trkpt><trkpt lat="45.5220567" lon="11.7625772"><ele>23.0</ele><time>2026-05-02T11:25:44.652Z</time></trkpt><trkpt lat="45.5221381" lon="11.7626412"><ele>23.0</ele><time>2026-05-02T11:25:46.653Z</time></trkpt><trkpt lat="45.5222294" lon="11.7627198"><ele>23.0</ele><time>2026-05-02T11:25:48.655Z</time></trkpt><trkpt lat="45.5223227" lon="11.7628104"><ele>23.0</ele><time>2026-05-02T11:25:50.656Z</time></trkpt><trkpt lat="45.5224186" lon="11.7628964"><ele>22.799999999999997</ele><time>2026-05-02T11:25:52.653Z</time></trkpt><trkpt lat="45.522509" lon="11.7629815"><ele>22.6</ele><time>2026-05-02T11:25:54.65Z</time></trkpt><trkpt lat="45.5225963" lon="11.7630679"><ele>22.4</ele><time>2026-05-02T11:25:56.652Z</time></trkpt><trkpt lat="45.5226894" lon="11.7631625"><ele>22.200000000000003</ele><time>2026-05-02T11:25:58.657Z</time></trkpt><trkpt lat="45.5227867" lon="11.7632528"><ele>22.0</ele><time>2026-05-02T11:26:00.647Z</time></trkpt><trkpt lat="45.522875" lon="11.7633433"><ele>22.200000000000003</ele><time>2026-05-02T11:26:02.651Z</time></trkpt><trkpt lat="45.522961" lon="11.7634327"><ele>22.4</ele><time>2026-05-02T11:26:04.654Z</time></trkpt><trkpt lat="45.523039" lon="11.7635258"><ele>22.6</ele><time>2026-05-02T11:26:06.652Z</time></trkpt><trkpt lat="45.523135" lon="11.7636051"><ele>22.799999999999997</ele><time>2026-05-02T11:26:08.65Z</time></trkpt><trkpt lat="45.5232223" lon="11.7636899"><ele>23.0</ele><time>2026-05-02T11:26:10.653Z</time></trkpt><trkpt lat="45.52331" lon="11.7637637"><ele>23.0</ele><time>2026-05-02T11:26:12.66Z</time></trkpt><trkpt lat="45.5233921" lon="11.7638443"><ele>23.0</ele><time>2026-05-02T11:26:14.651Z</time></trkpt><trkpt lat="45.5234794" lon="11.7639263"><ele>23.0</ele><time>2026-05-02T11:26:16.656Z</time></trkpt><trkpt lat="45.5235589" lon="11.7640077"><ele>23.0</ele><time>2026-05-02T11:26:18.648Z</time></trkpt><trkpt lat="45.523643" lon="11.7640899"><ele>23.0</ele><time>2026-05-02T11:26:20.661Z</time></trkpt><trkpt lat="45.5237286" lon="11.7641777"><ele>22.833333333333336</ele><time>2026-05-02T11:26:22.657Z</time></trkpt><trkpt lat="45.5238139" lon="11.7642576"><ele>22.666666666666668</ele><time>2026-05-02T11:26:24.659Z</time></trkpt><trkpt lat="45.5238923" lon="11.7643303"><ele>22.5</ele><time>2026-05-02T11:26:26.659Z</time></trkpt><trkpt lat="45.5239661" lon="11.7643933"><ele>22.333333333333332</ele><time>2026-05-02T11:26:28.654Z</time></trkpt><trkpt lat="45.5240161" lon="11.764459"><ele>22.166666666666664</ele><time>2026-05-02T11:26:30.656Z</time></trkpt><trkpt lat="45.5240563" lon="11.7645352"><ele>22.0</ele><time>2026-05-02T11:26:33.661Z</time></trkpt><trkpt lat="45.5241283" lon="11.764581"><ele>22.0</ele><time>2026-05-02T11:26:37.657Z</time></trkpt><trkpt lat="45.5241891" lon="11.7646253"><ele>22.0</ele><time>2026-05-02T11:26:40.664Z</time></trkpt><trkpt lat="45.5242672" lon="11.7646587"><ele>22.0</ele><time>2026-05-02T11:26:43.646Z</time></trkpt><trkpt lat="45.5243448" lon="11.7647055"><ele>22.0</ele><time>2026-05-02T11:26:46.646Z</time></trkpt><trkpt lat="45.5244004" lon="11.7647642"><ele>22.0</ele><time>2026-05-02T11:26:48.656Z</time></trkpt><trkpt lat="45.5244486" lon="11.7648239"><ele>22.0</ele><time>2026-05-02T11:26:50.653Z</time></trkpt><trkpt lat="45.524517" lon="11.7649058"><ele>22.166666666666664</ele><time>2026-05-02T11:26:53.643Z</time></trkpt><trkpt lat="45.524581" lon="11.7649706"><ele>22.333333333333332</ele><time>2026-05-02T11:26:56.655Z</time></trkpt><trkpt lat="45.5246503" lon="11.7650388"><ele>22.5</ele><time>2026-05-02T11:26:59.64Z</time></trkpt><trkpt lat="45.5247044" lon="11.7650928"><ele>22.666666666666668</ele><time>2026-05-02T11:27:01.64Z</time></trkpt><trkpt lat="45.524773" lon="11.7651447"><ele>22.833333333333336</ele><time>2026-05-02T11:27:03.643Z</time></trkpt><trkpt lat="45.5248457" lon="11.7652093"><ele>23.0</ele><time>2026-05-02T11:27:05.659Z</time></trkpt><trkpt lat="45.5249153" lon="11.7652823"><ele>23.166666666666668</ele><time>2026-05-02T11:27:07.657Z</time></trkpt><trkpt lat="45.5249875" lon="11.7653396"><ele>23.333333333333336</ele><time>2026-05-02T11:27:09.651Z</time></trkpt><trkpt lat="45.5250565" lon="11.7654118"><ele>23.5</ele><time>2026-05-02T11:27:11.647Z</time></trkpt><trkpt lat="45.5251197" lon="11.7654846"><ele>23.666666666666668</ele><time>2026-05-02T11:27:13.642Z</time></trkpt><trkpt lat="45.525186" lon="11.7655476"><ele>23.833333333333332</ele><time>2026-05-02T11:27:15.644Z</time></trkpt><trkpt lat="45.5252446" lon="11.765617"><ele>24.0</ele><time>2026-05-02T11:27:17.659Z</time></trkpt><trkpt lat="45.5253038" lon="11.7656823"><ele>23.999999999999996</ele><time>2026-05-02T11:27:19.638Z</time></trkpt><trkpt lat="45.5253631" lon="11.7657415"><ele>24.0</ele><time>2026-05-02T11:27:21.655Z</time></trkpt><trkpt lat="45.5254183" lon="11.7658082"><ele>24.0</ele><time>2026-05-02T11:27:23.661Z</time></trkpt><trkpt lat="45.5254784" lon="11.7658667"><ele>24.0</ele><time>2026-05-02T11:27:25.661Z</time></trkpt><trkpt lat="45.5255349" lon="11.7659286"><ele>24.0</ele><time>2026-05-02T11:27:27.656Z</time></trkpt><trkpt lat="45.5255876" lon="11.7659922"><ele>23.999999999999996</ele><time>2026-05-02T11:27:29.657Z</time></trkpt><trkpt lat="45.5256395" lon="11.7660483"><ele>24.0</ele><time>2026-05-02T11:27:31.656Z</time></trkpt><trkpt lat="45.5256944" lon="11.7661027"><ele>24.0</ele><time>2026-05-02T11:27:33.656Z</time></trkpt><trkpt lat="45.5257477" lon="11.7661621"><ele>24.0</ele><time>2026-05-02T11:27:35.653Z</time></trkpt><trkpt lat="45.5258116" lon="11.7662136"><ele>24.0</ele><time>2026-05-02T11:27:37.663Z</time></trkpt><trkpt lat="45.525884" lon="11.7662774"><ele>24.0</ele><time>2026-05-02T11:27:39.657Z</time></trkpt><trkpt lat="45.5259653" lon="11.7663541"><ele>24.0</ele><time>2026-05-02T11:27:41.656Z</time></trkpt><trkpt lat="45.5260403" lon="11.7664209"><ele>24.0</ele><time>2026-05-02T11:27:43.651Z</time></trkpt><trkpt lat="45.5261068" lon="11.7664862"><ele>24.0</ele><time>2026-05-02T11:27:45.635Z</time></trkpt><trkpt lat="45.5261827" lon="11.7665434"><ele>24.0</ele><time>2026-05-02T11:27:47.65Z</time></trkpt><trkpt lat="45.5262549" lon="11.7666088"><ele>24.0</ele><time>2026-05-02T11:27:49.658Z</time></trkpt><trkpt lat="45.5263329" lon="11.7666847"><ele>24.0</ele><time>2026-05-02T11:27:51.652Z</time></trkpt><trkpt lat="45.5264067" lon="11.7667691"><ele>24.0</ele><time>2026-05-02T11:27:53.65Z</time></trkpt><trkpt lat="45.5264864" lon="11.7668546"><ele>24.0</ele><time>2026-05-02T11:27:55.649Z</time></trkpt><trkpt lat="45.5265767" lon="11.76693"><ele>24.0</ele><time>2026-05-02T11:27:57.648Z</time></trkpt><trkpt lat="45.5266626" lon="11.7670066"><ele>24.0</ele><time>2026-05-02T11:27:59.658Z</time></trkpt><trkpt lat="45.526741" lon="11.76709"><ele>24.0</ele><time>2026-05-02T11:28:01.658Z</time></trkpt><trkpt lat="45.5268252" lon="11.767177"><ele>24.0</ele><time>2026-05-02T11:28:03.659Z</time></trkpt><trkpt lat="45.5268975" lon="11.7672472"><ele>24.0</ele><time>2026-05-02T11:28:05.65Z</time></trkpt><trkpt lat="45.5269684" lon="11.76732"><ele>24.0</ele><time>2026-05-02T11:28:07.649Z</time></trkpt><trkpt lat="45.5270486" lon="11.7673953"><ele>24.0</ele><time>2026-05-02T11:28:09.657Z</time></trkpt><trkpt lat="45.5271259" lon="11.7674685"><ele>24.0</ele><time>2026-05-02T11:28:11.656Z</time></trkpt><trkpt lat="45.527205" lon="11.7675342"><ele>24.0</ele><time>2026-05-02T11:28:13.644Z</time></trkpt><trkpt lat="45.527276" lon="11.7676109"><ele>24.0</ele><time>2026-05-02T11:28:15.627Z</time></trkpt><trkpt lat="45.5273341" lon="11.7676696"><ele>24.0</ele><time>2026-05-02T11:28:17.633Z</time></trkpt><trkpt lat="45.5273954" lon="11.7677273"><ele>24.0</ele><time>2026-05-02T11:28:19.631Z</time></trkpt><trkpt lat="45.5274522" lon="11.7677925"><ele>24.0</ele><time>2026-05-02T11:28:21.633Z</time></trkpt><trkpt lat="45.5275208" lon="11.7678549"><ele>24.0</ele><time>2026-05-02T11:28:23.658Z</time></trkpt><trkpt lat="45.5275887" lon="11.7679369"><ele>24.0</ele><time>2026-05-02T11:28:25.628Z</time></trkpt><trkpt lat="45.5276563" lon="11.7680105"><ele>24.0</ele><time>2026-05-02T11:28:27.635Z</time></trkpt><trkpt lat="45.527723" lon="11.7680941"><ele>24.0</ele><time>2026-05-02T11:28:29.634Z</time></trkpt><trkpt lat="45.527793" lon="11.7681805"><ele>24.0</ele><time>2026-05-02T11:28:31.646Z</time></trkpt><trkpt lat="45.5278599" lon="11.7682551"><ele>24.0</ele><time>2026-05-02T11:28:33.632Z</time></trkpt><trkpt lat="45.527918" lon="11.7683247"><ele>24.0</ele><time>2026-05-02T11:28:35.637Z</time></trkpt><trkpt lat="45.5279812" lon="11.7684197"><ele>24.0</ele><time>2026-05-02T11:28:37.638Z</time></trkpt><trkpt lat="45.5280413" lon="11.768511"><ele>23.833333333333332</ele><time>2026-05-02T11:28:39.647Z</time></trkpt><trkpt lat="45.5281063" lon="11.7685837"><ele>23.666666666666668</ele><time>2026-05-02T11:28:41.637Z</time></trkpt><trkpt lat="45.5281622" lon="11.7686645"><ele>23.5</ele><time>2026-05-02T11:28:43.629Z</time></trkpt><trkpt lat="45.5282143" lon="11.7687406"><ele>23.333333333333336</ele><time>2026-05-02T11:28:45.651Z</time></trkpt><trkpt lat="45.5282616" lon="11.768808"><ele>23.166666666666668</ele><time>2026-05-02T11:28:47.638Z</time></trkpt><trkpt lat="45.5283144" lon="11.7688889"><ele>23.0</ele><time>2026-05-02T11:28:51.634Z</time></trkpt><trkpt lat="45.5283791" lon="11.7689858"><ele>23.0</ele><time>2026-05-02T11:28:55.66Z</time></trkpt><trkpt lat="45.5284344" lon="11.769053"><ele>23.0</ele><time>2026-05-02T11:28:57.649Z</time></trkpt><trkpt lat="45.528486" lon="11.7691313"><ele>23.0</ele><time>2026-05-02T11:28:59.657Z</time></trkpt><trkpt lat="45.5285444" lon="11.7692027"><ele>23.0</ele><time>2026-05-02T11:29:01.656Z</time></trkpt><trkpt lat="45.5285979" lon="11.7692861"><ele>23.0</ele><time>2026-05-02T11:29:03.655Z</time></trkpt><trkpt lat="45.5286416" lon="11.7693626"><ele>23.0</ele><time>2026-05-02T11:29:05.659Z</time></trkpt><trkpt lat="45.5287014" lon="11.7694222"><ele>23.0</ele><time>2026-05-02T11:29:07.652Z</time></trkpt><trkpt lat="45.5287585" lon="11.7694985"><ele>23.0</ele><time>2026-05-02T11:29:09.65Z</time></trkpt><trkpt lat="45.5288212" lon="11.7695971"><ele>23.0</ele><time>2026-05-02T11:29:11.656Z</time></trkpt><trkpt lat="45.5288986" lon="11.7696984"><ele>23.0</ele><time>2026-05-02T11:29:13.639Z</time></trkpt><trkpt lat="45.5289502" lon="11.7697948"><ele>23.0</ele><time>2026-05-02T11:29:15.657Z</time></trkpt><trkpt lat="45.5289871" lon="11.7698735"><ele>23.0</ele><time>2026-05-02T11:30:45.655Z</time></trkpt><trkpt lat="45.5290245" lon="11.7699506"><ele>23.0</ele><time>2026-05-02T11:30:49.656Z</time></trkpt><trkpt lat="45.5290736" lon="11.7700522"><ele>23.0</ele><time>2026-05-02T11:30:52.663Z</time></trkpt><trkpt lat="45.5291236" lon="11.7701403"><ele>23.0</ele><time>2026-05-02T11:30:54.653Z</time></trkpt><trkpt lat="45.5291741" lon="11.7702261"><ele>23.0</ele><time>2026-05-02T11:30:56.653Z</time></trkpt><trkpt lat="45.529222" lon="11.7703159"><ele>23.0</ele><time>2026-05-02T11:30:58.659Z</time></trkpt><trkpt lat="45.5292672" lon="11.7703954"><ele>23.0</ele><time>2026-05-02T11:31:00.655Z</time></trkpt><trkpt lat="45.5293124" lon="11.7704812"><ele>23.0</ele><time>2026-05-02T11:31:02.662Z</time></trkpt><trkpt lat="45.5293567" lon="11.7705621"><ele>23.2</ele><time>2026-05-02T11:31:04.658Z</time></trkpt><trkpt lat="45.529396" lon="11.7706511"><ele>23.4</ele><time>2026-05-02T11:31:06.658Z</time></trkpt><trkpt lat="45.5294412" lon="11.770744"><ele>23.599999999999998</ele><time>2026-05-02T11:31:08.655Z</time></trkpt><trkpt lat="45.5294926" lon="11.7708285"><ele>23.799999999999997</ele><time>2026-05-02T11:31:10.663Z</time></trkpt><trkpt lat="45.5295429" lon="11.7709365"><ele>24.0</ele><time>2026-05-02T11:31:12.658Z</time></trkpt><trkpt lat="45.5296207" lon="11.771093"><ele>23.999999999999996</ele><time>2026-05-02T11:31:15.657Z</time></trkpt><trkpt lat="45.5296573" lon="11.7711934"><ele>24.0</ele><time>2026-05-02T11:31:17.649Z</time></trkpt><trkpt lat="45.5296923" lon="11.7712718"><ele>24.0</ele><time>2026-05-02T11:31:19.657Z</time></trkpt><trkpt lat="45.5297388" lon="11.7713692"><ele>24.0</ele><time>2026-05-02T11:31:22.653Z</time></trkpt><trkpt lat="45.5297861" lon="11.7714485"><ele>24.0</ele><time>2026-05-02T11:31:26.654Z</time></trkpt><trkpt lat="45.5298361" lon="11.7715211"><ele>23.999999999999996</ele><time>2026-05-02T11:31:29.66Z</time></trkpt><trkpt lat="45.5298604" lon="11.7716077"><ele>24.0</ele><time>2026-05-02T11:31:31.658Z</time></trkpt><trkpt lat="45.5298927" lon="11.7717037"><ele>23.999999999999996</ele><time>2026-05-02T11:31:33.661Z</time></trkpt><trkpt lat="45.5299249" lon="11.7718051"><ele>24.0</ele><time>2026-05-02T11:31:36.66Z</time></trkpt><trkpt lat="45.529968" lon="11.7719197"><ele>24.0</ele><time>2026-05-02T11:31:51.666Z</time></trkpt><trkpt lat="45.5299852" lon="11.7720082"><ele>24.0</ele><time>2026-05-02T11:32:09.654Z</time></trkpt><trkpt lat="45.5300213" lon="11.7721096"><ele>24.0</ele><time>2026-05-02T11:32:14.654Z</time></trkpt><trkpt lat="45.5300498" lon="11.7721923"><ele>23.999999999999996</ele><time>2026-05-02T11:32:17.654Z</time></trkpt><trkpt lat="45.5300859" lon="11.7722767"><ele>24.0</ele><time>2026-05-02T11:32:20.657Z</time></trkpt><trkpt lat="45.5301263" lon="11.7724053"><ele>24.0</ele><time>2026-05-02T11:32:23.658Z</time></trkpt><trkpt lat="45.5301618" lon="11.7725001"><ele>24.0</ele><time>2026-05-02T11:32:25.665Z</time></trkpt><trkpt lat="45.5302015" lon="11.7726142"><ele>24.0</ele><time>2026-05-02T11:32:27.651Z</time></trkpt><trkpt lat="45.5302402" lon="11.7727369"><ele>24.0</ele><time>2026-05-02T11:32:29.649Z</time></trkpt><trkpt lat="45.5302924" lon="11.7728606"><ele>24.0</ele><time>2026-05-02T11:32:31.651Z</time></trkpt><trkpt lat="45.5303354" lon="11.7729927"><ele>24.0</ele><time>2026-05-02T11:32:33.659Z</time></trkpt><trkpt lat="45.5303811" lon="11.7731251"><ele>24.0</ele><time>2026-05-02T11:32:35.654Z</time></trkpt><trkpt lat="45.5304217" lon="11.7732499"><ele>24.0</ele><time>2026-05-02T11:32:37.657Z</time></trkpt><trkpt lat="45.5304577" lon="11.7733832"><ele>24.0</ele><time>2026-05-02T11:32:39.656Z</time></trkpt><trkpt lat="45.5304942" lon="11.7735254"><ele>24.0</ele><time>2026-05-02T11:32:41.654Z</time></trkpt><trkpt lat="45.5305211" lon="11.7736631"><ele>24.0</ele><time>2026-05-02T11:32:43.656Z</time></trkpt><trkpt lat="45.530551" lon="11.7737935"><ele>24.0</ele><time>2026-05-02T11:32:45.661Z</time></trkpt><trkpt lat="45.5305831" lon="11.7739369"><ele>24.0</ele><time>2026-05-02T11:32:47.657Z</time></trkpt><trkpt lat="45.5306163" lon="11.774075"><ele>24.0</ele><time>2026-05-02T11:32:49.656Z</time></trkpt><trkpt lat="45.530658" lon="11.7741989"><ele>24.0</ele><time>2026-05-02T11:32:51.653Z</time></trkpt><trkpt lat="45.5306974" lon="11.7743284"><ele>24.0</ele><time>2026-05-02T11:32:53.653Z</time></trkpt><trkpt lat="45.5307339" lon="11.7744657"><ele>24.0</ele><time>2026-05-02T11:32:55.656Z</time></trkpt><trkpt lat="45.5307652" lon="11.7745861"><ele>24.0</ele><time>2026-05-02T11:32:57.656Z</time></trkpt><trkpt lat="45.5307978" lon="11.7747007"><ele>24.0</ele><time>2026-05-02T11:32:59.662Z</time></trkpt><trkpt lat="45.530825" lon="11.7748262"><ele>24.0</ele><time>2026-05-02T11:33:01.66Z</time></trkpt><trkpt lat="45.5308641" lon="11.7749604"><ele>24.0</ele><time>2026-05-02T11:33:03.658Z</time></trkpt><trkpt lat="45.5309039" lon="11.7751093"><ele>24.0</ele><time>2026-05-02T11:33:05.657Z</time></trkpt><trkpt lat="45.5309437" lon="11.7752571"><ele>24.0</ele><time>2026-05-02T11:33:07.658Z</time></trkpt><trkpt lat="45.530975" lon="11.7754051"><ele>24.0</ele><time>2026-05-02T11:33:09.657Z</time></trkpt><trkpt lat="45.5310055" lon="11.7755664"><ele>24.0</ele><time>2026-05-02T11:33:11.646Z</time></trkpt><trkpt lat="45.5310386" lon="11.775711"><ele>24.0</ele><time>2026-05-02T11:33:13.656Z</time></trkpt><trkpt lat="45.5310775" lon="11.7758452"><ele>24.0</ele><time>2026-05-02T11:33:15.653Z</time></trkpt><trkpt lat="45.5311146" lon="11.7759732"><ele>24.0</ele><time>2026-05-02T11:33:17.654Z</time></trkpt><trkpt lat="45.5311574" lon="11.7761051"><ele>24.0</ele><time>2026-05-02T11:33:19.652Z</time></trkpt><trkpt lat="45.5311948" lon="11.7762405"><ele>24.0</ele><time>2026-05-02T11:33:21.655Z</time></trkpt><trkpt lat="45.5312372" lon="11.7763778"><ele>24.2</ele><time>2026-05-02T11:33:23.666Z</time></trkpt><trkpt lat="45.5312743" lon="11.7765082"><ele>24.4</ele><time>2026-05-02T11:33:25.657Z</time></trkpt><trkpt lat="45.5313115" lon="11.7766565"><ele>24.6</ele><time>2026-05-02T11:33:27.661Z</time></trkpt><trkpt lat="45.5313447" lon="11.7768084"><ele>24.8</ele><time>2026-05-02T11:33:29.656Z</time></trkpt><trkpt lat="45.5313769" lon="11.7769618"><ele>25.0</ele><time>2026-05-02T11:33:31.662Z</time></trkpt><trkpt lat="45.5314104" lon="11.7771058"><ele>25.0</ele><time>2026-05-02T11:33:33.653Z</time></trkpt><trkpt lat="45.5314479" lon="11.777255"><ele>25.0</ele><time>2026-05-02T11:33:35.653Z</time></trkpt><trkpt lat="45.5314882" lon="11.777393"><ele>25.0</ele><time>2026-05-02T11:33:37.659Z</time></trkpt><trkpt lat="45.5315257" lon="11.777534"><ele>25.0</ele><time>2026-05-02T11:33:39.656Z</time></trkpt><trkpt lat="45.531564" lon="11.7776717"><ele>25.0</ele><time>2026-05-02T11:33:41.636Z</time></trkpt><trkpt lat="45.5316101" lon="11.777803"><ele>25.166666666666668</ele><time>2026-05-02T11:33:43.655Z</time></trkpt><trkpt lat="45.5316507" lon="11.7779354"><ele>25.333333333333336</ele><time>2026-05-02T11:33:45.655Z</time></trkpt><trkpt lat="45.5316851" lon="11.7780611"><ele>25.5</ele><time>2026-05-02T11:33:47.656Z</time></trkpt><trkpt lat="45.5317067" lon="11.7781631"><ele>25.666666666666664</ele><time>2026-05-02T11:33:49.659Z</time></trkpt><trkpt lat="45.5317347" lon="11.7782532"><ele>25.833333333333332</ele><time>2026-05-02T11:33:51.658Z</time></trkpt><trkpt lat="45.5317626" lon="11.7783398"><ele>26.0</ele><time>2026-05-02T11:33:53.655Z</time></trkpt><trkpt lat="45.5317749" lon="11.7784535"><ele>25.833333333333332</ele><time>2026-05-02T11:33:56.654Z</time></trkpt><trkpt lat="45.5317844" lon="11.7785481"><ele>25.666666666666664</ele><time>2026-05-02T11:34:00.649Z</time></trkpt><trkpt lat="45.5318273" lon="11.7786482"><ele>25.5</ele><time>2026-05-02T11:34:13.655Z</time></trkpt><trkpt lat="45.5318566" lon="11.7787336"><ele>25.333333333333336</ele><time>2026-05-02T11:34:16.659Z</time></trkpt><trkpt lat="45.5318649" lon="11.7788563"><ele>25.166666666666668</ele><time>2026-05-02T11:34:19.655Z</time></trkpt><trkpt lat="45.5319017" lon="11.7789717"><ele>25.0</ele><time>2026-05-02T11:34:22.658Z</time></trkpt><trkpt lat="45.5319302" lon="11.7790916"><ele>25.000000000000004</ele><time>2026-05-02T11:34:25.653Z</time></trkpt><trkpt lat="45.5319465" lon="11.7791791"><ele>25.0</ele><time>2026-05-02T11:34:27.658Z</time></trkpt><trkpt lat="45.5319737" lon="11.7792728"><ele>25.0</ele><time>2026-05-02T11:34:29.656Z</time></trkpt><trkpt lat="45.5319981" lon="11.779379"><ele>25.0</ele><time>2026-05-02T11:34:31.653Z</time></trkpt><trkpt lat="45.5320209" lon="11.7795043"><ele>25.000000000000004</ele><time>2026-05-02T11:34:33.653Z</time></trkpt><trkpt lat="45.5320605" lon="11.7796421"><ele>25.0</ele><time>2026-05-02T11:34:35.658Z</time></trkpt><trkpt lat="45.5320962" lon="11.7797819"><ele>24.8</ele><time>2026-05-02T11:34:37.656Z</time></trkpt><trkpt lat="45.5321255" lon="11.7799193"><ele>24.6</ele><time>2026-05-02T11:34:39.652Z</time></trkpt><trkpt lat="45.5321504" lon="11.7800597"><ele>24.4</ele><time>2026-05-02T11:34:41.658Z</time></trkpt><trkpt lat="45.532178" lon="11.7801976"><ele>24.2</ele><time>2026-05-02T11:34:43.659Z</time></trkpt><trkpt lat="45.5322063" lon="11.7803488"><ele>24.0</ele><time>2026-05-02T11:34:45.651Z</time></trkpt><trkpt lat="45.5322407" lon="11.78049"><ele>24.0</ele><time>2026-05-02T11:34:47.657Z</time></trkpt><trkpt lat="45.5322776" lon="11.7806332"><ele>24.0</ele><time>2026-05-02T11:34:49.647Z</time></trkpt><trkpt lat="45.5323158" lon="11.7807722"><ele>24.0</ele><time>2026-05-02T11:34:51.646Z</time></trkpt><trkpt lat="45.532342" lon="11.7809159"><ele>24.0</ele><time>2026-05-02T11:34:53.661Z</time></trkpt><trkpt lat="45.5323756" lon="11.7810609"><ele>24.0</ele><time>2026-05-02T11:34:55.654Z</time></trkpt><trkpt lat="45.5324141" lon="11.7811983"><ele>24.6</ele><time>2026-05-02T11:34:57.657Z</time></trkpt><trkpt lat="45.5324502" lon="11.7813342"><ele>25.2</ele><time>2026-05-02T11:34:59.65Z</time></trkpt><trkpt lat="45.5324931" lon="11.7814696"><ele>25.800000000000004</ele><time>2026-05-02T11:35:01.653Z</time></trkpt><trkpt lat="45.5325434" lon="11.7815966"><ele>26.400000000000002</ele><time>2026-05-02T11:35:03.657Z</time></trkpt><trkpt lat="45.5325829" lon="11.7817069"><ele>27.0</ele><time>2026-05-02T11:35:05.651Z</time></trkpt><trkpt lat="45.5326251" lon="11.7818233"><ele>26.8</ele><time>2026-05-02T11:35:07.657Z</time></trkpt><trkpt lat="45.5326733" lon="11.7819378"><ele>26.6</ele><time>2026-05-02T11:35:09.659Z</time></trkpt><trkpt lat="45.532717" lon="11.7820672"><ele>26.400000000000002</ele><time>2026-05-02T11:35:11.655Z</time></trkpt><trkpt lat="45.5327659" lon="11.782209"><ele>26.200000000000003</ele><time>2026-05-02T11:35:13.659Z</time></trkpt><trkpt lat="45.5328047" lon="11.782358"><ele>26.0</ele><time>2026-05-02T11:35:15.658Z</time></trkpt><trkpt lat="45.5328398" lon="11.7824852"><ele>25.999999999999996</ele><time>2026-05-02T11:35:17.657Z</time></trkpt><trkpt lat="45.5328706" lon="11.7826099"><ele>26.0</ele><time>2026-05-02T11:35:19.646Z</time></trkpt><trkpt lat="45.5329061" lon="11.7827312"><ele>26.0</ele><time>2026-05-02T11:35:21.652Z</time></trkpt><trkpt lat="45.5329377" lon="11.7828309"><ele>26.0</ele><time>2026-05-02T11:35:23.652Z</time></trkpt><trkpt lat="45.5329642" lon="11.7829246"><ele>25.999999999999996</ele><time>2026-05-02T11:35:25.649Z</time></trkpt><trkpt lat="45.5329892" lon="11.7830211"><ele>26.0</ele><time>2026-05-02T11:35:27.648Z</time></trkpt><trkpt lat="45.5330139" lon="11.7831366"><ele>25.6</ele><time>2026-05-02T11:35:29.655Z</time></trkpt><trkpt lat="45.5330447" lon="11.7832694"><ele>25.200000000000003</ele><time>2026-05-02T11:35:31.641Z</time></trkpt><trkpt lat="45.5330732" lon="11.7834037"><ele>24.799999999999997</ele><time>2026-05-02T11:35:33.655Z</time></trkpt><trkpt lat="45.5331019" lon="11.7835389"><ele>24.4</ele><time>2026-05-02T11:35:35.652Z</time></trkpt><trkpt lat="45.5331343" lon="11.7836822"><ele>24.0</ele><time>2026-05-02T11:35:37.656Z</time></trkpt><trkpt lat="45.5331771" lon="11.7838303"><ele>23.799999999999997</ele><time>2026-05-02T11:35:39.649Z</time></trkpt><trkpt lat="45.5332132" lon="11.783966"><ele>23.599999999999998</ele><time>2026-05-02T11:35:41.652Z</time></trkpt><trkpt lat="45.5332545" lon="11.784094"><ele>23.4</ele><time>2026-05-02T11:35:43.654Z</time></trkpt><trkpt lat="45.5332911" lon="11.784224"><ele>23.2</ele><time>2026-05-02T11:35:45.655Z</time></trkpt><trkpt lat="45.5333234" lon="11.7843469"><ele>23.0</ele><time>2026-05-02T11:35:47.655Z</time></trkpt><trkpt lat="45.5333536" lon="11.7844721"><ele>23.0</ele><time>2026-05-02T11:35:49.658Z</time></trkpt><trkpt lat="45.5333869" lon="11.784592"><ele>23.0</ele><time>2026-05-02T11:35:51.66Z</time></trkpt><trkpt lat="45.5334216" lon="11.7847027"><ele>23.0</ele><time>2026-05-02T11:35:53.644Z</time></trkpt><trkpt lat="45.5334477" lon="11.7848205"><ele>23.0</ele><time>2026-05-02T11:35:55.655Z</time></trkpt><trkpt lat="45.5334696" lon="11.7849485"><ele>23.0</ele><time>2026-05-02T11:35:57.657Z</time></trkpt><trkpt lat="45.5334988" lon="11.7850957"><ele>23.0</ele><time>2026-05-02T11:35:59.654Z</time></trkpt><trkpt lat="45.5335386" lon="11.78524"><ele>23.0</ele><time>2026-05-02T11:36:01.654Z</time></trkpt><trkpt lat="45.5335743" lon="11.7853777"><ele>23.0</ele><time>2026-05-02T11:36:03.653Z</time></trkpt><trkpt lat="45.5336129" lon="11.7855061"><ele>23.0</ele><time>2026-05-02T11:36:05.654Z</time></trkpt><trkpt lat="45.5336453" lon="11.7856426"><ele>23.0</ele><time>2026-05-02T11:36:07.657Z</time></trkpt><trkpt lat="45.5336823" lon="11.7857766"><ele>23.0</ele><time>2026-05-02T11:36:09.646Z</time></trkpt><trkpt lat="45.5337152" lon="11.7859181"><ele>23.0</ele><time>2026-05-02T11:36:11.654Z</time></trkpt><trkpt lat="45.5337426" lon="11.7860636"><ele>23.0</ele><time>2026-05-02T11:36:13.659Z</time></trkpt><trkpt lat="45.5337669" lon="11.7862152"><ele>23.0</ele><time>2026-05-02T11:36:15.659Z</time></trkpt><trkpt lat="45.5337907" lon="11.7863613"><ele>23.0</ele><time>2026-05-02T11:36:17.658Z</time></trkpt><trkpt lat="45.5338176" lon="11.7865011"><ele>23.0</ele><time>2026-05-02T11:36:19.657Z</time></trkpt><trkpt lat="45.5338517" lon="11.7866431"><ele>23.0</ele><time>2026-05-02T11:36:21.657Z</time></trkpt><trkpt lat="45.5338865" lon="11.7867824"><ele>23.0</ele><time>2026-05-02T11:36:23.654Z</time></trkpt><trkpt lat="45.5339159" lon="11.7869201"><ele>23.0</ele><time>2026-05-02T11:36:25.661Z</time></trkpt><trkpt lat="45.5339458" lon="11.7870392"><ele>23.0</ele><time>2026-05-02T11:36:27.661Z</time></trkpt><trkpt lat="45.5339746" lon="11.787158"><ele>23.0</ele><time>2026-05-02T11:36:29.645Z</time></trkpt><trkpt lat="45.53401" lon="11.7872644"><ele>23.0</ele><time>2026-05-02T11:36:31.648Z</time></trkpt><trkpt lat="45.5340465" lon="11.7873817"><ele>23.0</ele><time>2026-05-02T11:36:33.655Z</time></trkpt><trkpt lat="45.5340841" lon="11.7875107"><ele>23.0</ele><time>2026-05-02T11:36:35.656Z</time></trkpt><trkpt lat="45.5341245" lon="11.7876412"><ele>23.0</ele><time>2026-05-02T11:36:37.658Z</time></trkpt><trkpt lat="45.5341573" lon="11.7877512"><ele>23.0</ele><time>2026-05-02T11:36:39.633Z</time></trkpt><trkpt lat="45.5341888" lon="11.7878682"><ele>23.0</ele><time>2026-05-02T11:36:41.642Z</time></trkpt><trkpt lat="45.5342144" lon="11.7879655"><ele>23.0</ele><time>2026-05-02T11:36:43.647Z</time></trkpt><trkpt lat="45.5342279" lon="11.7880613"><ele>23.0</ele><time>2026-05-02T11:36:45.652Z</time></trkpt><trkpt lat="45.5342575" lon="11.7881636"><ele>23.0</ele><time>2026-05-02T11:36:47.654Z</time></trkpt><trkpt lat="45.5342962" lon="11.7882822"><ele>23.0</ele><time>2026-05-02T11:36:49.648Z</time></trkpt><trkpt lat="45.534325" lon="11.788421"><ele>23.4</ele><time>2026-05-02T11:36:51.651Z</time></trkpt><trkpt lat="45.5343664" lon="11.788567"><ele>23.799999999999997</ele><time>2026-05-02T11:36:53.652Z</time></trkpt><trkpt lat="45.5344032" lon="11.7887089"><ele>24.2</ele><time>2026-05-02T11:36:55.652Z</time></trkpt><trkpt lat="45.5344459" lon="11.788844"><ele>24.6</ele><time>2026-05-02T11:36:57.658Z</time></trkpt><trkpt lat="45.534484" lon="11.7889912"><ele>25.0</ele><time>2026-05-02T11:36:59.65Z</time></trkpt><trkpt lat="45.5345224" lon="11.7891316"><ele>25.166666666666668</ele><time>2026-05-02T11:37:01.651Z</time></trkpt><trkpt lat="45.5345592" lon="11.7892699"><ele>25.333333333333336</ele><time>2026-05-02T11:37:03.658Z</time></trkpt><trkpt lat="45.5345943" lon="11.7893976"><ele>25.5</ele><time>2026-05-02T11:37:05.653Z</time></trkpt><trkpt lat="45.5346257" lon="11.7895155"><ele>25.666666666666664</ele><time>2026-05-02T11:37:07.65Z</time></trkpt><trkpt lat="45.5346578" lon="11.7896294"><ele>25.833333333333332</ele><time>2026-05-02T11:37:09.656Z</time></trkpt><trkpt lat="45.5346782" lon="11.7897237"><ele>26.0</ele><time>2026-05-02T11:37:11.655Z</time></trkpt><trkpt lat="45.5346948" lon="11.7898153"><ele>25.999999999999996</ele><time>2026-05-02T11:37:14.637Z</time></trkpt><trkpt lat="45.534715" lon="11.7899251"><ele>26.0</ele><time>2026-05-02T11:37:19.662Z</time></trkpt><trkpt lat="45.5347361" lon="11.7900261"><ele>26.0</ele><time>2026-05-02T11:37:23.656Z</time></trkpt><trkpt lat="45.534762" lon="11.7901261"><ele>26.0</ele><time>2026-05-02T11:37:26.662Z</time></trkpt><trkpt lat="45.5347807" lon="11.7902542"><ele>25.999999999999996</ele><time>2026-05-02T11:37:29.66Z</time></trkpt><trkpt lat="45.5348048" lon="11.7903751"><ele>26.0</ele><time>2026-05-02T11:37:32.653Z</time></trkpt><trkpt lat="45.5348238" lon="11.7904727"><ele>25.8</ele><time>2026-05-02T11:37:34.659Z</time></trkpt><trkpt lat="45.5348608" lon="11.7905982"><ele>25.6</ele><time>2026-05-02T11:37:36.66Z</time></trkpt><trkpt lat="45.5349098" lon="11.7907434"><ele>25.4</ele><time>2026-05-02T11:37:38.65Z</time></trkpt><trkpt lat="45.5349492" lon="11.7908985"><ele>25.2</ele><time>2026-05-02T11:37:40.659Z</time></trkpt><trkpt lat="45.5349798" lon="11.7910509"><ele>25.0</ele><time>2026-05-02T11:37:42.656Z</time></trkpt><trkpt lat="45.5350251" lon="11.7911873"><ele>24.6</ele><time>2026-05-02T11:37:44.658Z</time></trkpt><trkpt lat="45.5350667" lon="11.7913331"><ele>24.2</ele><time>2026-05-02T11:37:46.655Z</time></trkpt><trkpt lat="45.5350972" lon="11.7914748"><ele>23.799999999999997</ele><time>2026-05-02T11:37:48.656Z</time></trkpt><trkpt lat="45.5351294" lon="11.7916091"><ele>23.4</ele><time>2026-05-02T11:37:50.657Z</time></trkpt><trkpt lat="45.5351584" lon="11.7917641"><ele>23.0</ele><time>2026-05-02T11:37:52.658Z</time></trkpt><trkpt lat="45.5351939" lon="11.7919138"><ele>23.0</ele><time>2026-05-02T11:37:54.657Z</time></trkpt><trkpt lat="45.5352268" lon="11.792055"><ele>23.0</ele><time>2026-05-02T11:37:56.654Z</time></trkpt><trkpt lat="45.535263" lon="11.7921963"><ele>23.0</ele><time>2026-05-02T11:37:58.66Z</time></trkpt><trkpt lat="45.5353022" lon="11.7923323"><ele>23.0</ele><time>2026-05-02T11:38:00.654Z</time></trkpt><trkpt lat="45.5353364" lon="11.7924671"><ele>23.0</ele><time>2026-05-02T11:38:02.648Z</time></trkpt><trkpt lat="45.5353625" lon="11.7925892"><ele>22.833333333333336</ele><time>2026-05-02T11:38:04.653Z</time></trkpt><trkpt lat="45.5353921" lon="11.7927051"><ele>22.666666666666668</ele><time>2026-05-02T11:38:06.657Z</time></trkpt><trkpt lat="45.5354234" lon="11.7928259"><ele>22.5</ele><time>2026-05-02T11:38:08.66Z</time></trkpt><trkpt lat="45.5354582" lon="11.7929291"><ele>22.333333333333332</ele><time>2026-05-02T11:38:10.662Z</time></trkpt><trkpt lat="45.5354797" lon="11.7930204"><ele>22.166666666666664</ele><time>2026-05-02T11:38:12.656Z</time></trkpt><trkpt lat="45.5355085" lon="11.7931086"><ele>22.0</ele><time>2026-05-02T11:38:14.652Z</time></trkpt><trkpt lat="45.5355383" lon="11.7932057"><ele>22.0</ele><time>2026-05-02T11:38:16.658Z</time></trkpt><trkpt lat="45.5355779" lon="11.7933221"><ele>22.0</ele><time>2026-05-02T11:38:18.664Z</time></trkpt><trkpt lat="45.5356032" lon="11.793441"><ele>22.0</ele><time>2026-05-02T11:38:20.658Z</time></trkpt><trkpt lat="45.5356301" lon="11.7935633"><ele>22.0</ele><time>2026-05-02T11:38:22.656Z</time></trkpt><trkpt lat="45.535658" lon="11.7936863"><ele>22.0</ele><time>2026-05-02T11:38:24.656Z</time></trkpt><trkpt lat="45.5356902" lon="11.7938233"><ele>21.6</ele><time>2026-05-02T11:38:26.649Z</time></trkpt><trkpt lat="45.5357356" lon="11.793968"><ele>21.200000000000003</ele><time>2026-05-02T11:38:28.654Z</time></trkpt><trkpt lat="45.5357656" lon="11.7941109"><ele>20.8</ele><time>2026-05-02T11:38:30.655Z</time></trkpt><trkpt lat="45.535796" lon="11.7942552"><ele>20.4</ele><time>2026-05-02T11:38:32.655Z</time></trkpt><trkpt lat="45.5358332" lon="11.7943965"><ele>20.0</ele><time>2026-05-02T11:38:34.654Z</time></trkpt><trkpt lat="45.5358698" lon="11.7945437"><ele>20.0</ele><time>2026-05-02T11:38:36.657Z</time></trkpt><trkpt lat="45.5359074" lon="11.7946943"><ele>20.0</ele><time>2026-05-02T11:38:38.654Z</time></trkpt><trkpt lat="45.5359421" lon="11.7948384"><ele>20.0</ele><time>2026-05-02T11:38:40.654Z</time></trkpt><trkpt lat="45.535977" lon="11.7949625"><ele>20.0</ele><time>2026-05-02T11:38:42.655Z</time></trkpt><trkpt lat="45.5360095" lon="11.795086"><ele>20.0</ele><time>2026-05-02T11:38:44.656Z</time></trkpt><trkpt lat="45.5360375" lon="11.7952129"><ele>20.0</ele><time>2026-05-02T11:38:46.656Z</time></trkpt><trkpt lat="45.5360632" lon="11.7953259"><ele>20.0</ele><time>2026-05-02T11:38:48.647Z</time></trkpt><trkpt lat="45.5360888" lon="11.795438"><ele>20.0</ele><time>2026-05-02T11:38:50.651Z</time></trkpt><trkpt lat="45.5361271" lon="11.7955627"><ele>20.0</ele><time>2026-05-02T11:38:52.652Z</time></trkpt><trkpt lat="45.5361639" lon="11.7957031"><ele>20.0</ele><time>2026-05-02T11:38:54.66Z</time></trkpt><trkpt lat="45.5362091" lon="11.7958507"><ele>20.2</ele><time>2026-05-02T11:38:56.657Z</time></trkpt><trkpt lat="45.5362499" lon="11.7960034"><ele>20.4</ele><time>2026-05-02T11:38:58.661Z</time></trkpt><trkpt lat="45.5362851" lon="11.7961483"><ele>20.6</ele><time>2026-05-02T11:39:00.655Z</time></trkpt><trkpt lat="45.5363211" lon="11.79628"><ele>20.8</ele><time>2026-05-02T11:39:02.664Z</time></trkpt><trkpt lat="45.5363563" lon="11.7964191"><ele>21.0</ele><time>2026-05-02T11:39:04.663Z</time></trkpt><trkpt lat="45.5363909" lon="11.7965568"><ele>21.0</ele><time>2026-05-02T11:39:06.651Z</time></trkpt><trkpt lat="45.5364257" lon="11.7966887"><ele>21.0</ele><time>2026-05-02T11:39:08.641Z</time></trkpt><trkpt lat="45.5364499" lon="11.7968279"><ele>21.0</ele><time>2026-05-02T11:39:10.634Z</time></trkpt><trkpt lat="45.5364766" lon="11.796965"><ele>21.0</ele><time>2026-05-02T11:39:12.63Z</time></trkpt><trkpt lat="45.536512" lon="11.7970916"><ele>21.0</ele><time>2026-05-02T11:39:14.648Z</time></trkpt><trkpt lat="45.5365497" lon="11.7972037"><ele>21.0</ele><time>2026-05-02T11:39:16.658Z</time></trkpt><trkpt lat="45.5365905" lon="11.7973372"><ele>21.0</ele><time>2026-05-02T11:39:18.647Z</time></trkpt><trkpt lat="45.5366303" lon="11.7974697"><ele>21.0</ele><time>2026-05-02T11:39:20.639Z</time></trkpt><trkpt lat="45.5366667" lon="11.7976132"><ele>21.0</ele><time>2026-05-02T11:39:22.657Z</time></trkpt><trkpt lat="45.5367003" lon="11.79776"><ele>21.0</ele><time>2026-05-02T11:39:24.661Z</time></trkpt><trkpt lat="45.5367393" lon="11.797905"><ele>21.0</ele><time>2026-05-02T11:39:26.663Z</time></trkpt><trkpt lat="45.5367809" lon="11.7980467"><ele>21.0</ele><time>2026-05-02T11:39:28.648Z</time></trkpt><trkpt lat="45.5368207" lon="11.798194"><ele>21.0</ele><time>2026-05-02T11:39:30.654Z</time></trkpt><trkpt lat="45.5368522" lon="11.798345"><ele>21.0</ele><time>2026-05-02T11:39:32.654Z</time></trkpt><trkpt lat="45.536882" lon="11.7985012"><ele>21.0</ele><time>2026-05-02T11:39:34.64Z</time></trkpt><trkpt lat="45.5369155" lon="11.7986628"><ele>21.0</ele><time>2026-05-02T11:39:36.647Z</time></trkpt><trkpt lat="45.5369507" lon="11.7988138"><ele>21.0</ele><time>2026-05-02T11:39:38.651Z</time></trkpt><trkpt lat="45.5369863" lon="11.7989454"><ele>21.0</ele><time>2026-05-02T11:39:40.651Z</time></trkpt><trkpt lat="45.5370204" lon="11.7990656"><ele>21.0</ele><time>2026-05-02T11:39:42.655Z</time></trkpt><trkpt lat="45.5370572" lon="11.7991956"><ele>21.0</ele><time>2026-05-02T11:39:44.652Z</time></trkpt><trkpt lat="45.5370879" lon="11.7993271"><ele>21.0</ele><time>2026-05-02T11:39:46.652Z</time></trkpt><trkpt lat="45.5371137" lon="11.7994505"><ele>21.0</ele><time>2026-05-02T11:39:48.658Z</time></trkpt><trkpt lat="45.5371406" lon="11.7995636"><ele>21.0</ele><time>2026-05-02T11:39:50.648Z</time></trkpt><trkpt lat="45.5371699" lon="11.7996621"><ele>21.0</ele><time>2026-05-02T11:39:52.656Z</time></trkpt><trkpt lat="45.5371981" lon="11.7997565"><ele>21.0</ele><time>2026-05-02T11:39:54.653Z</time></trkpt><trkpt lat="45.5372276" lon="11.7998619"><ele>21.0</ele><time>2026-05-02T11:39:56.661Z</time></trkpt><trkpt lat="45.5372545" lon="11.79996"><ele>21.0</ele><time>2026-05-02T11:39:58.651Z</time></trkpt><trkpt lat="45.5372906" lon="11.8000852"><ele>21.0</ele><time>2026-05-02T11:40:00.654Z</time></trkpt><trkpt lat="45.5373265" lon="11.8002228"><ele>21.0</ele><time>2026-05-02T11:40:02.656Z</time></trkpt><trkpt lat="45.5373614" lon="11.800376"><ele>21.0</ele><time>2026-05-02T11:40:04.655Z</time></trkpt><trkpt lat="45.5373997" lon="11.8005202"><ele>21.0</ele><time>2026-05-02T11:40:06.66Z</time></trkpt><trkpt lat="45.5374276" lon="11.8006604"><ele>21.0</ele><time>2026-05-02T11:40:08.659Z</time></trkpt><trkpt lat="45.5374556" lon="11.800792"><ele>21.0</ele><time>2026-05-02T11:40:10.663Z</time></trkpt><trkpt lat="45.5374908" lon="11.8009229"><ele>21.0</ele><time>2026-05-02T11:40:12.657Z</time></trkpt><trkpt lat="45.5375254" lon="11.8010413"><ele>21.0</ele><time>2026-05-02T11:40:14.662Z</time></trkpt><trkpt lat="45.5375538" lon="11.8011558"><ele>21.0</ele><time>2026-05-02T11:40:16.637Z</time></trkpt><trkpt lat="45.5375765" lon="11.8012561"><ele>21.0</ele><time>2026-05-02T11:40:18.632Z</time></trkpt><trkpt lat="45.5376006" lon="11.8013624"><ele>20.8</ele><time>2026-05-02T11:40:20.661Z</time></trkpt><trkpt lat="45.5376309" lon="11.8014967"><ele>20.6</ele><time>2026-05-02T11:40:22.651Z</time></trkpt><trkpt lat="45.537661" lon="11.8016399"><ele>20.4</ele><time>2026-05-02T11:40:24.652Z</time></trkpt><trkpt lat="45.5376964" lon="11.8017747"><ele>20.2</ele><time>2026-05-02T11:40:26.657Z</time></trkpt><trkpt lat="45.5377225" lon="11.8018996"><ele>20.0</ele><time>2026-05-02T11:40:28.66Z</time></trkpt><trkpt lat="45.5377477" lon="11.80202"><ele>20.0</ele><time>2026-05-02T11:40:30.653Z</time></trkpt><trkpt lat="45.5377818" lon="11.8021525"><ele>20.0</ele><time>2026-05-02T11:40:32.649Z</time></trkpt><trkpt lat="45.5378096" lon="11.8022734"><ele>20.0</ele><time>2026-05-02T11:40:34.646Z</time></trkpt><trkpt lat="45.537828" lon="11.8023838"><ele>20.0</ele><time>2026-05-02T11:40:36.651Z</time></trkpt><trkpt lat="45.5378544" lon="11.8025056"><ele>20.0</ele><time>2026-05-02T11:40:38.655Z</time></trkpt><trkpt lat="45.5378744" lon="11.8026511"><ele>20.2</ele><time>2026-05-02T11:40:40.656Z</time></trkpt><trkpt lat="45.5378938" lon="11.8028005"><ele>20.4</ele><time>2026-05-02T11:40:42.659Z</time></trkpt><trkpt lat="45.5379151" lon="11.8029573"><ele>20.6</ele><time>2026-05-02T11:40:44.655Z</time></trkpt><trkpt lat="45.5379397" lon="11.8031054"><ele>20.8</ele><time>2026-05-02T11:40:46.658Z</time></trkpt><trkpt lat="45.5379572" lon="11.8032477"><ele>21.0</ele><time>2026-05-02T11:40:48.653Z</time></trkpt><trkpt lat="45.5379803" lon="11.8033804"><ele>21.0</ele><time>2026-05-02T11:40:50.657Z</time></trkpt><trkpt lat="45.5380005" lon="11.8035266"><ele>21.0</ele><time>2026-05-02T11:40:52.657Z</time></trkpt><trkpt lat="45.5380248" lon="11.8036841"><ele>21.0</ele><time>2026-05-02T11:40:54.655Z</time></trkpt><trkpt lat="45.5380448" lon="11.8038312"><ele>21.0</ele><time>2026-05-02T11:40:56.654Z</time></trkpt><trkpt lat="45.538064" lon="11.8039789"><ele>21.0</ele><time>2026-05-02T11:40:58.656Z</time></trkpt><trkpt lat="45.5380831" lon="11.8041205"><ele>21.0</ele><time>2026-05-02T11:41:00.656Z</time></trkpt><trkpt lat="45.5381032" lon="11.8042612"><ele>21.0</ele><time>2026-05-02T11:41:02.657Z</time></trkpt><trkpt lat="45.5381195" lon="11.8043992"><ele>21.0</ele><time>2026-05-02T11:41:04.65Z</time></trkpt><trkpt lat="45.5381353" lon="11.8045316"><ele>21.0</ele><time>2026-05-02T11:41:06.654Z</time></trkpt><trkpt lat="45.5381442" lon="11.8046606"><ele>21.0</ele><time>2026-05-02T11:41:08.649Z</time></trkpt><trkpt lat="45.5381497" lon="11.8047917"><ele>21.166666666666668</ele><time>2026-05-02T11:41:10.649Z</time></trkpt><trkpt lat="45.5381586" lon="11.8049029"><ele>21.333333333333332</ele><time>2026-05-02T11:41:12.658Z</time></trkpt><trkpt lat="45.5381701" lon="11.8050171"><ele>21.5</ele><time>2026-05-02T11:41:14.654Z</time></trkpt><trkpt lat="45.538169" lon="11.8051349"><ele>21.666666666666664</ele><time>2026-05-02T11:41:16.658Z</time></trkpt><trkpt lat="45.5381774" lon="11.8052673"><ele>21.833333333333332</ele><time>2026-05-02T11:41:18.66Z</time></trkpt><trkpt lat="45.538186" lon="11.8053964"><ele>22.0</ele><time>2026-05-02T11:41:20.656Z</time></trkpt><trkpt lat="45.5381942" lon="11.805494"><ele>22.0</ele><time>2026-05-02T11:41:22.656Z</time></trkpt><trkpt lat="45.5382005" lon="11.8055836"><ele>22.0</ele><time>2026-05-02T11:41:25.656Z</time></trkpt><trkpt lat="45.5381866" lon="11.8056732"><ele>22.0</ele><time>2026-05-02T11:43:15.656Z</time></trkpt><trkpt lat="45.5381815" lon="11.8057886"><ele>22.0</ele><time>2026-05-02T11:43:19.662Z</time></trkpt><trkpt lat="45.5381861" lon="11.8059218"><ele>22.0</ele><time>2026-05-02T11:43:21.666Z</time></trkpt><trkpt lat="45.5381988" lon="11.8060633"><ele>22.0</ele><time>2026-05-02T11:43:23.661Z</time></trkpt><trkpt lat="45.5381987" lon="11.8062135"><ele>21.8</ele><time>2026-05-02T11:43:25.654Z</time></trkpt><trkpt lat="45.5381969" lon="11.8063673"><ele>21.6</ele><time>2026-05-02T11:43:27.656Z</time></trkpt><trkpt lat="45.5382018" lon="11.8065212"><ele>21.400000000000002</ele><time>2026-05-02T11:43:29.652Z</time></trkpt><trkpt lat="45.5381991" lon="11.8066672"><ele>21.200000000000003</ele><time>2026-05-02T11:43:31.657Z</time></trkpt><trkpt lat="45.5382042" lon="11.8067942"><ele>21.0</ele><time>2026-05-02T11:43:33.66Z</time></trkpt><trkpt lat="45.5382026" lon="11.806904"><ele>20.428571428571427</ele><time>2026-05-02T11:43:35.662Z</time></trkpt><trkpt lat="45.5382047" lon="11.8070133"><ele>19.857142857142858</ele><time>2026-05-02T11:43:37.658Z</time></trkpt><trkpt lat="45.5382015" lon="11.8071201"><ele>19.285714285714285</ele><time>2026-05-02T11:43:39.655Z</time></trkpt><trkpt lat="45.5382092" lon="11.8072167"><ele>18.714285714285715</ele><time>2026-05-02T11:43:41.655Z</time></trkpt><trkpt lat="45.5382116" lon="11.8073079"><ele>18.142857142857142</ele><time>2026-05-02T11:43:43.657Z</time></trkpt><trkpt lat="45.538212" lon="11.8074165"><ele>17.57142857142857</ele><time>2026-05-02T11:43:46.659Z</time></trkpt><trkpt lat="45.5382087" lon="11.8075073"><ele>17.0</ele><time>2026-05-02T11:43:49.663Z</time></trkpt><trkpt lat="45.5382103" lon="11.8076065"><ele>17.333333333333336</ele><time>2026-05-02T11:43:52.658Z</time></trkpt><trkpt lat="45.5382112" lon="11.8077464"><ele>17.666666666666668</ele><time>2026-05-02T11:43:55.661Z</time></trkpt><trkpt lat="45.5382103" lon="11.8078492"><ele>18.0</ele><time>2026-05-02T11:43:57.637Z</time></trkpt><trkpt lat="45.5382132" lon="11.8079434"><ele>18.333333333333332</ele><time>2026-05-02T11:43:59.648Z</time></trkpt><trkpt lat="45.5382203" lon="11.8080336"><ele>18.666666666666664</ele><time>2026-05-02T11:44:01.658Z</time></trkpt><trkpt lat="45.5382236" lon="11.8081576"><ele>19.0</ele><time>2026-05-02T11:44:04.65Z</time></trkpt><trkpt lat="45.538226" lon="11.8082831"><ele>19.0</ele><time>2026-05-02T11:44:07.654Z</time></trkpt><trkpt lat="45.5382298" lon="11.8084131"><ele>19.0</ele><time>2026-05-02T11:44:10.664Z</time></trkpt><trkpt lat="45.5382323" lon="11.8085176"><ele>19.0</ele><time>2026-05-02T11:44:12.657Z</time></trkpt><trkpt lat="45.538232" lon="11.8086189"><ele>19.0</ele><time>2026-05-02T11:44:14.658Z</time></trkpt><trkpt lat="45.5382302" lon="11.808718"><ele>19.0</ele><time>2026-05-02T11:44:16.649Z</time></trkpt><trkpt lat="45.5382329" lon="11.8088271"><ele>19.0</ele><time>2026-05-02T11:44:18.661Z</time></trkpt><trkpt lat="45.5382326" lon="11.8089555"><ele>19.6</ele><time>2026-05-02T11:44:20.654Z</time></trkpt><trkpt lat="45.5382377" lon="11.8090967"><ele>20.2</ele><time>2026-05-02T11:44:22.659Z</time></trkpt><trkpt lat="45.5382423" lon="11.8092449"><ele>20.8</ele><time>2026-05-02T11:44:24.659Z</time></trkpt><trkpt lat="45.5382407" lon="11.8093832"><ele>21.400000000000002</ele><time>2026-05-02T11:44:26.659Z</time></trkpt><trkpt lat="45.5382429" lon="11.8095167"><ele>22.0</ele><time>2026-05-02T11:44:28.651Z</time></trkpt><trkpt lat="45.5382398" lon="11.8096466"><ele>22.200000000000003</ele><time>2026-05-02T11:44:30.657Z</time></trkpt><trkpt lat="45.53824" lon="11.8097718"><ele>22.4</ele><time>2026-05-02T11:44:32.643Z</time></trkpt><trkpt lat="45.5382397" lon="11.8099027"><ele>22.6</ele><time>2026-05-02T11:44:34.659Z</time></trkpt><trkpt lat="45.538244" lon="11.8100412"><ele>22.799999999999997</ele><time>2026-05-02T11:44:36.656Z</time></trkpt><trkpt lat="45.538249" lon="11.8102009"><ele>23.0</ele><time>2026-05-02T11:44:38.65Z</time></trkpt><trkpt lat="45.5382497" lon="11.8103617"><ele>22.599999999999998</ele><time>2026-05-02T11:44:40.656Z</time></trkpt><trkpt lat="45.5382503" lon="11.8105091"><ele>22.2</ele><time>2026-05-02T11:44:42.649Z</time></trkpt><trkpt lat="45.5382499" lon="11.8106616"><ele>21.8</ele><time>2026-05-02T11:44:44.653Z</time></trkpt><trkpt lat="45.5382557" lon="11.8108118"><ele>21.4</ele><time>2026-05-02T11:44:46.66Z</time></trkpt><trkpt lat="45.5382639" lon="11.8109647"><ele>21.0</ele><time>2026-05-02T11:44:48.649Z</time></trkpt><trkpt lat="45.5382631" lon="11.811119"><ele>21.0</ele><time>2026-05-02T11:44:50.652Z</time></trkpt><trkpt lat="45.5382652" lon="11.8112737"><ele>21.0</ele><time>2026-05-02T11:44:52.657Z</time></trkpt><trkpt lat="45.5382673" lon="11.8114225"><ele>21.0</ele><time>2026-05-02T11:44:54.65Z</time></trkpt><trkpt lat="45.5382663" lon="11.8115661"><ele>21.0</ele><time>2026-05-02T11:44:56.633Z</time></trkpt><trkpt lat="45.5382674" lon="11.8117031"><ele>21.0</ele><time>2026-05-02T11:44:58.655Z</time></trkpt><trkpt lat="45.5382719" lon="11.8118488"><ele>21.166666666666668</ele><time>2026-05-02T11:45:00.653Z</time></trkpt><trkpt lat="45.5382782" lon="11.8119882"><ele>21.333333333333332</ele><time>2026-05-02T11:45:02.657Z</time></trkpt><trkpt lat="45.5382854" lon="11.8121306"><ele>21.5</ele><time>2026-05-02T11:45:04.658Z</time></trkpt><trkpt lat="45.5382839" lon="11.812224"><ele>21.666666666666664</ele><time>2026-05-02T11:45:05.653Z</time></trkpt><trkpt lat="45.5382826" lon="11.8123225"><ele>21.833333333333332</ele><time>2026-05-02T11:45:06.649Z</time></trkpt><trkpt lat="45.5382804" lon="11.8124203"><ele>22.0</ele><time>2026-05-02T11:45:07.656Z</time></trkpt><trkpt lat="45.5382829" lon="11.8125189"><ele>22.0</ele><time>2026-05-02T11:45:08.651Z</time></trkpt><trkpt lat="45.5382845" lon="11.8126199"><ele>22.0</ele><time>2026-05-02T11:45:09.651Z</time></trkpt><trkpt lat="45.5382846" lon="11.8127263"><ele>22.0</ele><time>2026-05-02T11:45:10.664Z</time></trkpt><trkpt lat="45.538282" lon="11.812827"><ele>22.0</ele><time>2026-05-02T11:45:11.661Z</time></trkpt><trkpt lat="45.5382757" lon="11.8129745"><ele>22.0</ele><time>2026-05-02T11:45:13.655Z</time></trkpt><trkpt lat="45.5382771" lon="11.8130982"><ele>22.0</ele><time>2026-05-02T11:45:15.653Z</time></trkpt><trkpt lat="45.5382801" lon="11.8131893"><ele>21.666666666666664</ele><time>2026-05-02T11:45:17.663Z</time></trkpt><trkpt lat="45.5382853" lon="11.813282"><ele>21.333333333333332</ele><time>2026-05-02T11:45:19.654Z</time></trkpt><trkpt lat="45.5382821" lon="11.8133881"><ele>21.0</ele><time>2026-05-02T11:45:21.651Z</time></trkpt><trkpt lat="45.5382831" lon="11.813498"><ele>20.666666666666668</ele><time>2026-05-02T11:45:23.664Z</time></trkpt><trkpt lat="45.5382935" lon="11.8136129"><ele>20.333333333333336</ele><time>2026-05-02T11:45:25.664Z</time></trkpt><trkpt lat="45.5382955" lon="11.8137584"><ele>20.0</ele><time>2026-05-02T11:45:27.645Z</time></trkpt><trkpt lat="45.5382986" lon="11.8139184"><ele>20.0</ele><time>2026-05-02T11:45:29.66Z</time></trkpt><trkpt lat="45.5383051" lon="11.8140986"><ele>20.0</ele><time>2026-05-02T11:45:31.654Z</time></trkpt><trkpt lat="45.5383068" lon="11.8142341"><ele>20.0</ele><time>2026-05-02T11:45:33.657Z</time></trkpt><trkpt lat="45.5383021" lon="11.814326"><ele>20.0</ele><time>2026-05-02T11:45:36.657Z</time></trkpt><trkpt lat="45.5382918" lon="11.8144261"><ele>20.0</ele><time>2026-05-02T11:45:48.655Z</time></trkpt><trkpt lat="45.5382912" lon="11.8145229"><ele>20.0</ele><time>2026-05-02T11:45:53.66Z</time></trkpt><trkpt lat="45.5382933" lon="11.8146236"><ele>20.0</ele><time>2026-05-02T11:45:56.649Z</time></trkpt><trkpt lat="45.5382929" lon="11.8147254"><ele>20.0</ele><time>2026-05-02T11:45:59.657Z</time></trkpt><trkpt lat="45.5382833" lon="11.8148407"><ele>20.0</ele><time>2026-05-02T11:46:02.656Z</time></trkpt><trkpt lat="45.5382753" lon="11.8149529"><ele>20.0</ele><time>2026-05-02T11:46:05.67Z</time></trkpt><trkpt lat="45.5382757" lon="11.8150435"><ele>20.0</ele><time>2026-05-02T11:46:08.646Z</time></trkpt><trkpt lat="45.5382844" lon="11.8151412"><ele>20.0</ele><time>2026-05-02T11:46:11.65Z</time></trkpt><trkpt lat="45.538287" lon="11.8152414"><ele>20.0</ele><time>2026-05-02T11:46:14.647Z</time></trkpt><trkpt lat="45.5382956" lon="11.8153549"><ele>20.0</ele><time>2026-05-02T11:46:18.657Z</time></trkpt><trkpt lat="45.5383017" lon="11.8154522"><ele>20.0</ele><time>2026-05-02T11:46:21.656Z</time></trkpt><trkpt lat="45.5383072" lon="11.8155585"><ele>20.0</ele><time>2026-05-02T11:46:24.654Z</time></trkpt><trkpt lat="45.5383082" lon="11.8156851"><ele>20.0</ele><time>2026-05-02T11:46:27.648Z</time></trkpt><trkpt lat="45.538314" lon="11.8157768"><ele>20.0</ele><time>2026-05-02T11:46:29.651Z</time></trkpt><trkpt lat="45.5383113" lon="11.8158668"><ele>20.0</ele><time>2026-05-02T11:46:31.659Z</time></trkpt><trkpt lat="45.5383183" lon="11.8159876"><ele>20.0</ele><time>2026-05-02T11:46:34.657Z</time></trkpt><trkpt lat="45.5383281" lon="11.8160996"><ele>19.857142857142858</ele><time>2026-05-02T11:46:37.66Z</time></trkpt><trkpt lat="45.5383139" lon="11.8161895"><ele>19.714285714285715</ele><time>2026-05-02T11:46:40.664Z</time></trkpt><trkpt lat="45.5383149" lon="11.8163057"><ele>19.57142857142857</ele><time>2026-05-02T11:46:45.656Z</time></trkpt><trkpt lat="45.5383234" lon="11.8163993"><ele>19.42857142857143</ele><time>2026-05-02T11:46:47.659Z</time></trkpt><trkpt lat="45.5383262" lon="11.8164927"><ele>19.28571428571429</ele><time>2026-05-02T11:46:49.642Z</time></trkpt><trkpt lat="45.5383229" lon="11.8165917"><ele>19.142857142857142</ele><time>2026-05-02T11:46:51.656Z</time></trkpt><trkpt lat="45.5383126" lon="11.816681"><ele>19.0</ele><time>2026-05-02T11:46:53.649Z</time></trkpt><trkpt lat="45.5383138" lon="11.816813"><ele>19.166666666666664</ele><time>2026-05-02T11:46:56.647Z</time></trkpt><trkpt lat="45.5383092" lon="11.8169107"><ele>19.333333333333332</ele><time>2026-05-02T11:46:58.657Z</time></trkpt><trkpt lat="45.5383153" lon="11.8170337"><ele>19.5</ele><time>2026-05-02T11:47:00.649Z</time></trkpt><trkpt lat="45.5383155" lon="11.8171549"><ele>19.666666666666668</ele><time>2026-05-02T11:47:02.654Z</time></trkpt><trkpt lat="45.5383185" lon="11.8172831"><ele>19.833333333333336</ele><time>2026-05-02T11:47:04.653Z</time></trkpt><trkpt lat="45.5383203" lon="11.8174048"><ele>20.0</ele><time>2026-05-02T11:47:06.649Z</time></trkpt><trkpt lat="45.5383189" lon="11.8175216"><ele>20.0</ele><time>2026-05-02T11:47:08.656Z</time></trkpt><trkpt lat="45.5383234" lon="11.8176315"><ele>20.0</ele><time>2026-05-02T11:47:10.655Z</time></trkpt><trkpt lat="45.5383236" lon="11.8177351"><ele>20.0</ele><time>2026-05-02T11:47:12.648Z</time></trkpt><trkpt lat="45.538321" lon="11.8178387"><ele>20.0</ele><time>2026-05-02T11:47:14.663Z</time></trkpt><trkpt lat="45.5383265" lon="11.8179431"><ele>20.0</ele><time>2026-05-02T11:47:16.644Z</time></trkpt><trkpt lat="45.5383338" lon="11.818049"><ele>20.0</ele><time>2026-05-02T11:47:18.651Z</time></trkpt><trkpt lat="45.5383306" lon="11.818152"><ele>20.0</ele><time>2026-05-02T11:47:20.645Z</time></trkpt><trkpt lat="45.5383291" lon="11.8182555"><ele>19.833333333333336</ele><time>2026-05-02T11:47:22.65Z</time></trkpt><trkpt lat="45.5383366" lon="11.8183724"><ele>19.666666666666668</ele><time>2026-05-02T11:47:24.658Z</time></trkpt><trkpt lat="45.5383395" lon="11.8185112"><ele>19.5</ele><time>2026-05-02T11:47:26.65Z</time></trkpt><trkpt lat="45.5383422" lon="11.8186376"><ele>19.333333333333332</ele><time>2026-05-02T11:47:28.629Z</time></trkpt><trkpt lat="45.5383437" lon="11.8187463"><ele>19.166666666666664</ele><time>2026-05-02T11:47:30.655Z</time></trkpt><trkpt lat="45.5383396" lon="11.8188675"><ele>19.0</ele><time>2026-05-02T11:47:33.646Z</time></trkpt><trkpt lat="45.5383134" lon="11.8189567"><ele>19.0</ele><time>2026-05-02T11:51:43.656Z</time></trkpt><trkpt lat="45.5383144" lon="11.8190498"><ele>19.0</ele><time>2026-05-02T11:51:50.652Z</time></trkpt><trkpt lat="45.5383211" lon="11.8191643"><ele>19.0</ele><time>2026-05-02T11:51:53.658Z</time></trkpt><trkpt lat="45.5383315" lon="11.8192816"><ele>19.0</ele><time>2026-05-02T11:51:55.654Z</time></trkpt><trkpt lat="45.5383419" lon="11.8194102"><ele>19.0</ele><time>2026-05-02T11:51:57.653Z</time></trkpt><trkpt lat="45.5383605" lon="11.8195514"><ele>19.0</ele><time>2026-05-02T11:51:59.655Z</time></trkpt><trkpt lat="45.5383677" lon="11.8196944"><ele>19.2</ele><time>2026-05-02T11:52:01.651Z</time></trkpt><trkpt lat="45.5383661" lon="11.8198453"><ele>19.4</ele><time>2026-05-02T11:52:03.654Z</time></trkpt><trkpt lat="45.5383701" lon="11.8199845"><ele>19.6</ele><time>2026-05-02T11:52:05.654Z</time></trkpt><trkpt lat="45.5383781" lon="11.820118"><ele>19.8</ele><time>2026-05-02T11:52:07.653Z</time></trkpt><trkpt lat="45.5383861" lon="11.8202444"><ele>20.0</ele><time>2026-05-02T11:52:09.654Z</time></trkpt><trkpt lat="45.5383983" lon="11.8203587"><ele>20.285714285714285</ele><time>2026-05-02T11:52:11.666Z</time></trkpt><trkpt lat="45.5383994" lon="11.8204531"><ele>20.571428571428573</ele><time>2026-05-02T11:52:14.651Z</time></trkpt><trkpt lat="45.5383911" lon="11.8205631"><ele>20.857142857142858</ele><time>2026-05-02T11:52:18.651Z</time></trkpt><trkpt lat="45.5383926" lon="11.8206691"><ele>21.142857142857142</ele><time>2026-05-02T11:52:22.663Z</time></trkpt><trkpt lat="45.538403" lon="11.8207613"><ele>21.428571428571427</ele><time>2026-05-02T11:52:25.657Z</time></trkpt><trkpt lat="45.5384164" lon="11.8208637"><ele>21.714285714285715</ele><time>2026-05-02T11:52:28.655Z</time></trkpt><trkpt lat="45.5384196" lon="11.820971"><ele>22.0</ele><time>2026-05-02T11:52:31.66Z</time></trkpt><trkpt lat="45.5384299" lon="11.8211101"><ele>22.200000000000003</ele><time>2026-05-02T11:52:34.653Z</time></trkpt><trkpt lat="45.5384374" lon="11.8212371"><ele>22.4</ele><time>2026-05-02T11:52:36.662Z</time></trkpt><trkpt lat="45.5384476" lon="11.8213833"><ele>22.6</ele><time>2026-05-02T11:52:38.651Z</time></trkpt><trkpt lat="45.5384638" lon="11.8215538"><ele>22.799999999999997</ele><time>2026-05-02T11:52:40.651Z</time></trkpt><trkpt lat="45.5384988" lon="11.8217104"><ele>23.0</ele><time>2026-05-02T11:52:42.655Z</time></trkpt><trkpt lat="45.5385163" lon="11.8218679"><ele>23.0</ele><time>2026-05-02T11:52:44.661Z</time></trkpt><trkpt lat="45.5385237" lon="11.8220138"><ele>23.0</ele><time>2026-05-02T11:52:46.659Z</time></trkpt><trkpt lat="45.5385353" lon="11.8221457"><ele>23.0</ele><time>2026-05-02T11:52:48.653Z</time></trkpt><trkpt lat="45.5385619" lon="11.8222819"><ele>23.0</ele><time>2026-05-02T11:52:50.654Z</time></trkpt><trkpt lat="45.538584" lon="11.8224093"><ele>23.0</ele><time>2026-05-02T11:52:52.653Z</time></trkpt><trkpt lat="45.5386118" lon="11.8225287"><ele>23.0</ele><time>2026-05-02T11:52:54.662Z</time></trkpt><trkpt lat="45.5386603" lon="11.8226953"><ele>23.0</ele><time>2026-05-02T11:52:57.653Z</time></trkpt><trkpt lat="45.5386764" lon="11.8227986"><ele>23.0</ele><time>2026-05-02T11:52:59.642Z</time></trkpt><trkpt lat="45.5386921" lon="11.8229089"><ele>23.0</ele><time>2026-05-02T11:53:01.658Z</time></trkpt><trkpt lat="45.5387021" lon="11.822999"><ele>23.0</ele><time>2026-05-02T11:53:03.651Z</time></trkpt><trkpt lat="45.5387086" lon="11.8230895"><ele>23.0</ele><time>2026-05-02T11:53:05.656Z</time></trkpt><trkpt lat="45.5387168" lon="11.8231818"><ele>23.0</ele><time>2026-05-02T11:53:07.656Z</time></trkpt><trkpt lat="45.5387147" lon="11.8232797"><ele>23.0</ele><time>2026-05-02T11:53:09.649Z</time></trkpt><trkpt lat="45.5387249" lon="11.8233837"><ele>23.0</ele><time>2026-05-02T11:53:11.655Z</time></trkpt><trkpt lat="45.538732" lon="11.8235045"><ele>23.0</ele><time>2026-05-02T11:53:13.664Z</time></trkpt><trkpt lat="45.5387405" lon="11.8236224"><ele>23.0</ele><time>2026-05-02T11:53:16.647Z</time></trkpt><trkpt lat="45.5387788" lon="11.8236961"><ele>23.0</ele><time>2026-05-02T11:53:19.66Z</time></trkpt><trkpt lat="45.5388535" lon="11.8236933"><ele>23.0</ele><time>2026-05-02T11:53:23.655Z</time></trkpt><trkpt lat="45.5389227" lon="11.8237299"><ele>23.166666666666668</ele><time>2026-05-02T11:53:40.65Z</time></trkpt><trkpt lat="45.5388947" lon="11.8238256"><ele>23.333333333333336</ele><time>2026-05-02T11:53:44.657Z</time></trkpt><trkpt lat="45.538829" lon="11.8238738"><ele>23.5</ele><time>2026-05-02T11:53:47.653Z</time></trkpt><trkpt lat="45.5388249" lon="11.8239838"><ele>23.666666666666668</ele><time>2026-05-02T11:53:51.656Z</time></trkpt><trkpt lat="45.5388391" lon="11.8240749"><ele>23.833333333333332</ele><time>2026-05-02T11:53:53.659Z</time></trkpt><trkpt lat="45.5388677" lon="11.8241835"><ele>24.0</ele><time>2026-05-02T11:53:55.658Z</time></trkpt><trkpt lat="45.5388892" lon="11.8243053"><ele>23.799999999999997</ele><time>2026-05-02T11:53:57.659Z</time></trkpt><trkpt lat="45.5389019" lon="11.8244181"><ele>23.599999999999998</ele><time>2026-05-02T11:53:59.652Z</time></trkpt><trkpt lat="45.5389169" lon="11.8245723"><ele>23.4</ele><time>2026-05-02T11:54:01.654Z</time></trkpt><trkpt lat="45.538934" lon="11.8247105"><ele>23.2</ele><time>2026-05-02T11:54:03.65Z</time></trkpt><trkpt lat="45.5389548" lon="11.8248355"><ele>23.0</ele><time>2026-05-02T11:54:05.649Z</time></trkpt><trkpt lat="45.5389711" lon="11.8249656"><ele>23.0</ele><time>2026-05-02T11:54:07.653Z</time></trkpt><trkpt lat="45.5390004" lon="11.8250934"><ele>23.0</ele><time>2026-05-02T11:54:09.653Z</time></trkpt><trkpt lat="45.5390342" lon="11.8252281"><ele>23.0</ele><time>2026-05-02T11:54:11.653Z</time></trkpt><trkpt lat="45.5390645" lon="11.8253618"><ele>23.0</ele><time>2026-05-02T11:54:13.654Z</time></trkpt><trkpt lat="45.5390936" lon="11.8255039"><ele>23.0</ele><time>2026-05-02T11:54:15.637Z</time></trkpt><trkpt lat="45.5391126" lon="11.8256349"><ele>23.2</ele><time>2026-05-02T11:54:17.647Z</time></trkpt><trkpt lat="45.539143" lon="11.8257668"><ele>23.4</ele><time>2026-05-02T11:54:19.654Z</time></trkpt><trkpt lat="45.5391724" lon="11.8258977"><ele>23.599999999999998</ele><time>2026-05-02T11:54:21.653Z</time></trkpt><trkpt lat="45.5391987" lon="11.8260274"><ele>23.799999999999997</ele><time>2026-05-02T11:54:23.665Z</time></trkpt><trkpt lat="45.5392211" lon="11.8261564"><ele>24.0</ele><time>2026-05-02T11:54:25.658Z</time></trkpt><trkpt lat="45.539253" lon="11.8262838"><ele>24.0</ele><time>2026-05-02T11:54:27.659Z</time></trkpt><trkpt lat="45.5392769" lon="11.8264074"><ele>24.0</ele><time>2026-05-02T11:54:29.659Z</time></trkpt><trkpt lat="45.5393002" lon="11.826513"><ele>24.0</ele><time>2026-05-02T11:54:31.647Z</time></trkpt><trkpt lat="45.5393235" lon="11.826613"><ele>24.0</ele><time>2026-05-02T11:54:33.654Z</time></trkpt><trkpt lat="45.539346" lon="11.8267228"><ele>24.0</ele><time>2026-05-02T11:54:35.653Z</time></trkpt><trkpt lat="45.5393757" lon="11.8268487"><ele>24.0</ele><time>2026-05-02T11:54:37.648Z</time></trkpt><trkpt lat="45.5394044" lon="11.8269592"><ele>23.666666666666668</ele><time>2026-05-02T11:54:39.656Z</time></trkpt><trkpt lat="45.5394256" lon="11.8270805"><ele>23.333333333333332</ele><time>2026-05-02T11:54:41.656Z</time></trkpt><trkpt lat="45.5394499" lon="11.8271891"><ele>23.0</ele><time>2026-05-02T11:54:43.653Z</time></trkpt><trkpt lat="45.5394723" lon="11.8273016"><ele>22.666666666666664</ele><time>2026-05-02T11:54:45.65Z</time></trkpt><trkpt lat="45.5395096" lon="11.8274019"><ele>22.333333333333332</ele><time>2026-05-02T11:54:47.653Z</time></trkpt><trkpt lat="45.539542" lon="11.8275154"><ele>22.0</ele><time>2026-05-02T11:54:49.655Z</time></trkpt><trkpt lat="45.5395705" lon="11.8276459"><ele>21.8</ele><time>2026-05-02T11:54:51.659Z</time></trkpt><trkpt lat="45.5396102" lon="11.82777"><ele>21.6</ele><time>2026-05-02T11:54:53.637Z</time></trkpt><trkpt lat="45.539648" lon="11.8278981"><ele>21.400000000000002</ele><time>2026-05-02T11:54:55.656Z</time></trkpt><trkpt lat="45.5396866" lon="11.8280214"><ele>21.200000000000003</ele><time>2026-05-02T11:54:57.653Z</time></trkpt><trkpt lat="45.5397264" lon="11.828148"><ele>21.0</ele><time>2026-05-02T11:54:59.658Z</time></trkpt><trkpt lat="45.5397662" lon="11.8282681"><ele>21.0</ele><time>2026-05-02T11:55:01.648Z</time></trkpt><trkpt lat="45.5398087" lon="11.8283892"><ele>21.0</ele><time>2026-05-02T11:55:03.649Z</time></trkpt><trkpt lat="45.5398454" lon="11.8285049"><ele>21.0</ele><time>2026-05-02T11:55:05.656Z</time></trkpt><trkpt lat="45.5398788" lon="11.8286285"><ele>21.0</ele><time>2026-05-02T11:55:07.648Z</time></trkpt><trkpt lat="45.5399213" lon="11.8287514"><ele>21.0</ele><time>2026-05-02T11:55:09.653Z</time></trkpt><trkpt lat="45.5399546" lon="11.8288671"><ele>21.0</ele><time>2026-05-02T11:55:11.653Z</time></trkpt><trkpt lat="45.5399869" lon="11.8289785"><ele>21.0</ele><time>2026-05-02T11:55:13.656Z</time></trkpt><trkpt lat="45.5400238" lon="11.8290946"><ele>21.0</ele><time>2026-05-02T11:55:15.661Z</time></trkpt><trkpt lat="45.5400641" lon="11.829215"><ele>21.0</ele><time>2026-05-02T11:55:17.657Z</time></trkpt><trkpt lat="45.5401039" lon="11.8293304"><ele>21.0</ele><time>2026-05-02T11:55:19.652Z</time></trkpt><trkpt lat="45.5401413" lon="11.8294426"><ele>21.0</ele><time>2026-05-02T11:55:21.663Z</time></trkpt><trkpt lat="45.5401801" lon="11.8295405"><ele>21.0</ele><time>2026-05-02T11:55:23.655Z</time></trkpt><trkpt lat="45.5402108" lon="11.8296418"><ele>21.0</ele><time>2026-05-02T11:55:26.656Z</time></trkpt><trkpt lat="45.5402338" lon="11.8297341"><ele>21.0</ele><time>2026-05-02T11:55:30.643Z</time></trkpt><trkpt lat="45.5402675" lon="11.8298391"><ele>21.0</ele><time>2026-05-02T11:55:33.658Z</time></trkpt><trkpt lat="45.5402921" lon="11.8299422"><ele>21.0</ele><time>2026-05-02T11:55:35.653Z</time></trkpt><trkpt lat="45.540341" lon="11.8300487"><ele>21.0</ele><time>2026-05-02T11:55:37.659Z</time></trkpt><trkpt lat="45.5403816" lon="11.8301618"><ele>20.5</ele><time>2026-05-02T11:55:39.661Z</time></trkpt><trkpt lat="45.5404337" lon="11.8303202"><ele>20.0</ele><time>2026-05-02T11:55:42.653Z</time></trkpt><trkpt lat="45.5404621" lon="11.8304085"><ele>19.5</ele><time>2026-05-02T11:55:44.66Z</time></trkpt><trkpt lat="45.5404868" lon="11.8304999"><ele>19.0</ele><time>2026-05-02T11:55:46.647Z</time></trkpt><trkpt lat="45.5405145" lon="11.8306209"><ele>18.5</ele><time>2026-05-02T11:55:49.662Z</time></trkpt><trkpt lat="45.5405486" lon="11.8307362"><ele>18.0</ele><time>2026-05-02T11:55:52.661Z</time></trkpt><trkpt lat="45.540576" lon="11.8308268"><ele>18.0</ele><time>2026-05-02T11:55:54.657Z</time></trkpt><trkpt lat="45.540593" lon="11.8309267"><ele>18.0</ele><time>2026-05-02T11:55:56.654Z</time></trkpt><trkpt lat="45.5406311" lon="11.8310408"><ele>18.0</ele><time>2026-05-02T11:55:58.657Z</time></trkpt><trkpt lat="45.5406778" lon="11.8311623"><ele>18.0</ele><time>2026-05-02T11:56:00.658Z</time></trkpt><trkpt lat="45.5407297" lon="11.8312948"><ele>18.0</ele><time>2026-05-02T11:56:02.656Z</time></trkpt><trkpt lat="45.5407775" lon="11.8314139"><ele>18.2</ele><time>2026-05-02T11:56:04.662Z</time></trkpt><trkpt lat="45.540814" lon="11.8315109"><ele>18.4</ele><time>2026-05-02T11:56:06.652Z</time></trkpt><trkpt lat="45.5408495" lon="11.8316178"><ele>18.599999999999998</ele><time>2026-05-02T11:56:08.651Z</time></trkpt><trkpt lat="45.5408888" lon="11.831732"><ele>18.8</ele><time>2026-05-02T11:56:10.654Z</time></trkpt><trkpt lat="45.5409395" lon="11.8318646"><ele>19.0</ele><time>2026-05-02T11:56:12.659Z</time></trkpt><trkpt lat="45.5409827" lon="11.8319938"><ele>19.333333333333332</ele><time>2026-05-02T11:56:14.655Z</time></trkpt><trkpt lat="45.5410211" lon="11.8321189"><ele>19.666666666666664</ele><time>2026-05-02T11:56:16.652Z</time></trkpt><trkpt lat="45.54106" lon="11.8322228"><ele>20.0</ele><time>2026-05-02T11:56:18.656Z</time></trkpt><trkpt lat="45.5411026" lon="11.8323354"><ele>20.333333333333332</ele><time>2026-05-02T11:56:20.657Z</time></trkpt><trkpt lat="45.5411314" lon="11.8324377"><ele>20.666666666666668</ele><time>2026-05-02T11:56:22.659Z</time></trkpt><trkpt lat="45.5411659" lon="11.8325384"><ele>21.0</ele><time>2026-05-02T11:56:24.656Z</time></trkpt><trkpt lat="45.5411953" lon="11.8326414"><ele>21.0</ele><time>2026-05-02T11:56:26.645Z</time></trkpt><trkpt lat="45.5412225" lon="11.832748"><ele>21.0</ele><time>2026-05-02T11:56:28.654Z</time></trkpt><trkpt lat="45.5412632" lon="11.8328388"><ele>21.0</ele><time>2026-05-02T11:56:30.655Z</time></trkpt><trkpt lat="45.541295" lon="11.8329533"><ele>21.0</ele><time>2026-05-02T11:56:33.644Z</time></trkpt><trkpt lat="45.5413132" lon="11.8330668"><ele>21.0</ele><time>2026-05-02T11:56:37.654Z</time></trkpt><trkpt lat="45.5413486" lon="11.8331704"><ele>21.0</ele><time>2026-05-02T11:56:40.632Z</time></trkpt><trkpt lat="45.5413773" lon="11.8332565"><ele>21.0</ele><time>2026-05-02T11:56:42.652Z</time></trkpt><trkpt lat="45.5414293" lon="11.8333696"><ele>21.0</ele><time>2026-05-02T11:56:44.653Z</time></trkpt><trkpt lat="45.5414794" lon="11.8334728"><ele>21.0</ele><time>2026-05-02T11:56:46.65Z</time></trkpt><trkpt lat="45.5415237" lon="11.8335727"><ele>21.0</ele><time>2026-05-02T11:56:48.656Z</time></trkpt><trkpt lat="45.5415578" lon="11.8336694"><ele>21.0</ele><time>2026-05-02T11:56:50.658Z</time></trkpt><trkpt lat="45.5415929" lon="11.8337724"><ele>21.0</ele><time>2026-05-02T11:56:52.667Z</time></trkpt><trkpt lat="45.5416167" lon="11.8338698"><ele>21.0</ele><time>2026-05-02T11:56:54.661Z</time></trkpt><trkpt lat="45.5416432" lon="11.8339588"><ele>21.0</ele><time>2026-05-02T11:56:56.652Z</time></trkpt><trkpt lat="45.5416724" lon="11.8340442"><ele>21.0</ele><time>2026-05-02T11:56:58.653Z</time></trkpt><trkpt lat="45.5416898" lon="11.8341541"><ele>21.0</ele><time>2026-05-02T11:57:00.651Z</time></trkpt><trkpt lat="45.5417288" lon="11.8342746"><ele>21.0</ele><time>2026-05-02T11:57:02.654Z</time></trkpt><trkpt lat="45.5417774" lon="11.8343979"><ele>21.0</ele><time>2026-05-02T11:57:04.66Z</time></trkpt><trkpt lat="45.5418219" lon="11.8345325"><ele>21.0</ele><time>2026-05-02T11:57:06.656Z</time></trkpt><trkpt lat="45.5418735" lon="11.8346503"><ele>21.0</ele><time>2026-05-02T11:57:08.646Z</time></trkpt><trkpt lat="45.5419175" lon="11.8347817"><ele>21.0</ele><time>2026-05-02T11:57:10.654Z</time></trkpt><trkpt lat="45.541956" lon="11.834901"><ele>21.0</ele><time>2026-05-02T11:57:12.657Z</time></trkpt><trkpt lat="45.5419961" lon="11.8350154"><ele>21.0</ele><time>2026-05-02T11:57:14.66Z</time></trkpt><trkpt lat="45.5420319" lon="11.8351304"><ele>20.8</ele><time>2026-05-02T11:57:16.653Z</time></trkpt><trkpt lat="45.54207" lon="11.8352495"><ele>20.6</ele><time>2026-05-02T11:57:18.655Z</time></trkpt><trkpt lat="45.5421113" lon="11.8353694"><ele>20.4</ele><time>2026-05-02T11:57:20.653Z</time></trkpt><trkpt lat="45.542157" lon="11.8354835"><ele>20.2</ele><time>2026-05-02T11:57:22.653Z</time></trkpt><trkpt lat="45.5421981" lon="11.8356036"><ele>20.0</ele><time>2026-05-02T11:57:24.657Z</time></trkpt><trkpt lat="45.5422423" lon="11.8357303"><ele>20.0</ele><time>2026-05-02T11:57:26.652Z</time></trkpt><trkpt lat="45.5422792" lon="11.8358464"><ele>20.0</ele><time>2026-05-02T11:57:28.649Z</time></trkpt><trkpt lat="45.5423212" lon="11.8359612"><ele>20.0</ele><time>2026-05-02T11:57:30.65Z</time></trkpt><trkpt lat="45.5423612" lon="11.8360694"><ele>20.0</ele><time>2026-05-02T11:57:32.651Z</time></trkpt><trkpt lat="45.5423927" lon="11.8361833"><ele>20.0</ele><time>2026-05-02T11:57:34.654Z</time></trkpt><trkpt lat="45.5424343" lon="11.8363009"><ele>20.0</ele><time>2026-05-02T11:57:36.659Z</time></trkpt><trkpt lat="45.5424681" lon="11.8364181"><ele>20.2</ele><time>2026-05-02T11:57:38.656Z</time></trkpt><trkpt lat="45.542503" lon="11.836524"><ele>20.4</ele><time>2026-05-02T11:57:40.654Z</time></trkpt><trkpt lat="45.5425483" lon="11.8366486"><ele>20.6</ele><time>2026-05-02T11:57:42.657Z</time></trkpt><trkpt lat="45.5425853" lon="11.8367734"><ele>20.8</ele><time>2026-05-02T11:57:44.647Z</time></trkpt><trkpt lat="45.5426172" lon="11.8368949"><ele>21.0</ele><time>2026-05-02T11:57:46.647Z</time></trkpt><trkpt lat="45.5426504" lon="11.8370159"><ele>21.0</ele><time>2026-05-02T11:57:48.656Z</time></trkpt><trkpt lat="45.5426876" lon="11.8371303"><ele>21.0</ele><time>2026-05-02T11:57:50.659Z</time></trkpt><trkpt lat="45.5427236" lon="11.8372526"><ele>21.0</ele><time>2026-05-02T11:57:52.643Z</time></trkpt><trkpt lat="45.5427559" lon="11.8373889"><ele>21.0</ele><time>2026-05-02T11:57:54.642Z</time></trkpt><trkpt lat="45.542788" lon="11.8375102"><ele>21.0</ele><time>2026-05-02T11:57:56.654Z</time></trkpt><trkpt lat="45.5428279" lon="11.8376287"><ele>21.0</ele><time>2026-05-02T11:57:58.653Z</time></trkpt><trkpt lat="45.5428656" lon="11.8377449"><ele>21.0</ele><time>2026-05-02T11:58:00.656Z</time></trkpt><trkpt lat="45.542902" lon="11.8378544"><ele>21.0</ele><time>2026-05-02T11:58:02.656Z</time></trkpt><trkpt lat="45.5429418" lon="11.8379684"><ele>21.0</ele><time>2026-05-02T11:58:04.659Z</time></trkpt><trkpt lat="45.5429837" lon="11.8380754"><ele>21.0</ele><time>2026-05-02T11:58:06.655Z</time></trkpt><trkpt lat="45.5430232" lon="11.8381597"><ele>21.0</ele><time>2026-05-02T11:58:08.652Z</time></trkpt><trkpt lat="45.5430319" lon="11.8382501"><ele>21.0</ele><time>2026-05-02T11:58:11.652Z</time></trkpt><trkpt lat="45.5430537" lon="11.8383396"><ele>21.0</ele><time>2026-05-02T11:58:14.656Z</time></trkpt><trkpt lat="45.5430807" lon="11.8384727"><ele>21.0</ele><time>2026-05-02T11:58:17.641Z</time></trkpt><trkpt lat="45.5431193" lon="11.8385636"><ele>21.0</ele><time>2026-05-02T11:58:19.646Z</time></trkpt><trkpt lat="45.5431545" lon="11.8386668"><ele>21.0</ele><time>2026-05-02T11:58:21.659Z</time></trkpt><trkpt lat="45.5431875" lon="11.8387894"><ele>21.0</ele><time>2026-05-02T11:58:23.649Z</time></trkpt><trkpt lat="45.5432267" lon="11.8389171"><ele>21.0</ele><time>2026-05-02T11:58:25.661Z</time></trkpt><trkpt lat="45.5432773" lon="11.8390408"><ele>21.0</ele><time>2026-05-02T11:58:27.658Z</time></trkpt><trkpt lat="45.5433289" lon="11.8391607"><ele>21.0</ele><time>2026-05-02T11:58:29.632Z</time></trkpt><trkpt lat="45.5433748" lon="11.8392838"><ele>21.0</ele><time>2026-05-02T11:58:31.657Z</time></trkpt><trkpt lat="45.5434298" lon="11.8393976"><ele>21.0</ele><time>2026-05-02T11:58:33.652Z</time></trkpt><trkpt lat="45.5434765" lon="11.8395234"><ele>21.0</ele><time>2026-05-02T11:58:35.653Z</time></trkpt><trkpt lat="45.5435228" lon="11.8396407"><ele>21.0</ele><time>2026-05-02T11:58:37.653Z</time></trkpt><trkpt lat="45.5435677" lon="11.8397487"><ele>21.0</ele><time>2026-05-02T11:58:39.651Z</time></trkpt><trkpt lat="45.5436131" lon="11.8398595"><ele>21.0</ele><time>2026-05-02T11:58:41.641Z</time></trkpt><trkpt lat="45.5436445" lon="11.8399688"><ele>21.0</ele><time>2026-05-02T11:58:43.635Z</time></trkpt><trkpt lat="45.5436823" lon="11.8400712"><ele>21.0</ele><time>2026-05-02T11:58:45.659Z</time></trkpt><trkpt lat="45.5437264" lon="11.8401742"><ele>21.0</ele><time>2026-05-02T11:58:47.652Z</time></trkpt><trkpt lat="45.5437608" lon="11.8403062"><ele>21.0</ele><time>2026-05-02T11:58:49.653Z</time></trkpt><trkpt lat="45.5437957" lon="11.8404305"><ele>21.0</ele><time>2026-05-02T11:58:51.647Z</time></trkpt><trkpt lat="45.543827" lon="11.8405518"><ele>21.0</ele><time>2026-05-02T11:58:53.648Z</time></trkpt><trkpt lat="45.5438543" lon="11.8406736"><ele>21.0</ele><time>2026-05-02T11:58:55.659Z</time></trkpt><trkpt lat="45.5438931" lon="11.8408036"><ele>21.0</ele><time>2026-05-02T11:58:57.658Z</time></trkpt><trkpt lat="45.54393" lon="11.8409133"><ele>21.0</ele><time>2026-05-02T11:58:59.652Z</time></trkpt><trkpt lat="45.5439758" lon="11.8410246"><ele>21.0</ele><time>2026-05-02T11:59:01.659Z</time></trkpt><trkpt lat="45.5440154" lon="11.8411265"><ele>21.0</ele><time>2026-05-02T11:59:03.649Z</time></trkpt><trkpt lat="45.5440467" lon="11.8412414"><ele>21.0</ele><time>2026-05-02T11:59:05.664Z</time></trkpt><trkpt lat="45.5440805" lon="11.8413524"><ele>21.0</ele><time>2026-05-02T11:59:07.655Z</time></trkpt><trkpt lat="45.5441236" lon="11.8414712"><ele>21.0</ele><time>2026-05-02T11:59:09.654Z</time></trkpt><trkpt lat="45.5441565" lon="11.8415751"><ele>21.0</ele><time>2026-05-02T11:59:11.647Z</time></trkpt><trkpt lat="45.5441812" lon="11.8416686"><ele>21.0</ele><time>2026-05-02T11:59:13.649Z</time></trkpt><trkpt lat="45.5442075" lon="11.841759"><ele>21.0</ele><time>2026-05-02T11:59:15.651Z</time></trkpt><trkpt lat="45.5442358" lon="11.8418504"><ele>21.0</ele><time>2026-05-02T11:59:17.664Z</time></trkpt><trkpt lat="45.5442721" lon="11.8419487"><ele>21.0</ele><time>2026-05-02T11:59:19.654Z</time></trkpt><trkpt lat="45.5443003" lon="11.8420368"><ele>21.0</ele><time>2026-05-02T11:59:21.655Z</time></trkpt><trkpt lat="45.5443297" lon="11.8421473"><ele>21.200000000000003</ele><time>2026-05-02T11:59:23.655Z</time></trkpt><trkpt lat="45.5443819" lon="11.842267"><ele>21.400000000000002</ele><time>2026-05-02T11:59:25.653Z</time></trkpt><trkpt lat="45.5444208" lon="11.842377"><ele>21.6</ele><time>2026-05-02T11:59:27.653Z</time></trkpt><trkpt lat="45.5444648" lon="11.8424883"><ele>21.8</ele><time>2026-05-02T11:59:29.661Z</time></trkpt><trkpt lat="45.5445086" lon="11.8425954"><ele>22.0</ele><time>2026-05-02T11:59:31.655Z</time></trkpt><trkpt lat="45.5445446" lon="11.8427112"><ele>21.8</ele><time>2026-05-02T11:59:33.642Z</time></trkpt><trkpt lat="45.5445894" lon="11.8428245"><ele>21.6</ele><time>2026-05-02T11:59:35.647Z</time></trkpt><trkpt lat="45.5446266" lon="11.8429319"><ele>21.400000000000002</ele><time>2026-05-02T11:59:37.65Z</time></trkpt><trkpt lat="45.5446584" lon="11.8430538"><ele>21.200000000000003</ele><time>2026-05-02T11:59:39.658Z</time></trkpt><trkpt lat="45.5447012" lon="11.8431755"><ele>21.0</ele><time>2026-05-02T11:59:41.659Z</time></trkpt><trkpt lat="45.5447441" lon="11.8433032"><ele>21.0</ele><time>2026-05-02T11:59:43.646Z</time></trkpt><trkpt lat="45.5447899" lon="11.8434128"><ele>21.0</ele><time>2026-05-02T11:59:45.659Z</time></trkpt><trkpt lat="45.5448258" lon="11.8435345"><ele>21.0</ele><time>2026-05-02T11:59:47.656Z</time></trkpt><trkpt lat="45.5448584" lon="11.8436322"><ele>21.0</ele><time>2026-05-02T11:59:49.656Z</time></trkpt><trkpt lat="45.5448851" lon="11.8437304"><ele>21.0</ele><time>2026-05-02T11:59:51.66Z</time></trkpt><trkpt lat="45.5449092" lon="11.8438348"><ele>21.0</ele><time>2026-05-02T11:59:53.651Z</time></trkpt><trkpt lat="45.5449445" lon="11.8439476"><ele>21.0</ele><time>2026-05-02T11:59:55.655Z</time></trkpt><trkpt lat="45.5449832" lon="11.8440665"><ele>21.0</ele><time>2026-05-02T11:59:57.67Z</time></trkpt><trkpt lat="45.5450251" lon="11.8441993"><ele>21.0</ele><time>2026-05-02T11:59:59.656Z</time></trkpt><trkpt lat="45.5450584" lon="11.8443276"><ele>21.0</ele><time>2026-05-02T12:00:01.659Z</time></trkpt><trkpt lat="45.5450932" lon="11.8444345"><ele>21.0</ele><time>2026-05-02T12:00:03.654Z</time></trkpt><trkpt lat="45.5451329" lon="11.8445497"><ele>21.0</ele><time>2026-05-02T12:00:05.655Z</time></trkpt><trkpt lat="45.5451704" lon="11.8446696"><ele>21.0</ele><time>2026-05-02T12:00:07.654Z</time></trkpt><trkpt lat="45.5452077" lon="11.8447962"><ele>21.0</ele><time>2026-05-02T12:00:09.652Z</time></trkpt><trkpt lat="45.5452603" lon="11.8449135"><ele>21.0</ele><time>2026-05-02T12:00:11.664Z</time></trkpt><trkpt lat="45.5452986" lon="11.8450202"><ele>21.0</ele><time>2026-05-02T12:00:13.658Z</time></trkpt><trkpt lat="45.5453491" lon="11.8451392"><ele>21.4</ele><time>2026-05-02T12:00:15.654Z</time></trkpt><trkpt lat="45.545389" lon="11.8452628"><ele>21.8</ele><time>2026-05-02T12:00:17.655Z</time></trkpt><trkpt lat="45.5454166" lon="11.8453825"><ele>22.2</ele><time>2026-05-02T12:00:19.664Z</time></trkpt><trkpt lat="45.5454495" lon="11.8455064"><ele>22.599999999999998</ele><time>2026-05-02T12:00:21.657Z</time></trkpt><trkpt lat="45.5454828" lon="11.845627"><ele>23.0</ele><time>2026-05-02T12:00:23.655Z</time></trkpt><trkpt lat="45.5455089" lon="11.8457399"><ele>23.0</ele><time>2026-05-02T12:00:25.657Z</time></trkpt><trkpt lat="45.5455421" lon="11.8458523"><ele>23.0</ele><time>2026-05-02T12:00:27.655Z</time></trkpt><trkpt lat="45.5455686" lon="11.8459593"><ele>23.0</ele><time>2026-05-02T12:00:29.655Z</time></trkpt><trkpt lat="45.5455974" lon="11.84608"><ele>23.0</ele><time>2026-05-02T12:00:31.656Z</time></trkpt><trkpt lat="45.5456339" lon="11.8461879"><ele>23.0</ele><time>2026-05-02T12:00:33.656Z</time></trkpt><trkpt lat="45.5456546" lon="11.8463077"><ele>23.0</ele><time>2026-05-02T12:00:35.654Z</time></trkpt><trkpt lat="45.5456718" lon="11.8464305"><ele>23.0</ele><time>2026-05-02T12:00:37.66Z</time></trkpt><trkpt lat="45.5457005" lon="11.8465562"><ele>23.0</ele><time>2026-05-02T12:00:39.653Z</time></trkpt><trkpt lat="45.5457292" lon="11.8466822"><ele>23.0</ele><time>2026-05-02T12:00:41.655Z</time></trkpt><trkpt lat="45.5457581" lon="11.8468063"><ele>23.0</ele><time>2026-05-02T12:00:43.657Z</time></trkpt><trkpt lat="45.5457834" lon="11.8469285"><ele>23.0</ele><time>2026-05-02T12:00:45.646Z</time></trkpt><trkpt lat="45.5458113" lon="11.8470462"><ele>23.333333333333336</ele><time>2026-05-02T12:00:47.654Z</time></trkpt><trkpt lat="45.5458405" lon="11.8471678"><ele>23.666666666666668</ele><time>2026-05-02T12:00:49.656Z</time></trkpt><trkpt lat="45.5458541" lon="11.8472856"><ele>24.0</ele><time>2026-05-02T12:00:51.657Z</time></trkpt><trkpt lat="45.5458636" lon="11.8473914"><ele>24.333333333333336</ele><time>2026-05-02T12:00:53.646Z</time></trkpt><trkpt lat="45.5458716" lon="11.8475026"><ele>24.666666666666668</ele><time>2026-05-02T12:00:56.646Z</time></trkpt><trkpt lat="45.5458812" lon="11.8476007"><ele>25.0</ele><time>2026-05-02T12:01:00.655Z</time></trkpt><trkpt lat="45.545951" lon="11.8476066"><ele>25.000000000000004</ele><time>2026-05-02T12:01:04.659Z</time></trkpt><trkpt lat="45.5460475" lon="11.8476165"><ele>25.0</ele><time>2026-05-02T12:01:07.653Z</time></trkpt><trkpt lat="45.5461239" lon="11.847595"><ele>25.0</ele><time>2026-05-02T12:01:10.659Z</time></trkpt><trkpt lat="45.5462008" lon="11.8476349"><ele>25.0</ele><time>2026-05-02T12:01:14.652Z</time></trkpt><trkpt lat="45.5462546" lon="11.8476934"><ele>25.000000000000004</ele><time>2026-05-02T12:01:17.658Z</time></trkpt><trkpt lat="45.5462824" lon="11.8478083"><ele>25.0</ele><time>2026-05-02T12:01:20.653Z</time></trkpt><trkpt lat="45.5463067" lon="11.8479371"><ele>24.500000000000004</ele><time>2026-05-02T12:01:23.658Z</time></trkpt><trkpt lat="45.5463322" lon="11.848028"><ele>24.0</ele><time>2026-05-02T12:01:25.656Z</time></trkpt><trkpt lat="45.5463368" lon="11.8481333"><ele>23.5</ele><time>2026-05-02T12:01:27.648Z</time></trkpt><trkpt lat="45.5463309" lon="11.8482306"><ele>23.0</ele><time>2026-05-02T12:01:29.659Z</time></trkpt><trkpt lat="45.5463521" lon="11.8483535"><ele>22.5</ele><time>2026-05-02T12:01:32.66Z</time></trkpt><trkpt lat="45.5463498" lon="11.848476"><ele>22.0</ele><time>2026-05-02T12:01:35.658Z</time></trkpt><trkpt lat="45.5463198" lon="11.8485647"><ele>22.0</ele><time>2026-05-02T12:01:37.661Z</time></trkpt><trkpt lat="45.5462815" lon="11.8486587"><ele>22.0</ele><time>2026-05-02T12:01:39.658Z</time></trkpt><trkpt lat="45.5462156" lon="11.8487349"><ele>22.0</ele><time>2026-05-02T12:01:41.657Z</time></trkpt><trkpt lat="45.5461609" lon="11.8488397"><ele>22.0</ele><time>2026-05-02T12:01:43.65Z</time></trkpt><trkpt lat="45.5461299" lon="11.8489737"><ele>22.0</ele><time>2026-05-02T12:01:45.659Z</time></trkpt><trkpt lat="45.5461521" lon="11.8490866"><ele>22.0</ele><time>2026-05-02T12:01:47.653Z</time></trkpt><trkpt lat="45.5461744" lon="11.8492054"><ele>22.0</ele><time>2026-05-02T12:01:50.649Z</time></trkpt><trkpt lat="45.5461918" lon="11.8492996"><ele>22.0</ele><time>2026-05-02T12:01:52.652Z</time></trkpt><trkpt lat="45.5462124" lon="11.8494047"><ele>22.0</ele><time>2026-05-02T12:01:54.651Z</time></trkpt><trkpt lat="45.5462274" lon="11.8495269"><ele>22.0</ele><time>2026-05-02T12:01:56.653Z</time></trkpt><trkpt lat="45.5462403" lon="11.849652"><ele>22.0</ele><time>2026-05-02T12:01:58.652Z</time></trkpt><trkpt lat="45.5462631" lon="11.8497873"><ele>22.0</ele><time>2026-05-02T12:02:00.659Z</time></trkpt><trkpt lat="45.5462891" lon="11.8499255"><ele>22.166666666666664</ele><time>2026-05-02T12:02:02.658Z</time></trkpt><trkpt lat="45.5463142" lon="11.8500531"><ele>22.333333333333332</ele><time>2026-05-02T12:02:04.657Z</time></trkpt><trkpt lat="45.5463337" lon="11.8501776"><ele>22.5</ele><time>2026-05-02T12:02:06.656Z</time></trkpt><trkpt lat="45.5463526" lon="11.850306"><ele>22.666666666666668</ele><time>2026-05-02T12:02:08.648Z</time></trkpt><trkpt lat="45.5463723" lon="11.8504251"><ele>22.833333333333336</ele><time>2026-05-02T12:02:10.663Z</time></trkpt><trkpt lat="45.5463896" lon="11.8505279"><ele>23.0</ele><time>2026-05-02T12:02:12.634Z</time></trkpt><trkpt lat="45.5464088" lon="11.8506333"><ele>23.142857142857142</ele><time>2026-05-02T12:02:14.658Z</time></trkpt><trkpt lat="45.5464261" lon="11.8507328"><ele>23.285714285714285</ele><time>2026-05-02T12:02:16.655Z</time></trkpt><trkpt lat="45.5464422" lon="11.8508347"><ele>23.428571428571427</ele><time>2026-05-02T12:02:18.662Z</time></trkpt><trkpt lat="45.5464592" lon="11.8509332"><ele>23.57142857142857</ele><time>2026-05-02T12:02:20.655Z</time></trkpt><trkpt lat="45.5464784" lon="11.8510264"><ele>23.714285714285715</ele><time>2026-05-02T12:02:22.655Z</time></trkpt><trkpt lat="45.5464937" lon="11.8511327"><ele>23.857142857142854</ele><time>2026-05-02T12:02:24.655Z</time></trkpt><trkpt lat="45.5465133" lon="11.8512477"><ele>24.0</ele><time>2026-05-02T12:02:26.65Z</time></trkpt><trkpt lat="45.5465298" lon="11.8513636"><ele>24.0</ele><time>2026-05-02T12:02:28.652Z</time></trkpt><trkpt lat="45.5465584" lon="11.8515072"><ele>24.0</ele><time>2026-05-02T12:02:30.656Z</time></trkpt><trkpt lat="45.5465725" lon="11.8516559"><ele>24.0</ele><time>2026-05-02T12:02:32.66Z</time></trkpt><trkpt lat="45.5465961" lon="11.8517932"><ele>24.0</ele><time>2026-05-02T12:02:34.656Z</time></trkpt><trkpt lat="45.5466197" lon="11.8519213"><ele>24.0</ele><time>2026-05-02T12:02:36.653Z</time></trkpt><trkpt lat="45.5466388" lon="11.8520513"><ele>24.0</ele><time>2026-05-02T12:02:38.654Z</time></trkpt><trkpt lat="45.5466654" lon="11.8521772"><ele>24.0</ele><time>2026-05-02T12:02:40.652Z</time></trkpt><trkpt lat="45.5467054" lon="11.8523082"><ele>24.0</ele><time>2026-05-02T12:02:42.647Z</time></trkpt><trkpt lat="45.546737" lon="11.8524495"><ele>24.0</ele><time>2026-05-02T12:02:44.658Z</time></trkpt><trkpt lat="45.546765" lon="11.8525817"><ele>24.0</ele><time>2026-05-02T12:02:46.656Z</time></trkpt><trkpt lat="45.5467895" lon="11.8527089"><ele>24.0</ele><time>2026-05-02T12:02:48.652Z</time></trkpt><trkpt lat="45.5468125" lon="11.852843"><ele>24.0</ele><time>2026-05-02T12:02:50.655Z</time></trkpt><trkpt lat="45.5468288" lon="11.8529825"><ele>24.0</ele><time>2026-05-02T12:02:52.645Z</time></trkpt><trkpt lat="45.5468524" lon="11.8531049"><ele>24.0</ele><time>2026-05-02T12:02:54.659Z</time></trkpt><trkpt lat="45.5468573" lon="11.8532312"><ele>24.0</ele><time>2026-05-02T12:02:56.648Z</time></trkpt><trkpt lat="45.5468823" lon="11.8533468"><ele>24.0</ele><time>2026-05-02T12:02:58.65Z</time></trkpt><trkpt lat="45.5468927" lon="11.8534744"><ele>24.0</ele><time>2026-05-02T12:03:00.661Z</time></trkpt><trkpt lat="45.5469125" lon="11.8536001"><ele>24.0</ele><time>2026-05-02T12:03:02.658Z</time></trkpt><trkpt lat="45.5469334" lon="11.8537237"><ele>24.0</ele><time>2026-05-02T12:03:04.657Z</time></trkpt><trkpt lat="45.5469541" lon="11.8538419"><ele>24.0</ele><time>2026-05-02T12:03:06.666Z</time></trkpt><trkpt lat="45.5469762" lon="11.8539656"><ele>24.0</ele><time>2026-05-02T12:03:08.655Z</time></trkpt><trkpt lat="45.5469924" lon="11.8540951"><ele>24.0</ele><time>2026-05-02T12:03:10.661Z</time></trkpt><trkpt lat="45.5470127" lon="11.8542432"><ele>24.0</ele><time>2026-05-02T12:03:12.641Z</time></trkpt><trkpt lat="45.5470384" lon="11.8543853"><ele>24.0</ele><time>2026-05-02T12:03:14.655Z</time></trkpt><trkpt lat="45.5470594" lon="11.85451"><ele>24.0</ele><time>2026-05-02T12:03:16.659Z</time></trkpt><trkpt lat="45.5470675" lon="11.8546263"><ele>24.0</ele><time>2026-05-02T12:03:18.658Z</time></trkpt><trkpt lat="45.5470746" lon="11.8547441"><ele>23.5</ele><time>2026-05-02T12:03:20.668Z</time></trkpt><trkpt lat="45.5470905" lon="11.8548704"><ele>23.0</ele><time>2026-05-02T12:03:22.656Z</time></trkpt><trkpt lat="45.5471273" lon="11.8549789"><ele>22.5</ele><time>2026-05-02T12:03:24.655Z</time></trkpt><trkpt lat="45.547151" lon="11.8550908"><ele>22.0</ele><time>2026-05-02T12:03:26.657Z</time></trkpt><trkpt lat="45.5471713" lon="11.8552102"><ele>21.5</ele><time>2026-05-02T12:03:28.649Z</time></trkpt><trkpt lat="45.5472019" lon="11.8553444"><ele>21.0</ele><time>2026-05-02T12:03:30.655Z</time></trkpt><trkpt lat="45.5472243" lon="11.8554668"><ele>21.0</ele><time>2026-05-02T12:03:32.655Z</time></trkpt><trkpt lat="45.5472473" lon="11.8555946"><ele>21.0</ele><time>2026-05-02T12:03:34.656Z</time></trkpt><trkpt lat="45.5472625" lon="11.8557214"><ele>21.0</ele><time>2026-05-02T12:03:36.662Z</time></trkpt><trkpt lat="45.5472804" lon="11.8558447"><ele>21.0</ele><time>2026-05-02T12:03:38.65Z</time></trkpt><trkpt lat="45.5472899" lon="11.8559741"><ele>21.0</ele><time>2026-05-02T12:03:40.654Z</time></trkpt><trkpt lat="45.5473131" lon="11.856102"><ele>21.0</ele><time>2026-05-02T12:03:42.661Z</time></trkpt><trkpt lat="45.5473311" lon="11.8562288"><ele>21.0</ele><time>2026-05-02T12:03:44.657Z</time></trkpt><trkpt lat="45.5473541" lon="11.8563559"><ele>21.0</ele><time>2026-05-02T12:03:46.656Z</time></trkpt><trkpt lat="45.5473807" lon="11.8565006"><ele>21.0</ele><time>2026-05-02T12:03:48.661Z</time></trkpt><trkpt lat="45.547404" lon="11.8566514"><ele>21.0</ele><time>2026-05-02T12:03:50.652Z</time></trkpt><trkpt lat="45.5474197" lon="11.8568001"><ele>21.4</ele><time>2026-05-02T12:03:52.652Z</time></trkpt><trkpt lat="45.5474376" lon="11.8569551"><ele>21.8</ele><time>2026-05-02T12:03:54.656Z</time></trkpt><trkpt lat="45.547456" lon="11.8570921"><ele>22.2</ele><time>2026-05-02T12:03:56.644Z</time></trkpt><trkpt lat="45.5474829" lon="11.8572326"><ele>22.599999999999998</ele><time>2026-05-02T12:03:58.651Z</time></trkpt><trkpt lat="45.5475075" lon="11.8573711"><ele>23.0</ele><time>2026-05-02T12:04:00.647Z</time></trkpt><trkpt lat="45.5475337" lon="11.8575178"><ele>23.0</ele><time>2026-05-02T12:04:02.648Z</time></trkpt><trkpt lat="45.5475519" lon="11.8576592"><ele>23.0</ele><time>2026-05-02T12:04:04.653Z</time></trkpt><trkpt lat="45.5475722" lon="11.8578065"><ele>23.0</ele><time>2026-05-02T12:04:06.654Z</time></trkpt><trkpt lat="45.5475961" lon="11.8579513"><ele>23.0</ele><time>2026-05-02T12:04:08.658Z</time></trkpt><trkpt lat="45.5476201" lon="11.8580856"><ele>23.0</ele><time>2026-05-02T12:04:10.656Z</time></trkpt><trkpt lat="45.5476495" lon="11.8582248"><ele>23.0</ele><time>2026-05-02T12:04:12.654Z</time></trkpt><trkpt lat="45.5476822" lon="11.858359"><ele>23.0</ele><time>2026-05-02T12:04:14.654Z</time></trkpt><trkpt lat="45.5477126" lon="11.8584992"><ele>23.0</ele><time>2026-05-02T12:04:16.653Z</time></trkpt><trkpt lat="45.5477334" lon="11.8586383"><ele>23.0</ele><time>2026-05-02T12:04:18.657Z</time></trkpt><trkpt lat="45.5477577" lon="11.8587775"><ele>23.0</ele><time>2026-05-02T12:04:20.654Z</time></trkpt><trkpt lat="45.5477794" lon="11.8589147"><ele>23.0</ele><time>2026-05-02T12:04:22.658Z</time></trkpt><trkpt lat="45.5477986" lon="11.8590683"><ele>23.0</ele><time>2026-05-02T12:04:24.656Z</time></trkpt><trkpt lat="45.5478333" lon="11.8592249"><ele>23.0</ele><time>2026-05-02T12:04:26.658Z</time></trkpt><trkpt lat="45.5478754" lon="11.8593694"><ele>23.0</ele><time>2026-05-02T12:04:28.651Z</time></trkpt><trkpt lat="45.5479165" lon="11.8594897"><ele>23.0</ele><time>2026-05-02T12:04:30.652Z</time></trkpt><trkpt lat="45.5479502" lon="11.8596203"><ele>23.0</ele><time>2026-05-02T12:04:32.66Z</time></trkpt><trkpt lat="45.5479681" lon="11.8597647"><ele>23.0</ele><time>2026-05-02T12:04:34.656Z</time></trkpt><trkpt lat="45.5479876" lon="11.8598893"><ele>23.0</ele><time>2026-05-02T12:04:36.652Z</time></trkpt><trkpt lat="45.5480083" lon="11.8600288"><ele>23.0</ele><time>2026-05-02T12:04:38.638Z</time></trkpt><trkpt lat="45.5480308" lon="11.8601655"><ele>23.0</ele><time>2026-05-02T12:04:40.655Z</time></trkpt><trkpt lat="45.548045" lon="11.8602696"><ele>22.833333333333336</ele><time>2026-05-02T12:04:42.662Z</time></trkpt><trkpt lat="45.5480616" lon="11.8603795"><ele>22.666666666666668</ele><time>2026-05-02T12:04:44.657Z</time></trkpt><trkpt lat="45.5480841" lon="11.8604906"><ele>22.5</ele><time>2026-05-02T12:04:46.67Z</time></trkpt><trkpt lat="45.5480903" lon="11.860592"><ele>22.333333333333332</ele><time>2026-05-02T12:04:48.644Z</time></trkpt><trkpt lat="45.5481194" lon="11.8607231"><ele>22.166666666666664</ele><time>2026-05-02T12:04:51.668Z</time></trkpt><trkpt lat="45.5481319" lon="11.8608176"><ele>22.0</ele><time>2026-05-02T12:04:53.652Z</time></trkpt><trkpt lat="45.5481517" lon="11.8609414"><ele>22.142857142857142</ele><time>2026-05-02T12:04:56.65Z</time></trkpt><trkpt lat="45.5481813" lon="11.8610394"><ele>22.285714285714285</ele><time>2026-05-02T12:04:59.662Z</time></trkpt><trkpt lat="45.5481947" lon="11.8611417"><ele>22.42857142857143</ele><time>2026-05-02T12:05:02.658Z</time></trkpt><trkpt lat="45.5482123" lon="11.861255"><ele>22.57142857142857</ele><time>2026-05-02T12:05:05.658Z</time></trkpt><trkpt lat="45.5482052" lon="11.8613613"><ele>22.71428571428571</ele><time>2026-05-02T12:05:08.657Z</time></trkpt><trkpt lat="45.5481369" lon="11.8614054"><ele>22.857142857142858</ele><time>2026-05-02T12:05:12.659Z</time></trkpt><trkpt lat="45.5481137" lon="11.8613207"><ele>23.0</ele><time>2026-05-02T12:05:27.646Z</time></trkpt><trkpt lat="45.5481245" lon="11.861414"><ele>23.0</ele><time>2026-05-02T12:19:15.656Z</time></trkpt><trkpt lat="45.5481958" lon="11.8614093"><ele>23.0</ele><time>2026-05-02T12:19:46.655Z</time></trkpt><trkpt lat="45.5482338" lon="11.8614856"><ele>23.0</ele><time>2026-05-02T12:19:58.656Z</time></trkpt><trkpt lat="45.5482579" lon="11.8616153"><ele>23.0</ele><time>2026-05-02T12:20:22.654Z</time></trkpt><trkpt lat="45.5482667" lon="11.861711"><ele>23.0</ele><time>2026-05-02T12:25:25.65Z</time></trkpt><trkpt lat="45.5482795" lon="11.8618356"><ele>23.0</ele><time>2026-05-02T12:25:30.655Z</time></trkpt><trkpt lat="45.548301" lon="11.8619701"><ele>23.0</ele><time>2026-05-02T12:25:33.65Z</time></trkpt><trkpt lat="45.5483255" lon="11.8620791"><ele>23.0</ele><time>2026-05-02T12:25:35.651Z</time></trkpt><trkpt lat="45.5483494" lon="11.862215"><ele>23.0</ele><time>2026-05-02T12:25:37.653Z</time></trkpt><trkpt lat="45.5483767" lon="11.862349"><ele>23.0</ele><time>2026-05-02T12:25:39.654Z</time></trkpt><trkpt lat="45.5484" lon="11.8624825"><ele>23.0</ele><time>2026-05-02T12:25:41.65Z</time></trkpt><trkpt lat="45.5484198" lon="11.8626051"><ele>23.0</ele><time>2026-05-02T12:25:43.661Z</time></trkpt><trkpt lat="45.5484273" lon="11.8627043"><ele>23.0</ele><time>2026-05-02T12:25:45.653Z</time></trkpt><trkpt lat="45.548439" lon="11.8628342"><ele>23.0</ele><time>2026-05-02T12:25:48.654Z</time></trkpt><trkpt lat="45.5484519" lon="11.8629299"><ele>23.0</ele><time>2026-05-02T12:25:50.65Z</time></trkpt><trkpt lat="45.5484775" lon="11.8630423"><ele>23.0</ele><time>2026-05-02T12:25:52.65Z</time></trkpt><trkpt lat="45.5485044" lon="11.8631453"><ele>23.0</ele><time>2026-05-02T12:25:54.65Z</time></trkpt><trkpt lat="45.548528" lon="11.8632586"><ele>23.0</ele><time>2026-05-02T12:25:56.653Z</time></trkpt><trkpt lat="45.5485425" lon="11.8633888"><ele>23.0</ele><time>2026-05-02T12:25:58.655Z</time></trkpt><trkpt lat="45.5485633" lon="11.8635164"><ele>23.0</ele><time>2026-05-02T12:26:00.654Z</time></trkpt><trkpt lat="45.5485763" lon="11.8636624"><ele>23.0</ele><time>2026-05-02T12:26:02.656Z</time></trkpt><trkpt lat="45.5485837" lon="11.8638088"><ele>23.0</ele><time>2026-05-02T12:26:04.651Z</time></trkpt><trkpt lat="45.5486017" lon="11.8639475"><ele>22.799999999999997</ele><time>2026-05-02T12:26:06.652Z</time></trkpt><trkpt lat="45.548625" lon="11.8640873"><ele>22.6</ele><time>2026-05-02T12:26:08.65Z</time></trkpt><trkpt lat="45.5486517" lon="11.864225"><ele>22.4</ele><time>2026-05-02T12:26:10.648Z</time></trkpt><trkpt lat="45.5486706" lon="11.8643594"><ele>22.200000000000003</ele><time>2026-05-02T12:26:12.658Z</time></trkpt><trkpt lat="45.5486877" lon="11.8644913"><ele>22.0</ele><time>2026-05-02T12:26:14.651Z</time></trkpt><trkpt lat="45.5487113" lon="11.8646338"><ele>22.400000000000002</ele><time>2026-05-02T12:26:16.655Z</time></trkpt><trkpt lat="45.5487355" lon="11.8647781"><ele>22.8</ele><time>2026-05-02T12:26:18.652Z</time></trkpt><trkpt lat="45.5487586" lon="11.8649291"><ele>23.2</ele><time>2026-05-02T12:26:20.654Z</time></trkpt><trkpt lat="45.5487846" lon="11.8650753"><ele>23.6</ele><time>2026-05-02T12:26:22.656Z</time></trkpt><trkpt lat="45.5488156" lon="11.8652042"><ele>24.0</ele><time>2026-05-02T12:26:24.655Z</time></trkpt><trkpt lat="45.5488407" lon="11.8653431"><ele>24.0</ele><time>2026-05-02T12:26:26.644Z</time></trkpt><trkpt lat="45.5488634" lon="11.8654828"><ele>24.0</ele><time>2026-05-02T12:26:28.647Z</time></trkpt><trkpt lat="45.5488792" lon="11.8656173"><ele>24.0</ele><time>2026-05-02T12:26:30.651Z</time></trkpt><trkpt lat="45.5489046" lon="11.8657499"><ele>24.0</ele><time>2026-05-02T12:26:32.65Z</time></trkpt><trkpt lat="45.5489261" lon="11.8658741"><ele>24.0</ele><time>2026-05-02T12:26:34.65Z</time></trkpt><trkpt lat="45.5489474" lon="11.8659991"><ele>23.833333333333332</ele><time>2026-05-02T12:26:36.657Z</time></trkpt><trkpt lat="45.548967" lon="11.8661287"><ele>23.666666666666668</ele><time>2026-05-02T12:26:38.65Z</time></trkpt><trkpt lat="45.548969" lon="11.866223"><ele>23.5</ele><time>2026-05-02T12:26:40.663Z</time></trkpt><trkpt lat="45.5489683" lon="11.8663165"><ele>23.333333333333336</ele><time>2026-05-02T12:26:43.661Z</time></trkpt><trkpt lat="45.5490002" lon="11.8664269"><ele>23.166666666666668</ele><time>2026-05-02T12:26:47.667Z</time></trkpt><trkpt lat="45.5490313" lon="11.8665587"><ele>23.0</ele><time>2026-05-02T12:26:50.655Z</time></trkpt><trkpt lat="45.5490596" lon="11.8666637"><ele>23.0</ele><time>2026-05-02T12:26:52.654Z</time></trkpt><trkpt lat="45.5490897" lon="11.8667702"><ele>23.0</ele><time>2026-05-02T12:26:54.659Z</time></trkpt><trkpt lat="45.5491011" lon="11.8668901"><ele>23.0</ele><time>2026-05-02T12:26:56.657Z</time></trkpt><trkpt lat="45.5491242" lon="11.8670062"><ele>23.0</ele><time>2026-05-02T12:26:58.656Z</time></trkpt><trkpt lat="45.5491407" lon="11.8671053"><ele>23.0</ele><time>2026-05-02T12:27:00.654Z</time></trkpt><trkpt lat="45.5491753" lon="11.8672176"><ele>23.0</ele><time>2026-05-02T12:27:02.66Z</time></trkpt><trkpt lat="45.5491968" lon="11.8673298"><ele>22.799999999999997</ele><time>2026-05-02T12:27:04.653Z</time></trkpt><trkpt lat="45.5492012" lon="11.8674467"><ele>22.6</ele><time>2026-05-02T12:27:06.649Z</time></trkpt><trkpt lat="45.5492077" lon="11.8675867"><ele>22.4</ele><time>2026-05-02T12:27:08.652Z</time></trkpt><trkpt lat="45.5492335" lon="11.8677277"><ele>22.200000000000003</ele><time>2026-05-02T12:27:10.653Z</time></trkpt><trkpt lat="45.5492566" lon="11.8678701"><ele>22.0</ele><time>2026-05-02T12:27:12.65Z</time></trkpt><trkpt lat="45.5492845" lon="11.8680227"><ele>22.0</ele><time>2026-05-02T12:27:14.654Z</time></trkpt><trkpt lat="45.5493078" lon="11.868175"><ele>22.0</ele><time>2026-05-02T12:27:16.652Z</time></trkpt><trkpt lat="45.5493325" lon="11.8683265"><ele>22.0</ele><time>2026-05-02T12:27:18.656Z</time></trkpt><trkpt lat="45.5493529" lon="11.8684845"><ele>22.0</ele><time>2026-05-02T12:27:20.653Z</time></trkpt><trkpt lat="45.549378" lon="11.8686295"><ele>22.0</ele><time>2026-05-02T12:27:22.655Z</time></trkpt><trkpt lat="45.5493983" lon="11.8687772"><ele>22.0</ele><time>2026-05-02T12:27:24.655Z</time></trkpt><trkpt lat="45.5494256" lon="11.8689249"><ele>22.0</ele><time>2026-05-02T12:27:26.65Z</time></trkpt><trkpt lat="45.549459" lon="11.8690627"><ele>22.0</ele><time>2026-05-02T12:27:28.649Z</time></trkpt><trkpt lat="45.549478" lon="11.8691973"><ele>22.0</ele><time>2026-05-02T12:27:30.652Z</time></trkpt><trkpt lat="45.5494993" lon="11.8693387"><ele>22.0</ele><time>2026-05-02T12:27:32.655Z</time></trkpt><trkpt lat="45.5495178" lon="11.8694912"><ele>22.0</ele><time>2026-05-02T12:27:34.653Z</time></trkpt><trkpt lat="45.5495359" lon="11.8696292"><ele>22.0</ele><time>2026-05-02T12:27:36.655Z</time></trkpt><trkpt lat="45.5495582" lon="11.8697676"><ele>22.0</ele><time>2026-05-02T12:27:38.647Z</time></trkpt><trkpt lat="45.549584" lon="11.8699202"><ele>22.0</ele><time>2026-05-02T12:27:40.652Z</time></trkpt><trkpt lat="45.5496099" lon="11.870062"><ele>22.0</ele><time>2026-05-02T12:27:42.639Z</time></trkpt><trkpt lat="45.5496317" lon="11.8701956"><ele>22.0</ele><time>2026-05-02T12:27:44.651Z</time></trkpt><trkpt lat="45.5496534" lon="11.8703319"><ele>22.0</ele><time>2026-05-02T12:27:46.649Z</time></trkpt><trkpt lat="45.5496721" lon="11.8704572"><ele>22.0</ele><time>2026-05-02T12:27:48.647Z</time></trkpt><trkpt lat="45.549693" lon="11.8705897"><ele>22.0</ele><time>2026-05-02T12:27:50.654Z</time></trkpt><trkpt lat="45.5497126" lon="11.8707154"><ele>22.0</ele><time>2026-05-02T12:27:52.653Z</time></trkpt><trkpt lat="45.5497359" lon="11.8708341"><ele>21.6</ele><time>2026-05-02T12:27:54.661Z</time></trkpt><trkpt lat="45.5497551" lon="11.8709529"><ele>21.200000000000003</ele><time>2026-05-02T12:27:56.657Z</time></trkpt><trkpt lat="45.5497814" lon="11.8710699"><ele>20.8</ele><time>2026-05-02T12:27:58.649Z</time></trkpt><trkpt lat="45.5498035" lon="11.8712045"><ele>20.4</ele><time>2026-05-02T12:28:00.654Z</time></trkpt><trkpt lat="45.5498304" lon="11.8713508"><ele>20.0</ele><time>2026-05-02T12:28:02.653Z</time></trkpt><trkpt lat="45.54985" lon="11.8715061"><ele>20.0</ele><time>2026-05-02T12:28:04.655Z</time></trkpt><trkpt lat="45.5498743" lon="11.8716446"><ele>20.0</ele><time>2026-05-02T12:28:06.651Z</time></trkpt><trkpt lat="45.5498964" lon="11.8717913"><ele>20.0</ele><time>2026-05-02T12:28:08.643Z</time></trkpt><trkpt lat="45.5499251" lon="11.8719215"><ele>20.0</ele><time>2026-05-02T12:28:10.649Z</time></trkpt><trkpt lat="45.549944" lon="11.8720663"><ele>20.0</ele><time>2026-05-02T12:28:12.651Z</time></trkpt><trkpt lat="45.5499777" lon="11.8722146"><ele>20.0</ele><time>2026-05-02T12:28:14.663Z</time></trkpt><trkpt lat="45.5500087" lon="11.8723575"><ele>20.0</ele><time>2026-05-02T12:28:16.645Z</time></trkpt><trkpt lat="45.5500287" lon="11.8724994"><ele>20.0</ele><time>2026-05-02T12:28:18.65Z</time></trkpt><trkpt lat="45.550054" lon="11.8726306"><ele>20.0</ele><time>2026-05-02T12:28:20.648Z</time></trkpt><trkpt lat="45.5500826" lon="11.8727504"><ele>20.0</ele><time>2026-05-02T12:28:22.658Z</time></trkpt><trkpt lat="45.5501051" lon="11.8728956"><ele>20.142857142857142</ele><time>2026-05-02T12:28:25.652Z</time></trkpt><trkpt lat="45.5501128" lon="11.8729853"><ele>20.285714285714285</ele><time>2026-05-02T12:28:27.648Z</time></trkpt><trkpt lat="45.550131" lon="11.8730793"><ele>20.42857142857143</ele><time>2026-05-02T12:28:29.653Z</time></trkpt><trkpt lat="45.550145" lon="11.8731738"><ele>20.57142857142857</ele><time>2026-05-02T12:28:32.625Z</time></trkpt><trkpt lat="45.5500871" lon="11.8732262"><ele>20.714285714285715</ele><time>2026-05-02T12:28:37.646Z</time></trkpt><trkpt lat="45.5500258" lon="11.8732646"><ele>20.857142857142858</ele><time>2026-05-02T12:28:40.651Z</time></trkpt><trkpt lat="45.5500082" lon="11.873363"><ele>21.0</ele><time>2026-05-02T12:28:45.654Z</time></trkpt><trkpt lat="45.5500815" lon="11.8733881"><ele>21.0</ele><time>2026-05-02T12:28:50.637Z</time></trkpt><trkpt lat="45.550162" lon="11.8733704"><ele>21.0</ele><time>2026-05-02T12:28:54.646Z</time></trkpt><trkpt lat="45.5501971" lon="11.8734579"><ele>21.0</ele><time>2026-05-02T12:28:57.661Z</time></trkpt><trkpt lat="45.5502297" lon="11.8735765"><ele>21.0</ele><time>2026-05-02T12:29:00.652Z</time></trkpt><trkpt lat="45.5502575" lon="11.8736999"><ele>21.0</ele><time>2026-05-02T12:29:03.651Z</time></trkpt><trkpt lat="45.5502689" lon="11.873812"><ele>21.0</ele><time>2026-05-02T12:29:06.647Z</time></trkpt><trkpt lat="45.5502771" lon="11.8739255"><ele>21.0</ele><time>2026-05-02T12:29:09.653Z</time></trkpt><trkpt lat="45.5502962" lon="11.8740221"><ele>21.0</ele><time>2026-05-02T12:29:11.639Z</time></trkpt><trkpt lat="45.550315" lon="11.8741432"><ele>21.0</ele><time>2026-05-02T12:29:13.653Z</time></trkpt><trkpt lat="45.5503415" lon="11.8742712"><ele>21.0</ele><time>2026-05-02T12:29:15.65Z</time></trkpt><trkpt lat="45.5503627" lon="11.8744137"><ele>21.0</ele><time>2026-05-02T12:29:17.659Z</time></trkpt><trkpt lat="45.5503831" lon="11.8745656"><ele>21.0</ele><time>2026-05-02T12:29:19.651Z</time></trkpt><trkpt lat="45.5504059" lon="11.8747143"><ele>21.0</ele><time>2026-05-02T12:29:21.641Z</time></trkpt><trkpt lat="45.5504328" lon="11.8748607"><ele>21.0</ele><time>2026-05-02T12:29:23.65Z</time></trkpt><trkpt lat="45.5504573" lon="11.8750029"><ele>21.0</ele><time>2026-05-02T12:29:25.657Z</time></trkpt><trkpt lat="45.5504788" lon="11.8751399"><ele>21.0</ele><time>2026-05-02T12:29:27.654Z</time></trkpt><trkpt lat="45.5505107" lon="11.8752798"><ele>21.0</ele><time>2026-05-02T12:29:29.652Z</time></trkpt><trkpt lat="45.5505348" lon="11.875422"><ele>21.0</ele><time>2026-05-02T12:29:31.654Z</time></trkpt><trkpt lat="45.5505571" lon="11.8755712"><ele>21.0</ele><time>2026-05-02T12:29:33.645Z</time></trkpt><trkpt lat="45.5505767" lon="11.8757144"><ele>21.0</ele><time>2026-05-02T12:29:35.657Z</time></trkpt><trkpt lat="45.5505951" lon="11.875857"><ele>21.0</ele><time>2026-05-02T12:29:37.654Z</time></trkpt><trkpt lat="45.5506227" lon="11.8759971"><ele>21.0</ele><time>2026-05-02T12:29:39.654Z</time></trkpt><trkpt lat="45.550641" lon="11.8761465"><ele>21.0</ele><time>2026-05-02T12:29:41.659Z</time></trkpt><trkpt lat="45.5506631" lon="11.8762935"><ele>21.0</ele><time>2026-05-02T12:29:43.653Z</time></trkpt><trkpt lat="45.5506906" lon="11.8764277"><ele>21.0</ele><time>2026-05-02T12:29:45.653Z</time></trkpt><trkpt lat="45.5507221" lon="11.8765686"><ele>21.0</ele><time>2026-05-02T12:29:47.648Z</time></trkpt><trkpt lat="45.5507449" lon="11.8767136"><ele>21.4</ele><time>2026-05-02T12:29:49.654Z</time></trkpt><trkpt lat="45.5507701" lon="11.8768629"><ele>21.8</ele><time>2026-05-02T12:29:51.653Z</time></trkpt><trkpt lat="45.5507938" lon="11.8770019"><ele>22.2</ele><time>2026-05-02T12:29:53.653Z</time></trkpt><trkpt lat="45.5508192" lon="11.877141"><ele>22.599999999999998</ele><time>2026-05-02T12:29:55.656Z</time></trkpt><trkpt lat="45.5508435" lon="11.877278"><ele>23.0</ele><time>2026-05-02T12:29:57.65Z</time></trkpt><trkpt lat="45.5508668" lon="11.8774311"><ele>23.0</ele><time>2026-05-02T12:29:59.649Z</time></trkpt><trkpt lat="45.5508823" lon="11.8775719"><ele>23.0</ele><time>2026-05-02T12:30:01.657Z</time></trkpt><trkpt lat="45.5509102" lon="11.8777016"><ele>23.0</ele><time>2026-05-02T12:30:03.658Z</time></trkpt><trkpt lat="45.5509329" lon="11.877834"><ele>23.0</ele><time>2026-05-02T12:30:05.647Z</time></trkpt><trkpt lat="45.5509596" lon="11.8779618"><ele>23.0</ele><time>2026-05-02T12:30:07.652Z</time></trkpt><trkpt lat="45.5509797" lon="11.8781022"><ele>22.799999999999997</ele><time>2026-05-02T12:30:09.655Z</time></trkpt><trkpt lat="45.551002" lon="11.8782519"><ele>22.6</ele><time>2026-05-02T12:30:11.654Z</time></trkpt><trkpt lat="45.5510261" lon="11.8783992"><ele>22.4</ele><time>2026-05-02T12:30:13.656Z</time></trkpt><trkpt lat="45.5510541" lon="11.8785464"><ele>22.200000000000003</ele><time>2026-05-02T12:30:15.639Z</time></trkpt><trkpt lat="45.5510812" lon="11.8786955"><ele>22.0</ele><time>2026-05-02T12:30:17.657Z</time></trkpt><trkpt lat="45.5510992" lon="11.8788443"><ele>22.0</ele><time>2026-05-02T12:30:19.65Z</time></trkpt><trkpt lat="45.5511238" lon="11.8789863"><ele>22.0</ele><time>2026-05-02T12:30:21.656Z</time></trkpt><trkpt lat="45.5511506" lon="11.8791162"><ele>22.0</ele><time>2026-05-02T12:30:23.654Z</time></trkpt><trkpt lat="45.5511769" lon="11.8792555"><ele>22.0</ele><time>2026-05-02T12:30:25.656Z</time></trkpt><trkpt lat="45.5512121" lon="11.879376"><ele>22.0</ele><time>2026-05-02T12:30:27.664Z</time></trkpt><trkpt lat="45.5512435" lon="11.8794985"><ele>22.0</ele><time>2026-05-02T12:30:29.655Z</time></trkpt><trkpt lat="45.5512711" lon="11.8796213"><ele>22.0</ele><time>2026-05-02T12:30:31.655Z</time></trkpt><trkpt lat="45.551293" lon="11.8797333"><ele>22.0</ele><time>2026-05-02T12:30:33.658Z</time></trkpt><trkpt lat="45.5513146" lon="11.8798395"><ele>22.0</ele><time>2026-05-02T12:30:35.666Z</time></trkpt><trkpt lat="45.5513323" lon="11.8799412"><ele>22.0</ele><time>2026-05-02T12:30:37.658Z</time></trkpt><trkpt lat="45.5513504" lon="11.8800377"><ele>22.0</ele><time>2026-05-02T12:30:39.651Z</time></trkpt><trkpt lat="45.5513694" lon="11.8801371"><ele>22.0</ele><time>2026-05-02T12:30:41.654Z</time></trkpt><trkpt lat="45.5513892" lon="11.8802331"><ele>22.0</ele><time>2026-05-02T12:30:43.639Z</time></trkpt><trkpt lat="45.5514114" lon="11.8803226"><ele>22.0</ele><time>2026-05-02T12:30:45.658Z</time></trkpt><trkpt lat="45.5514316" lon="11.8804094"><ele>22.0</ele><time>2026-05-02T12:30:47.66Z</time></trkpt><trkpt lat="45.5514544" lon="11.8804994"><ele>22.0</ele><time>2026-05-02T12:30:49.654Z</time></trkpt><trkpt lat="45.5514746" lon="11.8805879"><ele>22.0</ele><time>2026-05-02T12:30:51.65Z</time></trkpt><trkpt lat="45.5515088" lon="11.8807016"><ele>22.0</ele><time>2026-05-02T12:30:54.652Z</time></trkpt><trkpt lat="45.5515411" lon="11.8808272"><ele>22.0</ele><time>2026-05-02T12:30:57.661Z</time></trkpt><trkpt lat="45.5515475" lon="11.8809317"><ele>22.0</ele><time>2026-05-02T12:31:00.655Z</time></trkpt><trkpt lat="45.5515702" lon="11.8810195"><ele>22.0</ele><time>2026-05-02T12:31:03.657Z</time></trkpt><trkpt lat="45.5515888" lon="11.8811076"><ele>22.0</ele><time>2026-05-02T12:31:07.646Z</time></trkpt><trkpt lat="45.5515956" lon="11.8812257"><ele>22.0</ele><time>2026-05-02T12:31:12.661Z</time></trkpt><trkpt lat="45.5516068" lon="11.8813226"><ele>22.0</ele><time>2026-05-02T12:31:14.646Z</time></trkpt><trkpt lat="45.5516388" lon="11.8814332"><ele>22.0</ele><time>2026-05-02T12:31:16.651Z</time></trkpt><trkpt lat="45.5516623" lon="11.8815263"><ele>22.0</ele><time>2026-05-02T12:31:18.658Z</time></trkpt><trkpt lat="45.5516862" lon="11.8816154"><ele>22.0</ele><time>2026-05-02T12:31:20.636Z</time></trkpt><trkpt lat="45.5517177" lon="11.881716"><ele>22.0</ele><time>2026-05-02T12:31:22.66Z</time></trkpt><trkpt lat="45.5517513" lon="11.8818432"><ele>22.0</ele><time>2026-05-02T12:31:24.654Z</time></trkpt><trkpt lat="45.5517849" lon="11.88198"><ele>22.0</ele><time>2026-05-02T12:31:26.656Z</time></trkpt><trkpt lat="45.5518177" lon="11.8821102"><ele>22.0</ele><time>2026-05-02T12:31:28.66Z</time></trkpt><trkpt lat="45.5518503" lon="11.8822582"><ele>22.0</ele><time>2026-05-02T12:31:30.646Z</time></trkpt><trkpt lat="45.5518818" lon="11.8823996"><ele>22.0</ele><time>2026-05-02T12:31:32.652Z</time></trkpt><trkpt lat="45.551915" lon="11.8825352"><ele>22.0</ele><time>2026-05-02T12:31:34.657Z</time></trkpt><trkpt lat="45.5519373" lon="11.8826769"><ele>22.0</ele><time>2026-05-02T12:31:36.657Z</time></trkpt><trkpt lat="45.551963" lon="11.8828037"><ele>22.0</ele><time>2026-05-02T12:31:38.658Z</time></trkpt><trkpt lat="45.5519814" lon="11.8829363"><ele>22.0</ele><time>2026-05-02T12:31:40.647Z</time></trkpt><trkpt lat="45.5520025" lon="11.8830722"><ele>22.0</ele><time>2026-05-02T12:31:42.654Z</time></trkpt><trkpt lat="45.5520288" lon="11.8832061"><ele>22.0</ele><time>2026-05-02T12:31:44.646Z</time></trkpt><trkpt lat="45.5520575" lon="11.8833509"><ele>22.0</ele><time>2026-05-02T12:31:46.654Z</time></trkpt><trkpt lat="45.5520877" lon="11.8835072"><ele>22.0</ele><time>2026-05-02T12:31:48.655Z</time></trkpt><trkpt lat="45.5521131" lon="11.8836549"><ele>22.0</ele><time>2026-05-02T12:31:50.655Z</time></trkpt><trkpt lat="45.5521507" lon="11.8837881"><ele>22.0</ele><time>2026-05-02T12:31:52.654Z</time></trkpt><trkpt lat="45.5521872" lon="11.8839286"><ele>22.0</ele><time>2026-05-02T12:31:54.648Z</time></trkpt><trkpt lat="45.5522222" lon="11.8840686"><ele>22.0</ele><time>2026-05-02T12:31:56.64Z</time></trkpt><trkpt lat="45.5522562" lon="11.8842188"><ele>22.0</ele><time>2026-05-02T12:31:58.656Z</time></trkpt><trkpt lat="45.5522849" lon="11.8843701"><ele>21.8</ele><time>2026-05-02T12:32:00.663Z</time></trkpt><trkpt lat="45.5523225" lon="11.884512"><ele>21.6</ele><time>2026-05-02T12:32:02.657Z</time></trkpt><trkpt lat="45.5523516" lon="11.8846486"><ele>21.400000000000002</ele><time>2026-05-02T12:32:04.659Z</time></trkpt><trkpt lat="45.5523743" lon="11.8847816"><ele>21.200000000000003</ele><time>2026-05-02T12:32:06.66Z</time></trkpt><trkpt lat="45.5524033" lon="11.8849085"><ele>21.0</ele><time>2026-05-02T12:32:08.655Z</time></trkpt><trkpt lat="45.552443" lon="11.8850556"><ele>21.0</ele><time>2026-05-02T12:32:10.653Z</time></trkpt><trkpt lat="45.5524766" lon="11.8851943"><ele>21.0</ele><time>2026-05-02T12:32:12.651Z</time></trkpt><trkpt lat="45.5525045" lon="11.8853352"><ele>21.0</ele><time>2026-05-02T12:32:14.656Z</time></trkpt><trkpt lat="45.5525397" lon="11.8854814"><ele>21.0</ele><time>2026-05-02T12:32:16.66Z</time></trkpt><trkpt lat="45.552571" lon="11.8856308"><ele>21.0</ele><time>2026-05-02T12:32:18.65Z</time></trkpt><trkpt lat="45.5526064" lon="11.8857743"><ele>21.0</ele><time>2026-05-02T12:32:20.655Z</time></trkpt><trkpt lat="45.5526327" lon="11.885915"><ele>21.0</ele><time>2026-05-02T12:32:22.649Z</time></trkpt><trkpt lat="45.5526449" lon="11.8860496"><ele>21.0</ele><time>2026-05-02T12:32:24.66Z</time></trkpt><trkpt lat="45.5526702" lon="11.8861826"><ele>21.0</ele><time>2026-05-02T12:32:26.653Z</time></trkpt><trkpt lat="45.5526977" lon="11.8863331"><ele>21.0</ele><time>2026-05-02T12:32:28.654Z</time></trkpt><trkpt lat="45.5527296" lon="11.8864752"><ele>20.8</ele><time>2026-05-02T12:32:30.659Z</time></trkpt><trkpt lat="45.5527557" lon="11.8866141"><ele>20.6</ele><time>2026-05-02T12:32:32.645Z</time></trkpt><trkpt lat="45.5527843" lon="11.8867605"><ele>20.4</ele><time>2026-05-02T12:32:34.64Z</time></trkpt><trkpt lat="45.5528216" lon="11.886896"><ele>20.2</ele><time>2026-05-02T12:32:36.655Z</time></trkpt><trkpt lat="45.5528444" lon="11.8870247"><ele>20.0</ele><time>2026-05-02T12:32:38.657Z</time></trkpt><trkpt lat="45.5528706" lon="11.8871525"><ele>20.142857142857142</ele><time>2026-05-02T12:32:40.653Z</time></trkpt><trkpt lat="45.5528973" lon="11.8872675"><ele>20.285714285714285</ele><time>2026-05-02T12:32:42.657Z</time></trkpt><trkpt lat="45.5529176" lon="11.8873615"><ele>20.42857142857143</ele><time>2026-05-02T12:32:44.658Z</time></trkpt><trkpt lat="45.5529367" lon="11.8874564"><ele>20.57142857142857</ele><time>2026-05-02T12:32:47.65Z</time></trkpt><trkpt lat="45.552943" lon="11.8875524"><ele>20.714285714285715</ele><time>2026-05-02T12:32:50.656Z</time></trkpt><trkpt lat="45.5529637" lon="11.8876448"><ele>20.857142857142858</ele><time>2026-05-02T12:32:52.664Z</time></trkpt><trkpt lat="45.5530008" lon="11.8877417"><ele>21.0</ele><time>2026-05-02T12:32:54.66Z</time></trkpt><trkpt lat="45.553038" lon="11.8878459"><ele>21.0</ele><time>2026-05-02T12:32:56.659Z</time></trkpt><trkpt lat="45.5530638" lon="11.8879565"><ele>21.0</ele><time>2026-05-02T12:32:58.653Z</time></trkpt><trkpt lat="45.5530899" lon="11.8880579"><ele>21.0</ele><time>2026-05-02T12:33:00.651Z</time></trkpt><trkpt lat="45.5531049" lon="11.8881595"><ele>21.0</ele><time>2026-05-02T12:33:02.657Z</time></trkpt><trkpt lat="45.5531275" lon="11.8882784"><ele>21.0</ele><time>2026-05-02T12:33:04.652Z</time></trkpt><trkpt lat="45.553156" lon="11.8884014"><ele>21.0</ele><time>2026-05-02T12:33:06.657Z</time></trkpt><trkpt lat="45.5531901" lon="11.8885409"><ele>21.0</ele><time>2026-05-02T12:33:08.651Z</time></trkpt><trkpt lat="45.553216" lon="11.8886925"><ele>21.0</ele><time>2026-05-02T12:33:10.66Z</time></trkpt><trkpt lat="45.5532549" lon="11.8888324"><ele>21.0</ele><time>2026-05-02T12:33:12.635Z</time></trkpt><trkpt lat="45.5532799" lon="11.8889775"><ele>21.0</ele><time>2026-05-02T12:33:14.656Z</time></trkpt><trkpt lat="45.5533028" lon="11.8891218"><ele>21.0</ele><time>2026-05-02T12:33:16.654Z</time></trkpt><trkpt lat="45.5533397" lon="11.8892645"><ele>20.8</ele><time>2026-05-02T12:33:18.655Z</time></trkpt><trkpt lat="45.5533625" lon="11.8894059"><ele>20.6</ele><time>2026-05-02T12:33:20.655Z</time></trkpt><trkpt lat="45.5533974" lon="11.8895338"><ele>20.4</ele><time>2026-05-02T12:33:22.652Z</time></trkpt><trkpt lat="45.5534233" lon="11.8896765"><ele>20.2</ele><time>2026-05-02T12:33:24.653Z</time></trkpt><trkpt lat="45.5534551" lon="11.8898296"><ele>20.0</ele><time>2026-05-02T12:33:26.656Z</time></trkpt><trkpt lat="45.5534847" lon="11.8899773"><ele>20.4</ele><time>2026-05-02T12:33:28.656Z</time></trkpt><trkpt lat="45.5535043" lon="11.8901145"><ele>20.8</ele><time>2026-05-02T12:33:30.652Z</time></trkpt><trkpt lat="45.5535304" lon="11.8902569"><ele>21.200000000000003</ele><time>2026-05-02T12:33:32.656Z</time></trkpt><trkpt lat="45.5535628" lon="11.8903896"><ele>21.6</ele><time>2026-05-02T12:33:34.659Z</time></trkpt><trkpt lat="45.5535991" lon="11.8905296"><ele>22.0</ele><time>2026-05-02T12:33:36.658Z</time></trkpt><trkpt lat="45.5536283" lon="11.8906765"><ele>22.0</ele><time>2026-05-02T12:33:38.657Z</time></trkpt><trkpt lat="45.5536585" lon="11.8908202"><ele>22.0</ele><time>2026-05-02T12:33:40.651Z</time></trkpt><trkpt lat="45.553686" lon="11.8909535"><ele>22.0</ele><time>2026-05-02T12:33:42.653Z</time></trkpt><trkpt lat="45.5537112" lon="11.8910882"><ele>22.0</ele><time>2026-05-02T12:33:44.65Z</time></trkpt><trkpt lat="45.5537419" lon="11.8912229"><ele>22.0</ele><time>2026-05-02T12:33:46.649Z</time></trkpt><trkpt lat="45.5537675" lon="11.8913501"><ele>22.0</ele><time>2026-05-02T12:33:48.66Z</time></trkpt><trkpt lat="45.5537907" lon="11.8914717"><ele>22.0</ele><time>2026-05-02T12:33:50.659Z</time></trkpt><trkpt lat="45.5538154" lon="11.8915863"><ele>22.0</ele><time>2026-05-02T12:33:52.64Z</time></trkpt><trkpt lat="45.5538384" lon="11.8917051"><ele>22.0</ele><time>2026-05-02T12:33:54.653Z</time></trkpt><trkpt lat="45.5538677" lon="11.8918107"><ele>22.0</ele><time>2026-05-02T12:33:56.661Z</time></trkpt><trkpt lat="45.5538878" lon="11.891915"><ele>22.0</ele><time>2026-05-02T12:33:58.663Z</time></trkpt><trkpt lat="45.5539051" lon="11.8920327"><ele>21.833333333333332</ele><time>2026-05-02T12:34:00.653Z</time></trkpt><trkpt lat="45.5539238" lon="11.8921441"><ele>21.666666666666664</ele><time>2026-05-02T12:34:02.654Z</time></trkpt><trkpt lat="45.553958" lon="11.8922672"><ele>21.5</ele><time>2026-05-02T12:34:04.664Z</time></trkpt><trkpt lat="45.5539811" lon="11.8923891"><ele>21.333333333333332</ele><time>2026-05-02T12:34:06.651Z</time></trkpt><trkpt lat="45.5540133" lon="11.8924931"><ele>21.166666666666668</ele><time>2026-05-02T12:34:08.655Z</time></trkpt><trkpt lat="45.5540389" lon="11.8925948"><ele>21.0</ele><time>2026-05-02T12:34:10.663Z</time></trkpt><trkpt lat="45.5540618" lon="11.8927052"><ele>20.857142857142858</ele><time>2026-05-02T12:34:12.656Z</time></trkpt><trkpt lat="45.5540741" lon="11.8928025"><ele>20.714285714285715</ele><time>2026-05-02T12:34:14.659Z</time></trkpt><trkpt lat="45.554093" lon="11.8929025"><ele>20.57142857142857</ele><time>2026-05-02T12:34:16.662Z</time></trkpt><trkpt lat="45.5541069" lon="11.8930086"><ele>20.42857142857143</ele><time>2026-05-02T12:34:18.655Z</time></trkpt><trkpt lat="45.5541288" lon="11.89312"><ele>20.285714285714285</ele><time>2026-05-02T12:34:20.638Z</time></trkpt><trkpt lat="45.5541527" lon="11.8932182"><ele>20.142857142857142</ele><time>2026-05-02T12:34:22.658Z</time></trkpt><trkpt lat="45.5541789" lon="11.8933046"><ele>20.0</ele><time>2026-05-02T12:34:24.636Z</time></trkpt><trkpt lat="45.5542035" lon="11.8934349"><ele>20.333333333333336</ele><time>2026-05-02T12:34:27.642Z</time></trkpt><trkpt lat="45.55422" lon="11.8935297"><ele>20.666666666666668</ele><time>2026-05-02T12:34:29.652Z</time></trkpt><trkpt lat="45.5542514" lon="11.8936418"><ele>21.0</ele><time>2026-05-02T12:34:31.655Z</time></trkpt><trkpt lat="45.5542865" lon="11.8937722"><ele>21.333333333333332</ele><time>2026-05-02T12:34:33.661Z</time></trkpt><trkpt lat="45.5543234" lon="11.89389"><ele>21.666666666666664</ele><time>2026-05-02T12:34:35.658Z</time></trkpt><trkpt lat="45.5543563" lon="11.893989"><ele>22.0</ele><time>2026-05-02T12:34:37.655Z</time></trkpt><trkpt lat="45.5543776" lon="11.8940965"><ele>22.0</ele><time>2026-05-02T12:34:39.652Z</time></trkpt><trkpt lat="45.5544049" lon="11.8942365"><ele>22.0</ele><time>2026-05-02T12:34:41.654Z</time></trkpt><trkpt lat="45.5544296" lon="11.8943618"><ele>22.0</ele><time>2026-05-02T12:34:43.658Z</time></trkpt><trkpt lat="45.5544568" lon="11.8944806"><ele>22.0</ele><time>2026-05-02T12:34:45.656Z</time></trkpt><trkpt lat="45.5544803" lon="11.8946094"><ele>22.0</ele><time>2026-05-02T12:34:47.655Z</time></trkpt><trkpt lat="45.5545071" lon="11.8947269"><ele>22.166666666666664</ele><time>2026-05-02T12:34:49.658Z</time></trkpt><trkpt lat="45.5545234" lon="11.8948504"><ele>22.333333333333332</ele><time>2026-05-02T12:34:51.65Z</time></trkpt><trkpt lat="45.5545432" lon="11.8949496"><ele>22.5</ele><time>2026-05-02T12:34:53.631Z</time></trkpt><trkpt lat="45.554559" lon="11.8950544"><ele>22.666666666666668</ele><time>2026-05-02T12:34:55.657Z</time></trkpt><trkpt lat="45.5545707" lon="11.8951667"><ele>22.833333333333336</ele><time>2026-05-02T12:34:57.657Z</time></trkpt><trkpt lat="45.5545955" lon="11.8952873"><ele>23.0</ele><time>2026-05-02T12:34:59.659Z</time></trkpt><trkpt lat="45.5546165" lon="11.8954074"><ele>22.4</ele><time>2026-05-02T12:35:01.655Z</time></trkpt><trkpt lat="45.5546415" lon="11.8955455"><ele>21.799999999999997</ele><time>2026-05-02T12:35:03.655Z</time></trkpt><trkpt lat="45.5546705" lon="11.8956832"><ele>21.2</ele><time>2026-05-02T12:35:05.651Z</time></trkpt><trkpt lat="45.5547006" lon="11.8958206"><ele>20.6</ele><time>2026-05-02T12:35:07.653Z</time></trkpt><trkpt lat="45.5547265" lon="11.8959583"><ele>20.0</ele><time>2026-05-02T12:35:09.652Z</time></trkpt><trkpt lat="45.5547543" lon="11.8961012"><ele>20.0</ele><time>2026-05-02T12:35:11.654Z</time></trkpt><trkpt lat="45.5547867" lon="11.8962366"><ele>20.0</ele><time>2026-05-02T12:35:13.653Z</time></trkpt><trkpt lat="45.5548258" lon="11.8963944"><ele>20.0</ele><time>2026-05-02T12:35:15.65Z</time></trkpt><trkpt lat="45.5548632" lon="11.8965424"><ele>20.0</ele><time>2026-05-02T12:35:17.652Z</time></trkpt><trkpt lat="45.5548969" lon="11.8966752"><ele>20.0</ele><time>2026-05-02T12:35:19.661Z</time></trkpt><trkpt lat="45.554916" lon="11.8968064"><ele>20.0</ele><time>2026-05-02T12:35:21.653Z</time></trkpt><trkpt lat="45.5549578" lon="11.8969356"><ele>20.0</ele><time>2026-05-02T12:35:23.647Z</time></trkpt><trkpt lat="45.5549809" lon="11.8970633"><ele>20.0</ele><time>2026-05-02T12:35:25.661Z</time></trkpt><trkpt lat="45.5550032" lon="11.8971931"><ele>20.0</ele><time>2026-05-02T12:35:27.664Z</time></trkpt><trkpt lat="45.5550373" lon="11.8973083"><ele>20.0</ele><time>2026-05-02T12:35:29.644Z</time></trkpt><trkpt lat="45.5550603" lon="11.8974192"><ele>20.0</ele><time>2026-05-02T12:35:31.65Z</time></trkpt><trkpt lat="45.5550863" lon="11.897535"><ele>20.0</ele><time>2026-05-02T12:35:33.658Z</time></trkpt><trkpt lat="45.5551148" lon="11.8976701"><ele>20.0</ele><time>2026-05-02T12:35:35.653Z</time></trkpt><trkpt lat="45.5551423" lon="11.8977962"><ele>20.0</ele><time>2026-05-02T12:35:37.656Z</time></trkpt><trkpt lat="45.5551677" lon="11.8979127"><ele>20.0</ele><time>2026-05-02T12:35:39.659Z</time></trkpt><trkpt lat="45.5551955" lon="11.8980234"><ele>20.0</ele><time>2026-05-02T12:35:41.656Z</time></trkpt><trkpt lat="45.5552161" lon="11.8981236"><ele>20.0</ele><time>2026-05-02T12:35:43.651Z</time></trkpt><trkpt lat="45.5552302" lon="11.8982121"><ele>20.0</ele><time>2026-05-02T12:35:45.659Z</time></trkpt><trkpt lat="45.5552436" lon="11.8983025"><ele>20.0</ele><time>2026-05-02T12:35:47.663Z</time></trkpt><trkpt lat="45.5552863" lon="11.8984031"><ele>20.0</ele><time>2026-05-02T12:35:50.663Z</time></trkpt><trkpt lat="45.5553388" lon="11.8984667"><ele>20.0</ele><time>2026-05-02T12:35:53.655Z</time></trkpt><trkpt lat="45.5553484" lon="11.8985684"><ele>20.0</ele><time>2026-05-02T12:35:56.653Z</time></trkpt><trkpt lat="45.5553557" lon="11.8987233"><ele>20.0</ele><time>2026-05-02T12:35:59.655Z</time></trkpt><trkpt lat="45.5553615" lon="11.8988332"><ele>20.0</ele><time>2026-05-02T12:36:01.657Z</time></trkpt><trkpt lat="45.5553865" lon="11.8989396"><ele>20.0</ele><time>2026-05-02T12:36:03.655Z</time></trkpt><trkpt lat="45.5554103" lon="11.8990431"><ele>20.0</ele><time>2026-05-02T12:36:05.638Z</time></trkpt><trkpt lat="45.5554488" lon="11.8991539"><ele>20.0</ele><time>2026-05-02T12:36:07.655Z</time></trkpt><trkpt lat="45.5554847" lon="11.8992724"><ele>20.0</ele><time>2026-05-02T12:36:09.656Z</time></trkpt><trkpt lat="45.5555224" lon="11.899397"><ele>20.0</ele><time>2026-05-02T12:36:11.652Z</time></trkpt><trkpt lat="45.5555396" lon="11.8995154"><ele>20.0</ele><time>2026-05-02T12:36:13.658Z</time></trkpt><trkpt lat="45.5555585" lon="11.8996357"><ele>20.0</ele><time>2026-05-02T12:36:15.652Z</time></trkpt><trkpt lat="45.5555872" lon="11.8997666"><ele>20.0</ele><time>2026-05-02T12:36:17.654Z</time></trkpt><trkpt lat="45.5556076" lon="11.8998982"><ele>20.0</ele><time>2026-05-02T12:36:19.653Z</time></trkpt><trkpt lat="45.5556335" lon="11.9000342"><ele>20.0</ele><time>2026-05-02T12:36:21.658Z</time></trkpt><trkpt lat="45.5556517" lon="11.9001745"><ele>20.0</ele><time>2026-05-02T12:36:23.654Z</time></trkpt><trkpt lat="45.5556733" lon="11.9002843"><ele>20.0</ele><time>2026-05-02T12:36:25.651Z</time></trkpt><trkpt lat="45.5556935" lon="11.9003968"><ele>20.0</ele><time>2026-05-02T12:36:27.658Z</time></trkpt><trkpt lat="45.5557036" lon="11.9005048"><ele>20.0</ele><time>2026-05-02T12:36:29.655Z</time></trkpt><trkpt lat="45.5557214" lon="11.900601"><ele>20.0</ele><time>2026-05-02T12:36:31.645Z</time></trkpt><trkpt lat="45.555732" lon="11.9007177"><ele>20.0</ele><time>2026-05-02T12:36:33.66Z</time></trkpt><trkpt lat="45.5557614" lon="11.9008339"><ele>20.0</ele><time>2026-05-02T12:36:35.655Z</time></trkpt><trkpt lat="45.5557939" lon="11.9009433"><ele>20.0</ele><time>2026-05-02T12:36:37.656Z</time></trkpt><trkpt lat="45.5558159" lon="11.9010629"><ele>20.0</ele><time>2026-05-02T12:36:39.659Z</time></trkpt><trkpt lat="45.5558416" lon="11.9011787"><ele>20.0</ele><time>2026-05-02T12:36:41.656Z</time></trkpt><trkpt lat="45.5558726" lon="11.9012908"><ele>20.0</ele><time>2026-05-02T12:36:43.639Z</time></trkpt><trkpt lat="45.5559066" lon="11.9013917"><ele>19.8</ele><time>2026-05-02T12:36:45.659Z</time></trkpt><trkpt lat="45.5559287" lon="11.9015123"><ele>19.6</ele><time>2026-05-02T12:36:47.652Z</time></trkpt><trkpt lat="45.5559482" lon="11.9016448"><ele>19.4</ele><time>2026-05-02T12:36:49.655Z</time></trkpt><trkpt lat="45.5559718" lon="11.9017853"><ele>19.2</ele><time>2026-05-02T12:36:51.654Z</time></trkpt><trkpt lat="45.5560041" lon="11.9019408"><ele>19.0</ele><time>2026-05-02T12:36:53.656Z</time></trkpt><trkpt lat="45.5560341" lon="11.9020918"><ele>18.8</ele><time>2026-05-02T12:36:55.651Z</time></trkpt><trkpt lat="45.5560568" lon="11.9022385"><ele>18.599999999999998</ele><time>2026-05-02T12:36:57.652Z</time></trkpt><trkpt lat="45.5560867" lon="11.9023831"><ele>18.4</ele><time>2026-05-02T12:36:59.655Z</time></trkpt><trkpt lat="45.5561155" lon="11.9025266"><ele>18.2</ele><time>2026-05-02T12:37:01.656Z</time></trkpt><trkpt lat="45.5561512" lon="11.9026658"><ele>18.0</ele><time>2026-05-02T12:37:03.652Z</time></trkpt><trkpt lat="45.5561886" lon="11.9027981"><ele>18.0</ele><time>2026-05-02T12:37:05.652Z</time></trkpt><trkpt lat="45.556216" lon="11.9029313"><ele>18.0</ele><time>2026-05-02T12:37:07.656Z</time></trkpt><trkpt lat="45.5562472" lon="11.9030705"><ele>18.0</ele><time>2026-05-02T12:37:09.653Z</time></trkpt><trkpt lat="45.5562791" lon="11.9032201"><ele>18.0</ele><time>2026-05-02T12:37:11.655Z</time></trkpt><trkpt lat="45.5563054" lon="11.9033647"><ele>18.0</ele><time>2026-05-02T12:37:13.65Z</time></trkpt><trkpt lat="45.5563337" lon="11.9034927"><ele>18.0</ele><time>2026-05-02T12:37:15.655Z</time></trkpt><trkpt lat="45.556361" lon="11.9036115"><ele>18.0</ele><time>2026-05-02T12:37:17.658Z</time></trkpt><trkpt lat="45.55638" lon="11.9037157"><ele>18.0</ele><time>2026-05-02T12:37:19.642Z</time></trkpt><trkpt lat="45.5563961" lon="11.9038242"><ele>18.0</ele><time>2026-05-02T12:37:21.657Z</time></trkpt><trkpt lat="45.5564166" lon="11.9039383"><ele>18.0</ele><time>2026-05-02T12:37:23.657Z</time></trkpt><trkpt lat="45.5564536" lon="11.9040664"><ele>18.0</ele><time>2026-05-02T12:37:25.654Z</time></trkpt><trkpt lat="45.5564784" lon="11.9042078"><ele>18.166666666666668</ele><time>2026-05-02T12:37:27.658Z</time></trkpt><trkpt lat="45.556507" lon="11.9043371"><ele>18.333333333333332</ele><time>2026-05-02T12:37:29.659Z</time></trkpt><trkpt lat="45.5565321" lon="11.9044511"><ele>18.5</ele><time>2026-05-02T12:37:31.647Z</time></trkpt><trkpt lat="45.5565549" lon="11.9045628"><ele>18.666666666666664</ele><time>2026-05-02T12:37:33.654Z</time></trkpt><trkpt lat="45.5565783" lon="11.904663"><ele>18.833333333333332</ele><time>2026-05-02T12:37:35.651Z</time></trkpt><trkpt lat="45.5566044" lon="11.9047791"><ele>19.0</ele><time>2026-05-02T12:37:37.651Z</time></trkpt><trkpt lat="45.5566349" lon="11.9048856"><ele>19.0</ele><time>2026-05-02T12:37:39.648Z</time></trkpt><trkpt lat="45.5566665" lon="11.9050068"><ele>19.0</ele><time>2026-05-02T12:37:41.659Z</time></trkpt><trkpt lat="45.5566875" lon="11.9051479"><ele>19.0</ele><time>2026-05-02T12:37:43.654Z</time></trkpt><trkpt lat="45.5567055" lon="11.9052973"><ele>19.0</ele><time>2026-05-02T12:37:45.656Z</time></trkpt><trkpt lat="45.5567253" lon="11.9054481"><ele>19.0</ele><time>2026-05-02T12:37:47.658Z</time></trkpt><trkpt lat="45.5567688" lon="11.9056204"><ele>19.2</ele><time>2026-05-02T12:37:49.661Z</time></trkpt><trkpt lat="45.5567921" lon="11.9057073"><ele>19.4</ele><time>2026-05-02T12:37:50.651Z</time></trkpt><trkpt lat="45.5568284" lon="11.9058622"><ele>19.6</ele><time>2026-05-02T12:37:52.653Z</time></trkpt><trkpt lat="45.5568547" lon="11.9059944"><ele>19.8</ele><time>2026-05-02T12:37:54.662Z</time></trkpt><trkpt lat="45.5568861" lon="11.9061285"><ele>20.0</ele><time>2026-05-02T12:37:56.653Z</time></trkpt><trkpt lat="45.5569065" lon="11.9062666"><ele>20.0</ele><time>2026-05-02T12:37:58.652Z</time></trkpt><trkpt lat="45.556939" lon="11.9064041"><ele>20.0</ele><time>2026-05-02T12:38:00.66Z</time></trkpt><trkpt lat="45.5569743" lon="11.9065458"><ele>20.0</ele><time>2026-05-02T12:38:02.656Z</time></trkpt><trkpt lat="45.5570042" lon="11.9066973"><ele>20.0</ele><time>2026-05-02T12:38:04.653Z</time></trkpt><trkpt lat="45.5570348" lon="11.9068421"><ele>20.0</ele><time>2026-05-02T12:38:06.651Z</time></trkpt><trkpt lat="45.5570563" lon="11.9069796"><ele>19.8</ele><time>2026-05-02T12:38:08.654Z</time></trkpt><trkpt lat="45.5570887" lon="11.9071134"><ele>19.6</ele><time>2026-05-02T12:38:10.653Z</time></trkpt><trkpt lat="45.5571196" lon="11.907246"><ele>19.4</ele><time>2026-05-02T12:38:12.655Z</time></trkpt><trkpt lat="45.5571554" lon="11.907396"><ele>19.2</ele><time>2026-05-02T12:38:14.648Z</time></trkpt><trkpt lat="45.5571904" lon="11.9075466"><ele>19.0</ele><time>2026-05-02T12:38:16.653Z</time></trkpt><trkpt lat="45.55723" lon="11.9076861"><ele>19.4</ele><time>2026-05-02T12:38:18.653Z</time></trkpt><trkpt lat="45.5572684" lon="11.9078364"><ele>19.799999999999997</ele><time>2026-05-02T12:38:20.65Z</time></trkpt><trkpt lat="45.5573023" lon="11.9079812"><ele>20.200000000000003</ele><time>2026-05-02T12:38:22.654Z</time></trkpt><trkpt lat="45.5573267" lon="11.9081143"><ele>20.6</ele><time>2026-05-02T12:38:24.658Z</time></trkpt><trkpt lat="45.5573546" lon="11.9082537"><ele>21.0</ele><time>2026-05-02T12:38:26.656Z</time></trkpt><trkpt lat="45.557384" lon="11.9083969"><ele>21.200000000000003</ele><time>2026-05-02T12:38:28.657Z</time></trkpt><trkpt lat="45.5574088" lon="11.9085363"><ele>21.400000000000002</ele><time>2026-05-02T12:38:30.656Z</time></trkpt><trkpt lat="45.5574368" lon="11.9086755"><ele>21.6</ele><time>2026-05-02T12:38:32.644Z</time></trkpt><trkpt lat="45.5574663" lon="11.9088149"><ele>21.8</ele><time>2026-05-02T12:38:34.651Z</time></trkpt><trkpt lat="45.5574976" lon="11.9089494"><ele>22.0</ele><time>2026-05-02T12:38:36.656Z</time></trkpt><trkpt lat="45.5575292" lon="11.9090887"><ele>22.0</ele><time>2026-05-02T12:38:38.658Z</time></trkpt><trkpt lat="45.5575716" lon="11.9092183"><ele>22.0</ele><time>2026-05-02T12:38:40.651Z</time></trkpt><trkpt lat="45.5576068" lon="11.9093681"><ele>22.0</ele><time>2026-05-02T12:38:42.652Z</time></trkpt><trkpt lat="45.5576247" lon="11.9095211"><ele>22.0</ele><time>2026-05-02T12:38:44.655Z</time></trkpt><trkpt lat="45.5576467" lon="11.9096665"><ele>22.0</ele><time>2026-05-02T12:38:46.651Z</time></trkpt><trkpt lat="45.55767" lon="11.9097968"><ele>22.0</ele><time>2026-05-02T12:38:48.657Z</time></trkpt><trkpt lat="45.5576927" lon="11.9099171"><ele>22.0</ele><time>2026-05-02T12:38:50.657Z</time></trkpt><trkpt lat="45.5577268" lon="11.9100389"><ele>22.0</ele><time>2026-05-02T12:38:52.653Z</time></trkpt><trkpt lat="45.5577601" lon="11.9101414"><ele>22.0</ele><time>2026-05-02T12:38:54.649Z</time></trkpt><trkpt lat="45.5577783" lon="11.910247"><ele>22.0</ele><time>2026-05-02T12:38:56.66Z</time></trkpt><trkpt lat="45.5578084" lon="11.910337"><ele>22.0</ele><time>2026-05-02T12:38:59.664Z</time></trkpt><trkpt lat="45.5578791" lon="11.910389"><ele>22.0</ele><time>2026-05-02T12:39:03.662Z</time></trkpt><trkpt lat="45.5579048" lon="11.9104897"><ele>22.0</ele><time>2026-05-02T12:39:06.655Z</time></trkpt><trkpt lat="45.5578703" lon="11.9105946"><ele>22.0</ele><time>2026-05-02T12:39:09.636Z</time></trkpt><trkpt lat="45.5578709" lon="11.9106921"><ele>22.0</ele><time>2026-05-02T12:39:11.658Z</time></trkpt><trkpt lat="45.557878" lon="11.9107971"><ele>22.0</ele><time>2026-05-02T12:39:13.661Z</time></trkpt><trkpt lat="45.5579029" lon="11.9108975"><ele>22.0</ele><time>2026-05-02T12:39:15.657Z</time></trkpt><trkpt lat="45.5579322" lon="11.9109897"><ele>22.0</ele><time>2026-05-02T12:39:17.656Z</time></trkpt><trkpt lat="45.5579527" lon="11.9110836"><ele>21.833333333333332</ele><time>2026-05-02T12:39:20.648Z</time></trkpt><trkpt lat="45.5579739" lon="11.9111867"><ele>21.666666666666664</ele><time>2026-05-02T12:39:26.653Z</time></trkpt><trkpt lat="45.5579943" lon="11.9112737"><ele>21.5</ele><time>2026-05-02T12:39:28.653Z</time></trkpt><trkpt lat="45.5580206" lon="11.9113815"><ele>21.333333333333332</ele><time>2026-05-02T12:39:30.661Z</time></trkpt><trkpt lat="45.5580479" lon="11.9115057"><ele>21.166666666666668</ele><time>2026-05-02T12:39:32.653Z</time></trkpt><trkpt lat="45.5580742" lon="11.9116338"><ele>21.0</ele><time>2026-05-02T12:39:34.659Z</time></trkpt><trkpt lat="45.5581006" lon="11.911771"><ele>20.6</ele><time>2026-05-02T12:39:36.665Z</time></trkpt><trkpt lat="45.5581206" lon="11.9119054"><ele>20.200000000000003</ele><time>2026-05-02T12:39:38.659Z</time></trkpt><trkpt lat="45.5581457" lon="11.9120273"><ele>19.799999999999997</ele><time>2026-05-02T12:39:40.66Z</time></trkpt><trkpt lat="45.5581713" lon="11.9121569"><ele>19.4</ele><time>2026-05-02T12:39:42.66Z</time></trkpt><trkpt lat="45.5582054" lon="11.9122878"><ele>19.0</ele><time>2026-05-02T12:39:44.658Z</time></trkpt><trkpt lat="45.5582366" lon="11.9124111"><ele>19.0</ele><time>2026-05-02T12:39:46.639Z</time></trkpt><trkpt lat="45.5582545" lon="11.9125335"><ele>19.0</ele><time>2026-05-02T12:39:48.654Z</time></trkpt><trkpt lat="45.558275" lon="11.9126629"><ele>19.0</ele><time>2026-05-02T12:39:50.663Z</time></trkpt><trkpt lat="45.5583103" lon="11.9128121"><ele>19.0</ele><time>2026-05-02T12:39:52.657Z</time></trkpt><trkpt lat="45.5583397" lon="11.9129614"><ele>19.0</ele><time>2026-05-02T12:39:54.655Z</time></trkpt><trkpt lat="45.5583693" lon="11.9131183"><ele>19.2</ele><time>2026-05-02T12:39:56.656Z</time></trkpt><trkpt lat="45.558406" lon="11.9132608"><ele>19.4</ele><time>2026-05-02T12:39:58.663Z</time></trkpt><trkpt lat="45.5584443" lon="11.9134024"><ele>19.6</ele><time>2026-05-02T12:40:00.648Z</time></trkpt><trkpt lat="45.5584671" lon="11.9135399"><ele>19.8</ele><time>2026-05-02T12:40:02.659Z</time></trkpt><trkpt lat="45.5584978" lon="11.9136749"><ele>20.0</ele><time>2026-05-02T12:40:04.666Z</time></trkpt><trkpt lat="45.5585258" lon="11.9138195"><ele>20.0</ele><time>2026-05-02T12:40:06.659Z</time></trkpt><trkpt lat="45.5585531" lon="11.9139634"><ele>20.0</ele><time>2026-05-02T12:40:08.656Z</time></trkpt><trkpt lat="45.5585775" lon="11.9141038"><ele>20.0</ele><time>2026-05-02T12:40:10.654Z</time></trkpt><trkpt lat="45.5586065" lon="11.9142373"><ele>20.0</ele><time>2026-05-02T12:40:12.659Z</time></trkpt><trkpt lat="45.5586274" lon="11.9143663"><ele>20.0</ele><time>2026-05-02T12:40:14.657Z</time></trkpt><trkpt lat="45.5586578" lon="11.9144866"><ele>20.0</ele><time>2026-05-02T12:40:16.659Z</time></trkpt><trkpt lat="45.5586859" lon="11.914613"><ele>20.0</ele><time>2026-05-02T12:40:18.658Z</time></trkpt><trkpt lat="45.558717" lon="11.9147277"><ele>20.0</ele><time>2026-05-02T12:40:20.657Z</time></trkpt><trkpt lat="45.5587346" lon="11.9148372"><ele>20.0</ele><time>2026-05-02T12:40:22.646Z</time></trkpt><trkpt lat="45.5587671" lon="11.9149395"><ele>20.0</ele><time>2026-05-02T12:40:24.657Z</time></trkpt><trkpt lat="45.558789" lon="11.9150585"><ele>20.0</ele><time>2026-05-02T12:40:26.648Z</time></trkpt><trkpt lat="45.558816" lon="11.915189"><ele>20.2</ele><time>2026-05-02T12:40:28.657Z</time></trkpt><trkpt lat="45.558839" lon="11.9153293"><ele>20.4</ele><time>2026-05-02T12:40:30.655Z</time></trkpt><trkpt lat="45.5588647" lon="11.9154661"><ele>20.6</ele><time>2026-05-02T12:40:32.655Z</time></trkpt><trkpt lat="45.5588945" lon="11.9156187"><ele>20.8</ele><time>2026-05-02T12:40:34.653Z</time></trkpt><trkpt lat="45.5589283" lon="11.9157771"><ele>21.0</ele><time>2026-05-02T12:40:36.66Z</time></trkpt><trkpt lat="45.5589524" lon="11.9159138"><ele>21.0</ele><time>2026-05-02T12:40:38.657Z</time></trkpt><trkpt lat="45.5589791" lon="11.9160245"><ele>21.0</ele><time>2026-05-02T12:40:40.66Z</time></trkpt><trkpt lat="45.559003" lon="11.9161201"><ele>21.0</ele><time>2026-05-02T12:40:42.652Z</time></trkpt><trkpt lat="45.559021" lon="11.9162117"><ele>21.0</ele><time>2026-05-02T12:40:44.654Z</time></trkpt><trkpt lat="45.559039" lon="11.9163034"><ele>21.0</ele><time>2026-05-02T12:40:46.659Z</time></trkpt><trkpt lat="45.5590937" lon="11.916412"><ele>21.0</ele><time>2026-05-02T12:40:49.656Z</time></trkpt><trkpt lat="45.5591165" lon="11.9165123"><ele>21.0</ele><time>2026-05-02T12:40:51.65Z</time></trkpt><trkpt lat="45.5591457" lon="11.9166423"><ele>21.0</ele><time>2026-05-02T12:40:53.656Z</time></trkpt><trkpt lat="45.5591662" lon="11.9167609"><ele>21.0</ele><time>2026-05-02T12:40:55.657Z</time></trkpt><trkpt lat="45.5591849" lon="11.9168748"><ele>21.0</ele><time>2026-05-02T12:40:57.654Z</time></trkpt><trkpt lat="45.5592077" lon="11.9169744"><ele>21.0</ele><time>2026-05-02T12:40:59.654Z</time></trkpt><trkpt lat="45.5592262" lon="11.9170796"><ele>21.0</ele><time>2026-05-02T12:41:01.648Z</time></trkpt><trkpt lat="45.5592431" lon="11.9171766"><ele>20.833333333333332</ele><time>2026-05-02T12:41:03.655Z</time></trkpt><trkpt lat="45.5592621" lon="11.9172692"><ele>20.666666666666668</ele><time>2026-05-02T12:41:05.655Z</time></trkpt><trkpt lat="45.5592925" lon="11.9173897"><ele>20.5</ele><time>2026-05-02T12:41:08.674Z</time></trkpt><trkpt lat="45.5593282" lon="11.9175007"><ele>20.333333333333336</ele><time>2026-05-02T12:41:11.661Z</time></trkpt><trkpt lat="45.5593476" lon="11.9176097"><ele>20.166666666666668</ele><time>2026-05-02T12:41:14.656Z</time></trkpt><trkpt lat="45.5593756" lon="11.9177257"><ele>20.0</ele><time>2026-05-02T12:41:17.64Z</time></trkpt><trkpt lat="45.5593997" lon="11.9178146"><ele>20.0</ele><time>2026-05-02T12:41:19.657Z</time></trkpt><trkpt lat="45.5594229" lon="11.9179255"><ele>20.0</ele><time>2026-05-02T12:41:21.65Z</time></trkpt><trkpt lat="45.5594466" lon="11.9180568"><ele>20.0</ele><time>2026-05-02T12:41:23.65Z</time></trkpt><trkpt lat="45.5594657" lon="11.9182059"><ele>20.0</ele><time>2026-05-02T12:41:25.661Z</time></trkpt><trkpt lat="45.5594839" lon="11.918357"><ele>20.0</ele><time>2026-05-02T12:41:27.655Z</time></trkpt><trkpt lat="45.55951" lon="11.9185061"><ele>20.0</ele><time>2026-05-02T12:41:29.654Z</time></trkpt><trkpt lat="45.5595342" lon="11.9186458"><ele>20.0</ele><time>2026-05-02T12:41:31.651Z</time></trkpt><trkpt lat="45.5595559" lon="11.9187698"><ele>20.0</ele><time>2026-05-02T12:41:33.658Z</time></trkpt><trkpt lat="45.5595773" lon="11.9188933"><ele>20.0</ele><time>2026-05-02T12:41:35.659Z</time></trkpt><trkpt lat="45.5595982" lon="11.9190158"><ele>20.0</ele><time>2026-05-02T12:41:37.66Z</time></trkpt><trkpt lat="45.5596153" lon="11.9191347"><ele>19.833333333333336</ele><time>2026-05-02T12:41:39.654Z</time></trkpt><trkpt lat="45.5596351" lon="11.9192345"><ele>19.666666666666668</ele><time>2026-05-02T12:41:41.656Z</time></trkpt><trkpt lat="45.5596532" lon="11.9193289"><ele>19.5</ele><time>2026-05-02T12:41:43.654Z</time></trkpt><trkpt lat="45.5596736" lon="11.9194289"><ele>19.333333333333332</ele><time>2026-05-02T12:41:45.664Z</time></trkpt><trkpt lat="45.5596935" lon="11.9195288"><ele>19.166666666666664</ele><time>2026-05-02T12:41:47.655Z</time></trkpt><trkpt lat="45.559728" lon="11.919635"><ele>19.0</ele><time>2026-05-02T12:41:49.66Z</time></trkpt><trkpt lat="45.5597668" lon="11.9197707"><ele>19.0</ele><time>2026-05-02T12:41:51.659Z</time></trkpt><trkpt lat="45.5598016" lon="11.9199099"><ele>19.0</ele><time>2026-05-02T12:41:53.651Z</time></trkpt><trkpt lat="45.5598428" lon="11.9200634"><ele>19.0</ele><time>2026-05-02T12:41:55.655Z</time></trkpt><trkpt lat="45.5598883" lon="11.9202197"><ele>19.0</ele><time>2026-05-02T12:41:57.658Z</time></trkpt><trkpt lat="45.5599289" lon="11.9203682"><ele>19.0</ele><time>2026-05-02T12:41:59.653Z</time></trkpt><trkpt lat="45.5599571" lon="11.9205145"><ele>19.4</ele><time>2026-05-02T12:42:01.639Z</time></trkpt><trkpt lat="45.5599902" lon="11.9206541"><ele>19.799999999999997</ele><time>2026-05-02T12:42:03.659Z</time></trkpt><trkpt lat="45.5600087" lon="11.9207771"><ele>20.200000000000003</ele><time>2026-05-02T12:42:05.652Z</time></trkpt><trkpt lat="45.5600342" lon="11.9209118"><ele>20.6</ele><time>2026-05-02T12:42:07.659Z</time></trkpt><trkpt lat="45.5600625" lon="11.921048"><ele>21.0</ele><time>2026-05-02T12:42:09.658Z</time></trkpt><trkpt lat="45.5600949" lon="11.9211928"><ele>21.0</ele><time>2026-05-02T12:42:11.659Z</time></trkpt><trkpt lat="45.5601286" lon="11.9213303"><ele>21.0</ele><time>2026-05-02T12:42:13.652Z</time></trkpt><trkpt lat="45.5601618" lon="11.9214704"><ele>21.0</ele><time>2026-05-02T12:42:15.659Z</time></trkpt><trkpt lat="45.5602025" lon="11.9216121"><ele>21.0</ele><time>2026-05-02T12:42:17.657Z</time></trkpt><trkpt lat="45.5602465" lon="11.9217525"><ele>21.0</ele><time>2026-05-02T12:42:19.658Z</time></trkpt><trkpt lat="45.5602879" lon="11.921889"><ele>21.0</ele><time>2026-05-02T12:42:21.662Z</time></trkpt><trkpt lat="45.5603329" lon="11.9220198"><ele>21.0</ele><time>2026-05-02T12:42:23.657Z</time></trkpt><trkpt lat="45.5603766" lon="11.9221435"><ele>21.0</ele><time>2026-05-02T12:42:25.652Z</time></trkpt><trkpt lat="45.5604039" lon="11.9222783"><ele>21.0</ele><time>2026-05-02T12:42:27.656Z</time></trkpt><trkpt lat="45.5604524" lon="11.9224169"><ele>21.0</ele><time>2026-05-02T12:42:29.664Z</time></trkpt><trkpt lat="45.560498" lon="11.9225504"><ele>21.0</ele><time>2026-05-02T12:42:31.666Z</time></trkpt><trkpt lat="45.5605524" lon="11.9226865"><ele>21.0</ele><time>2026-05-02T12:42:33.652Z</time></trkpt><trkpt lat="45.5606041" lon="11.9228191"><ele>21.0</ele><time>2026-05-02T12:42:35.66Z</time></trkpt><trkpt lat="45.560654" lon="11.9229453"><ele>21.0</ele><time>2026-05-02T12:42:37.66Z</time></trkpt><trkpt lat="45.5607062" lon="11.9230512"><ele>21.0</ele><time>2026-05-02T12:42:39.665Z</time></trkpt><trkpt lat="45.5607574" lon="11.9231487"><ele>21.0</ele><time>2026-05-02T12:42:41.653Z</time></trkpt><trkpt lat="45.5608073" lon="11.9232405"><ele>21.0</ele><time>2026-05-02T12:42:43.671Z</time></trkpt><trkpt lat="45.560852" lon="11.9233283"><ele>21.0</ele><time>2026-05-02T12:42:45.656Z</time></trkpt><trkpt lat="45.5608932" lon="11.9234124"><ele>21.0</ele><time>2026-05-02T12:42:47.659Z</time></trkpt><trkpt lat="45.5609407" lon="11.9234919"><ele>21.0</ele><time>2026-05-02T12:42:49.654Z</time></trkpt><trkpt lat="45.5609829" lon="11.9235743"><ele>21.0</ele><time>2026-05-02T12:42:51.649Z</time></trkpt><trkpt lat="45.5610286" lon="11.9236604"><ele>20.666666666666668</ele><time>2026-05-02T12:42:53.658Z</time></trkpt><trkpt lat="45.5610745" lon="11.9237349"><ele>20.333333333333332</ele><time>2026-05-02T12:42:55.655Z</time></trkpt><trkpt lat="45.5611431" lon="11.923777"><ele>20.0</ele><time>2026-05-02T12:42:57.659Z</time></trkpt><trkpt lat="45.5612147" lon="11.9238179"><ele>19.666666666666664</ele><time>2026-05-02T12:42:59.667Z</time></trkpt><trkpt lat="45.5612861" lon="11.923838"><ele>19.333333333333332</ele><time>2026-05-02T12:43:01.658Z</time></trkpt><trkpt lat="45.5613503" lon="11.9238672"><ele>19.0</ele><time>2026-05-02T12:43:03.657Z</time></trkpt><trkpt lat="45.5614356" lon="11.9239183"><ele>19.57142857142857</ele><time>2026-05-02T12:43:06.66Z</time></trkpt><trkpt lat="45.5615207" lon="11.9239535"><ele>20.142857142857146</ele><time>2026-05-02T12:43:09.64Z</time></trkpt><trkpt lat="45.5615997" lon="11.9239755"><ele>20.714285714285715</ele><time>2026-05-02T12:43:12.652Z</time></trkpt><trkpt lat="45.5616694" lon="11.9239979"><ele>21.285714285714285</ele><time>2026-05-02T12:43:15.652Z</time></trkpt><trkpt lat="45.5617335" lon="11.9239982"><ele>21.857142857142854</ele><time>2026-05-02T12:43:18.656Z</time></trkpt><trkpt lat="45.5616705" lon="11.9239986"><ele>22.42857142857143</ele><time>2026-05-02T12:45:03.657Z</time></trkpt><trkpt lat="45.5615935" lon="11.9239737"><ele>23.0</ele><time>2026-05-02T12:45:07.647Z</time></trkpt><trkpt lat="45.5615106" lon="11.9239504"><ele>23.0</ele><time>2026-05-02T12:45:10.654Z</time></trkpt><trkpt lat="45.5614428" lon="11.9239205"><ele>23.0</ele><time>2026-05-02T12:45:12.654Z</time></trkpt><trkpt lat="45.561362" lon="11.9238624"><ele>23.0</ele><time>2026-05-02T12:45:14.661Z</time></trkpt><trkpt lat="45.5612789" lon="11.9238099"><ele>23.0</ele><time>2026-05-02T12:45:16.654Z</time></trkpt><trkpt lat="45.5612093" lon="11.923781"><ele>23.0</ele><time>2026-05-02T12:45:18.66Z</time></trkpt><trkpt lat="45.5611466" lon="11.9237595"><ele>23.0</ele><time>2026-05-02T12:45:20.642Z</time></trkpt><trkpt lat="45.5610817" lon="11.9237432"><ele>22.2</ele><time>2026-05-02T12:45:22.652Z</time></trkpt><trkpt lat="45.561012" lon="11.9237219"><ele>21.4</ele><time>2026-05-02T12:45:24.658Z</time></trkpt><trkpt lat="45.5609299" lon="11.9236995"><ele>20.599999999999998</ele><time>2026-05-02T12:45:26.65Z</time></trkpt><trkpt lat="45.560847" lon="11.923656"><ele>19.799999999999997</ele><time>2026-05-02T12:45:28.648Z</time></trkpt><trkpt lat="45.5607475" lon="11.9236193"><ele>19.0</ele><time>2026-05-02T12:45:30.657Z</time></trkpt><trkpt lat="45.5606457" lon="11.9235727"><ele>19.0</ele><time>2026-05-02T12:45:32.656Z</time></trkpt><trkpt lat="45.5605382" lon="11.9235291"><ele>19.0</ele><time>2026-05-02T12:45:34.655Z</time></trkpt><trkpt lat="45.5604358" lon="11.923489"><ele>19.0</ele><time>2026-05-02T12:45:36.657Z</time></trkpt><trkpt lat="45.560331" lon="11.923443"><ele>19.0</ele><time>2026-05-02T12:45:38.647Z</time></trkpt><trkpt lat="45.5602338" lon="11.9234014"><ele>19.0</ele><time>2026-05-02T12:45:40.66Z</time></trkpt><trkpt lat="45.560137" lon="11.9233545"><ele>19.0</ele><time>2026-05-02T12:45:42.653Z</time></trkpt><trkpt lat="45.5600425" lon="11.923306"><ele>19.0</ele><time>2026-05-02T12:45:44.645Z</time></trkpt><trkpt lat="45.559949" lon="11.9232667"><ele>19.0</ele><time>2026-05-02T12:45:46.655Z</time></trkpt><trkpt lat="45.5598533" lon="11.9232226"><ele>19.0</ele><time>2026-05-02T12:45:48.658Z</time></trkpt><trkpt lat="45.5597547" lon="11.9231772"><ele>19.0</ele><time>2026-05-02T12:45:50.664Z</time></trkpt><trkpt lat="45.5596549" lon="11.9231366"><ele>19.0</ele><time>2026-05-02T12:45:52.644Z</time></trkpt><trkpt lat="45.5595569" lon="11.923096"><ele>19.0</ele><time>2026-05-02T12:45:54.656Z</time></trkpt><trkpt lat="45.5594623" lon="11.9230543"><ele>19.0</ele><time>2026-05-02T12:45:56.652Z</time></trkpt><trkpt lat="45.5593615" lon="11.923001"><ele>19.0</ele><time>2026-05-02T12:45:58.657Z</time></trkpt><trkpt lat="45.5592552" lon="11.9229551"><ele>19.0</ele><time>2026-05-02T12:46:00.659Z</time></trkpt><trkpt lat="45.5591482" lon="11.9229108"><ele>19.0</ele><time>2026-05-02T12:46:02.654Z</time></trkpt><trkpt lat="45.5590451" lon="11.9228657"><ele>19.0</ele><time>2026-05-02T12:46:04.657Z</time></trkpt><trkpt lat="45.5589372" lon="11.9228266"><ele>19.0</ele><time>2026-05-02T12:46:06.653Z</time></trkpt><trkpt lat="45.5588429" lon="11.9227894"><ele>19.0</ele><time>2026-05-02T12:46:08.654Z</time></trkpt><trkpt lat="45.558755" lon="11.9227562"><ele>19.0</ele><time>2026-05-02T12:46:10.66Z</time></trkpt><trkpt lat="45.5586764" lon="11.9227278"><ele>19.0</ele><time>2026-05-02T12:46:12.658Z</time></trkpt><trkpt lat="45.5586001" lon="11.9227011"><ele>19.0</ele><time>2026-05-02T12:46:14.655Z</time></trkpt><trkpt lat="45.558523" lon="11.9226716"><ele>19.0</ele><time>2026-05-02T12:46:16.655Z</time></trkpt><trkpt lat="45.5584292" lon="11.9226453"><ele>19.0</ele><time>2026-05-02T12:46:18.655Z</time></trkpt><trkpt lat="45.5583254" lon="11.9226156"><ele>19.0</ele><time>2026-05-02T12:46:20.656Z</time></trkpt><trkpt lat="45.5582162" lon="11.9225892"><ele>19.0</ele><time>2026-05-02T12:46:22.654Z</time></trkpt><trkpt lat="45.5581146" lon="11.9225634"><ele>19.0</ele><time>2026-05-02T12:46:24.651Z</time></trkpt><trkpt lat="45.5580133" lon="11.9225425"><ele>19.0</ele><time>2026-05-02T12:46:26.657Z</time></trkpt><trkpt lat="45.5579277" lon="11.9225872"><ele>19.0</ele><time>2026-05-02T12:46:28.656Z</time></trkpt><trkpt lat="45.5578572" lon="11.9226811"><ele>19.0</ele><time>2026-05-02T12:46:30.657Z</time></trkpt><trkpt lat="45.5578214" lon="11.9228025"><ele>19.0</ele><time>2026-05-02T12:46:32.654Z</time></trkpt><trkpt lat="45.557825" lon="11.9229486"><ele>19.0</ele><time>2026-05-02T12:46:34.65Z</time></trkpt><trkpt lat="45.5578467" lon="11.9230756"><ele>19.0</ele><time>2026-05-02T12:46:36.654Z</time></trkpt><trkpt lat="45.5578942" lon="11.9231758"><ele>19.0</ele><time>2026-05-02T12:46:38.66Z</time></trkpt><trkpt lat="45.5579572" lon="11.9232387"><ele>19.0</ele><time>2026-05-02T12:46:40.664Z</time></trkpt><trkpt lat="45.5580284" lon="11.923247"><ele>19.0</ele><time>2026-05-02T12:46:42.655Z</time></trkpt><trkpt lat="45.5581202" lon="11.923258"><ele>19.0</ele><time>2026-05-02T12:46:44.656Z</time></trkpt><trkpt lat="45.5582086" lon="11.9232528"><ele>19.0</ele><time>2026-05-02T12:46:46.656Z</time></trkpt><trkpt lat="45.5583138" lon="11.9232589"><ele>19.0</ele><time>2026-05-02T12:46:48.652Z</time></trkpt><trkpt lat="45.5584255" lon="11.9232702"><ele>19.0</ele><time>2026-05-02T12:46:50.652Z</time></trkpt><trkpt lat="45.558532" lon="11.9232907"><ele>19.0</ele><time>2026-05-02T12:46:52.656Z</time></trkpt><trkpt lat="45.5586362" lon="11.923319"><ele>19.0</ele><time>2026-05-02T12:46:54.651Z</time></trkpt><trkpt lat="45.5587306" lon="11.9233381"><ele>19.0</ele><time>2026-05-02T12:46:56.656Z</time></trkpt><trkpt lat="45.5588159" lon="11.9233561"><ele>19.0</ele><time>2026-05-02T12:46:58.654Z</time></trkpt><trkpt lat="45.5588995" lon="11.9233761"><ele>19.0</ele><time>2026-05-02T12:47:00.639Z</time></trkpt><trkpt lat="45.5589679" lon="11.9233981"><ele>19.0</ele><time>2026-05-02T12:47:02.659Z</time></trkpt><trkpt lat="45.5590418" lon="11.9234079"><ele>19.0</ele><time>2026-05-02T12:47:04.66Z</time></trkpt><trkpt lat="45.559129" lon="11.9234381"><ele>19.2</ele><time>2026-05-02T12:47:06.656Z</time></trkpt><trkpt lat="45.5592262" lon="11.9234698"><ele>19.4</ele><time>2026-05-02T12:47:08.662Z</time></trkpt><trkpt lat="45.5593275" lon="11.9235086"><ele>19.6</ele><time>2026-05-02T12:47:10.653Z</time></trkpt><trkpt lat="45.5594294" lon="11.9235476"><ele>19.8</ele><time>2026-05-02T12:47:12.658Z</time></trkpt><trkpt lat="45.5595312" lon="11.9235884"><ele>20.0</ele><time>2026-05-02T12:47:14.642Z</time></trkpt><trkpt lat="45.5596188" lon="11.923635"><ele>20.0</ele><time>2026-05-02T12:47:16.654Z</time></trkpt><trkpt lat="45.5597147" lon="11.9236666"><ele>20.0</ele><time>2026-05-02T12:47:18.652Z</time></trkpt><trkpt lat="45.5598156" lon="11.9237094"><ele>20.0</ele><time>2026-05-02T12:47:20.649Z</time></trkpt><trkpt lat="45.5599182" lon="11.9237532"><ele>20.0</ele><time>2026-05-02T12:47:22.649Z</time></trkpt><trkpt lat="45.5600273" lon="11.9237926"><ele>20.0</ele><time>2026-05-02T12:47:24.648Z</time></trkpt><trkpt lat="45.5601306" lon="11.9238347"><ele>20.0</ele><time>2026-05-02T12:47:26.659Z</time></trkpt><trkpt lat="45.5602364" lon="11.9238802"><ele>20.0</ele><time>2026-05-02T12:47:28.66Z</time></trkpt><trkpt lat="45.5603426" lon="11.9239246"><ele>20.0</ele><time>2026-05-02T12:47:30.66Z</time></trkpt><trkpt lat="45.560449" lon="11.9239639"><ele>20.0</ele><time>2026-05-02T12:47:32.657Z</time></trkpt><trkpt lat="45.5605549" lon="11.9240123"><ele>20.0</ele><time>2026-05-02T12:47:34.658Z</time></trkpt><trkpt lat="45.5606611" lon="11.9240406"><ele>19.8</ele><time>2026-05-02T12:47:36.655Z</time></trkpt><trkpt lat="45.560758" lon="11.9240805"><ele>19.6</ele><time>2026-05-02T12:47:38.657Z</time></trkpt><trkpt lat="45.5608533" lon="11.9241158"><ele>19.4</ele><time>2026-05-02T12:47:40.664Z</time></trkpt><trkpt lat="45.5609478" lon="11.9241474"><ele>19.2</ele><time>2026-05-02T12:47:42.657Z</time></trkpt><trkpt lat="45.5610427" lon="11.9241836"><ele>19.0</ele><time>2026-05-02T12:47:44.659Z</time></trkpt><trkpt lat="45.5611487" lon="11.9242198"><ele>19.4</ele><time>2026-05-02T12:47:46.66Z</time></trkpt><trkpt lat="45.5612593" lon="11.9242556"><ele>19.799999999999997</ele><time>2026-05-02T12:47:48.657Z</time></trkpt><trkpt lat="45.5613618" lon="11.9242908"><ele>20.200000000000003</ele><time>2026-05-02T12:47:50.646Z</time></trkpt><trkpt lat="45.5614647" lon="11.9243273"><ele>20.6</ele><time>2026-05-02T12:47:52.657Z</time></trkpt><trkpt lat="45.5615601" lon="11.9243605"><ele>21.0</ele><time>2026-05-02T12:47:54.657Z</time></trkpt><trkpt lat="45.5616432" lon="11.9244183"><ele>21.0</ele><time>2026-05-02T12:47:56.661Z</time></trkpt><trkpt lat="45.5617147" lon="11.9245047"><ele>21.0</ele><time>2026-05-02T12:47:58.659Z</time></trkpt><trkpt lat="45.561766" lon="11.9245803"><ele>21.0</ele><time>2026-05-02T12:48:00.657Z</time></trkpt><trkpt lat="45.5618288" lon="11.9246537"><ele>21.0</ele><time>2026-05-02T12:48:02.65Z</time></trkpt><trkpt lat="45.5618921" lon="11.9247261"><ele>21.0</ele><time>2026-05-02T12:48:04.64Z</time></trkpt><trkpt lat="45.5619779" lon="11.9247979"><ele>21.0</ele><time>2026-05-02T12:48:06.648Z</time></trkpt><trkpt lat="45.5620721" lon="11.9248172"><ele>21.5</ele><time>2026-05-02T12:48:08.66Z</time></trkpt><trkpt lat="45.5621643" lon="11.9247842"><ele>22.0</ele><time>2026-05-02T12:48:10.658Z</time></trkpt><trkpt lat="45.5622403" lon="11.9247725"><ele>22.5</ele><time>2026-05-02T12:48:12.655Z</time></trkpt><trkpt lat="45.5623211" lon="11.9248067"><ele>23.0</ele><time>2026-05-02T12:48:14.651Z</time></trkpt><trkpt lat="45.5623921" lon="11.9248625"><ele>23.5</ele><time>2026-05-02T12:48:16.661Z</time></trkpt><trkpt lat="45.562462" lon="11.9249269"><ele>24.0</ele><time>2026-05-02T12:48:18.654Z</time></trkpt><trkpt lat="45.5625175" lon="11.9249973"><ele>24.0</ele><time>2026-05-02T12:48:20.657Z</time></trkpt><trkpt lat="45.5625765" lon="11.9250552"><ele>24.0</ele><time>2026-05-02T12:48:22.656Z</time></trkpt><trkpt lat="45.562641" lon="11.9250915"><ele>24.0</ele><time>2026-05-02T12:48:24.657Z</time></trkpt><trkpt lat="45.5627215" lon="11.9251477"><ele>24.0</ele><time>2026-05-02T12:48:27.652Z</time></trkpt><trkpt lat="45.5627926" lon="11.9252123"><ele>24.0</ele><time>2026-05-02T12:48:30.653Z</time></trkpt><trkpt lat="45.5628644" lon="11.9252697"><ele>24.0</ele><time>2026-05-02T12:48:33.663Z</time></trkpt><trkpt lat="45.5629337" lon="11.9253338"><ele>23.666666666666668</ele><time>2026-05-02T12:48:36.659Z</time></trkpt><trkpt lat="45.5629894" lon="11.9253789"><ele>23.333333333333332</ele><time>2026-05-02T12:48:38.66Z</time></trkpt><trkpt lat="45.5630578" lon="11.9254388"><ele>23.0</ele><time>2026-05-02T12:48:40.655Z</time></trkpt><trkpt lat="45.5631202" lon="11.9255133"><ele>22.666666666666664</ele><time>2026-05-02T12:48:42.658Z</time></trkpt><trkpt lat="45.5631769" lon="11.9255847"><ele>22.333333333333332</ele><time>2026-05-02T12:48:44.661Z</time></trkpt><trkpt lat="45.5632648" lon="11.9256336"><ele>22.0</ele><time>2026-05-02T12:48:47.638Z</time></trkpt><trkpt lat="45.5633264" lon="11.9256842"><ele>22.0</ele><time>2026-05-02T12:48:49.656Z</time></trkpt><trkpt lat="45.563405" lon="11.9257178"><ele>22.0</ele><time>2026-05-02T12:48:51.651Z</time></trkpt><trkpt lat="45.5634986" lon="11.9257641"><ele>22.0</ele><time>2026-05-02T12:48:53.657Z</time></trkpt><trkpt lat="45.5636067" lon="11.925812"><ele>22.0</ele><time>2026-05-02T12:48:55.656Z</time></trkpt><trkpt lat="45.5637143" lon="11.9258557"><ele>22.0</ele><time>2026-05-02T12:48:57.653Z</time></trkpt><trkpt lat="45.5638196" lon="11.9258939"><ele>21.8</ele><time>2026-05-02T12:48:59.65Z</time></trkpt><trkpt lat="45.5639221" lon="11.9259216"><ele>21.6</ele><time>2026-05-02T12:49:01.648Z</time></trkpt><trkpt lat="45.5640253" lon="11.9259527"><ele>21.400000000000002</ele><time>2026-05-02T12:49:03.642Z</time></trkpt><trkpt lat="45.5641094" lon="11.925981"><ele>21.200000000000003</ele><time>2026-05-02T12:49:05.647Z</time></trkpt><trkpt lat="45.5641976" lon="11.9260142"><ele>21.0</ele><time>2026-05-02T12:49:07.651Z</time></trkpt><trkpt lat="45.5642771" lon="11.9260502"><ele>21.0</ele><time>2026-05-02T12:49:09.647Z</time></trkpt><trkpt lat="45.5643675" lon="11.9260669"><ele>21.0</ele><time>2026-05-02T12:49:11.658Z</time></trkpt><trkpt lat="45.5644539" lon="11.9261116"><ele>21.0</ele><time>2026-05-02T12:49:13.655Z</time></trkpt><trkpt lat="45.5645532" lon="11.9261539"><ele>21.0</ele><time>2026-05-02T12:49:15.647Z</time></trkpt><trkpt lat="45.5646673" lon="11.9262131"><ele>21.0</ele><time>2026-05-02T12:49:17.654Z</time></trkpt><trkpt lat="45.5647735" lon="11.9262498"><ele>21.0</ele><time>2026-05-02T12:49:19.639Z</time></trkpt><trkpt lat="45.5648797" lon="11.9262789"><ele>21.0</ele><time>2026-05-02T12:49:21.655Z</time></trkpt><trkpt lat="45.5649785" lon="11.9263191"><ele>21.0</ele><time>2026-05-02T12:49:23.655Z</time></trkpt><trkpt lat="45.5650707" lon="11.9263522"><ele>21.0</ele><time>2026-05-02T12:49:25.652Z</time></trkpt><trkpt lat="45.5651597" lon="11.9263873"><ele>21.0</ele><time>2026-05-02T12:49:27.652Z</time></trkpt><trkpt lat="45.5652461" lon="11.9264127"><ele>21.0</ele><time>2026-05-02T12:49:29.629Z</time></trkpt><trkpt lat="45.5653321" lon="11.9264331"><ele>21.0</ele><time>2026-05-02T12:49:31.653Z</time></trkpt><trkpt lat="45.5654209" lon="11.9264592"><ele>21.0</ele><time>2026-05-02T12:49:33.663Z</time></trkpt><trkpt lat="45.5655149" lon="11.9264773"><ele>21.0</ele><time>2026-05-02T12:49:35.661Z</time></trkpt><trkpt lat="45.5655864" lon="11.9264965"><ele>21.0</ele><time>2026-05-02T12:49:37.655Z</time></trkpt><trkpt lat="45.5656626" lon="11.9265104"><ele>21.0</ele><time>2026-05-02T12:49:39.669Z</time></trkpt><trkpt lat="45.5657313" lon="11.926532"><ele>21.0</ele><time>2026-05-02T12:49:41.66Z</time></trkpt><trkpt lat="45.5657995" lon="11.9265478"><ele>21.0</ele><time>2026-05-02T12:49:43.656Z</time></trkpt><trkpt lat="45.565872" lon="11.9265677"><ele>21.0</ele><time>2026-05-02T12:49:45.637Z</time></trkpt><trkpt lat="45.5659413" lon="11.926601"><ele>21.0</ele><time>2026-05-02T12:49:47.655Z</time></trkpt><trkpt lat="45.5660109" lon="11.9266329"><ele>21.0</ele><time>2026-05-02T12:49:49.657Z</time></trkpt><trkpt lat="45.566086" lon="11.9266676"><ele>21.0</ele><time>2026-05-02T12:49:51.642Z</time></trkpt><trkpt lat="45.5661699" lon="11.926703"><ele>21.0</ele><time>2026-05-02T12:49:53.658Z</time></trkpt><trkpt lat="45.566252" lon="11.9267311"><ele>21.0</ele><time>2026-05-02T12:49:55.641Z</time></trkpt><trkpt lat="45.5663354" lon="11.9267617"><ele>21.0</ele><time>2026-05-02T12:49:57.65Z</time></trkpt><trkpt lat="45.5664153" lon="11.9267929"><ele>21.0</ele><time>2026-05-02T12:49:59.658Z</time></trkpt><trkpt lat="45.566494" lon="11.9268129"><ele>21.0</ele><time>2026-05-02T12:50:01.65Z</time></trkpt><trkpt lat="45.5665648" lon="11.9268382"><ele>21.0</ele><time>2026-05-02T12:50:03.656Z</time></trkpt><trkpt lat="45.566635" lon="11.926862"><ele>21.0</ele><time>2026-05-02T12:50:05.666Z</time></trkpt><trkpt lat="45.5667045" lon="11.9268845"><ele>21.0</ele><time>2026-05-02T12:50:07.64Z</time></trkpt><trkpt lat="45.5667698" lon="11.9269074"><ele>21.0</ele><time>2026-05-02T12:50:09.647Z</time></trkpt><trkpt lat="45.5668324" lon="11.9269383"><ele>21.0</ele><time>2026-05-02T12:50:11.667Z</time></trkpt><trkpt lat="45.5668951" lon="11.9269616"><ele>21.0</ele><time>2026-05-02T12:50:13.656Z</time></trkpt><trkpt lat="45.5669561" lon="11.9269896"><ele>21.0</ele><time>2026-05-02T12:50:15.657Z</time></trkpt><trkpt lat="45.5670211" lon="11.9270143"><ele>21.0</ele><time>2026-05-02T12:50:19.656Z</time></trkpt><trkpt lat="45.5670991" lon="11.9270339"><ele>21.166666666666668</ele><time>2026-05-02T12:50:23.656Z</time></trkpt><trkpt lat="45.5671957" lon="11.9270634"><ele>21.333333333333332</ele><time>2026-05-02T12:50:26.65Z</time></trkpt><trkpt lat="45.5672755" lon="11.9271103"><ele>21.5</ele><time>2026-05-02T12:50:28.642Z</time></trkpt><trkpt lat="45.567359" lon="11.9271417"><ele>21.666666666666664</ele><time>2026-05-02T12:50:30.657Z</time></trkpt><trkpt lat="45.5674365" lon="11.9271807"><ele>21.833333333333332</ele><time>2026-05-02T12:50:32.65Z</time></trkpt><trkpt lat="45.5675168" lon="11.9272101"><ele>22.0</ele><time>2026-05-02T12:50:34.657Z</time></trkpt><trkpt lat="45.5675875" lon="11.9272299"><ele>22.0</ele><time>2026-05-02T12:50:36.654Z</time></trkpt><trkpt lat="45.567668" lon="11.9272585"><ele>22.0</ele><time>2026-05-02T12:50:38.663Z</time></trkpt><trkpt lat="45.5677575" lon="11.9272923"><ele>22.0</ele><time>2026-05-02T12:50:40.656Z</time></trkpt><trkpt lat="45.5678493" lon="11.9273231"><ele>22.0</ele><time>2026-05-02T12:50:42.652Z</time></trkpt><trkpt lat="45.567932" lon="11.9273521"><ele>22.0</ele><time>2026-05-02T12:50:44.652Z</time></trkpt><trkpt lat="45.5680138" lon="11.9273837"><ele>22.0</ele><time>2026-05-02T12:50:46.657Z</time></trkpt><trkpt lat="45.5681047" lon="11.9274254"><ele>22.0</ele><time>2026-05-02T12:50:48.656Z</time></trkpt><trkpt lat="45.5681975" lon="11.9274621"><ele>22.0</ele><time>2026-05-02T12:50:50.659Z</time></trkpt><trkpt lat="45.5682914" lon="11.9274942"><ele>22.0</ele><time>2026-05-02T12:50:52.652Z</time></trkpt><trkpt lat="45.5683716" lon="11.9275397"><ele>22.0</ele><time>2026-05-02T12:50:54.655Z</time></trkpt><trkpt lat="45.5684606" lon="11.927573"><ele>22.0</ele><time>2026-05-02T12:50:56.649Z</time></trkpt><trkpt lat="45.5685403" lon="11.9276149"><ele>22.0</ele><time>2026-05-02T12:50:58.655Z</time></trkpt><trkpt lat="45.5686139" lon="11.9276392"><ele>22.0</ele><time>2026-05-02T12:51:00.651Z</time></trkpt><trkpt lat="45.5686888" lon="11.9276687"><ele>22.0</ele><time>2026-05-02T12:51:02.655Z</time></trkpt><trkpt lat="45.5687589" lon="11.9277034"><ele>22.0</ele><time>2026-05-02T12:51:04.657Z</time></trkpt><trkpt lat="45.5688253" lon="11.9277399"><ele>22.0</ele><time>2026-05-02T12:51:06.658Z</time></trkpt><trkpt lat="45.5688997" lon="11.9277743"><ele>22.0</ele><time>2026-05-02T12:51:08.653Z</time></trkpt><trkpt lat="45.5689822" lon="11.9278231"><ele>22.0</ele><time>2026-05-02T12:51:10.655Z</time></trkpt><trkpt lat="45.569073" lon="11.9278593"><ele>22.0</ele><time>2026-05-02T12:51:12.657Z</time></trkpt><trkpt lat="45.5691575" lon="11.9279099"><ele>22.0</ele><time>2026-05-02T12:51:14.654Z</time></trkpt><trkpt lat="45.5692453" lon="11.9279463"><ele>22.0</ele><time>2026-05-02T12:51:16.65Z</time></trkpt><trkpt lat="45.5693308" lon="11.9279817"><ele>22.0</ele><time>2026-05-02T12:51:18.659Z</time></trkpt><trkpt lat="45.5694081" lon="11.928004"><ele>22.0</ele><time>2026-05-02T12:51:20.66Z</time></trkpt><trkpt lat="45.5694863" lon="11.9280266"><ele>21.8</ele><time>2026-05-02T12:51:22.653Z</time></trkpt><trkpt lat="45.5695695" lon="11.9280662"><ele>21.6</ele><time>2026-05-02T12:51:24.654Z</time></trkpt><trkpt lat="45.5696587" lon="11.9280968"><ele>21.400000000000002</ele><time>2026-05-02T12:51:26.653Z</time></trkpt><trkpt lat="45.5697479" lon="11.9281401"><ele>21.200000000000003</ele><time>2026-05-02T12:51:28.662Z</time></trkpt><trkpt lat="45.5698339" lon="11.9281763"><ele>21.0</ele><time>2026-05-02T12:51:30.653Z</time></trkpt><trkpt lat="45.5699301" lon="11.9282165"><ele>21.0</ele><time>2026-05-02T12:51:32.662Z</time></trkpt><trkpt lat="45.5700303" lon="11.9282649"><ele>21.0</ele><time>2026-05-02T12:51:34.656Z</time></trkpt><trkpt lat="45.570129" lon="11.9283173"><ele>21.0</ele><time>2026-05-02T12:51:36.659Z</time></trkpt><trkpt lat="45.5702377" lon="11.9283628"><ele>21.0</ele><time>2026-05-02T12:51:38.658Z</time></trkpt><trkpt lat="45.5703421" lon="11.9284112"><ele>21.0</ele><time>2026-05-02T12:51:40.652Z</time></trkpt><trkpt lat="45.5704404" lon="11.9284507"><ele>21.200000000000003</ele><time>2026-05-02T12:51:42.65Z</time></trkpt><trkpt lat="45.5705407" lon="11.9284806"><ele>21.400000000000002</ele><time>2026-05-02T12:51:44.657Z</time></trkpt><trkpt lat="45.5706454" lon="11.9285162"><ele>21.6</ele><time>2026-05-02T12:51:46.649Z</time></trkpt><trkpt lat="45.570747" lon="11.9285558"><ele>21.8</ele><time>2026-05-02T12:51:48.653Z</time></trkpt><trkpt lat="45.5708453" lon="11.9286053"><ele>22.0</ele><time>2026-05-02T12:51:50.646Z</time></trkpt><trkpt lat="45.5709337" lon="11.9286733"><ele>22.0</ele><time>2026-05-02T12:51:52.654Z</time></trkpt><trkpt lat="45.5710222" lon="11.9287368"><ele>22.0</ele><time>2026-05-02T12:51:54.655Z</time></trkpt><trkpt lat="45.571116" lon="11.9287989"><ele>22.0</ele><time>2026-05-02T12:51:56.654Z</time></trkpt><trkpt lat="45.5712065" lon="11.9288591"><ele>22.0</ele><time>2026-05-02T12:51:58.656Z</time></trkpt><trkpt lat="45.5712903" lon="11.9289104"><ele>22.0</ele><time>2026-05-02T12:52:00.657Z</time></trkpt><trkpt lat="45.5713611" lon="11.9289681"><ele>21.857142857142858</ele><time>2026-05-02T12:52:02.653Z</time></trkpt><trkpt lat="45.5714403" lon="11.9290113"><ele>21.714285714285715</ele><time>2026-05-02T12:52:04.652Z</time></trkpt><trkpt lat="45.5715186" lon="11.9290566"><ele>21.57142857142857</ele><time>2026-05-02T12:52:06.654Z</time></trkpt><trkpt lat="45.5715781" lon="11.9290969"><ele>21.42857142857143</ele><time>2026-05-02T12:52:08.653Z</time></trkpt><trkpt lat="45.5716457" lon="11.9291306"><ele>21.285714285714285</ele><time>2026-05-02T12:52:10.656Z</time></trkpt><trkpt lat="45.5717041" lon="11.9291682"><ele>21.142857142857142</ele><time>2026-05-02T12:52:12.657Z</time></trkpt><trkpt lat="45.5717625" lon="11.9292163"><ele>21.0</ele><time>2026-05-02T12:52:14.651Z</time></trkpt><trkpt lat="45.5718315" lon="11.9292491"><ele>21.333333333333332</ele><time>2026-05-02T12:52:16.65Z</time></trkpt><trkpt lat="45.5719164" lon="11.9292904"><ele>21.666666666666668</ele><time>2026-05-02T12:52:18.653Z</time></trkpt><trkpt lat="45.5720115" lon="11.9293584"><ele>22.0</ele><time>2026-05-02T12:52:20.653Z</time></trkpt><trkpt lat="45.572089" lon="11.9294178"><ele>22.333333333333336</ele><time>2026-05-02T12:52:22.659Z</time></trkpt><trkpt lat="45.5721679" lon="11.9294531"><ele>22.666666666666668</ele><time>2026-05-02T12:52:24.663Z</time></trkpt><trkpt lat="45.572235" lon="11.9294431"><ele>23.0</ele><time>2026-05-02T12:52:26.656Z</time></trkpt><trkpt lat="45.5723235" lon="11.9293976"><ele>23.2</ele><time>2026-05-02T12:52:29.652Z</time></trkpt><trkpt lat="45.5723933" lon="11.929417"><ele>23.4</ele><time>2026-05-02T12:52:31.652Z</time></trkpt><trkpt lat="45.5724767" lon="11.9294769"><ele>23.599999999999998</ele><time>2026-05-02T12:52:33.657Z</time></trkpt><trkpt lat="45.572576" lon="11.9294931"><ele>23.799999999999997</ele><time>2026-05-02T12:52:35.654Z</time></trkpt><trkpt lat="45.5726776" lon="11.9295083"><ele>24.0</ele><time>2026-05-02T12:52:37.659Z</time></trkpt><trkpt lat="45.5727694" lon="11.9295153"><ele>24.0</ele><time>2026-05-02T12:52:39.654Z</time></trkpt><trkpt lat="45.5728444" lon="11.9295035"><ele>24.0</ele><time>2026-05-02T12:52:41.657Z</time></trkpt><trkpt lat="45.5729284" lon="11.9294891"><ele>24.0</ele><time>2026-05-02T12:52:44.661Z</time></trkpt><trkpt lat="45.5730244" lon="11.9294757"><ele>24.0</ele><time>2026-05-02T12:52:47.656Z</time></trkpt><trkpt lat="45.5730891" lon="11.9295064"><ele>24.0</ele><time>2026-05-02T12:52:49.65Z</time></trkpt><trkpt lat="45.5731789" lon="11.9295265"><ele>24.0</ele><time>2026-05-02T12:52:52.655Z</time></trkpt><trkpt lat="45.573251" lon="11.9295181"><ele>23.833333333333332</ele><time>2026-05-02T12:52:54.662Z</time></trkpt><trkpt lat="45.573321" lon="11.9294812"><ele>23.666666666666668</ele><time>2026-05-02T12:52:56.647Z</time></trkpt><trkpt lat="45.5734179" lon="11.9294499"><ele>23.5</ele><time>2026-05-02T12:52:58.655Z</time></trkpt><trkpt lat="45.5734994" lon="11.9294341"><ele>23.333333333333336</ele><time>2026-05-02T12:53:00.661Z</time></trkpt><trkpt lat="45.5735818" lon="11.9294401"><ele>23.166666666666668</ele><time>2026-05-02T12:53:03.659Z</time></trkpt><trkpt lat="45.5736667" lon="11.9295058"><ele>23.0</ele><time>2026-05-02T12:53:06.651Z</time></trkpt><trkpt lat="45.5737385" lon="11.9295876"><ele>23.0</ele><time>2026-05-02T12:53:08.657Z</time></trkpt><trkpt lat="45.5737934" lon="11.9296825"><ele>23.0</ele><time>2026-05-02T12:53:10.657Z</time></trkpt><trkpt lat="45.5738279" lon="11.9297957"><ele>23.0</ele><time>2026-05-02T12:53:13.651Z</time></trkpt><trkpt lat="45.5738265" lon="11.9298873"><ele>23.0</ele><time>2026-05-02T12:53:16.648Z</time></trkpt><trkpt lat="45.5738747" lon="11.9299463"><ele>23.0</ele><time>2026-05-02T12:53:20.651Z</time></trkpt><trkpt lat="45.5739473" lon="11.9299694"><ele>23.0</ele><time>2026-05-02T12:53:24.666Z</time></trkpt><trkpt lat="45.5740251" lon="11.9299853"><ele>23.0</ele><time>2026-05-02T12:53:26.654Z</time></trkpt><trkpt lat="45.5741101" lon="11.929994"><ele>23.0</ele><time>2026-05-02T12:53:29.658Z</time></trkpt><trkpt lat="45.5741837" lon="11.9300129"><ele>23.0</ele><time>2026-05-02T12:53:33.655Z</time></trkpt><trkpt lat="45.5741162" lon="11.9300184"><ele>23.0</ele><time>2026-05-02T12:53:40.66Z</time></trkpt><trkpt lat="45.5740424" lon="11.9300168"><ele>23.0</ele><time>2026-05-02T12:53:43.65Z</time></trkpt><trkpt lat="45.5739765" lon="11.9300366"><ele>23.0</ele><time>2026-05-02T12:53:49.654Z</time></trkpt><trkpt lat="45.5739664" lon="11.9301567"><ele>23.0</ele><time>2026-05-02T12:53:52.655Z</time></trkpt><trkpt lat="45.5739675" lon="11.9302608"><ele>23.0</ele><time>2026-05-02T12:53:54.658Z</time></trkpt><trkpt lat="45.573947" lon="11.9303636"><ele>23.0</ele><time>2026-05-02T12:53:57.65Z</time></trkpt><trkpt lat="45.5739344" lon="11.9304676"><ele>23.0</ele><time>2026-05-02T12:54:01.65Z</time></trkpt><trkpt lat="45.5738492" lon="11.9307887"><ele>23.0</ele><time>2026-05-02T12:54:10.648Z</time></trkpt><trkpt lat="45.5739295" lon="11.9308622"><ele>23.0</ele><time>2026-05-02T12:54:13.652Z</time></trkpt><trkpt lat="45.5740011" lon="11.9308993"><ele>23.0</ele><time>2026-05-02T12:54:19.655Z</time></trkpt><trkpt lat="45.5739361" lon="11.9308804"><ele>23.0</ele><time>2026-05-02T12:54:34.656Z</time></trkpt><trkpt lat="45.5738553" lon="11.9308436"><ele>23.0</ele><time>2026-05-02T12:54:37.653Z</time></trkpt><trkpt lat="45.5737888" lon="11.9307959"><ele>23.0</ele><time>2026-05-02T12:54:40.653Z</time></trkpt><trkpt lat="45.5737456" lon="11.9307292"><ele>23.0</ele><time>2026-05-02T12:54:44.653Z</time></trkpt><trkpt lat="45.5737833" lon="11.9306495"><ele>23.0</ele><time>2026-05-02T12:54:50.657Z</time></trkpt><trkpt lat="45.5738551" lon="11.9306595"><ele>23.0</ele><time>2026-05-02T12:54:52.653Z</time></trkpt><trkpt lat="45.5739271" lon="11.9306939"><ele>23.0</ele><time>2026-05-02T12:54:55.655Z</time></trkpt><trkpt lat="45.5740087" lon="11.9307128"><ele>23.0</ele><time>2026-05-02T12:54:59.645Z</time></trkpt><trkpt lat="45.574088" lon="11.9307489"><ele>23.0</ele><time>2026-05-02T12:55:03.66Z</time></trkpt><trkpt lat="45.574178" lon="11.9307925"><ele>23.0</ele><time>2026-05-02T12:55:06.656Z</time></trkpt><trkpt lat="45.5742617" lon="11.9308343"><ele>23.0</ele><time>2026-05-02T12:55:08.655Z</time></trkpt><trkpt lat="45.5743496" lon="11.9308772"><ele>23.0</ele><time>2026-05-02T12:55:10.663Z</time></trkpt><trkpt lat="45.5744454" lon="11.9309243"><ele>23.0</ele><time>2026-05-02T12:55:12.653Z</time></trkpt><trkpt lat="45.5745369" lon="11.9309647"><ele>23.0</ele><time>2026-05-02T12:55:14.65Z</time></trkpt><trkpt lat="45.5746138" lon="11.9310026"><ele>22.833333333333336</ele><time>2026-05-02T12:55:16.647Z</time></trkpt><trkpt lat="45.5747015" lon="11.9310419"><ele>22.666666666666668</ele><time>2026-05-02T12:55:18.67Z</time></trkpt><trkpt lat="45.5747802" lon="11.9310807"><ele>22.5</ele><time>2026-05-02T12:55:20.658Z</time></trkpt><trkpt lat="45.5748528" lon="11.9311211"><ele>22.333333333333332</ele><time>2026-05-02T12:55:22.662Z</time></trkpt><trkpt lat="45.5749267" lon="11.9311422"><ele>22.166666666666664</ele><time>2026-05-02T12:55:24.657Z</time></trkpt><trkpt lat="45.5750033" lon="11.9311665"><ele>22.0</ele><time>2026-05-02T12:55:26.655Z</time></trkpt><trkpt lat="45.5750726" lon="11.9312047"><ele>22.0</ele><time>2026-05-02T12:55:28.661Z</time></trkpt><trkpt lat="45.5751514" lon="11.9312406"><ele>22.0</ele><time>2026-05-02T12:55:30.66Z</time></trkpt><trkpt lat="45.5752304" lon="11.931286"><ele>22.0</ele><time>2026-05-02T12:55:32.66Z</time></trkpt><trkpt lat="45.5753041" lon="11.931327"><ele>22.0</ele><time>2026-05-02T12:55:34.655Z</time></trkpt><trkpt lat="45.5753906" lon="11.9313614"><ele>22.0</ele><time>2026-05-02T12:55:36.646Z</time></trkpt><trkpt lat="45.5754759" lon="11.9313928"><ele>22.0</ele><time>2026-05-02T12:55:38.657Z</time></trkpt><trkpt lat="45.5755602" lon="11.9314209"><ele>22.0</ele><time>2026-05-02T12:55:40.656Z</time></trkpt><trkpt lat="45.5756463" lon="11.9314566"><ele>22.0</ele><time>2026-05-02T12:55:42.659Z</time></trkpt><trkpt lat="45.5757357" lon="11.9314932"><ele>22.0</ele><time>2026-05-02T12:55:44.651Z</time></trkpt><trkpt lat="45.5758284" lon="11.9315444"><ele>22.0</ele><time>2026-05-02T12:55:46.646Z</time></trkpt><trkpt lat="45.5759315" lon="11.9315841"><ele>22.0</ele><time>2026-05-02T12:55:48.651Z</time></trkpt><trkpt lat="45.5760271" lon="11.9316326"><ele>22.0</ele><time>2026-05-02T12:55:50.661Z</time></trkpt><trkpt lat="45.5761335" lon="11.9316739"><ele>22.0</ele><time>2026-05-02T12:55:52.651Z</time></trkpt><trkpt lat="45.5762386" lon="11.9317159"><ele>22.0</ele><time>2026-05-02T12:55:54.66Z</time></trkpt><trkpt lat="45.5763299" lon="11.9317543"><ele>22.0</ele><time>2026-05-02T12:55:56.656Z</time></trkpt><trkpt lat="45.5764297" lon="11.9317966"><ele>22.0</ele><time>2026-05-02T12:55:58.653Z</time></trkpt><trkpt lat="45.5765272" lon="11.9318453"><ele>22.0</ele><time>2026-05-02T12:56:00.654Z</time></trkpt><trkpt lat="45.5766283" lon="11.9318854"><ele>22.0</ele><time>2026-05-02T12:56:02.659Z</time></trkpt><trkpt lat="45.576721" lon="11.9319299"><ele>22.0</ele><time>2026-05-02T12:56:04.656Z</time></trkpt><trkpt lat="45.5768114" lon="11.9319621"><ele>22.0</ele><time>2026-05-02T12:56:06.654Z</time></trkpt><trkpt lat="45.5768888" lon="11.9319981"><ele>22.0</ele><time>2026-05-02T12:56:08.654Z</time></trkpt><trkpt lat="45.5769581" lon="11.93203"><ele>21.833333333333332</ele><time>2026-05-02T12:56:10.649Z</time></trkpt><trkpt lat="45.5770411" lon="11.9320788"><ele>21.666666666666664</ele><time>2026-05-02T12:56:13.638Z</time></trkpt><trkpt lat="45.5771157" lon="11.9321148"><ele>21.5</ele><time>2026-05-02T12:56:15.654Z</time></trkpt><trkpt lat="45.5771964" lon="11.9321417"><ele>21.333333333333332</ele><time>2026-05-02T12:56:17.661Z</time></trkpt><trkpt lat="45.5772851" lon="11.93218"><ele>21.166666666666668</ele><time>2026-05-02T12:56:19.654Z</time></trkpt><trkpt lat="45.5773641" lon="11.9322003"><ele>21.0</ele><time>2026-05-02T12:56:21.657Z</time></trkpt><trkpt lat="45.5774381" lon="11.9322161"><ele>21.0</ele><time>2026-05-02T12:56:23.651Z</time></trkpt><trkpt lat="45.5775027" lon="11.932236"><ele>21.0</ele><time>2026-05-02T12:56:25.663Z</time></trkpt><trkpt lat="45.5775616" lon="11.9322813"><ele>21.0</ele><time>2026-05-02T12:56:27.653Z</time></trkpt><trkpt lat="45.5776019" lon="11.9323598"><ele>21.0</ele><time>2026-05-02T12:56:29.665Z</time></trkpt><trkpt lat="45.5776564" lon="11.9324589"><ele>21.0</ele><time>2026-05-02T12:56:32.654Z</time></trkpt><trkpt lat="45.5777088" lon="11.9325364"><ele>21.0</ele><time>2026-05-02T12:56:35.65Z</time></trkpt><trkpt lat="45.5777845" lon="11.9326103"><ele>21.166666666666668</ele><time>2026-05-02T12:56:38.626Z</time></trkpt><trkpt lat="45.577865" lon="11.9326515"><ele>21.333333333333332</ele><time>2026-05-02T12:56:40.639Z</time></trkpt><trkpt lat="45.5779474" lon="11.9327276"><ele>21.5</ele><time>2026-05-02T12:56:42.661Z</time></trkpt><trkpt lat="45.5780375" lon="11.9327933"><ele>21.666666666666664</ele><time>2026-05-02T12:56:44.663Z</time></trkpt><trkpt lat="45.5781099" lon="11.9328492"><ele>21.833333333333332</ele><time>2026-05-02T12:56:46.655Z</time></trkpt><trkpt lat="45.5781651" lon="11.932911"><ele>22.0</ele><time>2026-05-02T12:56:48.632Z</time></trkpt><trkpt lat="45.5782237" lon="11.9329672"><ele>22.0</ele><time>2026-05-02T12:56:50.657Z</time></trkpt><trkpt lat="45.5782949" lon="11.9330238"><ele>22.0</ele><time>2026-05-02T12:56:52.654Z</time></trkpt><trkpt lat="45.5783837" lon="11.9330854"><ele>22.0</ele><time>2026-05-02T12:56:54.653Z</time></trkpt><trkpt lat="45.5784603" lon="11.9331544"><ele>22.0</ele><time>2026-05-02T12:56:56.658Z</time></trkpt><trkpt lat="45.5785498" lon="11.9332373"><ele>22.0</ele><time>2026-05-02T12:56:58.656Z</time></trkpt><trkpt lat="45.5786298" lon="11.9333212"><ele>21.6</ele><time>2026-05-02T12:57:00.66Z</time></trkpt><trkpt lat="45.5787061" lon="11.9333983"><ele>21.200000000000003</ele><time>2026-05-02T12:57:02.657Z</time></trkpt><trkpt lat="45.5787744" lon="11.9334776"><ele>20.8</ele><time>2026-05-02T12:57:04.655Z</time></trkpt><trkpt lat="45.5788573" lon="11.9335658"><ele>20.4</ele><time>2026-05-02T12:57:06.659Z</time></trkpt><trkpt lat="45.5789279" lon="11.9336398"><ele>20.0</ele><time>2026-05-02T12:57:08.654Z</time></trkpt><trkpt lat="45.5789881" lon="11.933718"><ele>20.0</ele><time>2026-05-02T12:57:10.655Z</time></trkpt><trkpt lat="45.5790557" lon="11.9337877"><ele>20.0</ele><time>2026-05-02T12:57:12.656Z</time></trkpt><trkpt lat="45.5791155" lon="11.9338606"><ele>20.0</ele><time>2026-05-02T12:57:14.66Z</time></trkpt><trkpt lat="45.57918" lon="11.9339379"><ele>20.0</ele><time>2026-05-02T12:57:16.658Z</time></trkpt><trkpt lat="45.579242" lon="11.9339907"><ele>20.0</ele><time>2026-05-02T12:57:18.66Z</time></trkpt><trkpt lat="45.5793118" lon="11.9340467"><ele>20.0</ele><time>2026-05-02T12:57:20.652Z</time></trkpt><trkpt lat="45.5793727" lon="11.9341141"><ele>20.0</ele><time>2026-05-02T12:57:22.652Z</time></trkpt><trkpt lat="45.5794382" lon="11.9342033"><ele>20.0</ele><time>2026-05-02T12:57:24.658Z</time></trkpt><trkpt lat="45.579503" lon="11.9342811"><ele>20.0</ele><time>2026-05-02T12:57:26.641Z</time></trkpt><trkpt lat="45.579569" lon="11.934359"><ele>20.0</ele><time>2026-05-02T12:57:28.66Z</time></trkpt><trkpt lat="45.5796237" lon="11.9344345"><ele>20.0</ele><time>2026-05-02T12:57:30.639Z</time></trkpt><trkpt lat="45.5796767" lon="11.9345129"><ele>20.0</ele><time>2026-05-02T12:57:32.656Z</time></trkpt><trkpt lat="45.5797341" lon="11.9345899"><ele>20.333333333333336</ele><time>2026-05-02T12:57:34.651Z</time></trkpt><trkpt lat="45.5797909" lon="11.9346841"><ele>20.666666666666668</ele><time>2026-05-02T12:57:36.657Z</time></trkpt><trkpt lat="45.5798563" lon="11.9347612"><ele>21.0</ele><time>2026-05-02T12:57:38.66Z</time></trkpt><trkpt lat="45.5799204" lon="11.934849"><ele>21.333333333333332</ele><time>2026-05-02T12:57:40.651Z</time></trkpt><trkpt lat="45.5799835" lon="11.9349309"><ele>21.666666666666664</ele><time>2026-05-02T12:57:42.655Z</time></trkpt><trkpt lat="45.5800393" lon="11.9350259"><ele>22.0</ele><time>2026-05-02T12:57:44.651Z</time></trkpt><trkpt lat="45.5801044" lon="11.9351229"><ele>22.0</ele><time>2026-05-02T12:57:46.655Z</time></trkpt><trkpt lat="45.5801647" lon="11.9352227"><ele>22.0</ele><time>2026-05-02T12:57:48.662Z</time></trkpt><trkpt lat="45.5802238" lon="11.9353196"><ele>22.0</ele><time>2026-05-02T12:57:50.655Z</time></trkpt><trkpt lat="45.5802839" lon="11.9354138"><ele>22.0</ele><time>2026-05-02T12:57:52.646Z</time></trkpt><trkpt lat="45.580344" lon="11.935505"><ele>22.0</ele><time>2026-05-02T12:57:54.663Z</time></trkpt><trkpt lat="45.5804151" lon="11.9356062"><ele>22.0</ele><time>2026-05-02T12:57:56.645Z</time></trkpt><trkpt lat="45.5804758" lon="11.9357061"><ele>22.0</ele><time>2026-05-02T12:57:58.654Z</time></trkpt><trkpt lat="45.5805247" lon="11.9357987"><ele>22.0</ele><time>2026-05-02T12:58:00.655Z</time></trkpt><trkpt lat="45.5805691" lon="11.935889"><ele>22.0</ele><time>2026-05-02T12:58:02.658Z</time></trkpt><trkpt lat="45.5806192" lon="11.9359837"><ele>22.0</ele><time>2026-05-02T12:58:04.658Z</time></trkpt><trkpt lat="45.5806739" lon="11.9360944"><ele>22.0</ele><time>2026-05-02T12:58:06.662Z</time></trkpt><trkpt lat="45.580733" lon="11.9362018"><ele>22.200000000000003</ele><time>2026-05-02T12:58:08.66Z</time></trkpt><trkpt lat="45.5808102" lon="11.9363098"><ele>22.4</ele><time>2026-05-02T12:58:10.65Z</time></trkpt><trkpt lat="45.580884" lon="11.9363979"><ele>22.6</ele><time>2026-05-02T12:58:12.657Z</time></trkpt><trkpt lat="45.580973" lon="11.9365025"><ele>22.799999999999997</ele><time>2026-05-02T12:58:14.658Z</time></trkpt><trkpt lat="45.581026" lon="11.9365873"><ele>23.0</ele><time>2026-05-02T12:58:15.654Z</time></trkpt><trkpt lat="45.581069" lon="11.9366613"><ele>22.666666666666668</ele><time>2026-05-02T12:58:16.639Z</time></trkpt><trkpt lat="45.5811058" lon="11.936738"><ele>22.333333333333336</ele><time>2026-05-02T12:58:17.655Z</time></trkpt><trkpt lat="45.5811404" lon="11.9368242"><ele>22.0</ele><time>2026-05-02T12:58:18.657Z</time></trkpt><trkpt lat="45.5811744" lon="11.9369033"><ele>21.666666666666668</ele><time>2026-05-02T12:58:19.655Z</time></trkpt><trkpt lat="45.5812075" lon="11.9369807"><ele>21.333333333333332</ele><time>2026-05-02T12:58:20.654Z</time></trkpt><trkpt lat="45.5812713" lon="11.9371307"><ele>21.0</ele><time>2026-05-02T12:58:22.652Z</time></trkpt><trkpt lat="45.5813306" lon="11.9372761"><ele>21.0</ele><time>2026-05-02T12:58:24.658Z</time></trkpt><trkpt lat="45.5813854" lon="11.9374289"><ele>21.0</ele><time>2026-05-02T12:58:26.639Z</time></trkpt><trkpt lat="45.5814455" lon="11.9375695"><ele>21.0</ele><time>2026-05-02T12:58:28.646Z</time></trkpt><trkpt lat="45.5814998" lon="11.93771"><ele>21.0</ele><time>2026-05-02T12:58:30.645Z</time></trkpt><trkpt lat="45.5815535" lon="11.937842"><ele>21.333333333333332</ele><time>2026-05-02T12:58:32.65Z</time></trkpt><trkpt lat="45.5816016" lon="11.9379745"><ele>21.666666666666668</ele><time>2026-05-02T12:58:34.654Z</time></trkpt><trkpt lat="45.5816519" lon="11.9380996"><ele>22.0</ele><time>2026-05-02T12:58:36.646Z</time></trkpt><trkpt lat="45.5816851" lon="11.9382133"><ele>22.333333333333336</ele><time>2026-05-02T12:58:38.657Z</time></trkpt><trkpt lat="45.5817281" lon="11.938304"><ele>22.666666666666668</ele><time>2026-05-02T12:58:40.634Z</time></trkpt><trkpt lat="45.5817662" lon="11.9384013"><ele>23.0</ele><time>2026-05-02T12:58:43.659Z</time></trkpt><trkpt lat="45.581815" lon="11.9384772"><ele>24.0</ele><time>2026-05-02T12:58:46.659Z</time></trkpt><trkpt lat="45.5818776" lon="11.938533"><ele>24.0</ele><time>2026-05-02T12:58:49.661Z</time></trkpt><trkpt lat="45.5819546" lon="11.9385347"><ele>24.0</ele><time>2026-05-02T12:58:52.65Z</time></trkpt><trkpt lat="45.5820235" lon="11.9385139"><ele>22.0</ele><time>2026-05-02T12:58:55.655Z</time></trkpt></trkseg></trk></gpx>